<?xml version="1.0" encoding="UTF-8" standalone="no" ?>
<gpx xmlns="http://www.topografix.com/GPX/1/1" xmlns:xsi="http://www.w3.org/2001/XMLSchema-instance" xsi:schemaLocation="http://www.topografix.com/GPX/1/1 http://www.topografix.com/GPX/1/1/gpx.xsd" version="1.1" creator="VisuGPX - https://www.visugpx.com">
  <metadata>
    <name>Beaumes-Grotte d'Ambrosis</name>
    <desc><![CDATA[Rando de [url=https://www.lerandonneurerrant.fr/2024/05/beaumes-de-venise.html]Beaumes[/url] à [url]Vacqueyras[/url] permettant de monter au vieux castrum de Beaumes de Venise, la crête de ma montagne des Courens, la Chapelle St Hilaire récemment restaurée et les grottes d'Ambrosi, habité il y a fort longtemps et de finir par la visite de Vacqueyras

➵ Départ de la [url]chapelle St Roch[/url] à Beaumes de Venise, réputé pour ses vins et surtout un vin blanc moelleux, visite du village puis monter jusqu'au pied de la montagne de Courens (suivre la trace) pour prendre un sentier sur la gauche balisé qui va monter jusqu'au [url=https://photos.app.goo.gl/kD95gUUMVSzUx1W3A]vieux castrum[/url], en cours de rénovation, ancien château du village de Beaumes, qui était à l'époque sur la crête de cette montagne des Courens, des traces d'habitation sont d'ailleurs encore visibles.
➵ Suivre la crête vers l'ouest qui offre de belles vues sur Beaumes de Venise au sud et vers le massif des Dentelles au nord. Passer devant la très belle [url=https://www.lerandonneurerrant.fr/2023/03/la-chapelle-st-hilaire.html]chapelle St Hilaire[/url] pour continuer jusqu'à un rétrécissement pour passer au nord et prendre de suite à gauche (vers l'est) un petit sentier peu visible qui longe le bas des grottes qui se succèdent, quelques traces de présence humaines : griffures dues à la taille, meules inachevées, meules cassées...
➵ Redescendre quand le sentier devient difficile sur la piste nord pour continuer sur le Gr de pays ses Dentelles jusqu'au village de Vacqueyras qu'il faut visiter, réputé également pour ses très bons vins.

Une variante est possible au niveau du rétrécissement pour descendre vers le sud par un sentier balisé en passant devant d'anciennes carrières jusqu'à la chapelle ND d'Aubune, construite suite à un voeu de Charles Martel.]]></desc>
  </metadata>
  <trk>
    <name><![CDATA[Beaumes-Grotte d'Ambrosis]]></name>
    <extensions>
      <line xmlns="http://www.topografix.com/GPX/gpx_style/0/2">
        <color>0000FF</color>
        <width>4</width>
      </line>
    </extensions>
    <trkseg>
      <trkpt lat="44.12035" lon="5.03087">
        <ele>135.19999694824</ele>
        <time>2019-03-23T07:20:29.000Z</time>
      </trkpt>
      <trkpt lat="44.12035" lon="5.03081">
        <ele>134.60000610352</ele>
        <time>2019-03-23T07:20:32.000Z</time>
      </trkpt>
      <trkpt lat="44.12037" lon="5.03064">
        <ele>134.39999389648</ele>
        <time>2019-03-23T07:20:41.000Z</time>
      </trkpt>
      <trkpt lat="44.12038" lon="5.03055">
        <ele>134.19999694824</ele>
        <time>2019-03-23T07:20:46.000Z</time>
      </trkpt>
      <trkpt lat="44.12038" lon="5.0305">
        <ele>133.80000305176</ele>
        <time>2019-03-23T07:20:50.000Z</time>
      </trkpt>
      <trkpt lat="44.12036" lon="5.0305">
        <ele>133.60000610352</ele>
        <time>2019-03-23T07:20:54.000Z</time>
      </trkpt>
      <trkpt lat="44.12034" lon="5.03052">
        <ele>133.80000305176</ele>
        <time>2019-03-23T07:20:56.000Z</time>
      </trkpt>
      <trkpt lat="44.12033" lon="5.03052">
        <ele>133.80000305176</ele>
        <time>2019-03-23T07:20:57.000Z</time>
      </trkpt>
      <trkpt lat="44.12032" lon="5.03053">
        <ele>134</ele>
        <time>2019-03-23T07:20:59.000Z</time>
      </trkpt>
      <trkpt lat="44.1203" lon="5.03052">
        <ele>134.19999694824</ele>
        <time>2019-03-23T07:21:03.000Z</time>
      </trkpt>
      <trkpt lat="44.12029" lon="5.03051">
        <ele>134.19999694824</ele>
        <time>2019-03-23T07:21:04.000Z</time>
      </trkpt>
      <trkpt lat="44.12028" lon="5.03048">
        <ele>134.19999694824</ele>
        <time>2019-03-23T07:21:06.000Z</time>
      </trkpt>
      <trkpt lat="44.12028" lon="5.03048">
        <ele>134.39999389648</ele>
        <time>2019-03-23T07:21:09.000Z</time>
      </trkpt>
      <trkpt lat="44.12025" lon="5.03045">
        <ele>134.80000305176</ele>
        <time>2019-03-23T07:21:15.000Z</time>
      </trkpt>
      <trkpt lat="44.12019" lon="5.0304">
        <ele>134.39999389648</ele>
        <time>2019-03-23T07:21:18.000Z</time>
      </trkpt>
      <trkpt lat="44.12017" lon="5.03036">
        <ele>134.39999389648</ele>
        <time>2019-03-23T07:21:27.000Z</time>
      </trkpt>
      <trkpt lat="44.12016" lon="5.03036">
        <ele>134.39999389648</ele>
        <time>2019-03-23T07:21:30.000Z</time>
      </trkpt>
      <trkpt lat="44.12015" lon="5.03035">
        <ele>134.19999694824</ele>
        <time>2019-03-23T07:21:34.000Z</time>
      </trkpt>
      <trkpt lat="44.12015" lon="5.03035">
        <ele>134.19999694824</ele>
        <time>2019-03-23T07:21:36.000Z</time>
      </trkpt>
      <trkpt lat="44.12015" lon="5.03035">
        <ele>134.19999694824</ele>
        <time>2019-03-23T07:21:37.000Z</time>
      </trkpt>
      <trkpt lat="44.12015" lon="5.03035">
        <ele>134.19999694824</ele>
        <time>2019-03-23T07:21:39.000Z</time>
      </trkpt>
      <trkpt lat="44.12015" lon="5.03036">
        <ele>134.19999694824</ele>
        <time>2019-03-23T07:21:47.000Z</time>
      </trkpt>
      <trkpt lat="44.12014" lon="5.03034">
        <ele>134.19999694824</ele>
        <time>2019-03-23T07:21:54.000Z</time>
      </trkpt>
      <trkpt lat="44.12017" lon="5.03035">
        <ele>134.19999694824</ele>
        <time>2019-03-23T07:22:03.000Z</time>
      </trkpt>
      <trkpt lat="44.12014" lon="5.03034">
        <ele>134.19999694824</ele>
        <time>2019-03-23T07:22:12.000Z</time>
      </trkpt>
      <trkpt lat="44.12006" lon="5.03035">
        <ele>134.39999389648</ele>
        <time>2019-03-23T07:22:20.000Z</time>
      </trkpt>
      <trkpt lat="44.12003" lon="5.03036">
        <ele>134.39999389648</ele>
        <time>2019-03-23T07:22:22.000Z</time>
      </trkpt>
      <trkpt lat="44.12" lon="5.03039">
        <ele>134.80000305176</ele>
        <time>2019-03-23T07:22:29.000Z</time>
      </trkpt>
      <trkpt lat="44.12" lon="5.0304">
        <ele>135</ele>
        <time>2019-03-23T07:22:32.000Z</time>
      </trkpt>
      <trkpt lat="44.12" lon="5.03045">
        <ele>135</ele>
        <time>2019-03-23T07:22:35.000Z</time>
      </trkpt>
      <trkpt lat="44.12003" lon="5.03051">
        <ele>134.80000305176</ele>
        <time>2019-03-23T07:22:39.000Z</time>
      </trkpt>
      <trkpt lat="44.12004" lon="5.03055">
        <ele>134.60000610352</ele>
        <time>2019-03-23T07:22:42.000Z</time>
      </trkpt>
      <trkpt lat="44.12004" lon="5.03056">
        <ele>134.60000610352</ele>
        <time>2019-03-23T07:22:43.000Z</time>
      </trkpt>
      <trkpt lat="44.12004" lon="5.0306">
        <ele>134.60000610352</ele>
        <time>2019-03-23T07:22:47.000Z</time>
      </trkpt>
      <trkpt lat="44.12005" lon="5.0306">
        <ele>135</ele>
        <time>2019-03-23T07:22:49.000Z</time>
      </trkpt>
      <trkpt lat="44.12005" lon="5.0306">
        <ele>135.19999694824</ele>
        <time>2019-03-23T07:22:51.000Z</time>
      </trkpt>
      <trkpt lat="44.12011" lon="5.03056">
        <ele>134.19999694824</ele>
        <time>2019-03-23T07:22:58.000Z</time>
      </trkpt>
      <trkpt lat="44.12018" lon="5.03057">
        <ele>134.39999389648</ele>
        <time>2019-03-23T07:23:04.000Z</time>
      </trkpt>
      <trkpt lat="44.12021" lon="5.03056">
        <ele>134.39999389648</ele>
        <time>2019-03-23T07:23:07.000Z</time>
      </trkpt>
      <trkpt lat="44.12029" lon="5.03051">
        <ele>133.80000305176</ele>
        <time>2019-03-23T07:23:15.000Z</time>
      </trkpt>
      <trkpt lat="44.12033" lon="5.03047">
        <ele>133.60000610352</ele>
        <time>2019-03-23T07:23:19.000Z</time>
      </trkpt>
      <trkpt lat="44.12045" lon="5.0304">
        <ele>133.80000305176</ele>
        <time>2019-03-23T07:23:29.000Z</time>
      </trkpt>
      <trkpt lat="44.12056" lon="5.03034">
        <ele>133.60000610352</ele>
        <time>2019-03-23T07:23:37.000Z</time>
      </trkpt>
      <trkpt lat="44.12057" lon="5.03034">
        <ele>133.60000610352</ele>
        <time>2019-03-23T07:23:38.000Z</time>
      </trkpt>
      <trkpt lat="44.12058" lon="5.03033">
        <ele>133.60000610352</ele>
        <time>2019-03-23T07:23:39.000Z</time>
      </trkpt>
      <trkpt lat="44.12065" lon="5.03029">
        <ele>133.39999389648</ele>
        <time>2019-03-23T07:23:46.000Z</time>
      </trkpt>
      <trkpt lat="44.12069" lon="5.03025">
        <ele>133.39999389648</ele>
        <time>2019-03-23T07:23:50.000Z</time>
      </trkpt>
      <trkpt lat="44.12071" lon="5.03024">
        <ele>133.39999389648</ele>
        <time>2019-03-23T07:23:52.000Z</time>
      </trkpt>
      <trkpt lat="44.12071" lon="5.03023">
        <ele>133.39999389648</ele>
        <time>2019-03-23T07:23:53.000Z</time>
      </trkpt>
      <trkpt lat="44.12075" lon="5.03019">
        <ele>133.39999389648</ele>
        <time>2019-03-23T07:24:03.000Z</time>
      </trkpt>
      <trkpt lat="44.12076" lon="5.03018">
        <ele>133.39999389648</ele>
        <time>2019-03-23T07:24:04.000Z</time>
      </trkpt>
      <trkpt lat="44.12077" lon="5.03017">
        <ele>133.39999389648</ele>
        <time>2019-03-23T07:24:05.000Z</time>
      </trkpt>
      <trkpt lat="44.12079" lon="5.03016">
        <ele>133.39999389648</ele>
        <time>2019-03-23T07:24:07.000Z</time>
      </trkpt>
      <trkpt lat="44.12092" lon="5.03012">
        <ele>133.19999694824</ele>
        <time>2019-03-23T07:24:17.000Z</time>
      </trkpt>
      <trkpt lat="44.12094" lon="5.03013">
        <ele>133.80000305176</ele>
        <time>2019-03-23T07:24:23.000Z</time>
      </trkpt>
      <trkpt lat="44.12094" lon="5.03013">
        <ele>133.80000305176</ele>
        <time>2019-03-23T07:24:24.000Z</time>
      </trkpt>
      <trkpt lat="44.12095" lon="5.03013">
        <ele>133.80000305176</ele>
        <time>2019-03-23T07:24:25.000Z</time>
      </trkpt>
      <trkpt lat="44.12096" lon="5.03013">
        <ele>133.80000305176</ele>
        <time>2019-03-23T07:24:26.000Z</time>
      </trkpt>
      <trkpt lat="44.121" lon="5.03011">
        <ele>133.60000610352</ele>
        <time>2019-03-23T07:24:30.000Z</time>
      </trkpt>
      <trkpt lat="44.12105" lon="5.03008">
        <ele>133.39999389648</ele>
        <time>2019-03-23T07:24:34.000Z</time>
      </trkpt>
      <trkpt lat="44.12107" lon="5.03008">
        <ele>133.39999389648</ele>
        <time>2019-03-23T07:24:35.000Z</time>
      </trkpt>
      <trkpt lat="44.1211" lon="5.03006">
        <ele>133.39999389648</ele>
        <time>2019-03-23T07:24:38.000Z</time>
      </trkpt>
      <trkpt lat="44.12113" lon="5.03003">
        <ele>133.60000610352</ele>
        <time>2019-03-23T07:24:42.000Z</time>
      </trkpt>
      <trkpt lat="44.12117" lon="5.03">
        <ele>133.60000610352</ele>
        <time>2019-03-23T07:24:45.000Z</time>
      </trkpt>
      <trkpt lat="44.12128" lon="5.02987">
        <ele>133.39999389648</ele>
        <time>2019-03-23T07:24:59.000Z</time>
      </trkpt>
      <trkpt lat="44.12129" lon="5.02986">
        <ele>133.60000610352</ele>
        <time>2019-03-23T07:25:01.000Z</time>
      </trkpt>
      <trkpt lat="44.12133" lon="5.02981">
        <ele>133.60000610352</ele>
        <time>2019-03-23T07:25:08.000Z</time>
      </trkpt>
      <trkpt lat="44.12143" lon="5.02965">
        <ele>134.60000610352</ele>
        <time>2019-03-23T07:25:19.000Z</time>
      </trkpt>
      <trkpt lat="44.12148" lon="5.02948">
        <ele>135</ele>
        <time>2019-03-23T07:25:29.000Z</time>
      </trkpt>
      <trkpt lat="44.12148" lon="5.02943">
        <ele>135.19999694824</ele>
        <time>2019-03-23T07:25:32.000Z</time>
      </trkpt>
      <trkpt lat="44.12146" lon="5.02935">
        <ele>135.39999389648</ele>
        <time>2019-03-23T07:25:36.000Z</time>
      </trkpt>
      <trkpt lat="44.12147" lon="5.02925">
        <ele>135.60000610352</ele>
        <time>2019-03-23T07:25:44.000Z</time>
      </trkpt>
      <trkpt lat="44.12144" lon="5.02908">
        <ele>136.19999694824</ele>
        <time>2019-03-23T07:25:54.000Z</time>
      </trkpt>
      <trkpt lat="44.12143" lon="5.02891">
        <ele>136.19999694824</ele>
        <time>2019-03-23T07:26:03.000Z</time>
      </trkpt>
      <trkpt lat="44.12145" lon="5.02889">
        <ele>136.19999694824</ele>
        <time>2019-03-23T07:26:05.000Z</time>
      </trkpt>
      <trkpt lat="44.12146" lon="5.02889">
        <ele>136.39999389648</ele>
        <time>2019-03-23T07:26:06.000Z</time>
      </trkpt>
      <trkpt lat="44.12144" lon="5.02883">
        <ele>137.19999694824</ele>
        <time>2019-03-23T07:26:12.000Z</time>
      </trkpt>
      <trkpt lat="44.12143" lon="5.02881">
        <ele>137.39999389648</ele>
        <time>2019-03-23T07:26:14.000Z</time>
      </trkpt>
      <trkpt lat="44.12142" lon="5.02879">
        <ele>137.39999389648</ele>
        <time>2019-03-23T07:26:20.000Z</time>
      </trkpt>
      <trkpt lat="44.12143" lon="5.02876">
        <ele>137.39999389648</ele>
        <time>2019-03-23T07:26:28.000Z</time>
      </trkpt>
      <trkpt lat="44.12144" lon="5.02875">
        <ele>137.39999389648</ele>
        <time>2019-03-23T07:26:29.000Z</time>
      </trkpt>
      <trkpt lat="44.12146" lon="5.02871">
        <ele>137.19999694824</ele>
        <time>2019-03-23T07:26:34.000Z</time>
      </trkpt>
      <trkpt lat="44.12148" lon="5.02866">
        <ele>137.39999389648</ele>
        <time>2019-03-23T07:26:40.000Z</time>
      </trkpt>
      <trkpt lat="44.1215" lon="5.02863">
        <ele>137.39999389648</ele>
        <time>2019-03-23T07:26:44.000Z</time>
      </trkpt>
      <trkpt lat="44.12151" lon="5.02861">
        <ele>137.19999694824</ele>
        <time>2019-03-23T07:26:46.000Z</time>
      </trkpt>
      <trkpt lat="44.12155" lon="5.02856">
        <ele>137.39999389648</ele>
        <time>2019-03-23T07:26:52.000Z</time>
      </trkpt>
      <trkpt lat="44.12157" lon="5.02856">
        <ele>137.60000610352</ele>
        <time>2019-03-23T07:26:55.000Z</time>
      </trkpt>
      <trkpt lat="44.12156" lon="5.02855">
        <ele>137.80000305176</ele>
        <time>2019-03-23T07:26:56.000Z</time>
      </trkpt>
      <trkpt lat="44.12159" lon="5.02851">
        <ele>137.80000305176</ele>
        <time>2019-03-23T07:27:01.000Z</time>
      </trkpt>
      <trkpt lat="44.12166" lon="5.0284">
        <ele>137.19999694824</ele>
        <time>2019-03-23T07:27:11.000Z</time>
      </trkpt>
      <trkpt lat="44.12171" lon="5.02841">
        <ele>137</ele>
        <time>2019-03-23T07:27:19.000Z</time>
      </trkpt>
      <trkpt lat="44.12172" lon="5.02851">
        <ele>137.80000305176</ele>
        <time>2019-03-23T07:27:27.000Z</time>
      </trkpt>
      <trkpt lat="44.12171" lon="5.02852">
        <ele>138</ele>
        <time>2019-03-23T07:27:28.000Z</time>
      </trkpt>
      <trkpt lat="44.1217" lon="5.02856">
        <ele>138.39999389648</ele>
        <time>2019-03-23T07:27:31.000Z</time>
      </trkpt>
      <trkpt lat="44.1217" lon="5.02859">
        <ele>139</ele>
        <time>2019-03-23T07:27:34.000Z</time>
      </trkpt>
      <trkpt lat="44.1217" lon="5.02861">
        <ele>139.19999694824</ele>
        <time>2019-03-23T07:27:37.000Z</time>
      </trkpt>
      <trkpt lat="44.12169" lon="5.02864">
        <ele>139.19999694824</ele>
        <time>2019-03-23T07:27:39.000Z</time>
      </trkpt>
      <trkpt lat="44.12169" lon="5.02866">
        <ele>139.19999694824</ele>
        <time>2019-03-23T07:27:40.000Z</time>
      </trkpt>
      <trkpt lat="44.12168" lon="5.02868">
        <ele>139</ele>
        <time>2019-03-23T07:27:41.000Z</time>
      </trkpt>
      <trkpt lat="44.12167" lon="5.02869">
        <ele>139</ele>
        <time>2019-03-23T07:27:42.000Z</time>
      </trkpt>
      <trkpt lat="44.12166" lon="5.02871">
        <ele>139</ele>
        <time>2019-03-23T07:27:44.000Z</time>
      </trkpt>
      <trkpt lat="44.12165" lon="5.02871">
        <ele>139</ele>
        <time>2019-03-23T07:27:45.000Z</time>
      </trkpt>
      <trkpt lat="44.12164" lon="5.02872">
        <ele>139</ele>
        <time>2019-03-23T07:27:46.000Z</time>
      </trkpt>
      <trkpt lat="44.12164" lon="5.02872">
        <ele>139.19999694824</ele>
        <time>2019-03-23T07:27:47.000Z</time>
      </trkpt>
      <trkpt lat="44.12164" lon="5.02872">
        <ele>139.19999694824</ele>
        <time>2019-03-23T07:27:48.000Z</time>
      </trkpt>
      <trkpt lat="44.12164" lon="5.02871">
        <ele>139.39999389648</ele>
        <time>2019-03-23T07:27:49.000Z</time>
      </trkpt>
      <trkpt lat="44.12164" lon="5.02869">
        <ele>139.39999389648</ele>
        <time>2019-03-23T07:27:52.000Z</time>
      </trkpt>
      <trkpt lat="44.12164" lon="5.02869">
        <ele>139.39999389648</ele>
        <time>2019-03-23T07:27:53.000Z</time>
      </trkpt>
      <trkpt lat="44.12164" lon="5.02869">
        <ele>139.39999389648</ele>
        <time>2019-03-23T07:27:55.000Z</time>
      </trkpt>
      <trkpt lat="44.12165" lon="5.02873">
        <ele>139.39999389648</ele>
        <time>2019-03-23T07:27:58.000Z</time>
      </trkpt>
      <trkpt lat="44.12166" lon="5.02878">
        <ele>139.39999389648</ele>
        <time>2019-03-23T07:28:02.000Z</time>
      </trkpt>
      <trkpt lat="44.12166" lon="5.0288">
        <ele>139.39999389648</ele>
        <time>2019-03-23T07:28:03.000Z</time>
      </trkpt>
      <trkpt lat="44.12167" lon="5.02889">
        <ele>140</ele>
        <time>2019-03-23T07:28:09.000Z</time>
      </trkpt>
      <trkpt lat="44.12168" lon="5.02892">
        <ele>140</ele>
        <time>2019-03-23T07:28:11.000Z</time>
      </trkpt>
      <trkpt lat="44.12168" lon="5.02896">
        <ele>140.19999694824</ele>
        <time>2019-03-23T07:28:13.000Z</time>
      </trkpt>
      <trkpt lat="44.12169" lon="5.02897">
        <ele>140.39999389648</ele>
        <time>2019-03-23T07:28:14.000Z</time>
      </trkpt>
      <trkpt lat="44.12169" lon="5.02898">
        <ele>140.39999389648</ele>
        <time>2019-03-23T07:28:15.000Z</time>
      </trkpt>
      <trkpt lat="44.12169" lon="5.029">
        <ele>140.39999389648</ele>
        <time>2019-03-23T07:28:16.000Z</time>
      </trkpt>
      <trkpt lat="44.12172" lon="5.0291">
        <ele>141</ele>
        <time>2019-03-23T07:28:23.000Z</time>
      </trkpt>
      <trkpt lat="44.12174" lon="5.02914">
        <ele>141.19999694824</ele>
        <time>2019-03-23T07:28:26.000Z</time>
      </trkpt>
      <trkpt lat="44.12175" lon="5.02917">
        <ele>141.39999389648</ele>
        <time>2019-03-23T07:28:29.000Z</time>
      </trkpt>
      <trkpt lat="44.12178" lon="5.0292">
        <ele>142</ele>
        <time>2019-03-23T07:28:33.000Z</time>
      </trkpt>
      <trkpt lat="44.1218" lon="5.0292">
        <ele>142.39999389648</ele>
        <time>2019-03-23T07:28:36.000Z</time>
      </trkpt>
      <trkpt lat="44.12181" lon="5.0292">
        <ele>142.60000610352</ele>
        <time>2019-03-23T07:28:37.000Z</time>
      </trkpt>
      <trkpt lat="44.12181" lon="5.0292">
        <ele>142.39999389648</ele>
        <time>2019-03-23T07:28:41.000Z</time>
      </trkpt>
      <trkpt lat="44.12183" lon="5.0292">
        <ele>142.39999389648</ele>
        <time>2019-03-23T07:28:44.000Z</time>
      </trkpt>
      <trkpt lat="44.12183" lon="5.02922">
        <ele>142.19999694824</ele>
        <time>2019-03-23T07:28:47.000Z</time>
      </trkpt>
      <trkpt lat="44.12183" lon="5.02923">
        <ele>142.19999694824</ele>
        <time>2019-03-23T07:28:48.000Z</time>
      </trkpt>
      <trkpt lat="44.12182" lon="5.02924">
        <ele>142.80000305176</ele>
        <time>2019-03-23T07:28:54.000Z</time>
      </trkpt>
      <trkpt lat="44.12181" lon="5.02925">
        <ele>142.80000305176</ele>
        <time>2019-03-23T07:28:56.000Z</time>
      </trkpt>
      <trkpt lat="44.12181" lon="5.02924">
        <ele>142.60000610352</ele>
        <time>2019-03-23T07:29:00.000Z</time>
      </trkpt>
      <trkpt lat="44.12186" lon="5.02923">
        <ele>143</ele>
        <time>2019-03-23T07:29:15.000Z</time>
      </trkpt>
      <trkpt lat="44.12192" lon="5.02921">
        <ele>143.60000610352</ele>
        <time>2019-03-23T07:29:19.000Z</time>
      </trkpt>
      <trkpt lat="44.12195" lon="5.02918">
        <ele>144.19999694824</ele>
        <time>2019-03-23T07:29:22.000Z</time>
      </trkpt>
      <trkpt lat="44.12197" lon="5.02916">
        <ele>144.39999389648</ele>
        <time>2019-03-23T07:29:24.000Z</time>
      </trkpt>
      <trkpt lat="44.12199" lon="5.02915">
        <ele>144.60000610352</ele>
        <time>2019-03-23T07:29:26.000Z</time>
      </trkpt>
      <trkpt lat="44.122" lon="5.02915">
        <ele>144.60000610352</ele>
        <time>2019-03-23T07:29:27.000Z</time>
      </trkpt>
      <trkpt lat="44.122" lon="5.02914">
        <ele>144.80000305176</ele>
        <time>2019-03-23T07:29:28.000Z</time>
      </trkpt>
      <trkpt lat="44.12201" lon="5.02915">
        <ele>145</ele>
        <time>2019-03-23T07:29:29.000Z</time>
      </trkpt>
      <trkpt lat="44.12201" lon="5.02915">
        <ele>145</ele>
        <time>2019-03-23T07:29:30.000Z</time>
      </trkpt>
      <trkpt lat="44.12202" lon="5.02914">
        <ele>145</ele>
        <time>2019-03-23T07:29:32.000Z</time>
      </trkpt>
      <trkpt lat="44.12203" lon="5.02914">
        <ele>145</ele>
        <time>2019-03-23T07:29:33.000Z</time>
      </trkpt>
      <trkpt lat="44.12204" lon="5.02912">
        <ele>145.19999694824</ele>
        <time>2019-03-23T07:29:35.000Z</time>
      </trkpt>
      <trkpt lat="44.12206" lon="5.0291">
        <ele>145.19999694824</ele>
        <time>2019-03-23T07:29:38.000Z</time>
      </trkpt>
      <trkpt lat="44.12209" lon="5.0291">
        <ele>145.19999694824</ele>
        <time>2019-03-23T07:29:41.000Z</time>
      </trkpt>
      <trkpt lat="44.1221" lon="5.02909">
        <ele>145.39999389648</ele>
        <time>2019-03-23T07:29:44.000Z</time>
      </trkpt>
      <trkpt lat="44.12211" lon="5.02909">
        <ele>145.60000610352</ele>
        <time>2019-03-23T07:29:47.000Z</time>
      </trkpt>
      <trkpt lat="44.12212" lon="5.02912">
        <ele>146.19999694824</ele>
        <time>2019-03-23T07:29:52.000Z</time>
      </trkpt>
      <trkpt lat="44.12213" lon="5.02911">
        <ele>146.19999694824</ele>
        <time>2019-03-23T07:29:53.000Z</time>
      </trkpt>
      <trkpt lat="44.12213" lon="5.02912">
        <ele>146</ele>
        <time>2019-03-23T07:29:56.000Z</time>
      </trkpt>
      <trkpt lat="44.12218" lon="5.02911">
        <ele>146</ele>
        <time>2019-03-23T07:30:02.000Z</time>
      </trkpt>
      <trkpt lat="44.12219" lon="5.02911">
        <ele>146.19999694824</ele>
        <time>2019-03-23T07:30:04.000Z</time>
      </trkpt>
      <trkpt lat="44.1222" lon="5.02911">
        <ele>146.19999694824</ele>
        <time>2019-03-23T07:30:05.000Z</time>
      </trkpt>
      <trkpt lat="44.1222" lon="5.02911">
        <ele>146.19999694824</ele>
        <time>2019-03-23T07:30:07.000Z</time>
      </trkpt>
      <trkpt lat="44.12222" lon="5.02911">
        <ele>146.39999389648</ele>
        <time>2019-03-23T07:30:11.000Z</time>
      </trkpt>
      <trkpt lat="44.12223" lon="5.02911">
        <ele>146.39999389648</ele>
        <time>2019-03-23T07:30:12.000Z</time>
      </trkpt>
      <trkpt lat="44.12225" lon="5.0291">
        <ele>146.80000305176</ele>
        <time>2019-03-23T07:30:16.000Z</time>
      </trkpt>
      <trkpt lat="44.12226" lon="5.0291">
        <ele>147.19999694824</ele>
        <time>2019-03-23T07:30:20.000Z</time>
      </trkpt>
      <trkpt lat="44.12227" lon="5.0291">
        <ele>147.19999694824</ele>
        <time>2019-03-23T07:30:22.000Z</time>
      </trkpt>
      <trkpt lat="44.1223" lon="5.02907">
        <ele>147.39999389648</ele>
        <time>2019-03-23T07:30:36.000Z</time>
      </trkpt>
      <trkpt lat="44.1223" lon="5.02901">
        <ele>147.19999694824</ele>
        <time>2019-03-23T07:30:39.000Z</time>
      </trkpt>
      <trkpt lat="44.12228" lon="5.02895">
        <ele>147.19999694824</ele>
        <time>2019-03-23T07:30:41.000Z</time>
      </trkpt>
      <trkpt lat="44.12226" lon="5.02883">
        <ele>146.80000305176</ele>
        <time>2019-03-23T07:30:48.000Z</time>
      </trkpt>
      <trkpt lat="44.12222" lon="5.0287">
        <ele>145.80000305176</ele>
        <time>2019-03-23T07:30:55.000Z</time>
      </trkpt>
      <trkpt lat="44.12217" lon="5.02865">
        <ele>145.60000610352</ele>
        <time>2019-03-23T07:31:03.000Z</time>
      </trkpt>
      <trkpt lat="44.12215" lon="5.02865">
        <ele>145.60000610352</ele>
        <time>2019-03-23T07:31:05.000Z</time>
      </trkpt>
      <trkpt lat="44.12213" lon="5.02861">
        <ele>145.39999389648</ele>
        <time>2019-03-23T07:31:08.000Z</time>
      </trkpt>
      <trkpt lat="44.12213" lon="5.02857">
        <ele>145.19999694824</ele>
        <time>2019-03-23T07:31:10.000Z</time>
      </trkpt>
      <trkpt lat="44.12209" lon="5.02851">
        <ele>144.80000305176</ele>
        <time>2019-03-23T07:31:13.000Z</time>
      </trkpt>
      <trkpt lat="44.12209" lon="5.0285">
        <ele>144.60000610352</ele>
        <time>2019-03-23T07:31:14.000Z</time>
      </trkpt>
      <trkpt lat="44.12209" lon="5.02836">
        <ele>143.60000610352</ele>
        <time>2019-03-23T07:31:23.000Z</time>
      </trkpt>
      <trkpt lat="44.12211" lon="5.02834">
        <ele>143.39999389648</ele>
        <time>2019-03-23T07:31:24.000Z</time>
      </trkpt>
      <trkpt lat="44.12213" lon="5.02835">
        <ele>143</ele>
        <time>2019-03-23T07:31:27.000Z</time>
      </trkpt>
      <trkpt lat="44.12214" lon="5.02841">
        <ele>143</ele>
        <time>2019-03-23T07:31:33.000Z</time>
      </trkpt>
      <trkpt lat="44.12214" lon="5.02842">
        <ele>143.19999694824</ele>
        <time>2019-03-23T07:31:34.000Z</time>
      </trkpt>
      <trkpt lat="44.12216" lon="5.02842">
        <ele>144.19999694824</ele>
        <time>2019-03-23T07:31:42.000Z</time>
      </trkpt>
      <trkpt lat="44.12219" lon="5.0284">
        <ele>144.39999389648</ele>
        <time>2019-03-23T07:31:44.000Z</time>
      </trkpt>
      <trkpt lat="44.12222" lon="5.0284">
        <ele>144.39999389648</ele>
        <time>2019-03-23T07:31:45.000Z</time>
      </trkpt>
      <trkpt lat="44.12224" lon="5.02839">
        <ele>144.60000610352</ele>
        <time>2019-03-23T07:31:46.000Z</time>
      </trkpt>
      <trkpt lat="44.12225" lon="5.02839">
        <ele>144.60000610352</ele>
        <time>2019-03-23T07:31:47.000Z</time>
      </trkpt>
      <trkpt lat="44.12227" lon="5.02837">
        <ele>144.80000305176</ele>
        <time>2019-03-23T07:31:49.000Z</time>
      </trkpt>
      <trkpt lat="44.12228" lon="5.02837">
        <ele>144.80000305176</ele>
        <time>2019-03-23T07:31:50.000Z</time>
      </trkpt>
      <trkpt lat="44.12227" lon="5.02835">
        <ele>145.19999694824</ele>
        <time>2019-03-23T07:31:54.000Z</time>
      </trkpt>
      <trkpt lat="44.12228" lon="5.02831">
        <ele>145.60000610352</ele>
        <time>2019-03-23T07:31:56.000Z</time>
      </trkpt>
      <trkpt lat="44.12229" lon="5.0283">
        <ele>145.80000305176</ele>
        <time>2019-03-23T07:31:57.000Z</time>
      </trkpt>
      <trkpt lat="44.12233" lon="5.02827">
        <ele>146.60000610352</ele>
        <time>2019-03-23T07:32:03.000Z</time>
      </trkpt>
      <trkpt lat="44.12235" lon="5.02827">
        <ele>146.60000610352</ele>
        <time>2019-03-23T07:32:05.000Z</time>
      </trkpt>
      <trkpt lat="44.12236" lon="5.02826">
        <ele>147.19999694824</ele>
        <time>2019-03-23T07:32:07.000Z</time>
      </trkpt>
      <trkpt lat="44.12237" lon="5.02825">
        <ele>147.39999389648</ele>
        <time>2019-03-23T07:32:08.000Z</time>
      </trkpt>
      <trkpt lat="44.12237" lon="5.02823">
        <ele>147.39999389648</ele>
        <time>2019-03-23T07:32:09.000Z</time>
      </trkpt>
      <trkpt lat="44.12237" lon="5.02819">
        <ele>147.80000305176</ele>
        <time>2019-03-23T07:32:13.000Z</time>
      </trkpt>
      <trkpt lat="44.12238" lon="5.02819">
        <ele>148.19999694824</ele>
        <time>2019-03-23T07:32:14.000Z</time>
      </trkpt>
      <trkpt lat="44.12242" lon="5.02817">
        <ele>149</ele>
        <time>2019-03-23T07:32:18.000Z</time>
      </trkpt>
      <trkpt lat="44.12243" lon="5.02816">
        <ele>150</ele>
        <time>2019-03-23T07:32:20.000Z</time>
      </trkpt>
      <trkpt lat="44.12244" lon="5.02816">
        <ele>150.19999694824</ele>
        <time>2019-03-23T07:32:21.000Z</time>
      </trkpt>
      <trkpt lat="44.12244" lon="5.02816">
        <ele>150.39999389648</ele>
        <time>2019-03-23T07:32:22.000Z</time>
      </trkpt>
      <trkpt lat="44.12246" lon="5.02815">
        <ele>150.60000610352</ele>
        <time>2019-03-23T07:32:23.000Z</time>
      </trkpt>
      <trkpt lat="44.12246" lon="5.02816">
        <ele>150.80000305176</ele>
        <time>2019-03-23T07:32:24.000Z</time>
      </trkpt>
      <trkpt lat="44.12247" lon="5.02816">
        <ele>150.80000305176</ele>
        <time>2019-03-23T07:32:26.000Z</time>
      </trkpt>
      <trkpt lat="44.12248" lon="5.02815">
        <ele>151</ele>
        <time>2019-03-23T07:32:28.000Z</time>
      </trkpt>
      <trkpt lat="44.12247" lon="5.02808">
        <ele>151.39999389648</ele>
        <time>2019-03-23T07:32:29.000Z</time>
      </trkpt>
      <trkpt lat="44.12248" lon="5.02805">
        <ele>151.80000305176</ele>
        <time>2019-03-23T07:32:30.000Z</time>
      </trkpt>
      <trkpt lat="44.12248" lon="5.02805">
        <ele>152.39999389648</ele>
        <time>2019-03-23T07:32:32.000Z</time>
      </trkpt>
      <trkpt lat="44.12248" lon="5.02806">
        <ele>152.60000610352</ele>
        <time>2019-03-23T07:32:33.000Z</time>
      </trkpt>
      <trkpt lat="44.12249" lon="5.02808">
        <ele>153</ele>
        <time>2019-03-23T07:32:35.000Z</time>
      </trkpt>
      <trkpt lat="44.12248" lon="5.02814">
        <ele>153.19999694824</ele>
        <time>2019-03-23T07:32:38.000Z</time>
      </trkpt>
      <trkpt lat="44.12248" lon="5.02817">
        <ele>153.39999389648</ele>
        <time>2019-03-23T07:32:39.000Z</time>
      </trkpt>
      <trkpt lat="44.12248" lon="5.02819">
        <ele>153.60000610352</ele>
        <time>2019-03-23T07:32:40.000Z</time>
      </trkpt>
      <trkpt lat="44.12247" lon="5.02824">
        <ele>154.19999694824</ele>
        <time>2019-03-23T07:32:43.000Z</time>
      </trkpt>
      <trkpt lat="44.12247" lon="5.02825">
        <ele>155</ele>
        <time>2019-03-23T07:32:45.000Z</time>
      </trkpt>
      <trkpt lat="44.12247" lon="5.02827">
        <ele>155.19999694824</ele>
        <time>2019-03-23T07:32:47.000Z</time>
      </trkpt>
      <trkpt lat="44.1225" lon="5.0283">
        <ele>155.19999694824</ele>
        <time>2019-03-23T07:32:56.000Z</time>
      </trkpt>
      <trkpt lat="44.1225" lon="5.02831">
        <ele>155.19999694824</ele>
        <time>2019-03-23T07:32:57.000Z</time>
      </trkpt>
      <trkpt lat="44.1225" lon="5.02831">
        <ele>155.19999694824</ele>
        <time>2019-03-23T07:32:58.000Z</time>
      </trkpt>
      <trkpt lat="44.1225" lon="5.02831">
        <ele>155.19999694824</ele>
        <time>2019-03-23T07:32:59.000Z</time>
      </trkpt>
      <trkpt lat="44.12251" lon="5.0283">
        <ele>155.19999694824</ele>
        <time>2019-03-23T07:33:00.000Z</time>
      </trkpt>
      <trkpt lat="44.12252" lon="5.02827">
        <ele>155.39999389648</ele>
        <time>2019-03-23T07:33:12.000Z</time>
      </trkpt>
      <trkpt lat="44.12252" lon="5.02826">
        <ele>155.39999389648</ele>
        <time>2019-03-23T07:33:13.000Z</time>
      </trkpt>
      <trkpt lat="44.12253" lon="5.02819">
        <ele>156</ele>
        <time>2019-03-23T07:33:19.000Z</time>
      </trkpt>
      <trkpt lat="44.12254" lon="5.02815">
        <ele>156.19999694824</ele>
        <time>2019-03-23T07:33:24.000Z</time>
      </trkpt>
      <trkpt lat="44.12254" lon="5.02814">
        <ele>156.39999389648</ele>
        <time>2019-03-23T07:33:35.000Z</time>
      </trkpt>
      <trkpt lat="44.12254" lon="5.02822">
        <ele>155.80000305176</ele>
        <time>2019-03-23T07:33:41.000Z</time>
      </trkpt>
      <trkpt lat="44.12254" lon="5.02823">
        <ele>155.80000305176</ele>
        <time>2019-03-23T07:33:42.000Z</time>
      </trkpt>
      <trkpt lat="44.12254" lon="5.02829">
        <ele>155.80000305176</ele>
        <time>2019-03-23T07:33:51.000Z</time>
      </trkpt>
      <trkpt lat="44.12256" lon="5.02829">
        <ele>156</ele>
        <time>2019-03-23T07:33:56.000Z</time>
      </trkpt>
      <trkpt lat="44.12257" lon="5.02828">
        <ele>156.19999694824</ele>
        <time>2019-03-23T07:34:00.000Z</time>
      </trkpt>
      <trkpt lat="44.12257" lon="5.02827">
        <ele>156.39999389648</ele>
        <time>2019-03-23T07:34:03.000Z</time>
      </trkpt>
      <trkpt lat="44.12257" lon="5.02827">
        <ele>156.39999389648</ele>
        <time>2019-03-23T07:34:04.000Z</time>
      </trkpt>
      <trkpt lat="44.12262" lon="5.02826">
        <ele>156.39999389648</ele>
        <time>2019-03-23T07:34:15.000Z</time>
      </trkpt>
      <trkpt lat="44.12263" lon="5.02826">
        <ele>157</ele>
        <time>2019-03-23T07:34:18.000Z</time>
      </trkpt>
      <trkpt lat="44.12265" lon="5.02824">
        <ele>158</ele>
        <time>2019-03-23T07:34:22.000Z</time>
      </trkpt>
      <trkpt lat="44.12265" lon="5.02822">
        <ele>158.60000610352</ele>
        <time>2019-03-23T07:34:24.000Z</time>
      </trkpt>
      <trkpt lat="44.12265" lon="5.02818">
        <ele>159</ele>
        <time>2019-03-23T07:34:27.000Z</time>
      </trkpt>
      <trkpt lat="44.12265" lon="5.02817">
        <ele>159.19999694824</ele>
        <time>2019-03-23T07:34:28.000Z</time>
      </trkpt>
      <trkpt lat="44.12264" lon="5.02815">
        <ele>159.80000305176</ele>
        <time>2019-03-23T07:34:31.000Z</time>
      </trkpt>
      <trkpt lat="44.12265" lon="5.02815">
        <ele>160</ele>
        <time>2019-03-23T07:34:32.000Z</time>
      </trkpt>
      <trkpt lat="44.12265" lon="5.02815">
        <ele>160.19999694824</ele>
        <time>2019-03-23T07:34:33.000Z</time>
      </trkpt>
      <trkpt lat="44.12264" lon="5.02813">
        <ele>160.39999389648</ele>
        <time>2019-03-23T07:34:35.000Z</time>
      </trkpt>
      <trkpt lat="44.12264" lon="5.02812">
        <ele>160.39999389648</ele>
        <time>2019-03-23T07:34:36.000Z</time>
      </trkpt>
      <trkpt lat="44.12264" lon="5.0281">
        <ele>160.39999389648</ele>
        <time>2019-03-23T07:34:37.000Z</time>
      </trkpt>
      <trkpt lat="44.12264" lon="5.02809">
        <ele>160.39999389648</ele>
        <time>2019-03-23T07:34:38.000Z</time>
      </trkpt>
      <trkpt lat="44.12264" lon="5.02807">
        <ele>160.60000610352</ele>
        <time>2019-03-23T07:34:40.000Z</time>
      </trkpt>
      <trkpt lat="44.12265" lon="5.02804">
        <ele>160.80000305176</ele>
        <time>2019-03-23T07:34:42.000Z</time>
      </trkpt>
      <trkpt lat="44.12266" lon="5.02802">
        <ele>161.39999389648</ele>
        <time>2019-03-23T07:34:45.000Z</time>
      </trkpt>
      <trkpt lat="44.12266" lon="5.02802">
        <ele>161.80000305176</ele>
        <time>2019-03-23T07:34:47.000Z</time>
      </trkpt>
      <trkpt lat="44.12266" lon="5.02802">
        <ele>162</ele>
        <time>2019-03-23T07:34:48.000Z</time>
      </trkpt>
      <trkpt lat="44.12266" lon="5.02803">
        <ele>162</ele>
        <time>2019-03-23T07:34:50.000Z</time>
      </trkpt>
      <trkpt lat="44.12266" lon="5.02803">
        <ele>162</ele>
        <time>2019-03-23T07:34:53.000Z</time>
      </trkpt>
      <trkpt lat="44.12266" lon="5.02803">
        <ele>162</ele>
        <time>2019-03-23T07:34:55.000Z</time>
      </trkpt>
      <trkpt lat="44.12268" lon="5.02801">
        <ele>162</ele>
        <time>2019-03-23T07:34:58.000Z</time>
      </trkpt>
      <trkpt lat="44.12268" lon="5.02798">
        <ele>162</ele>
        <time>2019-03-23T07:35:01.000Z</time>
      </trkpt>
      <trkpt lat="44.12269" lon="5.02796">
        <ele>161.80000305176</ele>
        <time>2019-03-23T07:35:03.000Z</time>
      </trkpt>
      <trkpt lat="44.12268" lon="5.02791">
        <ele>161.80000305176</ele>
        <time>2019-03-23T07:35:08.000Z</time>
      </trkpt>
      <trkpt lat="44.12268" lon="5.02787">
        <ele>162.39999389648</ele>
        <time>2019-03-23T07:35:12.000Z</time>
      </trkpt>
      <trkpt lat="44.12268" lon="5.02787">
        <ele>162.60000610352</ele>
        <time>2019-03-23T07:35:13.000Z</time>
      </trkpt>
      <trkpt lat="44.12267" lon="5.02786">
        <ele>162.80000305176</ele>
        <time>2019-03-23T07:35:16.000Z</time>
      </trkpt>
      <trkpt lat="44.12266" lon="5.02785">
        <ele>163</ele>
        <time>2019-03-23T07:35:19.000Z</time>
      </trkpt>
      <trkpt lat="44.12266" lon="5.02783">
        <ele>163.19999694824</ele>
        <time>2019-03-23T07:35:24.000Z</time>
      </trkpt>
      <trkpt lat="44.12266" lon="5.02782">
        <ele>163.60000610352</ele>
        <time>2019-03-23T07:35:26.000Z</time>
      </trkpt>
      <trkpt lat="44.12266" lon="5.02782">
        <ele>163.80000305176</ele>
        <time>2019-03-23T07:35:27.000Z</time>
      </trkpt>
      <trkpt lat="44.12266" lon="5.02782">
        <ele>164</ele>
        <time>2019-03-23T07:35:30.000Z</time>
      </trkpt>
      <trkpt lat="44.12265" lon="5.02783">
        <ele>164</ele>
        <time>2019-03-23T07:35:33.000Z</time>
      </trkpt>
      <trkpt lat="44.12264" lon="5.02787">
        <ele>163.19999694824</ele>
        <time>2019-03-23T07:35:38.000Z</time>
      </trkpt>
      <trkpt lat="44.12264" lon="5.0279">
        <ele>162.60000610352</ele>
        <time>2019-03-23T07:35:41.000Z</time>
      </trkpt>
      <trkpt lat="44.12264" lon="5.02791">
        <ele>162.39999389648</ele>
        <time>2019-03-23T07:35:42.000Z</time>
      </trkpt>
      <trkpt lat="44.12264" lon="5.02792">
        <ele>162.19999694824</ele>
        <time>2019-03-23T07:35:43.000Z</time>
      </trkpt>
      <trkpt lat="44.12264" lon="5.02795">
        <ele>162</ele>
        <time>2019-03-23T07:35:45.000Z</time>
      </trkpt>
      <trkpt lat="44.12265" lon="5.02807">
        <ele>161.60000610352</ele>
        <time>2019-03-23T07:35:53.000Z</time>
      </trkpt>
      <trkpt lat="44.12265" lon="5.02809">
        <ele>161.39999389648</ele>
        <time>2019-03-23T07:35:54.000Z</time>
      </trkpt>
      <trkpt lat="44.12264" lon="5.02816">
        <ele>160.80000305176</ele>
        <time>2019-03-23T07:35:59.000Z</time>
      </trkpt>
      <trkpt lat="44.12264" lon="5.02817">
        <ele>160.60000610352</ele>
        <time>2019-03-23T07:36:00.000Z</time>
      </trkpt>
      <trkpt lat="44.12264" lon="5.02819">
        <ele>160.39999389648</ele>
        <time>2019-03-23T07:36:01.000Z</time>
      </trkpt>
      <trkpt lat="44.12264" lon="5.0282">
        <ele>160.19999694824</ele>
        <time>2019-03-23T07:36:02.000Z</time>
      </trkpt>
      <trkpt lat="44.12264" lon="5.02821">
        <ele>160</ele>
        <time>2019-03-23T07:36:03.000Z</time>
      </trkpt>
      <trkpt lat="44.12264" lon="5.02824">
        <ele>159.60000610352</ele>
        <time>2019-03-23T07:36:07.000Z</time>
      </trkpt>
      <trkpt lat="44.12262" lon="5.02827">
        <ele>159.80000305176</ele>
        <time>2019-03-23T07:36:17.000Z</time>
      </trkpt>
      <trkpt lat="44.1226" lon="5.02829">
        <ele>159.39999389648</ele>
        <time>2019-03-23T07:36:20.000Z</time>
      </trkpt>
      <trkpt lat="44.12258" lon="5.02829">
        <ele>158.39999389648</ele>
        <time>2019-03-23T07:36:23.000Z</time>
      </trkpt>
      <trkpt lat="44.12255" lon="5.02829">
        <ele>157.19999694824</ele>
        <time>2019-03-23T07:36:26.000Z</time>
      </trkpt>
      <trkpt lat="44.12254" lon="5.0283">
        <ele>156.80000305176</ele>
        <time>2019-03-23T07:36:27.000Z</time>
      </trkpt>
      <trkpt lat="44.12252" lon="5.02832">
        <ele>156.19999694824</ele>
        <time>2019-03-23T07:36:29.000Z</time>
      </trkpt>
      <trkpt lat="44.1225" lon="5.02836">
        <ele>155.60000610352</ele>
        <time>2019-03-23T07:36:32.000Z</time>
      </trkpt>
      <trkpt lat="44.12249" lon="5.02841">
        <ele>155.39999389648</ele>
        <time>2019-03-23T07:36:36.000Z</time>
      </trkpt>
      <trkpt lat="44.12249" lon="5.02844">
        <ele>155</ele>
        <time>2019-03-23T07:36:38.000Z</time>
      </trkpt>
      <trkpt lat="44.12249" lon="5.02847">
        <ele>154.80000305176</ele>
        <time>2019-03-23T07:36:40.000Z</time>
      </trkpt>
      <trkpt lat="44.12248" lon="5.02853">
        <ele>154</ele>
        <time>2019-03-23T07:36:44.000Z</time>
      </trkpt>
      <trkpt lat="44.12248" lon="5.02852">
        <ele>154</ele>
        <time>2019-03-23T07:36:45.000Z</time>
      </trkpt>
      <trkpt lat="44.12249" lon="5.02848">
        <ele>154.39999389648</ele>
        <time>2019-03-23T07:36:53.000Z</time>
      </trkpt>
      <trkpt lat="44.12248" lon="5.02846">
        <ele>155</ele>
        <time>2019-03-23T07:36:58.000Z</time>
      </trkpt>
      <trkpt lat="44.12249" lon="5.02845">
        <ele>155</ele>
        <time>2019-03-23T07:37:04.000Z</time>
      </trkpt>
      <trkpt lat="44.12249" lon="5.02845">
        <ele>155</ele>
        <time>2019-03-23T07:37:06.000Z</time>
      </trkpt>
      <trkpt lat="44.12248" lon="5.0285">
        <ele>154.60000610352</ele>
        <time>2019-03-23T07:37:16.000Z</time>
      </trkpt>
      <trkpt lat="44.12247" lon="5.02854">
        <ele>154</ele>
        <time>2019-03-23T07:37:20.000Z</time>
      </trkpt>
      <trkpt lat="44.12245" lon="5.02857">
        <ele>153.39999389648</ele>
        <time>2019-03-23T07:37:23.000Z</time>
      </trkpt>
      <trkpt lat="44.12244" lon="5.02861">
        <ele>152.80000305176</ele>
        <time>2019-03-23T07:37:25.000Z</time>
      </trkpt>
      <trkpt lat="44.12241" lon="5.02869">
        <ele>152.19999694824</ele>
        <time>2019-03-23T07:37:30.000Z</time>
      </trkpt>
      <trkpt lat="44.12241" lon="5.02871">
        <ele>151.80000305176</ele>
        <time>2019-03-23T07:37:32.000Z</time>
      </trkpt>
      <trkpt lat="44.12238" lon="5.02876">
        <ele>150.80000305176</ele>
        <time>2019-03-23T07:37:38.000Z</time>
      </trkpt>
      <trkpt lat="44.12236" lon="5.0288">
        <ele>150.19999694824</ele>
        <time>2019-03-23T07:37:41.000Z</time>
      </trkpt>
      <trkpt lat="44.12234" lon="5.02882">
        <ele>150</ele>
        <time>2019-03-23T07:37:43.000Z</time>
      </trkpt>
      <trkpt lat="44.12233" lon="5.02883">
        <ele>149.80000305176</ele>
        <time>2019-03-23T07:37:44.000Z</time>
      </trkpt>
      <trkpt lat="44.12227" lon="5.02889">
        <ele>148.60000610352</ele>
        <time>2019-03-23T07:37:51.000Z</time>
      </trkpt>
      <trkpt lat="44.12227" lon="5.0289">
        <ele>148.39999389648</ele>
        <time>2019-03-23T07:37:52.000Z</time>
      </trkpt>
      <trkpt lat="44.12226" lon="5.02891">
        <ele>148.39999389648</ele>
        <time>2019-03-23T07:37:53.000Z</time>
      </trkpt>
      <trkpt lat="44.12226" lon="5.02891">
        <ele>148.19999694824</ele>
        <time>2019-03-23T07:37:55.000Z</time>
      </trkpt>
      <trkpt lat="44.12225" lon="5.02891">
        <ele>148.19999694824</ele>
        <time>2019-03-23T07:37:56.000Z</time>
      </trkpt>
      <trkpt lat="44.12225" lon="5.02891">
        <ele>148.19999694824</ele>
        <time>2019-03-23T07:37:58.000Z</time>
      </trkpt>
      <trkpt lat="44.12225" lon="5.02891">
        <ele>148.19999694824</ele>
        <time>2019-03-23T07:38:02.000Z</time>
      </trkpt>
      <trkpt lat="44.12225" lon="5.02892">
        <ele>148.19999694824</ele>
        <time>2019-03-23T07:38:04.000Z</time>
      </trkpt>
      <trkpt lat="44.12225" lon="5.02892">
        <ele>148.19999694824</ele>
        <time>2019-03-23T07:38:05.000Z</time>
      </trkpt>
      <trkpt lat="44.12226" lon="5.02893">
        <ele>148.19999694824</ele>
        <time>2019-03-23T07:38:07.000Z</time>
      </trkpt>
      <trkpt lat="44.12228" lon="5.02895">
        <ele>148.19999694824</ele>
        <time>2019-03-23T07:38:10.000Z</time>
      </trkpt>
      <trkpt lat="44.12229" lon="5.02897">
        <ele>148.19999694824</ele>
        <time>2019-03-23T07:38:15.000Z</time>
      </trkpt>
      <trkpt lat="44.12232" lon="5.02904">
        <ele>147.80000305176</ele>
        <time>2019-03-23T07:38:24.000Z</time>
      </trkpt>
      <trkpt lat="44.12233" lon="5.02907">
        <ele>148</ele>
        <time>2019-03-23T07:38:26.000Z</time>
      </trkpt>
      <trkpt lat="44.12235" lon="5.02911">
        <ele>148.19999694824</ele>
        <time>2019-03-23T07:38:28.000Z</time>
      </trkpt>
      <trkpt lat="44.12237" lon="5.02914">
        <ele>148.60000610352</ele>
        <time>2019-03-23T07:38:30.000Z</time>
      </trkpt>
      <trkpt lat="44.12239" lon="5.02915">
        <ele>148.80000305176</ele>
        <time>2019-03-23T07:38:32.000Z</time>
      </trkpt>
      <trkpt lat="44.1224" lon="5.02916">
        <ele>149</ele>
        <time>2019-03-23T07:38:33.000Z</time>
      </trkpt>
      <trkpt lat="44.12239" lon="5.0292">
        <ele>149.60000610352</ele>
        <time>2019-03-23T07:38:35.000Z</time>
      </trkpt>
      <trkpt lat="44.12239" lon="5.02921">
        <ele>149.80000305176</ele>
        <time>2019-03-23T07:38:36.000Z</time>
      </trkpt>
      <trkpt lat="44.1224" lon="5.02923">
        <ele>150.19999694824</ele>
        <time>2019-03-23T07:38:38.000Z</time>
      </trkpt>
      <trkpt lat="44.12242" lon="5.02925">
        <ele>150.60000610352</ele>
        <time>2019-03-23T07:38:40.000Z</time>
      </trkpt>
      <trkpt lat="44.12243" lon="5.02926">
        <ele>150.60000610352</ele>
        <time>2019-03-23T07:38:41.000Z</time>
      </trkpt>
      <trkpt lat="44.12244" lon="5.02927">
        <ele>150.80000305176</ele>
        <time>2019-03-23T07:38:42.000Z</time>
      </trkpt>
      <trkpt lat="44.12245" lon="5.02927">
        <ele>151</ele>
        <time>2019-03-23T07:38:43.000Z</time>
      </trkpt>
      <trkpt lat="44.12246" lon="5.02928">
        <ele>151</ele>
        <time>2019-03-23T07:38:44.000Z</time>
      </trkpt>
      <trkpt lat="44.12247" lon="5.0293">
        <ele>151.19999694824</ele>
        <time>2019-03-23T07:38:45.000Z</time>
      </trkpt>
      <trkpt lat="44.12248" lon="5.0293">
        <ele>151.39999389648</ele>
        <time>2019-03-23T07:38:46.000Z</time>
      </trkpt>
      <trkpt lat="44.1225" lon="5.02932">
        <ele>151.80000305176</ele>
        <time>2019-03-23T07:38:48.000Z</time>
      </trkpt>
      <trkpt lat="44.12254" lon="5.02937">
        <ele>152.39999389648</ele>
        <time>2019-03-23T07:38:53.000Z</time>
      </trkpt>
      <trkpt lat="44.12255" lon="5.0294">
        <ele>152.60000610352</ele>
        <time>2019-03-23T07:38:55.000Z</time>
      </trkpt>
      <trkpt lat="44.12255" lon="5.02941">
        <ele>152.80000305176</ele>
        <time>2019-03-23T07:38:56.000Z</time>
      </trkpt>
      <trkpt lat="44.12255" lon="5.02949">
        <ele>153.39999389648</ele>
        <time>2019-03-23T07:39:01.000Z</time>
      </trkpt>
      <trkpt lat="44.12256" lon="5.02951">
        <ele>153.39999389648</ele>
        <time>2019-03-23T07:39:03.000Z</time>
      </trkpt>
      <trkpt lat="44.12258" lon="5.0296">
        <ele>153.39999389648</ele>
        <time>2019-03-23T07:39:09.000Z</time>
      </trkpt>
      <trkpt lat="44.1226" lon="5.02966">
        <ele>153.80000305176</ele>
        <time>2019-03-23T07:39:14.000Z</time>
      </trkpt>
      <trkpt lat="44.12265" lon="5.0297">
        <ele>154.19999694824</ele>
        <time>2019-03-23T07:39:18.000Z</time>
      </trkpt>
      <trkpt lat="44.12267" lon="5.02971">
        <ele>154.39999389648</ele>
        <time>2019-03-23T07:39:19.000Z</time>
      </trkpt>
      <trkpt lat="44.1227" lon="5.02972">
        <ele>155</ele>
        <time>2019-03-23T07:39:22.000Z</time>
      </trkpt>
      <trkpt lat="44.12273" lon="5.02983">
        <ele>155</ele>
        <time>2019-03-23T07:39:30.000Z</time>
      </trkpt>
      <trkpt lat="44.12275" lon="5.02988">
        <ele>155</ele>
        <time>2019-03-23T07:39:34.000Z</time>
      </trkpt>
      <trkpt lat="44.12277" lon="5.02994">
        <ele>155.60000610352</ele>
        <time>2019-03-23T07:39:40.000Z</time>
      </trkpt>
      <trkpt lat="44.12279" lon="5.02998">
        <ele>155.80000305176</ele>
        <time>2019-03-23T07:39:44.000Z</time>
      </trkpt>
      <trkpt lat="44.12279" lon="5.02999">
        <ele>156</ele>
        <time>2019-03-23T07:39:45.000Z</time>
      </trkpt>
      <trkpt lat="44.1228" lon="5.03001">
        <ele>156.19999694824</ele>
        <time>2019-03-23T07:39:47.000Z</time>
      </trkpt>
      <trkpt lat="44.12282" lon="5.03005">
        <ele>156.60000610352</ele>
        <time>2019-03-23T07:39:51.000Z</time>
      </trkpt>
      <trkpt lat="44.12284" lon="5.03007">
        <ele>157.19999694824</ele>
        <time>2019-03-23T07:39:54.000Z</time>
      </trkpt>
      <trkpt lat="44.12286" lon="5.03009">
        <ele>157.60000610352</ele>
        <time>2019-03-23T07:39:57.000Z</time>
      </trkpt>
      <trkpt lat="44.12287" lon="5.0301">
        <ele>157.60000610352</ele>
        <time>2019-03-23T07:39:59.000Z</time>
      </trkpt>
      <trkpt lat="44.12287" lon="5.0301">
        <ele>157.80000305176</ele>
        <time>2019-03-23T07:40:00.000Z</time>
      </trkpt>
      <trkpt lat="44.12287" lon="5.0301">
        <ele>158.19999694824</ele>
        <time>2019-03-23T07:40:02.000Z</time>
      </trkpt>
      <trkpt lat="44.12288" lon="5.03011">
        <ele>158.39999389648</ele>
        <time>2019-03-23T07:40:03.000Z</time>
      </trkpt>
      <trkpt lat="44.12288" lon="5.03011">
        <ele>158.60000610352</ele>
        <time>2019-03-23T07:40:04.000Z</time>
      </trkpt>
      <trkpt lat="44.12288" lon="5.03011">
        <ele>158.80000305176</ele>
        <time>2019-03-23T07:40:06.000Z</time>
      </trkpt>
      <trkpt lat="44.1229" lon="5.03012">
        <ele>158.60000610352</ele>
        <time>2019-03-23T07:40:11.000Z</time>
      </trkpt>
      <trkpt lat="44.12296" lon="5.03017">
        <ele>158.39999389648</ele>
        <time>2019-03-23T07:40:17.000Z</time>
      </trkpt>
      <trkpt lat="44.12298" lon="5.03019">
        <ele>158.39999389648</ele>
        <time>2019-03-23T07:40:19.000Z</time>
      </trkpt>
      <trkpt lat="44.12301" lon="5.0302">
        <ele>158.80000305176</ele>
        <time>2019-03-23T07:40:21.000Z</time>
      </trkpt>
      <trkpt lat="44.12303" lon="5.03029">
        <ele>159.39999389648</ele>
        <time>2019-03-23T07:40:30.000Z</time>
      </trkpt>
      <trkpt lat="44.12305" lon="5.03033">
        <ele>159.39999389648</ele>
        <time>2019-03-23T07:40:33.000Z</time>
      </trkpt>
      <trkpt lat="44.12305" lon="5.03033">
        <ele>159.39999389648</ele>
        <time>2019-03-23T07:40:34.000Z</time>
      </trkpt>
      <trkpt lat="44.12303" lon="5.03036">
        <ele>159.19999694824</ele>
        <time>2019-03-23T07:40:40.000Z</time>
      </trkpt>
      <trkpt lat="44.12302" lon="5.03036">
        <ele>159.39999389648</ele>
        <time>2019-03-23T07:40:42.000Z</time>
      </trkpt>
      <trkpt lat="44.12302" lon="5.03037">
        <ele>159.39999389648</ele>
        <time>2019-03-23T07:40:43.000Z</time>
      </trkpt>
      <trkpt lat="44.12302" lon="5.03034">
        <ele>159.39999389648</ele>
        <time>2019-03-23T07:40:47.000Z</time>
      </trkpt>
      <trkpt lat="44.12302" lon="5.03033">
        <ele>159.39999389648</ele>
        <time>2019-03-23T07:40:50.000Z</time>
      </trkpt>
      <trkpt lat="44.12301" lon="5.03031">
        <ele>159.39999389648</ele>
        <time>2019-03-23T07:40:54.000Z</time>
      </trkpt>
      <trkpt lat="44.12301" lon="5.0303">
        <ele>159.60000610352</ele>
        <time>2019-03-23T07:41:05.000Z</time>
      </trkpt>
      <trkpt lat="44.12302" lon="5.03029">
        <ele>159.39999389648</ele>
        <time>2019-03-23T07:41:08.000Z</time>
      </trkpt>
      <trkpt lat="44.12305" lon="5.03028">
        <ele>159.19999694824</ele>
        <time>2019-03-23T07:41:19.000Z</time>
      </trkpt>
      <trkpt lat="44.12304" lon="5.03028">
        <ele>159.19999694824</ele>
        <time>2019-03-23T07:41:20.000Z</time>
      </trkpt>
      <trkpt lat="44.12304" lon="5.03028">
        <ele>159.19999694824</ele>
        <time>2019-03-23T07:41:21.000Z</time>
      </trkpt>
      <trkpt lat="44.12304" lon="5.03027">
        <ele>159.19999694824</ele>
        <time>2019-03-23T07:41:23.000Z</time>
      </trkpt>
      <trkpt lat="44.12304" lon="5.03028">
        <ele>159.39999389648</ele>
        <time>2019-03-23T07:41:28.000Z</time>
      </trkpt>
      <trkpt lat="44.12304" lon="5.03028">
        <ele>159.39999389648</ele>
        <time>2019-03-23T07:41:29.000Z</time>
      </trkpt>
      <trkpt lat="44.12303" lon="5.03033">
        <ele>159</ele>
        <time>2019-03-23T07:41:35.000Z</time>
      </trkpt>
      <trkpt lat="44.12302" lon="5.03033">
        <ele>159</ele>
        <time>2019-03-23T07:41:38.000Z</time>
      </trkpt>
      <trkpt lat="44.12304" lon="5.03032">
        <ele>160.39999389648</ele>
        <time>2019-03-23T07:41:46.000Z</time>
      </trkpt>
      <trkpt lat="44.12307" lon="5.03028">
        <ele>161.60000610352</ele>
        <time>2019-03-23T07:41:50.000Z</time>
      </trkpt>
      <trkpt lat="44.12308" lon="5.03027">
        <ele>162.19999694824</ele>
        <time>2019-03-23T07:41:52.000Z</time>
      </trkpt>
      <trkpt lat="44.1231" lon="5.03026">
        <ele>162.60000610352</ele>
        <time>2019-03-23T07:41:54.000Z</time>
      </trkpt>
      <trkpt lat="44.12311" lon="5.03025">
        <ele>162.80000305176</ele>
        <time>2019-03-23T07:41:56.000Z</time>
      </trkpt>
      <trkpt lat="44.12315" lon="5.03027">
        <ele>163.39999389648</ele>
        <time>2019-03-23T07:42:00.000Z</time>
      </trkpt>
      <trkpt lat="44.12317" lon="5.03028">
        <ele>163.60000610352</ele>
        <time>2019-03-23T07:42:05.000Z</time>
      </trkpt>
      <trkpt lat="44.12317" lon="5.03028">
        <ele>163.60000610352</ele>
        <time>2019-03-23T07:42:06.000Z</time>
      </trkpt>
      <trkpt lat="44.12317" lon="5.03028">
        <ele>163.60000610352</ele>
        <time>2019-03-23T07:42:09.000Z</time>
      </trkpt>
      <trkpt lat="44.12317" lon="5.03025">
        <ele>164.60000610352</ele>
        <time>2019-03-23T07:42:15.000Z</time>
      </trkpt>
      <trkpt lat="44.12316" lon="5.03024">
        <ele>165.19999694824</ele>
        <time>2019-03-23T07:42:18.000Z</time>
      </trkpt>
      <trkpt lat="44.12316" lon="5.03022">
        <ele>165.80000305176</ele>
        <time>2019-03-23T07:42:22.000Z</time>
      </trkpt>
      <trkpt lat="44.12316" lon="5.03017">
        <ele>166.80000305176</ele>
        <time>2019-03-23T07:42:29.000Z</time>
      </trkpt>
      <trkpt lat="44.12316" lon="5.03017">
        <ele>167</ele>
        <time>2019-03-23T07:42:31.000Z</time>
      </trkpt>
      <trkpt lat="44.12316" lon="5.03017">
        <ele>167</ele>
        <time>2019-03-23T07:42:33.000Z</time>
      </trkpt>
      <trkpt lat="44.12317" lon="5.03018">
        <ele>167</ele>
        <time>2019-03-23T07:42:37.000Z</time>
      </trkpt>
      <trkpt lat="44.12318" lon="5.03019">
        <ele>166.80000305176</ele>
        <time>2019-03-23T07:42:39.000Z</time>
      </trkpt>
      <trkpt lat="44.12318" lon="5.03019">
        <ele>167</ele>
        <time>2019-03-23T07:42:42.000Z</time>
      </trkpt>
      <trkpt lat="44.12318" lon="5.0302">
        <ele>167.80000305176</ele>
        <time>2019-03-23T07:42:46.000Z</time>
      </trkpt>
      <trkpt lat="44.12318" lon="5.0302">
        <ele>168.60000610352</ele>
        <time>2019-03-23T07:42:48.000Z</time>
      </trkpt>
      <trkpt lat="44.12318" lon="5.03019">
        <ele>169.19999694824</ele>
        <time>2019-03-23T07:42:50.000Z</time>
      </trkpt>
      <trkpt lat="44.12319" lon="5.03018">
        <ele>170.39999389648</ele>
        <time>2019-03-23T07:42:55.000Z</time>
      </trkpt>
      <trkpt lat="44.12319" lon="5.03018">
        <ele>170.80000305176</ele>
        <time>2019-03-23T07:42:57.000Z</time>
      </trkpt>
      <trkpt lat="44.12321" lon="5.03017">
        <ele>171.19999694824</ele>
        <time>2019-03-23T07:43:00.000Z</time>
      </trkpt>
      <trkpt lat="44.12321" lon="5.03016">
        <ele>171.39999389648</ele>
        <time>2019-03-23T07:43:01.000Z</time>
      </trkpt>
      <trkpt lat="44.1232" lon="5.03013">
        <ele>172.60000610352</ele>
        <time>2019-03-23T07:43:06.000Z</time>
      </trkpt>
      <trkpt lat="44.12323" lon="5.03011">
        <ele>173.80000305176</ele>
        <time>2019-03-23T07:43:11.000Z</time>
      </trkpt>
      <trkpt lat="44.12324" lon="5.03011">
        <ele>174.39999389648</ele>
        <time>2019-03-23T07:43:13.000Z</time>
      </trkpt>
      <trkpt lat="44.12327" lon="5.0301">
        <ele>175</ele>
        <time>2019-03-23T07:43:16.000Z</time>
      </trkpt>
      <trkpt lat="44.1233" lon="5.03006">
        <ele>176</ele>
        <time>2019-03-23T07:43:21.000Z</time>
      </trkpt>
      <trkpt lat="44.12333" lon="5.03005">
        <ele>176.80000305176</ele>
        <time>2019-03-23T07:43:25.000Z</time>
      </trkpt>
      <trkpt lat="44.12334" lon="5.03004">
        <ele>177.19999694824</ele>
        <time>2019-03-23T07:43:27.000Z</time>
      </trkpt>
      <trkpt lat="44.12334" lon="5.03002">
        <ele>177.39999389648</ele>
        <time>2019-03-23T07:43:30.000Z</time>
      </trkpt>
      <trkpt lat="44.12335" lon="5.02995">
        <ele>178</ele>
        <time>2019-03-23T07:43:36.000Z</time>
      </trkpt>
      <trkpt lat="44.12335" lon="5.02994">
        <ele>178.19999694824</ele>
        <time>2019-03-23T07:43:37.000Z</time>
      </trkpt>
      <trkpt lat="44.12332" lon="5.02985">
        <ele>178.60000610352</ele>
        <time>2019-03-23T07:43:45.000Z</time>
      </trkpt>
      <trkpt lat="44.12331" lon="5.02982">
        <ele>178.60000610352</ele>
        <time>2019-03-23T07:43:47.000Z</time>
      </trkpt>
      <trkpt lat="44.1233" lon="5.02967">
        <ele>177.60000610352</ele>
        <time>2019-03-23T07:44:00.000Z</time>
      </trkpt>
      <trkpt lat="44.1233" lon="5.02965">
        <ele>177.39999389648</ele>
        <time>2019-03-23T07:44:03.000Z</time>
      </trkpt>
      <trkpt lat="44.12329" lon="5.02961">
        <ele>177.60000610352</ele>
        <time>2019-03-23T07:44:07.000Z</time>
      </trkpt>
      <trkpt lat="44.12328" lon="5.02959">
        <ele>177.80000305176</ele>
        <time>2019-03-23T07:44:09.000Z</time>
      </trkpt>
      <trkpt lat="44.12326" lon="5.02956">
        <ele>178</ele>
        <time>2019-03-23T07:44:11.000Z</time>
      </trkpt>
      <trkpt lat="44.12325" lon="5.02954">
        <ele>178.39999389648</ele>
        <time>2019-03-23T07:44:13.000Z</time>
      </trkpt>
      <trkpt lat="44.12325" lon="5.0295">
        <ele>178.19999694824</ele>
        <time>2019-03-23T07:44:17.000Z</time>
      </trkpt>
      <trkpt lat="44.12325" lon="5.02948">
        <ele>178.19999694824</ele>
        <time>2019-03-23T07:44:18.000Z</time>
      </trkpt>
      <trkpt lat="44.12325" lon="5.02947">
        <ele>178</ele>
        <time>2019-03-23T07:44:19.000Z</time>
      </trkpt>
      <trkpt lat="44.12325" lon="5.02945">
        <ele>177.80000305176</ele>
        <time>2019-03-23T07:44:20.000Z</time>
      </trkpt>
      <trkpt lat="44.12326" lon="5.02942">
        <ele>177.19999694824</ele>
        <time>2019-03-23T07:44:23.000Z</time>
      </trkpt>
      <trkpt lat="44.12326" lon="5.02939">
        <ele>177</ele>
        <time>2019-03-23T07:44:25.000Z</time>
      </trkpt>
      <trkpt lat="44.12326" lon="5.02939">
        <ele>176.80000305176</ele>
        <time>2019-03-23T07:44:26.000Z</time>
      </trkpt>
      <trkpt lat="44.12322" lon="5.02932">
        <ele>177.80000305176</ele>
        <time>2019-03-23T07:44:37.000Z</time>
      </trkpt>
      <trkpt lat="44.12322" lon="5.02932">
        <ele>177.80000305176</ele>
        <time>2019-03-23T07:44:38.000Z</time>
      </trkpt>
      <trkpt lat="44.12319" lon="5.02932">
        <ele>178.19999694824</ele>
        <time>2019-03-23T07:44:42.000Z</time>
      </trkpt>
      <trkpt lat="44.12317" lon="5.02931">
        <ele>178.19999694824</ele>
        <time>2019-03-23T07:44:44.000Z</time>
      </trkpt>
      <trkpt lat="44.12314" lon="5.02929">
        <ele>179</ele>
        <time>2019-03-23T07:44:49.000Z</time>
      </trkpt>
      <trkpt lat="44.12312" lon="5.02928">
        <ele>179.39999389648</ele>
        <time>2019-03-23T07:44:51.000Z</time>
      </trkpt>
      <trkpt lat="44.12309" lon="5.02927">
        <ele>180.60000610352</ele>
        <time>2019-03-23T07:44:56.000Z</time>
      </trkpt>
      <trkpt lat="44.12308" lon="5.02927">
        <ele>181</ele>
        <time>2019-03-23T07:45:01.000Z</time>
      </trkpt>
      <trkpt lat="44.1231" lon="5.02927">
        <ele>180.60000610352</ele>
        <time>2019-03-23T07:45:05.000Z</time>
      </trkpt>
      <trkpt lat="44.12315" lon="5.02928">
        <ele>179.39999389648</ele>
        <time>2019-03-23T07:45:09.000Z</time>
      </trkpt>
      <trkpt lat="44.1232" lon="5.02927">
        <ele>178.39999389648</ele>
        <time>2019-03-23T07:45:13.000Z</time>
      </trkpt>
      <trkpt lat="44.1232" lon="5.02927">
        <ele>178.19999694824</ele>
        <time>2019-03-23T07:45:14.000Z</time>
      </trkpt>
      <trkpt lat="44.12322" lon="5.02927">
        <ele>177.80000305176</ele>
        <time>2019-03-23T07:45:15.000Z</time>
      </trkpt>
      <trkpt lat="44.12324" lon="5.02926">
        <ele>177</ele>
        <time>2019-03-23T07:45:18.000Z</time>
      </trkpt>
      <trkpt lat="44.12326" lon="5.02924">
        <ele>176.60000610352</ele>
        <time>2019-03-23T07:45:19.000Z</time>
      </trkpt>
      <trkpt lat="44.12328" lon="5.02921">
        <ele>176</ele>
        <time>2019-03-23T07:45:23.000Z</time>
      </trkpt>
      <trkpt lat="44.12328" lon="5.02917">
        <ele>176</ele>
        <time>2019-03-23T07:45:26.000Z</time>
      </trkpt>
      <trkpt lat="44.12328" lon="5.02908">
        <ele>175.39999389648</ele>
        <time>2019-03-23T07:45:35.000Z</time>
      </trkpt>
      <trkpt lat="44.12328" lon="5.02907">
        <ele>175.19999694824</ele>
        <time>2019-03-23T07:45:37.000Z</time>
      </trkpt>
      <trkpt lat="44.12326" lon="5.02901">
        <ele>175.19999694824</ele>
        <time>2019-03-23T07:45:45.000Z</time>
      </trkpt>
      <trkpt lat="44.12324" lon="5.02898">
        <ele>175.19999694824</ele>
        <time>2019-03-23T07:45:47.000Z</time>
      </trkpt>
      <trkpt lat="44.1232" lon="5.02882">
        <ele>175.19999694824</ele>
        <time>2019-03-23T07:45:59.000Z</time>
      </trkpt>
      <trkpt lat="44.12317" lon="5.02877">
        <ele>175.19999694824</ele>
        <time>2019-03-23T07:46:04.000Z</time>
      </trkpt>
      <trkpt lat="44.12315" lon="5.02872">
        <ele>175.19999694824</ele>
        <time>2019-03-23T07:46:08.000Z</time>
      </trkpt>
      <trkpt lat="44.12314" lon="5.0287">
        <ele>175.39999389648</ele>
        <time>2019-03-23T07:46:11.000Z</time>
      </trkpt>
      <trkpt lat="44.12314" lon="5.02867">
        <ele>176.19999694824</ele>
        <time>2019-03-23T07:46:17.000Z</time>
      </trkpt>
      <trkpt lat="44.12314" lon="5.02867">
        <ele>176.19999694824</ele>
        <time>2019-03-23T07:46:20.000Z</time>
      </trkpt>
      <trkpt lat="44.12314" lon="5.02866">
        <ele>176.39999389648</ele>
        <time>2019-03-23T07:46:23.000Z</time>
      </trkpt>
      <trkpt lat="44.12309" lon="5.0286">
        <ele>175.60000610352</ele>
        <time>2019-03-23T07:46:30.000Z</time>
      </trkpt>
      <trkpt lat="44.12308" lon="5.02859">
        <ele>175.39999389648</ele>
        <time>2019-03-23T07:46:32.000Z</time>
      </trkpt>
      <trkpt lat="44.12307" lon="5.02858">
        <ele>175.60000610352</ele>
        <time>2019-03-23T07:46:34.000Z</time>
      </trkpt>
      <trkpt lat="44.12299" lon="5.02848">
        <ele>176</ele>
        <time>2019-03-23T07:46:46.000Z</time>
      </trkpt>
      <trkpt lat="44.12299" lon="5.02846">
        <ele>176</ele>
        <time>2019-03-23T07:46:48.000Z</time>
      </trkpt>
      <trkpt lat="44.12296" lon="5.02844">
        <ele>175.19999694824</ele>
        <time>2019-03-23T07:46:52.000Z</time>
      </trkpt>
      <trkpt lat="44.12296" lon="5.02842">
        <ele>175</ele>
        <time>2019-03-23T07:46:56.000Z</time>
      </trkpt>
      <trkpt lat="44.12296" lon="5.02842">
        <ele>174.80000305176</ele>
        <time>2019-03-23T07:46:57.000Z</time>
      </trkpt>
      <trkpt lat="44.12295" lon="5.02842">
        <ele>174.60000610352</ele>
        <time>2019-03-23T07:46:59.000Z</time>
      </trkpt>
      <trkpt lat="44.12293" lon="5.02838">
        <ele>174.39999389648</ele>
        <time>2019-03-23T07:47:10.000Z</time>
      </trkpt>
      <trkpt lat="44.12289" lon="5.02834">
        <ele>174</ele>
        <time>2019-03-23T07:47:18.000Z</time>
      </trkpt>
      <trkpt lat="44.12289" lon="5.02831">
        <ele>173.80000305176</ele>
        <time>2019-03-23T07:47:20.000Z</time>
      </trkpt>
      <trkpt lat="44.12288" lon="5.0283">
        <ele>173.39999389648</ele>
        <time>2019-03-23T07:47:23.000Z</time>
      </trkpt>
      <trkpt lat="44.12288" lon="5.02821">
        <ele>173</ele>
        <time>2019-03-23T07:47:34.000Z</time>
      </trkpt>
      <trkpt lat="44.12289" lon="5.02819">
        <ele>172.60000610352</ele>
        <time>2019-03-23T07:47:37.000Z</time>
      </trkpt>
      <trkpt lat="44.12284" lon="5.02811">
        <ele>171.80000305176</ele>
        <time>2019-03-23T07:47:45.000Z</time>
      </trkpt>
      <trkpt lat="44.12283" lon="5.02809">
        <ele>171.60000610352</ele>
        <time>2019-03-23T07:47:47.000Z</time>
      </trkpt>
      <trkpt lat="44.12279" lon="5.02796">
        <ele>171</ele>
        <time>2019-03-23T07:47:58.000Z</time>
      </trkpt>
      <trkpt lat="44.12276" lon="5.02792">
        <ele>170.60000610352</ele>
        <time>2019-03-23T07:48:04.000Z</time>
      </trkpt>
      <trkpt lat="44.12275" lon="5.02791">
        <ele>170.60000610352</ele>
        <time>2019-03-23T07:48:06.000Z</time>
      </trkpt>
      <trkpt lat="44.12272" lon="5.02788">
        <ele>170.60000610352</ele>
        <time>2019-03-23T07:48:09.000Z</time>
      </trkpt>
      <trkpt lat="44.12272" lon="5.02787">
        <ele>170.60000610352</ele>
        <time>2019-03-23T07:48:10.000Z</time>
      </trkpt>
      <trkpt lat="44.1227" lon="5.02783">
        <ele>170.80000305176</ele>
        <time>2019-03-23T07:48:13.000Z</time>
      </trkpt>
      <trkpt lat="44.12271" lon="5.02779">
        <ele>171.80000305176</ele>
        <time>2019-03-23T07:48:23.000Z</time>
      </trkpt>
      <trkpt lat="44.1227" lon="5.02773">
        <ele>170.60000610352</ele>
        <time>2019-03-23T07:48:34.000Z</time>
      </trkpt>
      <trkpt lat="44.1227" lon="5.02772">
        <ele>170.19999694824</ele>
        <time>2019-03-23T07:48:37.000Z</time>
      </trkpt>
      <trkpt lat="44.12267" lon="5.02765">
        <ele>171.60000610352</ele>
        <time>2019-03-23T07:48:49.000Z</time>
      </trkpt>
      <trkpt lat="44.12267" lon="5.02764">
        <ele>171.60000610352</ele>
        <time>2019-03-23T07:48:51.000Z</time>
      </trkpt>
      <trkpt lat="44.12265" lon="5.02763">
        <ele>172</ele>
        <time>2019-03-23T07:49:01.000Z</time>
      </trkpt>
      <trkpt lat="44.12265" lon="5.02763">
        <ele>171.80000305176</ele>
        <time>2019-03-23T07:49:02.000Z</time>
      </trkpt>
      <trkpt lat="44.12264" lon="5.02762">
        <ele>171.60000610352</ele>
        <time>2019-03-23T07:49:05.000Z</time>
      </trkpt>
      <trkpt lat="44.12265" lon="5.02761">
        <ele>171.39999389648</ele>
        <time>2019-03-23T07:49:07.000Z</time>
      </trkpt>
      <trkpt lat="44.12266" lon="5.0276">
        <ele>171.60000610352</ele>
        <time>2019-03-23T07:49:11.000Z</time>
      </trkpt>
      <trkpt lat="44.12273" lon="5.02759">
        <ele>171.60000610352</ele>
        <time>2019-03-23T07:49:16.000Z</time>
      </trkpt>
      <trkpt lat="44.12273" lon="5.02758">
        <ele>171.39999389648</ele>
        <time>2019-03-23T07:49:17.000Z</time>
      </trkpt>
      <trkpt lat="44.12272" lon="5.02758">
        <ele>171.19999694824</ele>
        <time>2019-03-23T07:49:19.000Z</time>
      </trkpt>
      <trkpt lat="44.12268" lon="5.02758">
        <ele>171.39999389648</ele>
        <time>2019-03-23T07:49:35.000Z</time>
      </trkpt>
      <trkpt lat="44.12273" lon="5.02763">
        <ele>171</ele>
        <time>2019-03-23T07:49:44.000Z</time>
      </trkpt>
      <trkpt lat="44.12273" lon="5.02763">
        <ele>171</ele>
        <time>2019-03-23T07:49:45.000Z</time>
      </trkpt>
      <trkpt lat="44.12276" lon="5.02761">
        <ele>171</ele>
        <time>2019-03-23T07:49:51.000Z</time>
      </trkpt>
      <trkpt lat="44.12277" lon="5.02757">
        <ele>171</ele>
        <time>2019-03-23T07:49:55.000Z</time>
      </trkpt>
      <trkpt lat="44.12273" lon="5.0275">
        <ele>171</ele>
        <time>2019-03-23T07:50:06.000Z</time>
      </trkpt>
      <trkpt lat="44.12269" lon="5.02747">
        <ele>171</ele>
        <time>2019-03-23T07:50:17.000Z</time>
      </trkpt>
      <trkpt lat="44.12266" lon="5.02744">
        <ele>171</ele>
        <time>2019-03-23T07:50:30.000Z</time>
      </trkpt>
      <trkpt lat="44.12263" lon="5.02739">
        <ele>171</ele>
        <time>2019-03-23T07:50:34.000Z</time>
      </trkpt>
      <trkpt lat="44.12261" lon="5.02736">
        <ele>171</ele>
        <time>2019-03-23T07:50:39.000Z</time>
      </trkpt>
      <trkpt lat="44.12261" lon="5.02736">
        <ele>171</ele>
        <time>2019-03-23T07:50:40.000Z</time>
      </trkpt>
      <trkpt lat="44.1226" lon="5.02736">
        <ele>167.39999389648</ele>
        <time>2019-03-23T07:50:43.000Z</time>
      </trkpt>
      <trkpt lat="44.1226" lon="5.02733">
        <ele>166.19999694824</ele>
        <time>2019-03-23T07:50:47.000Z</time>
      </trkpt>
      <trkpt lat="44.12259" lon="5.02732">
        <ele>166.39999389648</ele>
        <time>2019-03-23T07:50:49.000Z</time>
      </trkpt>
      <trkpt lat="44.12258" lon="5.0273">
        <ele>166</ele>
        <time>2019-03-23T07:50:59.000Z</time>
      </trkpt>
      <trkpt lat="44.12258" lon="5.0273">
        <ele>166.19999694824</ele>
        <time>2019-03-23T07:51:01.000Z</time>
      </trkpt>
      <trkpt lat="44.12258" lon="5.02727">
        <ele>165.19999694824</ele>
        <time>2019-03-23T07:51:09.000Z</time>
      </trkpt>
      <trkpt lat="44.12257" lon="5.02723">
        <ele>165</ele>
        <time>2019-03-23T07:51:13.000Z</time>
      </trkpt>
      <trkpt lat="44.12256" lon="5.02722">
        <ele>165.80000305176</ele>
        <time>2019-03-23T07:51:18.000Z</time>
      </trkpt>
      <trkpt lat="44.12256" lon="5.0272">
        <ele>165.80000305176</ele>
        <time>2019-03-23T07:51:20.000Z</time>
      </trkpt>
      <trkpt lat="44.12257" lon="5.02719">
        <ele>165.60000610352</ele>
        <time>2019-03-23T07:51:22.000Z</time>
      </trkpt>
      <trkpt lat="44.12258" lon="5.02715">
        <ele>165</ele>
        <time>2019-03-23T07:51:35.000Z</time>
      </trkpt>
      <trkpt lat="44.12259" lon="5.02718">
        <ele>165</ele>
        <time>2019-03-23T07:51:39.000Z</time>
      </trkpt>
      <trkpt lat="44.12261" lon="5.02722">
        <ele>165</ele>
        <time>2019-03-23T07:51:45.000Z</time>
      </trkpt>
      <trkpt lat="44.12262" lon="5.02727">
        <ele>165.60000610352</ele>
        <time>2019-03-23T07:51:51.000Z</time>
      </trkpt>
      <trkpt lat="44.12262" lon="5.02729">
        <ele>166</ele>
        <time>2019-03-23T07:51:53.000Z</time>
      </trkpt>
      <trkpt lat="44.12262" lon="5.0273">
        <ele>166.39999389648</ele>
        <time>2019-03-23T07:51:54.000Z</time>
      </trkpt>
      <trkpt lat="44.12262" lon="5.02733">
        <ele>166.80000305176</ele>
        <time>2019-03-23T07:51:57.000Z</time>
      </trkpt>
      <trkpt lat="44.12263" lon="5.02733">
        <ele>167.39999389648</ele>
        <time>2019-03-23T07:52:00.000Z</time>
      </trkpt>
      <trkpt lat="44.12263" lon="5.02733">
        <ele>167.39999389648</ele>
        <time>2019-03-23T07:52:01.000Z</time>
      </trkpt>
      <trkpt lat="44.12263" lon="5.02733">
        <ele>167.39999389648</ele>
        <time>2019-03-23T07:52:02.000Z</time>
      </trkpt>
      <trkpt lat="44.12263" lon="5.02733">
        <ele>167.60000610352</ele>
        <time>2019-03-23T07:52:03.000Z</time>
      </trkpt>
      <trkpt lat="44.12263" lon="5.02734">
        <ele>167.80000305176</ele>
        <time>2019-03-23T07:52:05.000Z</time>
      </trkpt>
      <trkpt lat="44.12263" lon="5.02734">
        <ele>167.80000305176</ele>
        <time>2019-03-23T07:52:06.000Z</time>
      </trkpt>
      <trkpt lat="44.12263" lon="5.02735">
        <ele>167.80000305176</ele>
        <time>2019-03-23T07:52:07.000Z</time>
      </trkpt>
      <trkpt lat="44.12265" lon="5.02739">
        <ele>168</ele>
        <time>2019-03-23T07:52:10.000Z</time>
      </trkpt>
      <trkpt lat="44.12266" lon="5.02739">
        <ele>167.80000305176</ele>
        <time>2019-03-23T07:52:11.000Z</time>
      </trkpt>
      <trkpt lat="44.12267" lon="5.02741">
        <ele>167.60000610352</ele>
        <time>2019-03-23T07:52:13.000Z</time>
      </trkpt>
      <trkpt lat="44.12267" lon="5.02743">
        <ele>167.60000610352</ele>
        <time>2019-03-23T07:52:15.000Z</time>
      </trkpt>
      <trkpt lat="44.12268" lon="5.02744">
        <ele>167.80000305176</ele>
        <time>2019-03-23T07:52:17.000Z</time>
      </trkpt>
      <trkpt lat="44.12268" lon="5.02744">
        <ele>168.19999694824</ele>
        <time>2019-03-23T07:52:19.000Z</time>
      </trkpt>
      <trkpt lat="44.12267" lon="5.02744">
        <ele>168.60000610352</ele>
        <time>2019-03-23T07:52:22.000Z</time>
      </trkpt>
      <trkpt lat="44.12269" lon="5.02744">
        <ele>168.60000610352</ele>
        <time>2019-03-23T07:52:29.000Z</time>
      </trkpt>
      <trkpt lat="44.12269" lon="5.02744">
        <ele>168.80000305176</ele>
        <time>2019-03-23T07:52:32.000Z</time>
      </trkpt>
      <trkpt lat="44.1227" lon="5.02747">
        <ele>169.39999389648</ele>
        <time>2019-03-23T07:52:42.000Z</time>
      </trkpt>
      <trkpt lat="44.12271" lon="5.0275">
        <ele>168.60000610352</ele>
        <time>2019-03-23T07:52:54.000Z</time>
      </trkpt>
      <trkpt lat="44.12271" lon="5.02751">
        <ele>168.60000610352</ele>
        <time>2019-03-23T07:52:56.000Z</time>
      </trkpt>
      <trkpt lat="44.12273" lon="5.02745">
        <ele>168</ele>
        <time>2019-03-23T07:53:11.000Z</time>
      </trkpt>
      <trkpt lat="44.12274" lon="5.02743">
        <ele>167.39999389648</ele>
        <time>2019-03-23T07:53:13.000Z</time>
      </trkpt>
      <trkpt lat="44.12272" lon="5.02739">
        <ele>166.19999694824</ele>
        <time>2019-03-23T07:53:18.000Z</time>
      </trkpt>
      <trkpt lat="44.12271" lon="5.02737">
        <ele>165.39999389648</ele>
        <time>2019-03-23T07:53:23.000Z</time>
      </trkpt>
      <trkpt lat="44.12269" lon="5.02734">
        <ele>165</ele>
        <time>2019-03-23T07:53:28.000Z</time>
      </trkpt>
      <trkpt lat="44.12267" lon="5.02731">
        <ele>164.60000610352</ele>
        <time>2019-03-23T07:53:30.000Z</time>
      </trkpt>
      <trkpt lat="44.12266" lon="5.02727">
        <ele>164</ele>
        <time>2019-03-23T07:53:33.000Z</time>
      </trkpt>
      <trkpt lat="44.12266" lon="5.02726">
        <ele>163.80000305176</ele>
        <time>2019-03-23T07:53:34.000Z</time>
      </trkpt>
      <trkpt lat="44.12268" lon="5.0272">
        <ele>163.19999694824</ele>
        <time>2019-03-23T07:53:38.000Z</time>
      </trkpt>
      <trkpt lat="44.12265" lon="5.02716">
        <ele>163</ele>
        <time>2019-03-23T07:53:41.000Z</time>
      </trkpt>
      <trkpt lat="44.12261" lon="5.02712">
        <ele>163</ele>
        <time>2019-03-23T07:53:44.000Z</time>
      </trkpt>
      <trkpt lat="44.12261" lon="5.02709">
        <ele>162.60000610352</ele>
        <time>2019-03-23T07:53:48.000Z</time>
      </trkpt>
      <trkpt lat="44.12261" lon="5.02709">
        <ele>162.60000610352</ele>
        <time>2019-03-23T07:53:49.000Z</time>
      </trkpt>
      <trkpt lat="44.12261" lon="5.02706">
        <ele>161.80000305176</ele>
        <time>2019-03-23T07:53:52.000Z</time>
      </trkpt>
      <trkpt lat="44.12262" lon="5.02704">
        <ele>161.19999694824</ele>
        <time>2019-03-23T07:53:56.000Z</time>
      </trkpt>
      <trkpt lat="44.12263" lon="5.02703">
        <ele>161</ele>
        <time>2019-03-23T07:53:57.000Z</time>
      </trkpt>
      <trkpt lat="44.12264" lon="5.02703">
        <ele>160.80000305176</ele>
        <time>2019-03-23T07:53:58.000Z</time>
      </trkpt>
      <trkpt lat="44.12267" lon="5.02703">
        <ele>160</ele>
        <time>2019-03-23T07:54:03.000Z</time>
      </trkpt>
      <trkpt lat="44.12268" lon="5.02704">
        <ele>159.80000305176</ele>
        <time>2019-03-23T07:54:04.000Z</time>
      </trkpt>
      <trkpt lat="44.12268" lon="5.02706">
        <ele>159.60000610352</ele>
        <time>2019-03-23T07:54:06.000Z</time>
      </trkpt>
      <trkpt lat="44.12269" lon="5.02707">
        <ele>159.60000610352</ele>
        <time>2019-03-23T07:54:08.000Z</time>
      </trkpt>
      <trkpt lat="44.1227" lon="5.02708">
        <ele>160.19999694824</ele>
        <time>2019-03-23T07:54:13.000Z</time>
      </trkpt>
      <trkpt lat="44.12274" lon="5.02706">
        <ele>160.19999694824</ele>
        <time>2019-03-23T07:54:23.000Z</time>
      </trkpt>
      <trkpt lat="44.12276" lon="5.02707">
        <ele>160.19999694824</ele>
        <time>2019-03-23T07:54:26.000Z</time>
      </trkpt>
      <trkpt lat="44.12273" lon="5.02702">
        <ele>160</ele>
        <time>2019-03-23T07:54:36.000Z</time>
      </trkpt>
      <trkpt lat="44.12274" lon="5.02698">
        <ele>159.39999389648</ele>
        <time>2019-03-23T07:54:45.000Z</time>
      </trkpt>
      <trkpt lat="44.12274" lon="5.02699">
        <ele>159.39999389648</ele>
        <time>2019-03-23T07:54:47.000Z</time>
      </trkpt>
      <trkpt lat="44.12272" lon="5.02701">
        <ele>159.39999389648</ele>
        <time>2019-03-23T07:54:50.000Z</time>
      </trkpt>
      <trkpt lat="44.12267" lon="5.02703">
        <ele>160.19999694824</ele>
        <time>2019-03-23T07:54:55.000Z</time>
      </trkpt>
      <trkpt lat="44.12266" lon="5.02703">
        <ele>160.39999389648</ele>
        <time>2019-03-23T07:54:57.000Z</time>
      </trkpt>
      <trkpt lat="44.12265" lon="5.02704">
        <ele>160.80000305176</ele>
        <time>2019-03-23T07:54:59.000Z</time>
      </trkpt>
      <trkpt lat="44.12263" lon="5.02708">
        <ele>161.60000610352</ele>
        <time>2019-03-23T07:55:04.000Z</time>
      </trkpt>
      <trkpt lat="44.12263" lon="5.02709">
        <ele>162</ele>
        <time>2019-03-23T07:55:06.000Z</time>
      </trkpt>
      <trkpt lat="44.12263" lon="5.0271">
        <ele>162.60000610352</ele>
        <time>2019-03-23T07:55:08.000Z</time>
      </trkpt>
      <trkpt lat="44.12264" lon="5.02714">
        <ele>163</ele>
        <time>2019-03-23T07:55:12.000Z</time>
      </trkpt>
      <trkpt lat="44.12263" lon="5.02715">
        <ele>163.19999694824</ele>
        <time>2019-03-23T07:55:13.000Z</time>
      </trkpt>
      <trkpt lat="44.12263" lon="5.02718">
        <ele>163.19999694824</ele>
        <time>2019-03-23T07:55:15.000Z</time>
      </trkpt>
      <trkpt lat="44.12263" lon="5.0272">
        <ele>163.39999389648</ele>
        <time>2019-03-23T07:55:17.000Z</time>
      </trkpt>
      <trkpt lat="44.12263" lon="5.02721">
        <ele>163.39999389648</ele>
        <time>2019-03-23T07:55:18.000Z</time>
      </trkpt>
      <trkpt lat="44.12264" lon="5.02724">
        <ele>163.60000610352</ele>
        <time>2019-03-23T07:55:21.000Z</time>
      </trkpt>
      <trkpt lat="44.12265" lon="5.02727">
        <ele>164</ele>
        <time>2019-03-23T07:55:24.000Z</time>
      </trkpt>
      <trkpt lat="44.12264" lon="5.02729">
        <ele>164.39999389648</ele>
        <time>2019-03-23T07:55:25.000Z</time>
      </trkpt>
      <trkpt lat="44.12264" lon="5.02729">
        <ele>164.60000610352</ele>
        <time>2019-03-23T07:55:26.000Z</time>
      </trkpt>
      <trkpt lat="44.12266" lon="5.02731">
        <ele>165.19999694824</ele>
        <time>2019-03-23T07:55:29.000Z</time>
      </trkpt>
      <trkpt lat="44.12266" lon="5.02731">
        <ele>165.39999389648</ele>
        <time>2019-03-23T07:55:30.000Z</time>
      </trkpt>
      <trkpt lat="44.12267" lon="5.02731">
        <ele>165.80000305176</ele>
        <time>2019-03-23T07:55:32.000Z</time>
      </trkpt>
      <trkpt lat="44.12269" lon="5.02734">
        <ele>165.80000305176</ele>
        <time>2019-03-23T07:55:39.000Z</time>
      </trkpt>
      <trkpt lat="44.12271" lon="5.02738">
        <ele>166</ele>
        <time>2019-03-23T07:55:42.000Z</time>
      </trkpt>
      <trkpt lat="44.12272" lon="5.0274">
        <ele>166.60000610352</ele>
        <time>2019-03-23T07:55:45.000Z</time>
      </trkpt>
      <trkpt lat="44.12273" lon="5.02741">
        <ele>166.80000305176</ele>
        <time>2019-03-23T07:55:46.000Z</time>
      </trkpt>
      <trkpt lat="44.12273" lon="5.02744">
        <ele>167.60000610352</ele>
        <time>2019-03-23T07:55:50.000Z</time>
      </trkpt>
      <trkpt lat="44.12274" lon="5.02748">
        <ele>168.19999694824</ele>
        <time>2019-03-23T07:55:53.000Z</time>
      </trkpt>
      <trkpt lat="44.12275" lon="5.02749">
        <ele>168.60000610352</ele>
        <time>2019-03-23T07:55:54.000Z</time>
      </trkpt>
      <trkpt lat="44.12276" lon="5.0275">
        <ele>168.80000305176</ele>
        <time>2019-03-23T07:55:55.000Z</time>
      </trkpt>
      <trkpt lat="44.12277" lon="5.02752">
        <ele>168.80000305176</ele>
        <time>2019-03-23T07:55:56.000Z</time>
      </trkpt>
      <trkpt lat="44.12277" lon="5.02763">
        <ele>169.60000610352</ele>
        <time>2019-03-23T07:56:05.000Z</time>
      </trkpt>
      <trkpt lat="44.12277" lon="5.02764">
        <ele>169.60000610352</ele>
        <time>2019-03-23T07:56:06.000Z</time>
      </trkpt>
      <trkpt lat="44.12277" lon="5.02766">
        <ele>169.60000610352</ele>
        <time>2019-03-23T07:56:07.000Z</time>
      </trkpt>
      <trkpt lat="44.12278" lon="5.0277">
        <ele>170</ele>
        <time>2019-03-23T07:56:11.000Z</time>
      </trkpt>
      <trkpt lat="44.1228" lon="5.02775">
        <ele>171</ele>
        <time>2019-03-23T07:56:16.000Z</time>
      </trkpt>
      <trkpt lat="44.12287" lon="5.0279">
        <ele>170.39999389648</ele>
        <time>2019-03-23T07:56:28.000Z</time>
      </trkpt>
      <trkpt lat="44.12288" lon="5.02811">
        <ele>171.19999694824</ele>
        <time>2019-03-23T07:56:43.000Z</time>
      </trkpt>
      <trkpt lat="44.1229" lon="5.02825">
        <ele>172.19999694824</ele>
        <time>2019-03-23T07:56:52.000Z</time>
      </trkpt>
      <trkpt lat="44.1229" lon="5.0283">
        <ele>172.80000305176</ele>
        <time>2019-03-23T07:56:56.000Z</time>
      </trkpt>
      <trkpt lat="44.12292" lon="5.02833">
        <ele>173</ele>
        <time>2019-03-23T07:57:00.000Z</time>
      </trkpt>
      <trkpt lat="44.12293" lon="5.02834">
        <ele>173</ele>
        <time>2019-03-23T07:57:03.000Z</time>
      </trkpt>
      <trkpt lat="44.12293" lon="5.02834">
        <ele>173.19999694824</ele>
        <time>2019-03-23T07:57:04.000Z</time>
      </trkpt>
      <trkpt lat="44.12293" lon="5.02835">
        <ele>173.60000610352</ele>
        <time>2019-03-23T07:57:06.000Z</time>
      </trkpt>
      <trkpt lat="44.12293" lon="5.02834">
        <ele>174.19999694824</ele>
        <time>2019-03-23T07:57:13.000Z</time>
      </trkpt>
      <trkpt lat="44.12293" lon="5.02835">
        <ele>174</ele>
        <time>2019-03-23T07:57:17.000Z</time>
      </trkpt>
      <trkpt lat="44.12294" lon="5.02837">
        <ele>174</ele>
        <time>2019-03-23T07:57:19.000Z</time>
      </trkpt>
      <trkpt lat="44.12296" lon="5.02842">
        <ele>174.19999694824</ele>
        <time>2019-03-23T07:57:29.000Z</time>
      </trkpt>
      <trkpt lat="44.12297" lon="5.02844">
        <ele>174.60000610352</ele>
        <time>2019-03-23T07:57:33.000Z</time>
      </trkpt>
      <trkpt lat="44.12302" lon="5.0285">
        <ele>174.80000305176</ele>
        <time>2019-03-23T07:57:46.000Z</time>
      </trkpt>
      <trkpt lat="44.12304" lon="5.02853">
        <ele>175.19999694824</ele>
        <time>2019-03-23T07:57:51.000Z</time>
      </trkpt>
      <trkpt lat="44.12304" lon="5.02855">
        <ele>175.19999694824</ele>
        <time>2019-03-23T07:57:53.000Z</time>
      </trkpt>
      <trkpt lat="44.12305" lon="5.02856">
        <ele>175.39999389648</ele>
        <time>2019-03-23T07:57:54.000Z</time>
      </trkpt>
      <trkpt lat="44.12306" lon="5.02857">
        <ele>175.80000305176</ele>
        <time>2019-03-23T07:57:56.000Z</time>
      </trkpt>
      <trkpt lat="44.12306" lon="5.02858">
        <ele>176.39999389648</ele>
        <time>2019-03-23T07:58:00.000Z</time>
      </trkpt>
      <trkpt lat="44.12306" lon="5.02858">
        <ele>176.60000610352</ele>
        <time>2019-03-23T07:58:01.000Z</time>
      </trkpt>
      <trkpt lat="44.12306" lon="5.02858">
        <ele>176.60000610352</ele>
        <time>2019-03-23T07:58:02.000Z</time>
      </trkpt>
      <trkpt lat="44.12306" lon="5.02858">
        <ele>176.60000610352</ele>
        <time>2019-03-23T07:58:04.000Z</time>
      </trkpt>
      <trkpt lat="44.12306" lon="5.02858">
        <ele>176.39999389648</ele>
        <time>2019-03-23T07:58:06.000Z</time>
      </trkpt>
      <trkpt lat="44.12313" lon="5.02859">
        <ele>175.39999389648</ele>
        <time>2019-03-23T07:58:12.000Z</time>
      </trkpt>
      <trkpt lat="44.12314" lon="5.02861">
        <ele>175.19999694824</ele>
        <time>2019-03-23T07:58:14.000Z</time>
      </trkpt>
      <trkpt lat="44.12316" lon="5.02865">
        <ele>175</ele>
        <time>2019-03-23T07:58:19.000Z</time>
      </trkpt>
      <trkpt lat="44.12317" lon="5.02866">
        <ele>175</ele>
        <time>2019-03-23T07:58:21.000Z</time>
      </trkpt>
      <trkpt lat="44.12318" lon="5.02868">
        <ele>174.80000305176</ele>
        <time>2019-03-23T07:58:23.000Z</time>
      </trkpt>
      <trkpt lat="44.12319" lon="5.02877">
        <ele>175</ele>
        <time>2019-03-23T07:58:31.000Z</time>
      </trkpt>
      <trkpt lat="44.12319" lon="5.02879">
        <ele>175.19999694824</ele>
        <time>2019-03-23T07:58:32.000Z</time>
      </trkpt>
      <trkpt lat="44.12323" lon="5.02889">
        <ele>175.19999694824</ele>
        <time>2019-03-23T07:58:41.000Z</time>
      </trkpt>
      <trkpt lat="44.12325" lon="5.02892">
        <ele>175.19999694824</ele>
        <time>2019-03-23T07:58:44.000Z</time>
      </trkpt>
      <trkpt lat="44.12324" lon="5.02902">
        <ele>174.80000305176</ele>
        <time>2019-03-23T07:58:51.000Z</time>
      </trkpt>
      <trkpt lat="44.12324" lon="5.02904">
        <ele>175</ele>
        <time>2019-03-23T07:58:53.000Z</time>
      </trkpt>
      <trkpt lat="44.12324" lon="5.02912">
        <ele>175.19999694824</ele>
        <time>2019-03-23T07:59:01.000Z</time>
      </trkpt>
      <trkpt lat="44.12323" lon="5.02915">
        <ele>175.19999694824</ele>
        <time>2019-03-23T07:59:03.000Z</time>
      </trkpt>
      <trkpt lat="44.12322" lon="5.02919">
        <ele>175.19999694824</ele>
        <time>2019-03-23T07:59:06.000Z</time>
      </trkpt>
      <trkpt lat="44.12323" lon="5.02931">
        <ele>176.60000610352</ele>
        <time>2019-03-23T07:59:15.000Z</time>
      </trkpt>
      <trkpt lat="44.12323" lon="5.02933">
        <ele>176.60000610352</ele>
        <time>2019-03-23T07:59:17.000Z</time>
      </trkpt>
      <trkpt lat="44.12322" lon="5.0294">
        <ele>177.39999389648</ele>
        <time>2019-03-23T07:59:23.000Z</time>
      </trkpt>
      <trkpt lat="44.12322" lon="5.02943">
        <ele>177.60000610352</ele>
        <time>2019-03-23T07:59:25.000Z</time>
      </trkpt>
      <trkpt lat="44.12321" lon="5.02945">
        <ele>178</ele>
        <time>2019-03-23T07:59:27.000Z</time>
      </trkpt>
      <trkpt lat="44.12321" lon="5.02946">
        <ele>178.19999694824</ele>
        <time>2019-03-23T07:59:28.000Z</time>
      </trkpt>
      <trkpt lat="44.12322" lon="5.02948">
        <ele>178.19999694824</ele>
        <time>2019-03-23T07:59:29.000Z</time>
      </trkpt>
      <trkpt lat="44.12324" lon="5.02951">
        <ele>178.39999389648</ele>
        <time>2019-03-23T07:59:31.000Z</time>
      </trkpt>
      <trkpt lat="44.12324" lon="5.02954">
        <ele>178</ele>
        <time>2019-03-23T07:59:33.000Z</time>
      </trkpt>
      <trkpt lat="44.12325" lon="5.02957">
        <ele>177.39999389648</ele>
        <time>2019-03-23T07:59:35.000Z</time>
      </trkpt>
      <trkpt lat="44.12326" lon="5.02961">
        <ele>177</ele>
        <time>2019-03-23T07:59:38.000Z</time>
      </trkpt>
      <trkpt lat="44.12326" lon="5.02965">
        <ele>177.19999694824</ele>
        <time>2019-03-23T07:59:41.000Z</time>
      </trkpt>
      <trkpt lat="44.12325" lon="5.02965">
        <ele>177.19999694824</ele>
        <time>2019-03-23T07:59:42.000Z</time>
      </trkpt>
      <trkpt lat="44.12324" lon="5.02965">
        <ele>177.39999389648</ele>
        <time>2019-03-23T07:59:43.000Z</time>
      </trkpt>
      <trkpt lat="44.12324" lon="5.02965">
        <ele>177.80000305176</ele>
        <time>2019-03-23T07:59:46.000Z</time>
      </trkpt>
      <trkpt lat="44.12326" lon="5.02972">
        <ele>177.80000305176</ele>
        <time>2019-03-23T07:59:57.000Z</time>
      </trkpt>
      <trkpt lat="44.12328" lon="5.02978">
        <ele>177.80000305176</ele>
        <time>2019-03-23T08:00:02.000Z</time>
      </trkpt>
      <trkpt lat="44.12331" lon="5.02986">
        <ele>178</ele>
        <time>2019-03-23T08:00:07.000Z</time>
      </trkpt>
      <trkpt lat="44.12333" lon="5.0299">
        <ele>178.39999389648</ele>
        <time>2019-03-23T08:00:10.000Z</time>
      </trkpt>
      <trkpt lat="44.12334" lon="5.02991">
        <ele>178.60000610352</ele>
        <time>2019-03-23T08:00:11.000Z</time>
      </trkpt>
      <trkpt lat="44.12334" lon="5.02992">
        <ele>178.60000610352</ele>
        <time>2019-03-23T08:00:12.000Z</time>
      </trkpt>
      <trkpt lat="44.12337" lon="5.02999">
        <ele>178.19999694824</ele>
        <time>2019-03-23T08:00:19.000Z</time>
      </trkpt>
      <trkpt lat="44.12337" lon="5.03002">
        <ele>177.80000305176</ele>
        <time>2019-03-23T08:00:23.000Z</time>
      </trkpt>
      <trkpt lat="44.12337" lon="5.03008">
        <ele>177</ele>
        <time>2019-03-23T08:00:33.000Z</time>
      </trkpt>
      <trkpt lat="44.12336" lon="5.0301">
        <ele>176.80000305176</ele>
        <time>2019-03-23T08:00:34.000Z</time>
      </trkpt>
      <trkpt lat="44.12336" lon="5.03011">
        <ele>176.39999389648</ele>
        <time>2019-03-23T08:00:35.000Z</time>
      </trkpt>
      <trkpt lat="44.12334" lon="5.03014">
        <ele>176</ele>
        <time>2019-03-23T08:00:38.000Z</time>
      </trkpt>
      <trkpt lat="44.12332" lon="5.03016">
        <ele>175.60000610352</ele>
        <time>2019-03-23T08:00:41.000Z</time>
      </trkpt>
      <trkpt lat="44.12332" lon="5.03016">
        <ele>175.39999389648</ele>
        <time>2019-03-23T08:00:42.000Z</time>
      </trkpt>
      <trkpt lat="44.1233" lon="5.03017">
        <ele>174.80000305176</ele>
        <time>2019-03-23T08:00:44.000Z</time>
      </trkpt>
      <trkpt lat="44.12329" lon="5.03018">
        <ele>174.19999694824</ele>
        <time>2019-03-23T08:00:46.000Z</time>
      </trkpt>
      <trkpt lat="44.12328" lon="5.0302">
        <ele>173.60000610352</ele>
        <time>2019-03-23T08:00:49.000Z</time>
      </trkpt>
      <trkpt lat="44.12328" lon="5.03022">
        <ele>173</ele>
        <time>2019-03-23T08:00:51.000Z</time>
      </trkpt>
      <trkpt lat="44.12326" lon="5.03022">
        <ele>172</ele>
        <time>2019-03-23T08:00:55.000Z</time>
      </trkpt>
      <trkpt lat="44.12323" lon="5.0302">
        <ele>171.39999389648</ele>
        <time>2019-03-23T08:00:57.000Z</time>
      </trkpt>
      <trkpt lat="44.12322" lon="5.0302">
        <ele>171.19999694824</ele>
        <time>2019-03-23T08:00:59.000Z</time>
      </trkpt>
      <trkpt lat="44.12322" lon="5.0302">
        <ele>170.80000305176</ele>
        <time>2019-03-23T08:01:01.000Z</time>
      </trkpt>
      <trkpt lat="44.1232" lon="5.0302">
        <ele>169.60000610352</ele>
        <time>2019-03-23T08:01:05.000Z</time>
      </trkpt>
      <trkpt lat="44.12317" lon="5.0302">
        <ele>168.39999389648</ele>
        <time>2019-03-23T08:01:08.000Z</time>
      </trkpt>
      <trkpt lat="44.12315" lon="5.03024">
        <ele>167.39999389648</ele>
        <time>2019-03-23T08:01:13.000Z</time>
      </trkpt>
      <trkpt lat="44.12314" lon="5.03025">
        <ele>167.39999389648</ele>
        <time>2019-03-23T08:01:14.000Z</time>
      </trkpt>
      <trkpt lat="44.12314" lon="5.03028">
        <ele>166.19999694824</ele>
        <time>2019-03-23T08:01:18.000Z</time>
      </trkpt>
      <trkpt lat="44.12314" lon="5.03031">
        <ele>165.19999694824</ele>
        <time>2019-03-23T08:01:23.000Z</time>
      </trkpt>
      <trkpt lat="44.12314" lon="5.03033">
        <ele>164.60000610352</ele>
        <time>2019-03-23T08:01:26.000Z</time>
      </trkpt>
      <trkpt lat="44.12314" lon="5.03033">
        <ele>164</ele>
        <time>2019-03-23T08:01:28.000Z</time>
      </trkpt>
      <trkpt lat="44.12312" lon="5.03036">
        <ele>163</ele>
        <time>2019-03-23T08:01:32.000Z</time>
      </trkpt>
      <trkpt lat="44.1231" lon="5.0304">
        <ele>162</ele>
        <time>2019-03-23T08:01:37.000Z</time>
      </trkpt>
      <trkpt lat="44.12308" lon="5.03042">
        <ele>161</ele>
        <time>2019-03-23T08:01:40.000Z</time>
      </trkpt>
      <trkpt lat="44.12305" lon="5.0304">
        <ele>160</ele>
        <time>2019-03-23T08:01:44.000Z</time>
      </trkpt>
      <trkpt lat="44.12304" lon="5.03039">
        <ele>159.60000610352</ele>
        <time>2019-03-23T08:01:45.000Z</time>
      </trkpt>
      <trkpt lat="44.123" lon="5.03037">
        <ele>159</ele>
        <time>2019-03-23T08:01:48.000Z</time>
      </trkpt>
      <trkpt lat="44.12295" lon="5.0304">
        <ele>158.80000305176</ele>
        <time>2019-03-23T08:01:53.000Z</time>
      </trkpt>
      <trkpt lat="44.12291" lon="5.0304">
        <ele>158.60000610352</ele>
        <time>2019-03-23T08:01:57.000Z</time>
      </trkpt>
      <trkpt lat="44.1229" lon="5.0304">
        <ele>158.39999389648</ele>
        <time>2019-03-23T08:01:58.000Z</time>
      </trkpt>
      <trkpt lat="44.12288" lon="5.0304">
        <ele>158.19999694824</ele>
        <time>2019-03-23T08:01:59.000Z</time>
      </trkpt>
      <trkpt lat="44.12285" lon="5.03041">
        <ele>157.60000610352</ele>
        <time>2019-03-23T08:02:03.000Z</time>
      </trkpt>
      <trkpt lat="44.12282" lon="5.03042">
        <ele>157.19999694824</ele>
        <time>2019-03-23T08:02:06.000Z</time>
      </trkpt>
      <trkpt lat="44.12281" lon="5.03043">
        <ele>157.19999694824</ele>
        <time>2019-03-23T08:02:07.000Z</time>
      </trkpt>
      <trkpt lat="44.12278" lon="5.03044">
        <ele>156.80000305176</ele>
        <time>2019-03-23T08:02:09.000Z</time>
      </trkpt>
      <trkpt lat="44.12277" lon="5.03045">
        <ele>156.60000610352</ele>
        <time>2019-03-23T08:02:11.000Z</time>
      </trkpt>
      <trkpt lat="44.12276" lon="5.03045">
        <ele>156.60000610352</ele>
        <time>2019-03-23T08:02:12.000Z</time>
      </trkpt>
      <trkpt lat="44.12267" lon="5.03047">
        <ele>156</ele>
        <time>2019-03-23T08:02:21.000Z</time>
      </trkpt>
      <trkpt lat="44.12263" lon="5.03049">
        <ele>155.80000305176</ele>
        <time>2019-03-23T08:02:24.000Z</time>
      </trkpt>
      <trkpt lat="44.12261" lon="5.0305">
        <ele>155.80000305176</ele>
        <time>2019-03-23T08:02:25.000Z</time>
      </trkpt>
      <trkpt lat="44.12258" lon="5.03051">
        <ele>155.80000305176</ele>
        <time>2019-03-23T08:02:27.000Z</time>
      </trkpt>
      <trkpt lat="44.12248" lon="5.03055">
        <ele>155.39999389648</ele>
        <time>2019-03-23T08:02:33.000Z</time>
      </trkpt>
      <trkpt lat="44.12244" lon="5.03057">
        <ele>155.39999389648</ele>
        <time>2019-03-23T08:02:38.000Z</time>
      </trkpt>
      <trkpt lat="44.12236" lon="5.03061">
        <ele>155.60000610352</ele>
        <time>2019-03-23T08:02:46.000Z</time>
      </trkpt>
      <trkpt lat="44.12229" lon="5.03063">
        <ele>156.19999694824</ele>
        <time>2019-03-23T08:02:53.000Z</time>
      </trkpt>
      <trkpt lat="44.12227" lon="5.03064">
        <ele>156.39999389648</ele>
        <time>2019-03-23T08:02:59.000Z</time>
      </trkpt>
      <trkpt lat="44.12226" lon="5.03064">
        <ele>156.19999694824</ele>
        <time>2019-03-23T08:03:03.000Z</time>
      </trkpt>
      <trkpt lat="44.12223" lon="5.03065">
        <ele>156.19999694824</ele>
        <time>2019-03-23T08:03:08.000Z</time>
      </trkpt>
      <trkpt lat="44.12221" lon="5.03067">
        <ele>156.39999389648</ele>
        <time>2019-03-23T08:03:10.000Z</time>
      </trkpt>
      <trkpt lat="44.12218" lon="5.03068">
        <ele>156.60000610352</ele>
        <time>2019-03-23T08:03:12.000Z</time>
      </trkpt>
      <trkpt lat="44.12214" lon="5.03068">
        <ele>156.60000610352</ele>
        <time>2019-03-23T08:03:16.000Z</time>
      </trkpt>
      <trkpt lat="44.12209" lon="5.03068">
        <ele>156.80000305176</ele>
        <time>2019-03-23T08:03:23.000Z</time>
      </trkpt>
      <trkpt lat="44.1221" lon="5.03068">
        <ele>156.80000305176</ele>
        <time>2019-03-23T08:03:25.000Z</time>
      </trkpt>
      <trkpt lat="44.12215" lon="5.03063">
        <ele>156.60000610352</ele>
        <time>2019-03-23T08:03:33.000Z</time>
      </trkpt>
      <trkpt lat="44.12216" lon="5.03058">
        <ele>156.80000305176</ele>
        <time>2019-03-23T08:03:35.000Z</time>
      </trkpt>
      <trkpt lat="44.12215" lon="5.03047">
        <ele>156.60000610352</ele>
        <time>2019-03-23T08:03:43.000Z</time>
      </trkpt>
      <trkpt lat="44.12215" lon="5.03038">
        <ele>155.19999694824</ele>
        <time>2019-03-23T08:03:52.000Z</time>
      </trkpt>
      <trkpt lat="44.12215" lon="5.03035">
        <ele>154.19999694824</ele>
        <time>2019-03-23T08:03:57.000Z</time>
      </trkpt>
      <trkpt lat="44.12217" lon="5.03032">
        <ele>153.19999694824</ele>
        <time>2019-03-23T08:04:03.000Z</time>
      </trkpt>
      <trkpt lat="44.12221" lon="5.03025">
        <ele>152.19999694824</ele>
        <time>2019-03-23T08:04:12.000Z</time>
      </trkpt>
      <trkpt lat="44.12221" lon="5.03025">
        <ele>152</ele>
        <time>2019-03-23T08:04:13.000Z</time>
      </trkpt>
      <trkpt lat="44.12227" lon="5.03018">
        <ele>152.19999694824</ele>
        <time>2019-03-23T08:04:24.000Z</time>
      </trkpt>
      <trkpt lat="44.12234" lon="5.03013">
        <ele>152.19999694824</ele>
        <time>2019-03-23T08:04:33.000Z</time>
      </trkpt>
      <trkpt lat="44.12234" lon="5.03013">
        <ele>152.39999389648</ele>
        <time>2019-03-23T08:04:35.000Z</time>
      </trkpt>
      <trkpt lat="44.12242" lon="5.03008">
        <ele>153.19999694824</ele>
        <time>2019-03-23T08:04:47.000Z</time>
      </trkpt>
      <trkpt lat="44.12244" lon="5.03004">
        <ele>153.39999389648</ele>
        <time>2019-03-23T08:04:50.000Z</time>
      </trkpt>
      <trkpt lat="44.12255" lon="5.02997">
        <ele>154</ele>
        <time>2019-03-23T08:04:56.000Z</time>
      </trkpt>
      <trkpt lat="44.1226" lon="5.02995">
        <ele>154.19999694824</ele>
        <time>2019-03-23T08:04:59.000Z</time>
      </trkpt>
      <trkpt lat="44.12261" lon="5.02994">
        <ele>154.19999694824</ele>
        <time>2019-03-23T08:05:00.000Z</time>
      </trkpt>
      <trkpt lat="44.12268" lon="5.02994">
        <ele>155.19999694824</ele>
        <time>2019-03-23T08:05:07.000Z</time>
      </trkpt>
      <trkpt lat="44.12271" lon="5.02994">
        <ele>155.39999389648</ele>
        <time>2019-03-23T08:05:09.000Z</time>
      </trkpt>
      <trkpt lat="44.12277" lon="5.02998">
        <ele>156.19999694824</ele>
        <time>2019-03-23T08:05:16.000Z</time>
      </trkpt>
      <trkpt lat="44.12281" lon="5.03002">
        <ele>156.80000305176</ele>
        <time>2019-03-23T08:05:21.000Z</time>
      </trkpt>
      <trkpt lat="44.12284" lon="5.03005">
        <ele>157</ele>
        <time>2019-03-23T08:05:24.000Z</time>
      </trkpt>
      <trkpt lat="44.12287" lon="5.03004">
        <ele>157.39999389648</ele>
        <time>2019-03-23T08:05:26.000Z</time>
      </trkpt>
      <trkpt lat="44.12293" lon="5.03009">
        <ele>158.39999389648</ele>
        <time>2019-03-23T08:05:33.000Z</time>
      </trkpt>
      <trkpt lat="44.12295" lon="5.03013">
        <ele>159</ele>
        <time>2019-03-23T08:05:36.000Z</time>
      </trkpt>
      <trkpt lat="44.12301" lon="5.03019">
        <ele>159.19999694824</ele>
        <time>2019-03-23T08:05:46.000Z</time>
      </trkpt>
      <trkpt lat="44.12303" lon="5.03025">
        <ele>159.39999389648</ele>
        <time>2019-03-23T08:05:50.000Z</time>
      </trkpt>
      <trkpt lat="44.12303" lon="5.03029">
        <ele>159.39999389648</ele>
        <time>2019-03-23T08:05:52.000Z</time>
      </trkpt>
      <trkpt lat="44.12303" lon="5.03044">
        <ele>159.19999694824</ele>
        <time>2019-03-23T08:06:00.000Z</time>
      </trkpt>
      <trkpt lat="44.12304" lon="5.03046">
        <ele>159</ele>
        <time>2019-03-23T08:06:01.000Z</time>
      </trkpt>
      <trkpt lat="44.12309" lon="5.03057">
        <ele>158.39999389648</ele>
        <time>2019-03-23T08:06:07.000Z</time>
      </trkpt>
      <trkpt lat="44.12311" lon="5.03062">
        <ele>158</ele>
        <time>2019-03-23T08:06:10.000Z</time>
      </trkpt>
      <trkpt lat="44.12312" lon="5.03066">
        <ele>157.80000305176</ele>
        <time>2019-03-23T08:06:12.000Z</time>
      </trkpt>
      <trkpt lat="44.12314" lon="5.03073">
        <ele>157.39999389648</ele>
        <time>2019-03-23T08:06:17.000Z</time>
      </trkpt>
      <trkpt lat="44.12316" lon="5.03082">
        <ele>156.80000305176</ele>
        <time>2019-03-23T08:06:22.000Z</time>
      </trkpt>
      <trkpt lat="44.12317" lon="5.0309">
        <ele>156.19999694824</ele>
        <time>2019-03-23T08:06:27.000Z</time>
      </trkpt>
      <trkpt lat="44.12318" lon="5.03096">
        <ele>155.80000305176</ele>
        <time>2019-03-23T08:06:31.000Z</time>
      </trkpt>
      <trkpt lat="44.12319" lon="5.03104">
        <ele>155.80000305176</ele>
        <time>2019-03-23T08:06:35.000Z</time>
      </trkpt>
      <trkpt lat="44.1232" lon="5.03112">
        <ele>155.19999694824</ele>
        <time>2019-03-23T08:06:39.000Z</time>
      </trkpt>
      <trkpt lat="44.12321" lon="5.03116">
        <ele>155</ele>
        <time>2019-03-23T08:06:41.000Z</time>
      </trkpt>
      <trkpt lat="44.12323" lon="5.03126">
        <ele>154.19999694824</ele>
        <time>2019-03-23T08:06:47.000Z</time>
      </trkpt>
      <trkpt lat="44.12324" lon="5.03126">
        <ele>154</ele>
        <time>2019-03-23T08:06:48.000Z</time>
      </trkpt>
      <trkpt lat="44.12327" lon="5.03139">
        <ele>153.60000610352</ele>
        <time>2019-03-23T08:06:56.000Z</time>
      </trkpt>
      <trkpt lat="44.12328" lon="5.03145">
        <ele>153.39999389648</ele>
        <time>2019-03-23T08:06:59.000Z</time>
      </trkpt>
      <trkpt lat="44.1233" lon="5.0315">
        <ele>153.19999694824</ele>
        <time>2019-03-23T08:07:02.000Z</time>
      </trkpt>
      <trkpt lat="44.12331" lon="5.03155">
        <ele>152.80000305176</ele>
        <time>2019-03-23T08:07:05.000Z</time>
      </trkpt>
      <trkpt lat="44.12334" lon="5.03164">
        <ele>152.39999389648</ele>
        <time>2019-03-23T08:07:11.000Z</time>
      </trkpt>
      <trkpt lat="44.12338" lon="5.03177">
        <ele>152.19999694824</ele>
        <time>2019-03-23T08:07:18.000Z</time>
      </trkpt>
      <trkpt lat="44.12339" lon="5.03182">
        <ele>152</ele>
        <time>2019-03-23T08:07:22.000Z</time>
      </trkpt>
      <trkpt lat="44.1234" lon="5.03186">
        <ele>151.80000305176</ele>
        <time>2019-03-23T08:07:24.000Z</time>
      </trkpt>
      <trkpt lat="44.12341" lon="5.03189">
        <ele>151.60000610352</ele>
        <time>2019-03-23T08:07:26.000Z</time>
      </trkpt>
      <trkpt lat="44.12349" lon="5.03203">
        <ele>151.80000305176</ele>
        <time>2019-03-23T08:07:37.000Z</time>
      </trkpt>
      <trkpt lat="44.12351" lon="5.03204">
        <ele>151.80000305176</ele>
        <time>2019-03-23T08:07:39.000Z</time>
      </trkpt>
      <trkpt lat="44.12356" lon="5.03205">
        <ele>152.19999694824</ele>
        <time>2019-03-23T08:07:43.000Z</time>
      </trkpt>
      <trkpt lat="44.12359" lon="5.03206">
        <ele>152.80000305176</ele>
        <time>2019-03-23T08:07:46.000Z</time>
      </trkpt>
      <trkpt lat="44.1236" lon="5.03206">
        <ele>153</ele>
        <time>2019-03-23T08:07:47.000Z</time>
      </trkpt>
      <trkpt lat="44.12364" lon="5.03205">
        <ele>153.19999694824</ele>
        <time>2019-03-23T08:07:50.000Z</time>
      </trkpt>
      <trkpt lat="44.12376" lon="5.03204">
        <ele>153.80000305176</ele>
        <time>2019-03-23T08:08:00.000Z</time>
      </trkpt>
      <trkpt lat="44.12376" lon="5.03204">
        <ele>153.80000305176</ele>
        <time>2019-03-23T08:08:01.000Z</time>
      </trkpt>
      <trkpt lat="44.12378" lon="5.03204">
        <ele>154</ele>
        <time>2019-03-23T08:08:02.000Z</time>
      </trkpt>
      <trkpt lat="44.12386" lon="5.03201">
        <ele>154.39999389648</ele>
        <time>2019-03-23T08:08:09.000Z</time>
      </trkpt>
      <trkpt lat="44.12395" lon="5.03201">
        <ele>155</ele>
        <time>2019-03-23T08:08:16.000Z</time>
      </trkpt>
      <trkpt lat="44.12399" lon="5.03201">
        <ele>155.19999694824</ele>
        <time>2019-03-23T08:08:19.000Z</time>
      </trkpt>
      <trkpt lat="44.12401" lon="5.03201">
        <ele>155.39999389648</ele>
        <time>2019-03-23T08:08:21.000Z</time>
      </trkpt>
      <trkpt lat="44.12407" lon="5.03202">
        <ele>156</ele>
        <time>2019-03-23T08:08:26.000Z</time>
      </trkpt>
      <trkpt lat="44.12413" lon="5.03202">
        <ele>156.39999389648</ele>
        <time>2019-03-23T08:08:31.000Z</time>
      </trkpt>
      <trkpt lat="44.12415" lon="5.03201">
        <ele>156.60000610352</ele>
        <time>2019-03-23T08:08:33.000Z</time>
      </trkpt>
      <trkpt lat="44.12418" lon="5.03198">
        <ele>157.19999694824</ele>
        <time>2019-03-23T08:08:38.000Z</time>
      </trkpt>
      <trkpt lat="44.12419" lon="5.03195">
        <ele>157.60000610352</ele>
        <time>2019-03-23T08:08:41.000Z</time>
      </trkpt>
      <trkpt lat="44.1242" lon="5.03194">
        <ele>157.60000610352</ele>
        <time>2019-03-23T08:08:42.000Z</time>
      </trkpt>
      <trkpt lat="44.1242" lon="5.03193">
        <ele>157.60000610352</ele>
        <time>2019-03-23T08:08:43.000Z</time>
      </trkpt>
      <trkpt lat="44.1242" lon="5.03191">
        <ele>157.60000610352</ele>
        <time>2019-03-23T08:08:44.000Z</time>
      </trkpt>
      <trkpt lat="44.12422" lon="5.03185">
        <ele>158.19999694824</ele>
        <time>2019-03-23T08:08:48.000Z</time>
      </trkpt>
      <trkpt lat="44.12422" lon="5.03181">
        <ele>158.60000610352</ele>
        <time>2019-03-23T08:08:52.000Z</time>
      </trkpt>
      <trkpt lat="44.12423" lon="5.03181">
        <ele>158.60000610352</ele>
        <time>2019-03-23T08:08:54.000Z</time>
      </trkpt>
      <trkpt lat="44.12422" lon="5.03177">
        <ele>158.60000610352</ele>
        <time>2019-03-23T08:09:03.000Z</time>
      </trkpt>
      <trkpt lat="44.12422" lon="5.03176">
        <ele>158.80000305176</ele>
        <time>2019-03-23T08:09:05.000Z</time>
      </trkpt>
      <trkpt lat="44.12421" lon="5.03175">
        <ele>159</ele>
        <time>2019-03-23T08:09:06.000Z</time>
      </trkpt>
      <trkpt lat="44.1242" lon="5.03174">
        <ele>159.19999694824</ele>
        <time>2019-03-23T08:09:07.000Z</time>
      </trkpt>
      <trkpt lat="44.1242" lon="5.03171">
        <ele>159.60000610352</ele>
        <time>2019-03-23T08:09:10.000Z</time>
      </trkpt>
      <trkpt lat="44.12422" lon="5.03168">
        <ele>159.80000305176</ele>
        <time>2019-03-23T08:09:14.000Z</time>
      </trkpt>
      <trkpt lat="44.12424" lon="5.03167">
        <ele>160.39999389648</ele>
        <time>2019-03-23T08:09:17.000Z</time>
      </trkpt>
      <trkpt lat="44.12427" lon="5.03166">
        <ele>160.80000305176</ele>
        <time>2019-03-23T08:09:20.000Z</time>
      </trkpt>
      <trkpt lat="44.12429" lon="5.03167">
        <ele>161.19999694824</ele>
        <time>2019-03-23T08:09:23.000Z</time>
      </trkpt>
      <trkpt lat="44.1243" lon="5.03168">
        <ele>161.39999389648</ele>
        <time>2019-03-23T08:09:24.000Z</time>
      </trkpt>
      <trkpt lat="44.12435" lon="5.03173">
        <ele>161.80000305176</ele>
        <time>2019-03-23T08:09:30.000Z</time>
      </trkpt>
      <trkpt lat="44.12436" lon="5.03174">
        <ele>161.80000305176</ele>
        <time>2019-03-23T08:09:31.000Z</time>
      </trkpt>
      <trkpt lat="44.12439" lon="5.03179">
        <ele>162.19999694824</ele>
        <time>2019-03-23T08:09:35.000Z</time>
      </trkpt>
      <trkpt lat="44.12439" lon="5.0318">
        <ele>162.39999389648</ele>
        <time>2019-03-23T08:09:36.000Z</time>
      </trkpt>
      <trkpt lat="44.1244" lon="5.03184">
        <ele>162.60000610352</ele>
        <time>2019-03-23T08:09:39.000Z</time>
      </trkpt>
      <trkpt lat="44.12444" lon="5.03194">
        <ele>163.39999389648</ele>
        <time>2019-03-23T08:09:47.000Z</time>
      </trkpt>
      <trkpt lat="44.12445" lon="5.03197">
        <ele>163.60000610352</ele>
        <time>2019-03-23T08:09:49.000Z</time>
      </trkpt>
      <trkpt lat="44.12446" lon="5.03198">
        <ele>163.60000610352</ele>
        <time>2019-03-23T08:09:50.000Z</time>
      </trkpt>
      <trkpt lat="44.12447" lon="5.03201">
        <ele>163.80000305176</ele>
        <time>2019-03-23T08:09:52.000Z</time>
      </trkpt>
      <trkpt lat="44.12449" lon="5.03205">
        <ele>164.19999694824</ele>
        <time>2019-03-23T08:09:55.000Z</time>
      </trkpt>
      <trkpt lat="44.12453" lon="5.03206">
        <ele>164.60000610352</ele>
        <time>2019-03-23T08:09:59.000Z</time>
      </trkpt>
      <trkpt lat="44.12453" lon="5.03205">
        <ele>164.80000305176</ele>
        <time>2019-03-23T08:10:00.000Z</time>
      </trkpt>
      <trkpt lat="44.12452" lon="5.03198">
        <ele>165.60000610352</ele>
        <time>2019-03-23T08:10:05.000Z</time>
      </trkpt>
      <trkpt lat="44.12452" lon="5.03197">
        <ele>165.80000305176</ele>
        <time>2019-03-23T08:10:06.000Z</time>
      </trkpt>
      <trkpt lat="44.12452" lon="5.03195">
        <ele>166.19999694824</ele>
        <time>2019-03-23T08:10:07.000Z</time>
      </trkpt>
      <trkpt lat="44.12452" lon="5.0319">
        <ele>167</ele>
        <time>2019-03-23T08:10:11.000Z</time>
      </trkpt>
      <trkpt lat="44.12446" lon="5.03179">
        <ele>167.19999694824</ele>
        <time>2019-03-23T08:10:18.000Z</time>
      </trkpt>
      <trkpt lat="44.12445" lon="5.03178">
        <ele>167.19999694824</ele>
        <time>2019-03-23T08:10:19.000Z</time>
      </trkpt>
      <trkpt lat="44.12444" lon="5.03176">
        <ele>167.19999694824</ele>
        <time>2019-03-23T08:10:20.000Z</time>
      </trkpt>
      <trkpt lat="44.12441" lon="5.03158">
        <ele>167.80000305176</ele>
        <time>2019-03-23T08:10:30.000Z</time>
      </trkpt>
      <trkpt lat="44.12441" lon="5.03153">
        <ele>168</ele>
        <time>2019-03-23T08:10:33.000Z</time>
      </trkpt>
      <trkpt lat="44.1244" lon="5.03146">
        <ele>168.39999389648</ele>
        <time>2019-03-23T08:10:37.000Z</time>
      </trkpt>
      <trkpt lat="44.1244" lon="5.03143">
        <ele>168.39999389648</ele>
        <time>2019-03-23T08:10:39.000Z</time>
      </trkpt>
      <trkpt lat="44.12437" lon="5.03127">
        <ele>168.39999389648</ele>
        <time>2019-03-23T08:10:48.000Z</time>
      </trkpt>
      <trkpt lat="44.12435" lon="5.0311">
        <ele>168.80000305176</ele>
        <time>2019-03-23T08:10:57.000Z</time>
      </trkpt>
      <trkpt lat="44.12435" lon="5.03105">
        <ele>168.80000305176</ele>
        <time>2019-03-23T08:11:00.000Z</time>
      </trkpt>
      <trkpt lat="44.12434" lon="5.03103">
        <ele>168.80000305176</ele>
        <time>2019-03-23T08:11:01.000Z</time>
      </trkpt>
      <trkpt lat="44.12434" lon="5.03099">
        <ele>168.80000305176</ele>
        <time>2019-03-23T08:11:03.000Z</time>
      </trkpt>
      <trkpt lat="44.12433" lon="5.03095">
        <ele>168.80000305176</ele>
        <time>2019-03-23T08:11:05.000Z</time>
      </trkpt>
      <trkpt lat="44.12432" lon="5.0308">
        <ele>169</ele>
        <time>2019-03-23T08:11:13.000Z</time>
      </trkpt>
      <trkpt lat="44.12431" lon="5.03073">
        <ele>169</ele>
        <time>2019-03-23T08:11:17.000Z</time>
      </trkpt>
      <trkpt lat="44.12432" lon="5.03067">
        <ele>169.39999389648</ele>
        <time>2019-03-23T08:11:21.000Z</time>
      </trkpt>
      <trkpt lat="44.12432" lon="5.03062">
        <ele>169.19999694824</ele>
        <time>2019-03-23T08:11:25.000Z</time>
      </trkpt>
      <trkpt lat="44.1243" lon="5.03061">
        <ele>169.60000610352</ele>
        <time>2019-03-23T08:11:28.000Z</time>
      </trkpt>
      <trkpt lat="44.12429" lon="5.03061">
        <ele>169.60000610352</ele>
        <time>2019-03-23T08:11:29.000Z</time>
      </trkpt>
      <trkpt lat="44.12428" lon="5.03061">
        <ele>170</ele>
        <time>2019-03-23T08:11:36.000Z</time>
      </trkpt>
      <trkpt lat="44.12428" lon="5.03062">
        <ele>170</ele>
        <time>2019-03-23T08:11:37.000Z</time>
      </trkpt>
      <trkpt lat="44.12428" lon="5.03062">
        <ele>170</ele>
        <time>2019-03-23T08:11:38.000Z</time>
      </trkpt>
      <trkpt lat="44.12428" lon="5.03062">
        <ele>170</ele>
        <time>2019-03-23T08:11:40.000Z</time>
      </trkpt>
      <trkpt lat="44.12428" lon="5.03055">
        <ele>169.60000610352</ele>
        <time>2019-03-23T08:11:47.000Z</time>
      </trkpt>
      <trkpt lat="44.12425" lon="5.03036">
        <ele>169.60000610352</ele>
        <time>2019-03-23T08:11:57.000Z</time>
      </trkpt>
      <trkpt lat="44.12425" lon="5.03034">
        <ele>169.80000305176</ele>
        <time>2019-03-23T08:11:58.000Z</time>
      </trkpt>
      <trkpt lat="44.12424" lon="5.03032">
        <ele>169.80000305176</ele>
        <time>2019-03-23T08:11:59.000Z</time>
      </trkpt>
      <trkpt lat="44.12422" lon="5.03021">
        <ele>170.39999389648</ele>
        <time>2019-03-23T08:12:06.000Z</time>
      </trkpt>
      <trkpt lat="44.12418" lon="5.03011">
        <ele>170.80000305176</ele>
        <time>2019-03-23T08:12:13.000Z</time>
      </trkpt>
      <trkpt lat="44.12417" lon="5.03006">
        <ele>171</ele>
        <time>2019-03-23T08:12:16.000Z</time>
      </trkpt>
      <trkpt lat="44.12414" lon="5.02997">
        <ele>172.19999694824</ele>
        <time>2019-03-23T08:12:22.000Z</time>
      </trkpt>
      <trkpt lat="44.12411" lon="5.02989">
        <ele>172.39999389648</ele>
        <time>2019-03-23T08:12:28.000Z</time>
      </trkpt>
      <trkpt lat="44.12409" lon="5.02983">
        <ele>173.19999694824</ele>
        <time>2019-03-23T08:12:32.000Z</time>
      </trkpt>
      <trkpt lat="44.12408" lon="5.0298">
        <ele>173.19999694824</ele>
        <time>2019-03-23T08:12:34.000Z</time>
      </trkpt>
      <trkpt lat="44.12407" lon="5.02976">
        <ele>173.60000610352</ele>
        <time>2019-03-23T08:12:37.000Z</time>
      </trkpt>
      <trkpt lat="44.12404" lon="5.0297">
        <ele>174.19999694824</ele>
        <time>2019-03-23T08:12:42.000Z</time>
      </trkpt>
      <trkpt lat="44.12402" lon="5.02968">
        <ele>174.80000305176</ele>
        <time>2019-03-23T08:12:45.000Z</time>
      </trkpt>
      <trkpt lat="44.124" lon="5.02968">
        <ele>175</ele>
        <time>2019-03-23T08:12:47.000Z</time>
      </trkpt>
      <trkpt lat="44.12399" lon="5.02968">
        <ele>175</ele>
        <time>2019-03-23T08:12:49.000Z</time>
      </trkpt>
      <trkpt lat="44.12399" lon="5.02968">
        <ele>174.80000305176</ele>
        <time>2019-03-23T08:12:50.000Z</time>
      </trkpt>
      <trkpt lat="44.12398" lon="5.02968">
        <ele>174.60000610352</ele>
        <time>2019-03-23T08:12:52.000Z</time>
      </trkpt>
      <trkpt lat="44.12397" lon="5.02968">
        <ele>174.39999389648</ele>
        <time>2019-03-23T08:12:54.000Z</time>
      </trkpt>
      <trkpt lat="44.12396" lon="5.02969">
        <ele>174.39999389648</ele>
        <time>2019-03-23T08:12:55.000Z</time>
      </trkpt>
      <trkpt lat="44.12396" lon="5.02969">
        <ele>174.19999694824</ele>
        <time>2019-03-23T08:13:02.000Z</time>
      </trkpt>
      <trkpt lat="44.12398" lon="5.0297">
        <ele>174</ele>
        <time>2019-03-23T08:13:08.000Z</time>
      </trkpt>
      <trkpt lat="44.12401" lon="5.02971">
        <ele>174.19999694824</ele>
        <time>2019-03-23T08:13:12.000Z</time>
      </trkpt>
      <trkpt lat="44.12403" lon="5.02965">
        <ele>175.19999694824</ele>
        <time>2019-03-23T08:13:17.000Z</time>
      </trkpt>
      <trkpt lat="44.12403" lon="5.02964">
        <ele>175.39999389648</ele>
        <time>2019-03-23T08:13:18.000Z</time>
      </trkpt>
      <trkpt lat="44.12403" lon="5.02962">
        <ele>175.80000305176</ele>
        <time>2019-03-23T08:13:19.000Z</time>
      </trkpt>
      <trkpt lat="44.124" lon="5.0295">
        <ele>176.60000610352</ele>
        <time>2019-03-23T08:13:27.000Z</time>
      </trkpt>
      <trkpt lat="44.12399" lon="5.02949">
        <ele>177.39999389648</ele>
        <time>2019-03-23T08:13:30.000Z</time>
      </trkpt>
      <trkpt lat="44.124" lon="5.02949">
        <ele>177.60000610352</ele>
        <time>2019-03-23T08:13:33.000Z</time>
      </trkpt>
      <trkpt lat="44.12401" lon="5.02949">
        <ele>177.60000610352</ele>
        <time>2019-03-23T08:13:34.000Z</time>
      </trkpt>
      <trkpt lat="44.12401" lon="5.02949">
        <ele>177.60000610352</ele>
        <time>2019-03-23T08:13:36.000Z</time>
      </trkpt>
      <trkpt lat="44.12402" lon="5.02945">
        <ele>177.39999389648</ele>
        <time>2019-03-23T08:13:42.000Z</time>
      </trkpt>
      <trkpt lat="44.12402" lon="5.02942">
        <ele>177.60000610352</ele>
        <time>2019-03-23T08:13:44.000Z</time>
      </trkpt>
      <trkpt lat="44.124" lon="5.02932">
        <ele>178.19999694824</ele>
        <time>2019-03-23T08:13:51.000Z</time>
      </trkpt>
      <trkpt lat="44.12399" lon="5.02925">
        <ele>178.60000610352</ele>
        <time>2019-03-23T08:13:56.000Z</time>
      </trkpt>
      <trkpt lat="44.12399" lon="5.02924">
        <ele>178.80000305176</ele>
        <time>2019-03-23T08:13:57.000Z</time>
      </trkpt>
      <trkpt lat="44.12398" lon="5.02921">
        <ele>179.39999389648</ele>
        <time>2019-03-23T08:13:59.000Z</time>
      </trkpt>
      <trkpt lat="44.12397" lon="5.02918">
        <ele>180</ele>
        <time>2019-03-23T08:14:02.000Z</time>
      </trkpt>
      <trkpt lat="44.12397" lon="5.02918">
        <ele>180.19999694824</ele>
        <time>2019-03-23T08:14:03.000Z</time>
      </trkpt>
      <trkpt lat="44.12396" lon="5.02916">
        <ele>181</ele>
        <time>2019-03-23T08:14:07.000Z</time>
      </trkpt>
      <trkpt lat="44.12393" lon="5.02915">
        <ele>181</ele>
        <time>2019-03-23T08:14:19.000Z</time>
      </trkpt>
      <trkpt lat="44.12394" lon="5.02913">
        <ele>181</ele>
        <time>2019-03-23T08:14:22.000Z</time>
      </trkpt>
      <trkpt lat="44.12394" lon="5.02906">
        <ele>181.19999694824</ele>
        <time>2019-03-23T08:14:27.000Z</time>
      </trkpt>
      <trkpt lat="44.12392" lon="5.02898">
        <ele>182</ele>
        <time>2019-03-23T08:14:32.000Z</time>
      </trkpt>
      <trkpt lat="44.12391" lon="5.02896">
        <ele>182.19999694824</ele>
        <time>2019-03-23T08:14:33.000Z</time>
      </trkpt>
      <trkpt lat="44.12391" lon="5.02889">
        <ele>183.19999694824</ele>
        <time>2019-03-23T08:14:38.000Z</time>
      </trkpt>
      <trkpt lat="44.12391" lon="5.02887">
        <ele>183.39999389648</ele>
        <time>2019-03-23T08:14:39.000Z</time>
      </trkpt>
      <trkpt lat="44.1239" lon="5.02883">
        <ele>183.60000610352</ele>
        <time>2019-03-23T08:14:42.000Z</time>
      </trkpt>
      <trkpt lat="44.1239" lon="5.02882">
        <ele>183.80000305176</ele>
        <time>2019-03-23T08:14:43.000Z</time>
      </trkpt>
      <trkpt lat="44.12389" lon="5.02878">
        <ele>184.60000610352</ele>
        <time>2019-03-23T08:14:46.000Z</time>
      </trkpt>
      <trkpt lat="44.1239" lon="5.02871">
        <ele>185.39999389648</ele>
        <time>2019-03-23T08:14:52.000Z</time>
      </trkpt>
      <trkpt lat="44.1239" lon="5.0287">
        <ele>185.60000610352</ele>
        <time>2019-03-23T08:14:53.000Z</time>
      </trkpt>
      <trkpt lat="44.12391" lon="5.02864">
        <ele>186.19999694824</ele>
        <time>2019-03-23T08:14:58.000Z</time>
      </trkpt>
      <trkpt lat="44.12391" lon="5.02863">
        <ele>186.19999694824</ele>
        <time>2019-03-23T08:14:59.000Z</time>
      </trkpt>
      <trkpt lat="44.12394" lon="5.02859">
        <ele>186.60000610352</ele>
        <time>2019-03-23T08:15:04.000Z</time>
      </trkpt>
      <trkpt lat="44.12394" lon="5.02858">
        <ele>186.80000305176</ele>
        <time>2019-03-23T08:15:05.000Z</time>
      </trkpt>
      <trkpt lat="44.12395" lon="5.02856">
        <ele>187</ele>
        <time>2019-03-23T08:15:06.000Z</time>
      </trkpt>
      <trkpt lat="44.12399" lon="5.02852">
        <ele>187.80000305176</ele>
        <time>2019-03-23T08:15:10.000Z</time>
      </trkpt>
      <trkpt lat="44.124" lon="5.0285">
        <ele>188</ele>
        <time>2019-03-23T08:15:12.000Z</time>
      </trkpt>
      <trkpt lat="44.12406" lon="5.02845">
        <ele>188.80000305176</ele>
        <time>2019-03-23T08:15:17.000Z</time>
      </trkpt>
      <trkpt lat="44.12409" lon="5.02841">
        <ele>189.80000305176</ele>
        <time>2019-03-23T08:15:21.000Z</time>
      </trkpt>
      <trkpt lat="44.12414" lon="5.02837">
        <ele>190.80000305176</ele>
        <time>2019-03-23T08:15:27.000Z</time>
      </trkpt>
      <trkpt lat="44.12415" lon="5.02836">
        <ele>191</ele>
        <time>2019-03-23T08:15:28.000Z</time>
      </trkpt>
      <trkpt lat="44.12416" lon="5.02834">
        <ele>191.19999694824</ele>
        <time>2019-03-23T08:15:30.000Z</time>
      </trkpt>
      <trkpt lat="44.12419" lon="5.02831">
        <ele>192</ele>
        <time>2019-03-23T08:15:35.000Z</time>
      </trkpt>
      <trkpt lat="44.1242" lon="5.0283">
        <ele>192.19999694824</ele>
        <time>2019-03-23T08:15:36.000Z</time>
      </trkpt>
      <trkpt lat="44.12422" lon="5.02826">
        <ele>193.19999694824</ele>
        <time>2019-03-23T08:15:41.000Z</time>
      </trkpt>
      <trkpt lat="44.12423" lon="5.02824">
        <ele>193.39999389648</ele>
        <time>2019-03-23T08:15:43.000Z</time>
      </trkpt>
      <trkpt lat="44.12428" lon="5.02818">
        <ele>194.39999389648</ele>
        <time>2019-03-23T08:15:48.000Z</time>
      </trkpt>
      <trkpt lat="44.12434" lon="5.02811">
        <ele>195.39999389648</ele>
        <time>2019-03-23T08:15:55.000Z</time>
      </trkpt>
      <trkpt lat="44.12434" lon="5.0281">
        <ele>195.60000610352</ele>
        <time>2019-03-23T08:15:56.000Z</time>
      </trkpt>
      <trkpt lat="44.12437" lon="5.02807">
        <ele>196.80000305176</ele>
        <time>2019-03-23T08:16:01.000Z</time>
      </trkpt>
      <trkpt lat="44.1244" lon="5.02805">
        <ele>197.39999389648</ele>
        <time>2019-03-23T08:16:05.000Z</time>
      </trkpt>
      <trkpt lat="44.12444" lon="5.02804">
        <ele>198</ele>
        <time>2019-03-23T08:16:10.000Z</time>
      </trkpt>
      <trkpt lat="44.12449" lon="5.02803">
        <ele>199.19999694824</ele>
        <time>2019-03-23T08:16:16.000Z</time>
      </trkpt>
      <trkpt lat="44.12453" lon="5.02805">
        <ele>200.19999694824</ele>
        <time>2019-03-23T08:16:22.000Z</time>
      </trkpt>
      <trkpt lat="44.12454" lon="5.02805">
        <ele>200.39999389648</ele>
        <time>2019-03-23T08:16:23.000Z</time>
      </trkpt>
      <trkpt lat="44.1246" lon="5.02807">
        <ele>201.39999389648</ele>
        <time>2019-03-23T08:16:30.000Z</time>
      </trkpt>
      <trkpt lat="44.12465" lon="5.02809">
        <ele>202.39999389648</ele>
        <time>2019-03-23T08:16:36.000Z</time>
      </trkpt>
      <trkpt lat="44.12465" lon="5.02809">
        <ele>202.60000610352</ele>
        <time>2019-03-23T08:16:37.000Z</time>
      </trkpt>
      <trkpt lat="44.12468" lon="5.02807">
        <ele>203.39999389648</ele>
        <time>2019-03-23T08:16:46.000Z</time>
      </trkpt>
      <trkpt lat="44.12468" lon="5.02806">
        <ele>203.60000610352</ele>
        <time>2019-03-23T08:16:47.000Z</time>
      </trkpt>
      <trkpt lat="44.12467" lon="5.02802">
        <ele>203.80000305176</ele>
        <time>2019-03-23T08:16:57.000Z</time>
      </trkpt>
      <trkpt lat="44.12468" lon="5.02802">
        <ele>204.19999694824</ele>
        <time>2019-03-23T08:17:01.000Z</time>
      </trkpt>
      <trkpt lat="44.12468" lon="5.02802">
        <ele>204.39999389648</ele>
        <time>2019-03-23T08:17:02.000Z</time>
      </trkpt>
      <trkpt lat="44.12468" lon="5.02801">
        <ele>204</ele>
        <time>2019-03-23T08:17:06.000Z</time>
      </trkpt>
      <trkpt lat="44.12468" lon="5.02801">
        <ele>204</ele>
        <time>2019-03-23T08:17:07.000Z</time>
      </trkpt>
      <trkpt lat="44.12468" lon="5.02802">
        <ele>203.80000305176</ele>
        <time>2019-03-23T08:17:10.000Z</time>
      </trkpt>
      <trkpt lat="44.12467" lon="5.02803">
        <ele>204.60000610352</ele>
        <time>2019-03-23T08:17:18.000Z</time>
      </trkpt>
      <trkpt lat="44.12468" lon="5.02804">
        <ele>204.39999389648</ele>
        <time>2019-03-23T08:17:24.000Z</time>
      </trkpt>
      <trkpt lat="44.12468" lon="5.02804">
        <ele>204</ele>
        <time>2019-03-23T08:17:32.000Z</time>
      </trkpt>
      <trkpt lat="44.12468" lon="5.02803">
        <ele>204.19999694824</ele>
        <time>2019-03-23T08:17:34.000Z</time>
      </trkpt>
      <trkpt lat="44.12468" lon="5.02803">
        <ele>204.39999389648</ele>
        <time>2019-03-23T08:17:37.000Z</time>
      </trkpt>
      <trkpt lat="44.12467" lon="5.02803">
        <ele>204</ele>
        <time>2019-03-23T08:17:49.000Z</time>
      </trkpt>
      <trkpt lat="44.12465" lon="5.02803">
        <ele>204</ele>
        <time>2019-03-23T08:17:58.000Z</time>
      </trkpt>
      <trkpt lat="44.12464" lon="5.02803">
        <ele>204</ele>
        <time>2019-03-23T08:18:01.000Z</time>
      </trkpt>
      <trkpt lat="44.12464" lon="5.02803">
        <ele>204</ele>
        <time>2019-03-23T08:18:08.000Z</time>
      </trkpt>
      <trkpt lat="44.12468" lon="5.02803">
        <ele>204</ele>
        <time>2019-03-23T08:18:15.000Z</time>
      </trkpt>
      <trkpt lat="44.1247" lon="5.02804">
        <ele>204</ele>
        <time>2019-03-23T08:18:20.000Z</time>
      </trkpt>
      <trkpt lat="44.12471" lon="5.02804">
        <ele>204</ele>
        <time>2019-03-23T08:18:30.000Z</time>
      </trkpt>
      <trkpt lat="44.1247" lon="5.02804">
        <ele>204</ele>
        <time>2019-03-23T08:18:38.000Z</time>
      </trkpt>
      <trkpt lat="44.12469" lon="5.02804">
        <ele>204</ele>
        <time>2019-03-23T08:18:48.000Z</time>
      </trkpt>
      <trkpt lat="44.12468" lon="5.02802">
        <ele>204</ele>
        <time>2019-03-23T08:18:52.000Z</time>
      </trkpt>
      <trkpt lat="44.12468" lon="5.02801">
        <ele>204</ele>
        <time>2019-03-23T08:18:53.000Z</time>
      </trkpt>
      <trkpt lat="44.12468" lon="5.02801">
        <ele>204</ele>
        <time>2019-03-23T08:19:00.000Z</time>
      </trkpt>
      <trkpt lat="44.12468" lon="5.02802">
        <ele>204</ele>
        <time>2019-03-23T08:19:04.000Z</time>
      </trkpt>
      <trkpt lat="44.12468" lon="5.02804">
        <ele>204</ele>
        <time>2019-03-23T08:19:19.000Z</time>
      </trkpt>
      <trkpt lat="44.12467" lon="5.02805">
        <ele>204</ele>
        <time>2019-03-23T08:19:22.000Z</time>
      </trkpt>
      <trkpt lat="44.12467" lon="5.02806">
        <ele>204</ele>
        <time>2019-03-23T08:19:25.000Z</time>
      </trkpt>
      <trkpt lat="44.12467" lon="5.02806">
        <ele>204</ele>
        <time>2019-03-23T08:19:26.000Z</time>
      </trkpt>
      <trkpt lat="44.12467" lon="5.02807">
        <ele>204</ele>
        <time>2019-03-23T08:19:34.000Z</time>
      </trkpt>
      <trkpt lat="44.12467" lon="5.02808">
        <ele>204</ele>
        <time>2019-03-23T08:19:47.000Z</time>
      </trkpt>
      <trkpt lat="44.12467" lon="5.02808">
        <ele>204</ele>
        <time>2019-03-23T08:19:48.000Z</time>
      </trkpt>
      <trkpt lat="44.12466" lon="5.02808">
        <ele>204</ele>
        <time>2019-03-23T08:19:54.000Z</time>
      </trkpt>
      <trkpt lat="44.12462" lon="5.02806">
        <ele>204</ele>
        <time>2019-03-23T08:20:05.000Z</time>
      </trkpt>
      <trkpt lat="44.12468" lon="5.02806">
        <ele>204</ele>
        <time>2019-03-23T08:20:18.000Z</time>
      </trkpt>
      <trkpt lat="44.12467" lon="5.02806">
        <ele>204</ele>
        <time>2019-03-23T08:20:22.000Z</time>
      </trkpt>
      <trkpt lat="44.12466" lon="5.02807">
        <ele>204</ele>
        <time>2019-03-23T08:20:28.000Z</time>
      </trkpt>
      <trkpt lat="44.12464" lon="5.02806">
        <ele>204</ele>
        <time>2019-03-23T08:20:35.000Z</time>
      </trkpt>
      <trkpt lat="44.12463" lon="5.02806">
        <ele>204</ele>
        <time>2019-03-23T08:20:45.000Z</time>
      </trkpt>
      <trkpt lat="44.12462" lon="5.02806">
        <ele>204</ele>
        <time>2019-03-23T08:20:50.000Z</time>
      </trkpt>
      <trkpt lat="44.12461" lon="5.02806">
        <ele>204</ele>
        <time>2019-03-23T08:20:59.000Z</time>
      </trkpt>
      <trkpt lat="44.12461" lon="5.02807">
        <ele>204</ele>
        <time>2019-03-23T08:21:05.000Z</time>
      </trkpt>
      <trkpt lat="44.1246" lon="5.02807">
        <ele>204</ele>
        <time>2019-03-23T08:21:10.000Z</time>
      </trkpt>
      <trkpt lat="44.12462" lon="5.02807">
        <ele>204</ele>
        <time>2019-03-23T08:21:19.000Z</time>
      </trkpt>
      <trkpt lat="44.12462" lon="5.02807">
        <ele>204</ele>
        <time>2019-03-23T08:21:21.000Z</time>
      </trkpt>
      <trkpt lat="44.12462" lon="5.02808">
        <ele>204</ele>
        <time>2019-03-23T08:21:28.000Z</time>
      </trkpt>
      <trkpt lat="44.12462" lon="5.02809">
        <ele>204</ele>
        <time>2019-03-23T08:21:35.000Z</time>
      </trkpt>
      <trkpt lat="44.12462" lon="5.02809">
        <ele>204</ele>
        <time>2019-03-23T08:21:38.000Z</time>
      </trkpt>
      <trkpt lat="44.12466" lon="5.02807">
        <ele>204</ele>
        <time>2019-03-23T08:21:50.000Z</time>
      </trkpt>
      <trkpt lat="44.12467" lon="5.02807">
        <ele>204</ele>
        <time>2019-03-23T08:21:51.000Z</time>
      </trkpt>
      <trkpt lat="44.12473" lon="5.02799">
        <ele>204</ele>
        <time>2019-03-23T08:22:04.000Z</time>
      </trkpt>
      <trkpt lat="44.12473" lon="5.02798">
        <ele>204</ele>
        <time>2019-03-23T08:22:05.000Z</time>
      </trkpt>
      <trkpt lat="44.12474" lon="5.02799">
        <ele>204.19999694824</ele>
        <time>2019-03-23T08:22:07.000Z</time>
      </trkpt>
      <trkpt lat="44.12474" lon="5.02799">
        <ele>206.19999694824</ele>
        <time>2019-03-23T08:22:09.000Z</time>
      </trkpt>
      <trkpt lat="44.12475" lon="5.02797">
        <ele>207.19999694824</ele>
        <time>2019-03-23T08:22:12.000Z</time>
      </trkpt>
      <trkpt lat="44.12476" lon="5.02795">
        <ele>207.60000610352</ele>
        <time>2019-03-23T08:22:15.000Z</time>
      </trkpt>
      <trkpt lat="44.12477" lon="5.02793">
        <ele>208.39999389648</ele>
        <time>2019-03-23T08:22:19.000Z</time>
      </trkpt>
      <trkpt lat="44.12479" lon="5.02793">
        <ele>209</ele>
        <time>2019-03-23T08:22:21.000Z</time>
      </trkpt>
      <trkpt lat="44.1248" lon="5.02793">
        <ele>209.60000610352</ele>
        <time>2019-03-23T08:22:23.000Z</time>
      </trkpt>
      <trkpt lat="44.12481" lon="5.02793">
        <ele>210.60000610352</ele>
        <time>2019-03-23T08:22:26.000Z</time>
      </trkpt>
      <trkpt lat="44.12481" lon="5.02793">
        <ele>210.80000305176</ele>
        <time>2019-03-23T08:22:27.000Z</time>
      </trkpt>
      <trkpt lat="44.12481" lon="5.02793">
        <ele>211</ele>
        <time>2019-03-23T08:22:28.000Z</time>
      </trkpt>
      <trkpt lat="44.12481" lon="5.02793">
        <ele>211.19999694824</ele>
        <time>2019-03-23T08:22:29.000Z</time>
      </trkpt>
      <trkpt lat="44.12484" lon="5.02795">
        <ele>211.19999694824</ele>
        <time>2019-03-23T08:22:35.000Z</time>
      </trkpt>
      <trkpt lat="44.12488" lon="5.02796">
        <ele>211.60000610352</ele>
        <time>2019-03-23T08:22:40.000Z</time>
      </trkpt>
      <trkpt lat="44.12488" lon="5.02797">
        <ele>211.60000610352</ele>
        <time>2019-03-23T08:22:41.000Z</time>
      </trkpt>
      <trkpt lat="44.12491" lon="5.02798">
        <ele>212.60000610352</ele>
        <time>2019-03-23T08:22:45.000Z</time>
      </trkpt>
      <trkpt lat="44.12493" lon="5.02796">
        <ele>213.19999694824</ele>
        <time>2019-03-23T08:22:48.000Z</time>
      </trkpt>
      <trkpt lat="44.12493" lon="5.02796">
        <ele>213.39999389648</ele>
        <time>2019-03-23T08:22:49.000Z</time>
      </trkpt>
      <trkpt lat="44.12493" lon="5.02795">
        <ele>213.60000610352</ele>
        <time>2019-03-23T08:22:50.000Z</time>
      </trkpt>
      <trkpt lat="44.12493" lon="5.02794">
        <ele>213.80000305176</ele>
        <time>2019-03-23T08:22:51.000Z</time>
      </trkpt>
      <trkpt lat="44.12494" lon="5.02794">
        <ele>214.39999389648</ele>
        <time>2019-03-23T08:22:53.000Z</time>
      </trkpt>
      <trkpt lat="44.12495" lon="5.02792">
        <ele>214.80000305176</ele>
        <time>2019-03-23T08:22:56.000Z</time>
      </trkpt>
      <trkpt lat="44.12496" lon="5.02791">
        <ele>215.39999389648</ele>
        <time>2019-03-23T08:23:01.000Z</time>
      </trkpt>
      <trkpt lat="44.12497" lon="5.02792">
        <ele>216</ele>
        <time>2019-03-23T08:23:05.000Z</time>
      </trkpt>
      <trkpt lat="44.12497" lon="5.02791">
        <ele>216.19999694824</ele>
        <time>2019-03-23T08:23:07.000Z</time>
      </trkpt>
      <trkpt lat="44.12504" lon="5.02794">
        <ele>217</ele>
        <time>2019-03-23T08:23:20.000Z</time>
      </trkpt>
      <trkpt lat="44.12504" lon="5.02794">
        <ele>217</ele>
        <time>2019-03-23T08:23:21.000Z</time>
      </trkpt>
      <trkpt lat="44.12506" lon="5.02797">
        <ele>217.80000305176</ele>
        <time>2019-03-23T08:23:34.000Z</time>
      </trkpt>
      <trkpt lat="44.12506" lon="5.02798">
        <ele>218</ele>
        <time>2019-03-23T08:23:39.000Z</time>
      </trkpt>
      <trkpt lat="44.12509" lon="5.02802">
        <ele>218.80000305176</ele>
        <time>2019-03-23T08:23:49.000Z</time>
      </trkpt>
      <trkpt lat="44.1251" lon="5.02805">
        <ele>219</ele>
        <time>2019-03-23T08:23:50.000Z</time>
      </trkpt>
      <trkpt lat="44.12511" lon="5.02808">
        <ele>219.60000610352</ele>
        <time>2019-03-23T08:23:53.000Z</time>
      </trkpt>
      <trkpt lat="44.12512" lon="5.0281">
        <ele>220.39999389648</ele>
        <time>2019-03-23T08:23:55.000Z</time>
      </trkpt>
      <trkpt lat="44.12513" lon="5.02814">
        <ele>221</ele>
        <time>2019-03-23T08:24:00.000Z</time>
      </trkpt>
      <trkpt lat="44.12513" lon="5.02817">
        <ele>221.19999694824</ele>
        <time>2019-03-23T08:24:03.000Z</time>
      </trkpt>
      <trkpt lat="44.12514" lon="5.02819">
        <ele>221.39999389648</ele>
        <time>2019-03-23T08:24:05.000Z</time>
      </trkpt>
      <trkpt lat="44.12514" lon="5.02821">
        <ele>221.60000610352</ele>
        <time>2019-03-23T08:24:06.000Z</time>
      </trkpt>
      <trkpt lat="44.12514" lon="5.02823">
        <ele>221.80000305176</ele>
        <time>2019-03-23T08:24:08.000Z</time>
      </trkpt>
      <trkpt lat="44.12517" lon="5.02828">
        <ele>222.39999389648</ele>
        <time>2019-03-23T08:24:12.000Z</time>
      </trkpt>
      <trkpt lat="44.12518" lon="5.02829">
        <ele>222.39999389648</ele>
        <time>2019-03-23T08:24:14.000Z</time>
      </trkpt>
      <trkpt lat="44.12519" lon="5.02831">
        <ele>222.60000610352</ele>
        <time>2019-03-23T08:24:16.000Z</time>
      </trkpt>
      <trkpt lat="44.12522" lon="5.02837">
        <ele>223.60000610352</ele>
        <time>2019-03-23T08:24:21.000Z</time>
      </trkpt>
      <trkpt lat="44.12523" lon="5.02843">
        <ele>224.60000610352</ele>
        <time>2019-03-23T08:24:26.000Z</time>
      </trkpt>
      <trkpt lat="44.12523" lon="5.02844">
        <ele>224.80000305176</ele>
        <time>2019-03-23T08:24:27.000Z</time>
      </trkpt>
      <trkpt lat="44.12523" lon="5.02845">
        <ele>224.80000305176</ele>
        <time>2019-03-23T08:24:28.000Z</time>
      </trkpt>
      <trkpt lat="44.12524" lon="5.02848">
        <ele>225.19999694824</ele>
        <time>2019-03-23T08:24:31.000Z</time>
      </trkpt>
      <trkpt lat="44.12524" lon="5.02849">
        <ele>225.60000610352</ele>
        <time>2019-03-23T08:24:32.000Z</time>
      </trkpt>
      <trkpt lat="44.12525" lon="5.02849">
        <ele>226</ele>
        <time>2019-03-23T08:24:33.000Z</time>
      </trkpt>
      <trkpt lat="44.12525" lon="5.0285">
        <ele>226.39999389648</ele>
        <time>2019-03-23T08:24:34.000Z</time>
      </trkpt>
      <trkpt lat="44.12526" lon="5.02851">
        <ele>227</ele>
        <time>2019-03-23T08:24:36.000Z</time>
      </trkpt>
      <trkpt lat="44.12526" lon="5.02852">
        <ele>227.19999694824</ele>
        <time>2019-03-23T08:24:37.000Z</time>
      </trkpt>
      <trkpt lat="44.12527" lon="5.02853">
        <ele>227.60000610352</ele>
        <time>2019-03-23T08:24:39.000Z</time>
      </trkpt>
      <trkpt lat="44.12529" lon="5.02855">
        <ele>228</ele>
        <time>2019-03-23T08:24:42.000Z</time>
      </trkpt>
      <trkpt lat="44.12529" lon="5.02856">
        <ele>228.19999694824</ele>
        <time>2019-03-23T08:24:43.000Z</time>
      </trkpt>
      <trkpt lat="44.12531" lon="5.0286">
        <ele>229</ele>
        <time>2019-03-23T08:24:46.000Z</time>
      </trkpt>
      <trkpt lat="44.12531" lon="5.0286">
        <ele>229</ele>
        <time>2019-03-23T08:24:47.000Z</time>
      </trkpt>
      <trkpt lat="44.12532" lon="5.0286">
        <ele>229.19999694824</ele>
        <time>2019-03-23T08:24:48.000Z</time>
      </trkpt>
      <trkpt lat="44.12532" lon="5.02862">
        <ele>229.39999389648</ele>
        <time>2019-03-23T08:24:49.000Z</time>
      </trkpt>
      <trkpt lat="44.12533" lon="5.02863">
        <ele>229.60000610352</ele>
        <time>2019-03-23T08:24:51.000Z</time>
      </trkpt>
      <trkpt lat="44.12533" lon="5.02863">
        <ele>230</ele>
        <time>2019-03-23T08:24:53.000Z</time>
      </trkpt>
      <trkpt lat="44.12534" lon="5.02867">
        <ele>230.60000610352</ele>
        <time>2019-03-23T08:24:56.000Z</time>
      </trkpt>
      <trkpt lat="44.12536" lon="5.0287">
        <ele>231.80000305176</ele>
        <time>2019-03-23T08:25:01.000Z</time>
      </trkpt>
      <trkpt lat="44.12536" lon="5.02871">
        <ele>232</ele>
        <time>2019-03-23T08:25:02.000Z</time>
      </trkpt>
      <trkpt lat="44.1254" lon="5.02874">
        <ele>232.80000305176</ele>
        <time>2019-03-23T08:25:08.000Z</time>
      </trkpt>
      <trkpt lat="44.12543" lon="5.02875">
        <ele>234</ele>
        <time>2019-03-23T08:25:15.000Z</time>
      </trkpt>
      <trkpt lat="44.12543" lon="5.02874">
        <ele>234.60000610352</ele>
        <time>2019-03-23T08:25:17.000Z</time>
      </trkpt>
      <trkpt lat="44.12542" lon="5.02874">
        <ele>235</ele>
        <time>2019-03-23T08:25:21.000Z</time>
      </trkpt>
      <trkpt lat="44.12542" lon="5.02868">
        <ele>236.19999694824</ele>
        <time>2019-03-23T08:25:27.000Z</time>
      </trkpt>
      <trkpt lat="44.12543" lon="5.02868">
        <ele>236.80000305176</ele>
        <time>2019-03-23T08:25:29.000Z</time>
      </trkpt>
      <trkpt lat="44.12543" lon="5.02867">
        <ele>237.19999694824</ele>
        <time>2019-03-23T08:25:30.000Z</time>
      </trkpt>
      <trkpt lat="44.12542" lon="5.02866">
        <ele>238.39999389648</ele>
        <time>2019-03-23T08:25:36.000Z</time>
      </trkpt>
      <trkpt lat="44.12542" lon="5.02865">
        <ele>239.39999389648</ele>
        <time>2019-03-23T08:25:41.000Z</time>
      </trkpt>
      <trkpt lat="44.12541" lon="5.02865">
        <ele>239.80000305176</ele>
        <time>2019-03-23T08:25:43.000Z</time>
      </trkpt>
      <trkpt lat="44.1254" lon="5.02863">
        <ele>240.39999389648</ele>
        <time>2019-03-23T08:25:46.000Z</time>
      </trkpt>
      <trkpt lat="44.12542" lon="5.02859">
        <ele>241.39999389648</ele>
        <time>2019-03-23T08:25:55.000Z</time>
      </trkpt>
      <trkpt lat="44.12542" lon="5.02859">
        <ele>241.60000610352</ele>
        <time>2019-03-23T08:25:56.000Z</time>
      </trkpt>
      <trkpt lat="44.12542" lon="5.02858">
        <ele>242</ele>
        <time>2019-03-23T08:25:58.000Z</time>
      </trkpt>
      <trkpt lat="44.12542" lon="5.02858">
        <ele>242.19999694824</ele>
        <time>2019-03-23T08:25:59.000Z</time>
      </trkpt>
      <trkpt lat="44.12543" lon="5.02857">
        <ele>242.80000305176</ele>
        <time>2019-03-23T08:26:01.000Z</time>
      </trkpt>
      <trkpt lat="44.12543" lon="5.02856">
        <ele>243</ele>
        <time>2019-03-23T08:26:02.000Z</time>
      </trkpt>
      <trkpt lat="44.12544" lon="5.02856">
        <ele>243.39999389648</ele>
        <time>2019-03-23T08:26:04.000Z</time>
      </trkpt>
      <trkpt lat="44.12544" lon="5.02856">
        <ele>244</ele>
        <time>2019-03-23T08:26:05.000Z</time>
      </trkpt>
      <trkpt lat="44.12546" lon="5.02856">
        <ele>244.19999694824</ele>
        <time>2019-03-23T08:26:07.000Z</time>
      </trkpt>
      <trkpt lat="44.12548" lon="5.02858">
        <ele>245</ele>
        <time>2019-03-23T08:26:12.000Z</time>
      </trkpt>
      <trkpt lat="44.12547" lon="5.02859">
        <ele>245</ele>
        <time>2019-03-23T08:26:13.000Z</time>
      </trkpt>
      <trkpt lat="44.12553" lon="5.02861">
        <ele>245</ele>
        <time>2019-03-23T08:26:24.000Z</time>
      </trkpt>
      <trkpt lat="44.12553" lon="5.02862">
        <ele>245</ele>
        <time>2019-03-23T08:26:32.000Z</time>
      </trkpt>
      <trkpt lat="44.12554" lon="5.02862">
        <ele>245.39999389648</ele>
        <time>2019-03-23T08:26:36.000Z</time>
      </trkpt>
      <trkpt lat="44.12555" lon="5.0286">
        <ele>245.60000610352</ele>
        <time>2019-03-23T08:26:39.000Z</time>
      </trkpt>
      <trkpt lat="44.12555" lon="5.02859">
        <ele>246.19999694824</ele>
        <time>2019-03-23T08:26:43.000Z</time>
      </trkpt>
      <trkpt lat="44.12555" lon="5.02859">
        <ele>247.39999389648</ele>
        <time>2019-03-23T08:26:48.000Z</time>
      </trkpt>
      <trkpt lat="44.12556" lon="5.02858">
        <ele>248</ele>
        <time>2019-03-23T08:26:52.000Z</time>
      </trkpt>
      <trkpt lat="44.12556" lon="5.02858">
        <ele>248.39999389648</ele>
        <time>2019-03-23T08:26:54.000Z</time>
      </trkpt>
      <trkpt lat="44.12559" lon="5.02857">
        <ele>249.60000610352</ele>
        <time>2019-03-23T08:27:00.000Z</time>
      </trkpt>
      <trkpt lat="44.12561" lon="5.02859">
        <ele>250.60000610352</ele>
        <time>2019-03-23T08:27:04.000Z</time>
      </trkpt>
      <trkpt lat="44.12562" lon="5.02859">
        <ele>251</ele>
        <time>2019-03-23T08:27:06.000Z</time>
      </trkpt>
      <trkpt lat="44.12565" lon="5.02863">
        <ele>251.60000610352</ele>
        <time>2019-03-23T08:27:10.000Z</time>
      </trkpt>
      <trkpt lat="44.12565" lon="5.02863">
        <ele>251.80000305176</ele>
        <time>2019-03-23T08:27:11.000Z</time>
      </trkpt>
      <trkpt lat="44.12566" lon="5.02864">
        <ele>252</ele>
        <time>2019-03-23T08:27:12.000Z</time>
      </trkpt>
      <trkpt lat="44.12568" lon="5.02867">
        <ele>253</ele>
        <time>2019-03-23T08:27:17.000Z</time>
      </trkpt>
      <trkpt lat="44.12569" lon="5.02868">
        <ele>253.19999694824</ele>
        <time>2019-03-23T08:27:18.000Z</time>
      </trkpt>
      <trkpt lat="44.12573" lon="5.0287">
        <ele>254.19999694824</ele>
        <time>2019-03-23T08:27:24.000Z</time>
      </trkpt>
      <trkpt lat="44.12574" lon="5.02871">
        <ele>255.19999694824</ele>
        <time>2019-03-23T08:27:28.000Z</time>
      </trkpt>
      <trkpt lat="44.12576" lon="5.02873">
        <ele>255.60000610352</ele>
        <time>2019-03-23T08:27:31.000Z</time>
      </trkpt>
      <trkpt lat="44.12577" lon="5.02875">
        <ele>256.39999389648</ele>
        <time>2019-03-23T08:27:36.000Z</time>
      </trkpt>
      <trkpt lat="44.12578" lon="5.0288">
        <ele>257.39999389648</ele>
        <time>2019-03-23T08:27:43.000Z</time>
      </trkpt>
      <trkpt lat="44.12577" lon="5.02882">
        <ele>257.60000610352</ele>
        <time>2019-03-23T08:27:44.000Z</time>
      </trkpt>
      <trkpt lat="44.12577" lon="5.02883">
        <ele>258.39999389648</ele>
        <time>2019-03-23T08:27:51.000Z</time>
      </trkpt>
      <trkpt lat="44.12577" lon="5.02884">
        <ele>258.79998779297</ele>
        <time>2019-03-23T08:27:53.000Z</time>
      </trkpt>
      <trkpt lat="44.12578" lon="5.02884">
        <ele>259.60000610352</ele>
        <time>2019-03-23T08:27:56.000Z</time>
      </trkpt>
      <trkpt lat="44.1258" lon="5.02891">
        <ele>260.79998779297</ele>
        <time>2019-03-23T08:28:05.000Z</time>
      </trkpt>
      <trkpt lat="44.12581" lon="5.02893">
        <ele>260.79998779297</ele>
        <time>2019-03-23T08:28:07.000Z</time>
      </trkpt>
      <trkpt lat="44.12581" lon="5.02904">
        <ele>261.60000610352</ele>
        <time>2019-03-23T08:28:18.000Z</time>
      </trkpt>
      <trkpt lat="44.12582" lon="5.02909">
        <ele>261.79998779297</ele>
        <time>2019-03-23T08:28:21.000Z</time>
      </trkpt>
      <trkpt lat="44.12582" lon="5.0291">
        <ele>261.79998779297</ele>
        <time>2019-03-23T08:28:22.000Z</time>
      </trkpt>
      <trkpt lat="44.12583" lon="5.02911">
        <ele>262</ele>
        <time>2019-03-23T08:28:23.000Z</time>
      </trkpt>
      <trkpt lat="44.12583" lon="5.02912">
        <ele>262</ele>
        <time>2019-03-23T08:28:24.000Z</time>
      </trkpt>
      <trkpt lat="44.12588" lon="5.02919">
        <ele>262.79998779297</ele>
        <time>2019-03-23T08:28:33.000Z</time>
      </trkpt>
      <trkpt lat="44.12588" lon="5.0292">
        <ele>263</ele>
        <time>2019-03-23T08:28:34.000Z</time>
      </trkpt>
      <trkpt lat="44.12589" lon="5.02922">
        <ele>263</ele>
        <time>2019-03-23T08:28:36.000Z</time>
      </trkpt>
      <trkpt lat="44.1259" lon="5.02923">
        <ele>263.39999389648</ele>
        <time>2019-03-23T08:28:38.000Z</time>
      </trkpt>
      <trkpt lat="44.12592" lon="5.02926">
        <ele>264</ele>
        <time>2019-03-23T08:28:42.000Z</time>
      </trkpt>
      <trkpt lat="44.12592" lon="5.02927">
        <ele>264</ele>
        <time>2019-03-23T08:28:43.000Z</time>
      </trkpt>
      <trkpt lat="44.12593" lon="5.02929">
        <ele>264</ele>
        <time>2019-03-23T08:28:45.000Z</time>
      </trkpt>
      <trkpt lat="44.12595" lon="5.02935">
        <ele>264.39999389648</ele>
        <time>2019-03-23T08:28:49.000Z</time>
      </trkpt>
      <trkpt lat="44.12596" lon="5.02939">
        <ele>265</ele>
        <time>2019-03-23T08:28:52.000Z</time>
      </trkpt>
      <trkpt lat="44.12596" lon="5.02942">
        <ele>265.39999389648</ele>
        <time>2019-03-23T08:28:54.000Z</time>
      </trkpt>
      <trkpt lat="44.12597" lon="5.02946">
        <ele>265.60000610352</ele>
        <time>2019-03-23T08:28:58.000Z</time>
      </trkpt>
      <trkpt lat="44.12599" lon="5.02947">
        <ele>266</ele>
        <time>2019-03-23T08:29:00.000Z</time>
      </trkpt>
      <trkpt lat="44.12599" lon="5.02948">
        <ele>266</ele>
        <time>2019-03-23T08:29:01.000Z</time>
      </trkpt>
      <trkpt lat="44.12602" lon="5.02952">
        <ele>266.60000610352</ele>
        <time>2019-03-23T08:29:05.000Z</time>
      </trkpt>
      <trkpt lat="44.12602" lon="5.02953">
        <ele>267</ele>
        <time>2019-03-23T08:29:07.000Z</time>
      </trkpt>
      <trkpt lat="44.12603" lon="5.02954">
        <ele>267.20001220703</ele>
        <time>2019-03-23T08:29:09.000Z</time>
      </trkpt>
      <trkpt lat="44.12603" lon="5.02955">
        <ele>267.39999389648</ele>
        <time>2019-03-23T08:29:10.000Z</time>
      </trkpt>
      <trkpt lat="44.12604" lon="5.02955">
        <ele>267.60000610352</ele>
        <time>2019-03-23T08:29:11.000Z</time>
      </trkpt>
      <trkpt lat="44.12605" lon="5.02956">
        <ele>267.79998779297</ele>
        <time>2019-03-23T08:29:13.000Z</time>
      </trkpt>
      <trkpt lat="44.12605" lon="5.02958">
        <ele>268</ele>
        <time>2019-03-23T08:29:16.000Z</time>
      </trkpt>
      <trkpt lat="44.12606" lon="5.0296">
        <ele>268.20001220703</ele>
        <time>2019-03-23T08:29:17.000Z</time>
      </trkpt>
      <trkpt lat="44.12606" lon="5.02962">
        <ele>268.79998779297</ele>
        <time>2019-03-23T08:29:19.000Z</time>
      </trkpt>
      <trkpt lat="44.12607" lon="5.02965">
        <ele>269.20001220703</ele>
        <time>2019-03-23T08:29:22.000Z</time>
      </trkpt>
      <trkpt lat="44.12607" lon="5.02966">
        <ele>269.39999389648</ele>
        <time>2019-03-23T08:29:23.000Z</time>
      </trkpt>
      <trkpt lat="44.12607" lon="5.02967">
        <ele>269.60000610352</ele>
        <time>2019-03-23T08:29:24.000Z</time>
      </trkpt>
      <trkpt lat="44.12609" lon="5.02969">
        <ele>270</ele>
        <time>2019-03-23T08:29:27.000Z</time>
      </trkpt>
      <trkpt lat="44.1261" lon="5.02971">
        <ele>270.39999389648</ele>
        <time>2019-03-23T08:29:29.000Z</time>
      </trkpt>
      <trkpt lat="44.1261" lon="5.02974">
        <ele>270.39999389648</ele>
        <time>2019-03-23T08:29:31.000Z</time>
      </trkpt>
      <trkpt lat="44.1261" lon="5.02976">
        <ele>270.60000610352</ele>
        <time>2019-03-23T08:29:33.000Z</time>
      </trkpt>
      <trkpt lat="44.1261" lon="5.02978">
        <ele>270.79998779297</ele>
        <time>2019-03-23T08:29:34.000Z</time>
      </trkpt>
      <trkpt lat="44.12612" lon="5.02984">
        <ele>271.39999389648</ele>
        <time>2019-03-23T08:29:39.000Z</time>
      </trkpt>
      <trkpt lat="44.12612" lon="5.02985">
        <ele>271.60000610352</ele>
        <time>2019-03-23T08:29:40.000Z</time>
      </trkpt>
      <trkpt lat="44.12612" lon="5.02987">
        <ele>271.60000610352</ele>
        <time>2019-03-23T08:29:41.000Z</time>
      </trkpt>
      <trkpt lat="44.12615" lon="5.02991">
        <ele>272.39999389648</ele>
        <time>2019-03-23T08:29:45.000Z</time>
      </trkpt>
      <trkpt lat="44.12615" lon="5.02993">
        <ele>272.39999389648</ele>
        <time>2019-03-23T08:29:46.000Z</time>
      </trkpt>
      <trkpt lat="44.12616" lon="5.02994">
        <ele>272.60000610352</ele>
        <time>2019-03-23T08:29:47.000Z</time>
      </trkpt>
      <trkpt lat="44.12618" lon="5.02998">
        <ele>273</ele>
        <time>2019-03-23T08:29:50.000Z</time>
      </trkpt>
      <trkpt lat="44.1262" lon="5.03001">
        <ele>273.60000610352</ele>
        <time>2019-03-23T08:29:53.000Z</time>
      </trkpt>
      <trkpt lat="44.12621" lon="5.03003">
        <ele>274</ele>
        <time>2019-03-23T08:29:55.000Z</time>
      </trkpt>
      <trkpt lat="44.12623" lon="5.03004">
        <ele>274.79998779297</ele>
        <time>2019-03-23T08:29:59.000Z</time>
      </trkpt>
      <trkpt lat="44.12624" lon="5.03005">
        <ele>275</ele>
        <time>2019-03-23T08:30:01.000Z</time>
      </trkpt>
      <trkpt lat="44.12628" lon="5.03006">
        <ele>275.79998779297</ele>
        <time>2019-03-23T08:30:07.000Z</time>
      </trkpt>
      <trkpt lat="44.12628" lon="5.03006">
        <ele>276.20001220703</ele>
        <time>2019-03-23T08:30:09.000Z</time>
      </trkpt>
      <trkpt lat="44.12629" lon="5.03007">
        <ele>276.39999389648</ele>
        <time>2019-03-23T08:30:14.000Z</time>
      </trkpt>
      <trkpt lat="44.12628" lon="5.0301">
        <ele>276.39999389648</ele>
        <time>2019-03-23T08:30:22.000Z</time>
      </trkpt>
      <trkpt lat="44.12629" lon="5.03013">
        <ele>276.60000610352</ele>
        <time>2019-03-23T08:30:25.000Z</time>
      </trkpt>
      <trkpt lat="44.12629" lon="5.03015">
        <ele>277</ele>
        <time>2019-03-23T08:30:32.000Z</time>
      </trkpt>
      <trkpt lat="44.12629" lon="5.03021">
        <ele>277.39999389648</ele>
        <time>2019-03-23T08:30:39.000Z</time>
      </trkpt>
      <trkpt lat="44.1263" lon="5.03023">
        <ele>278</ele>
        <time>2019-03-23T08:30:41.000Z</time>
      </trkpt>
      <trkpt lat="44.12632" lon="5.03028">
        <ele>279</ele>
        <time>2019-03-23T08:30:47.000Z</time>
      </trkpt>
      <trkpt lat="44.12634" lon="5.03029">
        <ele>279.39999389648</ele>
        <time>2019-03-23T08:30:49.000Z</time>
      </trkpt>
      <trkpt lat="44.12635" lon="5.0303">
        <ele>279.79998779297</ele>
        <time>2019-03-23T08:30:50.000Z</time>
      </trkpt>
      <trkpt lat="44.12635" lon="5.03032">
        <ele>280.20001220703</ele>
        <time>2019-03-23T08:30:52.000Z</time>
      </trkpt>
      <trkpt lat="44.12636" lon="5.03031">
        <ele>280.60000610352</ele>
        <time>2019-03-23T08:30:55.000Z</time>
      </trkpt>
      <trkpt lat="44.12637" lon="5.03032">
        <ele>281.39999389648</ele>
        <time>2019-03-23T08:30:59.000Z</time>
      </trkpt>
      <trkpt lat="44.12638" lon="5.03034">
        <ele>282</ele>
        <time>2019-03-23T08:31:02.000Z</time>
      </trkpt>
      <trkpt lat="44.12638" lon="5.03036">
        <ele>282.39999389648</ele>
        <time>2019-03-23T08:31:04.000Z</time>
      </trkpt>
      <trkpt lat="44.1264" lon="5.03041">
        <ele>283.39999389648</ele>
        <time>2019-03-23T08:31:09.000Z</time>
      </trkpt>
      <trkpt lat="44.12642" lon="5.03046">
        <ele>284.39999389648</ele>
        <time>2019-03-23T08:31:16.000Z</time>
      </trkpt>
      <trkpt lat="44.12642" lon="5.03047">
        <ele>284.60000610352</ele>
        <time>2019-03-23T08:31:17.000Z</time>
      </trkpt>
      <trkpt lat="44.12645" lon="5.03055">
        <ele>285.79998779297</ele>
        <time>2019-03-23T08:31:26.000Z</time>
      </trkpt>
      <trkpt lat="44.12648" lon="5.03053">
        <ele>286.60000610352</ele>
        <time>2019-03-23T08:31:32.000Z</time>
      </trkpt>
      <trkpt lat="44.12648" lon="5.03053">
        <ele>286.79998779297</ele>
        <time>2019-03-23T08:31:33.000Z</time>
      </trkpt>
      <trkpt lat="44.12648" lon="5.03055">
        <ele>287.60000610352</ele>
        <time>2019-03-23T08:31:42.000Z</time>
      </trkpt>
      <trkpt lat="44.12649" lon="5.03055">
        <ele>287.60000610352</ele>
        <time>2019-03-23T08:31:48.000Z</time>
      </trkpt>
      <trkpt lat="44.12649" lon="5.03053">
        <ele>287.79998779297</ele>
        <time>2019-03-23T08:31:52.000Z</time>
      </trkpt>
      <trkpt lat="44.12652" lon="5.03047">
        <ele>288.79998779297</ele>
        <time>2019-03-23T08:32:02.000Z</time>
      </trkpt>
      <trkpt lat="44.12654" lon="5.03047">
        <ele>289.20001220703</ele>
        <time>2019-03-23T08:32:07.000Z</time>
      </trkpt>
      <trkpt lat="44.12657" lon="5.03054">
        <ele>290.20001220703</ele>
        <time>2019-03-23T08:32:14.000Z</time>
      </trkpt>
      <trkpt lat="44.12658" lon="5.03058">
        <ele>291.39999389648</ele>
        <time>2019-03-23T08:32:19.000Z</time>
      </trkpt>
      <trkpt lat="44.12662" lon="5.03054">
        <ele>292.39999389648</ele>
        <time>2019-03-23T08:32:25.000Z</time>
      </trkpt>
      <trkpt lat="44.12664" lon="5.03051">
        <ele>293.60000610352</ele>
        <time>2019-03-23T08:32:29.000Z</time>
      </trkpt>
      <trkpt lat="44.12668" lon="5.03043">
        <ele>294.39999389648</ele>
        <time>2019-03-23T08:32:38.000Z</time>
      </trkpt>
      <trkpt lat="44.12669" lon="5.03041">
        <ele>294.79998779297</ele>
        <time>2019-03-23T08:32:41.000Z</time>
      </trkpt>
      <trkpt lat="44.12669" lon="5.03034">
        <ele>295.79998779297</ele>
        <time>2019-03-23T08:32:49.000Z</time>
      </trkpt>
      <trkpt lat="44.12669" lon="5.03033">
        <ele>296</ele>
        <time>2019-03-23T08:32:50.000Z</time>
      </trkpt>
      <trkpt lat="44.12671" lon="5.03024">
        <ele>296.79998779297</ele>
        <time>2019-03-23T08:32:56.000Z</time>
      </trkpt>
      <trkpt lat="44.1267" lon="5.03021">
        <ele>296.79998779297</ele>
        <time>2019-03-23T08:32:58.000Z</time>
      </trkpt>
      <trkpt lat="44.12669" lon="5.03014">
        <ele>297.20001220703</ele>
        <time>2019-03-23T08:33:03.000Z</time>
      </trkpt>
      <trkpt lat="44.12669" lon="5.03004">
        <ele>297.60000610352</ele>
        <time>2019-03-23T08:33:12.000Z</time>
      </trkpt>
      <trkpt lat="44.12668" lon="5.03003">
        <ele>297.60000610352</ele>
        <time>2019-03-23T08:33:13.000Z</time>
      </trkpt>
      <trkpt lat="44.12667" lon="5.03001">
        <ele>297.60000610352</ele>
        <time>2019-03-23T08:33:16.000Z</time>
      </trkpt>
      <trkpt lat="44.12665" lon="5.02999">
        <ele>297.20001220703</ele>
        <time>2019-03-23T08:33:25.000Z</time>
      </trkpt>
      <trkpt lat="44.12665" lon="5.02999">
        <ele>297.20001220703</ele>
        <time>2019-03-23T08:33:29.000Z</time>
      </trkpt>
      <trkpt lat="44.12666" lon="5.02998">
        <ele>297.20001220703</ele>
        <time>2019-03-23T08:33:31.000Z</time>
      </trkpt>
      <trkpt lat="44.12665" lon="5.02999">
        <ele>297.20001220703</ele>
        <time>2019-03-23T08:33:36.000Z</time>
      </trkpt>
      <trkpt lat="44.12666" lon="5.02999">
        <ele>297</ele>
        <time>2019-03-23T08:33:41.000Z</time>
      </trkpt>
      <trkpt lat="44.12666" lon="5.03">
        <ele>297.20001220703</ele>
        <time>2019-03-23T08:33:49.000Z</time>
      </trkpt>
      <trkpt lat="44.12665" lon="5.03">
        <ele>297.20001220703</ele>
        <time>2019-03-23T08:33:52.000Z</time>
      </trkpt>
      <trkpt lat="44.12666" lon="5.02999">
        <ele>297.20001220703</ele>
        <time>2019-03-23T08:34:02.000Z</time>
      </trkpt>
      <trkpt lat="44.12667" lon="5.02994">
        <ele>297.20001220703</ele>
        <time>2019-03-23T08:34:05.000Z</time>
      </trkpt>
      <trkpt lat="44.12667" lon="5.02992">
        <ele>297.20001220703</ele>
        <time>2019-03-23T08:34:08.000Z</time>
      </trkpt>
      <trkpt lat="44.12669" lon="5.0298">
        <ele>297.20001220703</ele>
        <time>2019-03-23T08:34:18.000Z</time>
      </trkpt>
      <trkpt lat="44.1267" lon="5.02976">
        <ele>297.20001220703</ele>
        <time>2019-03-23T08:34:20.000Z</time>
      </trkpt>
      <trkpt lat="44.12672" lon="5.02968">
        <ele>297.39999389648</ele>
        <time>2019-03-23T08:34:26.000Z</time>
      </trkpt>
      <trkpt lat="44.12673" lon="5.02964">
        <ele>297.39999389648</ele>
        <time>2019-03-23T08:34:30.000Z</time>
      </trkpt>
      <trkpt lat="44.12674" lon="5.02963">
        <ele>297.39999389648</ele>
        <time>2019-03-23T08:34:31.000Z</time>
      </trkpt>
      <trkpt lat="44.12674" lon="5.02961">
        <ele>297.60000610352</ele>
        <time>2019-03-23T08:34:33.000Z</time>
      </trkpt>
      <trkpt lat="44.12675" lon="5.02958">
        <ele>297.60000610352</ele>
        <time>2019-03-23T08:34:35.000Z</time>
      </trkpt>
      <trkpt lat="44.12676" lon="5.02952">
        <ele>297.60000610352</ele>
        <time>2019-03-23T08:34:39.000Z</time>
      </trkpt>
      <trkpt lat="44.12676" lon="5.02943">
        <ele>297.79998779297</ele>
        <time>2019-03-23T08:34:44.000Z</time>
      </trkpt>
      <trkpt lat="44.12676" lon="5.02938">
        <ele>297.79998779297</ele>
        <time>2019-03-23T08:34:47.000Z</time>
      </trkpt>
      <trkpt lat="44.12677" lon="5.0293">
        <ele>299.39999389648</ele>
        <time>2019-03-23T08:34:53.000Z</time>
      </trkpt>
      <trkpt lat="44.12677" lon="5.02927">
        <ele>300.39999389648</ele>
        <time>2019-03-23T08:34:55.000Z</time>
      </trkpt>
      <trkpt lat="44.12678" lon="5.02923">
        <ele>300.79998779297</ele>
        <time>2019-03-23T08:34:58.000Z</time>
      </trkpt>
      <trkpt lat="44.12685" lon="5.02905">
        <ele>301.20001220703</ele>
        <time>2019-03-23T08:35:12.000Z</time>
      </trkpt>
      <trkpt lat="44.1269" lon="5.0289">
        <ele>301.79998779297</ele>
        <time>2019-03-23T08:35:23.000Z</time>
      </trkpt>
      <trkpt lat="44.12689" lon="5.02886">
        <ele>302.60000610352</ele>
        <time>2019-03-23T08:35:26.000Z</time>
      </trkpt>
      <trkpt lat="44.12687" lon="5.02881">
        <ele>302.79998779297</ele>
        <time>2019-03-23T08:35:31.000Z</time>
      </trkpt>
      <trkpt lat="44.12684" lon="5.02876">
        <ele>303.79998779297</ele>
        <time>2019-03-23T08:35:36.000Z</time>
      </trkpt>
      <trkpt lat="44.12683" lon="5.02875">
        <ele>304</ele>
        <time>2019-03-23T08:35:37.000Z</time>
      </trkpt>
      <trkpt lat="44.12682" lon="5.02874">
        <ele>304.20001220703</ele>
        <time>2019-03-23T08:35:39.000Z</time>
      </trkpt>
      <trkpt lat="44.12681" lon="5.02873">
        <ele>304.39999389648</ele>
        <time>2019-03-23T08:35:41.000Z</time>
      </trkpt>
      <trkpt lat="44.12679" lon="5.02872">
        <ele>305.20001220703</ele>
        <time>2019-03-23T08:35:44.000Z</time>
      </trkpt>
      <trkpt lat="44.12678" lon="5.02871">
        <ele>305.39999389648</ele>
        <time>2019-03-23T08:35:46.000Z</time>
      </trkpt>
      <trkpt lat="44.12673" lon="5.0287">
        <ele>305.60000610352</ele>
        <time>2019-03-23T08:35:50.000Z</time>
      </trkpt>
      <trkpt lat="44.12666" lon="5.02869">
        <ele>306</ele>
        <time>2019-03-23T08:35:56.000Z</time>
      </trkpt>
      <trkpt lat="44.12665" lon="5.02868">
        <ele>306.20001220703</ele>
        <time>2019-03-23T08:35:57.000Z</time>
      </trkpt>
      <trkpt lat="44.12663" lon="5.02865">
        <ele>307</ele>
        <time>2019-03-23T08:36:02.000Z</time>
      </trkpt>
      <trkpt lat="44.12661" lon="5.02862">
        <ele>306.79998779297</ele>
        <time>2019-03-23T08:36:07.000Z</time>
      </trkpt>
      <trkpt lat="44.12657" lon="5.02859">
        <ele>305.20001220703</ele>
        <time>2019-03-23T08:36:13.000Z</time>
      </trkpt>
      <trkpt lat="44.12656" lon="5.02859">
        <ele>304.79998779297</ele>
        <time>2019-03-23T08:36:14.000Z</time>
      </trkpt>
      <trkpt lat="44.12655" lon="5.02859">
        <ele>304.60000610352</ele>
        <time>2019-03-23T08:36:15.000Z</time>
      </trkpt>
      <trkpt lat="44.12653" lon="5.02858">
        <ele>304.20001220703</ele>
        <time>2019-03-23T08:36:16.000Z</time>
      </trkpt>
      <trkpt lat="44.12652" lon="5.02857">
        <ele>303.79998779297</ele>
        <time>2019-03-23T08:36:17.000Z</time>
      </trkpt>
      <trkpt lat="44.12646" lon="5.02849">
        <ele>302.79998779297</ele>
        <time>2019-03-23T08:36:26.000Z</time>
      </trkpt>
      <trkpt lat="44.12645" lon="5.02848">
        <ele>302.60000610352</ele>
        <time>2019-03-23T08:36:29.000Z</time>
      </trkpt>
      <trkpt lat="44.1264" lon="5.02843">
        <ele>301.60000610352</ele>
        <time>2019-03-23T08:36:33.000Z</time>
      </trkpt>
      <trkpt lat="44.12635" lon="5.02838">
        <ele>300.39999389648</ele>
        <time>2019-03-23T08:36:38.000Z</time>
      </trkpt>
      <trkpt lat="44.12633" lon="5.02833">
        <ele>299.39999389648</ele>
        <time>2019-03-23T08:36:42.000Z</time>
      </trkpt>
      <trkpt lat="44.12632" lon="5.02828">
        <ele>298.20001220703</ele>
        <time>2019-03-23T08:36:46.000Z</time>
      </trkpt>
      <trkpt lat="44.12628" lon="5.02822">
        <ele>297</ele>
        <time>2019-03-23T08:36:52.000Z</time>
      </trkpt>
      <trkpt lat="44.12625" lon="5.02818">
        <ele>295.79998779297</ele>
        <time>2019-03-23T08:36:56.000Z</time>
      </trkpt>
      <trkpt lat="44.12621" lon="5.02812">
        <ele>294.60000610352</ele>
        <time>2019-03-23T08:37:02.000Z</time>
      </trkpt>
      <trkpt lat="44.1262" lon="5.02805">
        <ele>293.60000610352</ele>
        <time>2019-03-23T08:37:07.000Z</time>
      </trkpt>
      <trkpt lat="44.12619" lon="5.02805">
        <ele>293.60000610352</ele>
        <time>2019-03-23T08:37:08.000Z</time>
      </trkpt>
      <trkpt lat="44.12617" lon="5.02801">
        <ele>293.20001220703</ele>
        <time>2019-03-23T08:37:11.000Z</time>
      </trkpt>
      <trkpt lat="44.12616" lon="5.02797">
        <ele>293</ele>
        <time>2019-03-23T08:37:14.000Z</time>
      </trkpt>
      <trkpt lat="44.12614" lon="5.02794">
        <ele>292.60000610352</ele>
        <time>2019-03-23T08:37:17.000Z</time>
      </trkpt>
      <trkpt lat="44.12614" lon="5.02794">
        <ele>292.39999389648</ele>
        <time>2019-03-23T08:37:18.000Z</time>
      </trkpt>
      <trkpt lat="44.12614" lon="5.02793">
        <ele>292.39999389648</ele>
        <time>2019-03-23T08:37:19.000Z</time>
      </trkpt>
      <trkpt lat="44.12614" lon="5.02792">
        <ele>292.20001220703</ele>
        <time>2019-03-23T08:37:20.000Z</time>
      </trkpt>
      <trkpt lat="44.12613" lon="5.02791">
        <ele>292</ele>
        <time>2019-03-23T08:37:21.000Z</time>
      </trkpt>
      <trkpt lat="44.12612" lon="5.02788">
        <ele>291.60000610352</ele>
        <time>2019-03-23T08:37:23.000Z</time>
      </trkpt>
      <trkpt lat="44.1261" lon="5.02784">
        <ele>290.60000610352</ele>
        <time>2019-03-23T08:37:27.000Z</time>
      </trkpt>
      <trkpt lat="44.12608" lon="5.02781">
        <ele>289.79998779297</ele>
        <time>2019-03-23T08:37:29.000Z</time>
      </trkpt>
      <trkpt lat="44.12607" lon="5.0278">
        <ele>289.39999389648</ele>
        <time>2019-03-23T08:37:30.000Z</time>
      </trkpt>
      <trkpt lat="44.12607" lon="5.02778">
        <ele>289.20001220703</ele>
        <time>2019-03-23T08:37:31.000Z</time>
      </trkpt>
      <trkpt lat="44.12607" lon="5.02774">
        <ele>288.79998779297</ele>
        <time>2019-03-23T08:37:33.000Z</time>
      </trkpt>
      <trkpt lat="44.12606" lon="5.02771">
        <ele>288.79998779297</ele>
        <time>2019-03-23T08:37:35.000Z</time>
      </trkpt>
      <trkpt lat="44.12605" lon="5.02768">
        <ele>288.60000610352</ele>
        <time>2019-03-23T08:37:37.000Z</time>
      </trkpt>
      <trkpt lat="44.12606" lon="5.02765">
        <ele>288.39999389648</ele>
        <time>2019-03-23T08:37:39.000Z</time>
      </trkpt>
      <trkpt lat="44.12605" lon="5.02764">
        <ele>288.39999389648</ele>
        <time>2019-03-23T08:37:40.000Z</time>
      </trkpt>
      <trkpt lat="44.12605" lon="5.02763">
        <ele>288.39999389648</ele>
        <time>2019-03-23T08:37:41.000Z</time>
      </trkpt>
      <trkpt lat="44.12605" lon="5.02761">
        <ele>288.20001220703</ele>
        <time>2019-03-23T08:37:42.000Z</time>
      </trkpt>
      <trkpt lat="44.12605" lon="5.02744">
        <ele>287.39999389648</ele>
        <time>2019-03-23T08:37:54.000Z</time>
      </trkpt>
      <trkpt lat="44.12604" lon="5.0274">
        <ele>287</ele>
        <time>2019-03-23T08:37:57.000Z</time>
      </trkpt>
      <trkpt lat="44.12603" lon="5.02736">
        <ele>286.79998779297</ele>
        <time>2019-03-23T08:37:59.000Z</time>
      </trkpt>
      <trkpt lat="44.12601" lon="5.02728">
        <ele>286.60000610352</ele>
        <time>2019-03-23T08:38:03.000Z</time>
      </trkpt>
      <trkpt lat="44.12598" lon="5.0272">
        <ele>286</ele>
        <time>2019-03-23T08:38:07.000Z</time>
      </trkpt>
      <trkpt lat="44.12599" lon="5.02711">
        <ele>285.60000610352</ele>
        <time>2019-03-23T08:38:12.000Z</time>
      </trkpt>
      <trkpt lat="44.12598" lon="5.02706">
        <ele>285.39999389648</ele>
        <time>2019-03-23T08:38:16.000Z</time>
      </trkpt>
      <trkpt lat="44.12598" lon="5.02705">
        <ele>285.39999389648</ele>
        <time>2019-03-23T08:38:18.000Z</time>
      </trkpt>
      <trkpt lat="44.12598" lon="5.02701">
        <ele>284.79998779297</ele>
        <time>2019-03-23T08:38:23.000Z</time>
      </trkpt>
      <trkpt lat="44.12598" lon="5.02701">
        <ele>284.60000610352</ele>
        <time>2019-03-23T08:38:24.000Z</time>
      </trkpt>
      <trkpt lat="44.12597" lon="5.02697">
        <ele>283.60000610352</ele>
        <time>2019-03-23T08:38:27.000Z</time>
      </trkpt>
      <trkpt lat="44.12597" lon="5.02694">
        <ele>283.20001220703</ele>
        <time>2019-03-23T08:38:28.000Z</time>
      </trkpt>
      <trkpt lat="44.12596" lon="5.02689">
        <ele>282.79998779297</ele>
        <time>2019-03-23T08:38:30.000Z</time>
      </trkpt>
      <trkpt lat="44.12596" lon="5.02682">
        <ele>282.79998779297</ele>
        <time>2019-03-23T08:38:34.000Z</time>
      </trkpt>
      <trkpt lat="44.12596" lon="5.0268">
        <ele>282.79998779297</ele>
        <time>2019-03-23T08:38:35.000Z</time>
      </trkpt>
      <trkpt lat="44.12596" lon="5.02677">
        <ele>282.60000610352</ele>
        <time>2019-03-23T08:38:37.000Z</time>
      </trkpt>
      <trkpt lat="44.12596" lon="5.0267">
        <ele>282.20001220703</ele>
        <time>2019-03-23T08:38:41.000Z</time>
      </trkpt>
      <trkpt lat="44.12592" lon="5.02661">
        <ele>281.79998779297</ele>
        <time>2019-03-23T08:38:49.000Z</time>
      </trkpt>
      <trkpt lat="44.12592" lon="5.02661">
        <ele>281.79998779297</ele>
        <time>2019-03-23T08:38:50.000Z</time>
      </trkpt>
      <trkpt lat="44.12591" lon="5.0266">
        <ele>281.39999389648</ele>
        <time>2019-03-23T08:38:53.000Z</time>
      </trkpt>
      <trkpt lat="44.1259" lon="5.0266">
        <ele>281</ele>
        <time>2019-03-23T08:38:55.000Z</time>
      </trkpt>
      <trkpt lat="44.12587" lon="5.0266">
        <ele>280.20001220703</ele>
        <time>2019-03-23T08:39:01.000Z</time>
      </trkpt>
      <trkpt lat="44.12586" lon="5.02661">
        <ele>280</ele>
        <time>2019-03-23T08:39:02.000Z</time>
      </trkpt>
      <trkpt lat="44.12587" lon="5.02662">
        <ele>279.20001220703</ele>
        <time>2019-03-23T08:39:07.000Z</time>
      </trkpt>
      <trkpt lat="44.12585" lon="5.02664">
        <ele>279.20001220703</ele>
        <time>2019-03-23T08:39:13.000Z</time>
      </trkpt>
      <trkpt lat="44.12584" lon="5.02674">
        <ele>279</ele>
        <time>2019-03-23T08:39:21.000Z</time>
      </trkpt>
      <trkpt lat="44.12584" lon="5.0268">
        <ele>279</ele>
        <time>2019-03-23T08:39:25.000Z</time>
      </trkpt>
      <trkpt lat="44.12582" lon="5.02687">
        <ele>278.79998779297</ele>
        <time>2019-03-23T08:39:33.000Z</time>
      </trkpt>
      <trkpt lat="44.12583" lon="5.02692">
        <ele>278.60000610352</ele>
        <time>2019-03-23T08:39:39.000Z</time>
      </trkpt>
      <trkpt lat="44.12581" lon="5.02703">
        <ele>278.60000610352</ele>
        <time>2019-03-23T08:39:46.000Z</time>
      </trkpt>
      <trkpt lat="44.12582" lon="5.02709">
        <ele>278.39999389648</ele>
        <time>2019-03-23T08:39:50.000Z</time>
      </trkpt>
      <trkpt lat="44.12581" lon="5.02712">
        <ele>278.20001220703</ele>
        <time>2019-03-23T08:39:53.000Z</time>
      </trkpt>
      <trkpt lat="44.1258" lon="5.02712">
        <ele>278.20001220703</ele>
        <time>2019-03-23T08:39:55.000Z</time>
      </trkpt>
      <trkpt lat="44.12579" lon="5.02712">
        <ele>278</ele>
        <time>2019-03-23T08:39:57.000Z</time>
      </trkpt>
      <trkpt lat="44.12577" lon="5.0271">
        <ele>277.60000610352</ele>
        <time>2019-03-23T08:40:03.000Z</time>
      </trkpt>
      <trkpt lat="44.12576" lon="5.02709">
        <ele>277.39999389648</ele>
        <time>2019-03-23T08:40:07.000Z</time>
      </trkpt>
      <trkpt lat="44.12573" lon="5.02707">
        <ele>277</ele>
        <time>2019-03-23T08:40:11.000Z</time>
      </trkpt>
      <trkpt lat="44.12571" lon="5.02706">
        <ele>276.79998779297</ele>
        <time>2019-03-23T08:40:13.000Z</time>
      </trkpt>
      <trkpt lat="44.1257" lon="5.02704">
        <ele>276.79998779297</ele>
        <time>2019-03-23T08:40:15.000Z</time>
      </trkpt>
      <trkpt lat="44.12571" lon="5.02703">
        <ele>276.60000610352</ele>
        <time>2019-03-23T08:40:16.000Z</time>
      </trkpt>
      <trkpt lat="44.12571" lon="5.02701">
        <ele>276.39999389648</ele>
        <time>2019-03-23T08:40:18.000Z</time>
      </trkpt>
      <trkpt lat="44.1257" lon="5.02697">
        <ele>276</ele>
        <time>2019-03-23T08:40:23.000Z</time>
      </trkpt>
      <trkpt lat="44.12568" lon="5.02693">
        <ele>275.79998779297</ele>
        <time>2019-03-23T08:40:26.000Z</time>
      </trkpt>
      <trkpt lat="44.12568" lon="5.02692">
        <ele>275.79998779297</ele>
        <time>2019-03-23T08:40:27.000Z</time>
      </trkpt>
      <trkpt lat="44.12568" lon="5.0269">
        <ele>275.60000610352</ele>
        <time>2019-03-23T08:40:29.000Z</time>
      </trkpt>
      <trkpt lat="44.12568" lon="5.02688">
        <ele>275.39999389648</ele>
        <time>2019-03-23T08:40:31.000Z</time>
      </trkpt>
      <trkpt lat="44.12568" lon="5.02686">
        <ele>271.20001220703</ele>
        <time>2019-03-23T08:40:33.000Z</time>
      </trkpt>
      <trkpt lat="44.12568" lon="5.02684">
        <ele>269</ele>
        <time>2019-03-23T08:40:34.000Z</time>
      </trkpt>
      <trkpt lat="44.12567" lon="5.02683">
        <ele>268</ele>
        <time>2019-03-23T08:40:35.000Z</time>
      </trkpt>
      <trkpt lat="44.12567" lon="5.02675">
        <ele>267</ele>
        <time>2019-03-23T08:40:39.000Z</time>
      </trkpt>
      <trkpt lat="44.12567" lon="5.02673">
        <ele>267</ele>
        <time>2019-03-23T08:40:40.000Z</time>
      </trkpt>
      <trkpt lat="44.1257" lon="5.02655">
        <ele>265.79998779297</ele>
        <time>2019-03-23T08:40:50.000Z</time>
      </trkpt>
      <trkpt lat="44.12569" lon="5.02654">
        <ele>265.60000610352</ele>
        <time>2019-03-23T08:40:51.000Z</time>
      </trkpt>
      <trkpt lat="44.12569" lon="5.02648">
        <ele>264.79998779297</ele>
        <time>2019-03-23T08:40:55.000Z</time>
      </trkpt>
      <trkpt lat="44.12567" lon="5.02643">
        <ele>264.20001220703</ele>
        <time>2019-03-23T08:40:58.000Z</time>
      </trkpt>
      <trkpt lat="44.12566" lon="5.02641">
        <ele>264.20001220703</ele>
        <time>2019-03-23T08:40:59.000Z</time>
      </trkpt>
      <trkpt lat="44.12567" lon="5.02638">
        <ele>263.60000610352</ele>
        <time>2019-03-23T08:41:02.000Z</time>
      </trkpt>
      <trkpt lat="44.12568" lon="5.02635">
        <ele>263.39999389648</ele>
        <time>2019-03-23T08:41:03.000Z</time>
      </trkpt>
      <trkpt lat="44.12572" lon="5.02628">
        <ele>262.60000610352</ele>
        <time>2019-03-23T08:41:08.000Z</time>
      </trkpt>
      <trkpt lat="44.12573" lon="5.02625">
        <ele>262.39999389648</ele>
        <time>2019-03-23T08:41:11.000Z</time>
      </trkpt>
      <trkpt lat="44.12575" lon="5.02619">
        <ele>262.20001220703</ele>
        <time>2019-03-23T08:41:15.000Z</time>
      </trkpt>
      <trkpt lat="44.12575" lon="5.02616">
        <ele>262.20001220703</ele>
        <time>2019-03-23T08:41:18.000Z</time>
      </trkpt>
      <trkpt lat="44.12574" lon="5.02612">
        <ele>262</ele>
        <time>2019-03-23T08:41:21.000Z</time>
      </trkpt>
      <trkpt lat="44.12573" lon="5.02612">
        <ele>261.79998779297</ele>
        <time>2019-03-23T08:41:22.000Z</time>
      </trkpt>
      <trkpt lat="44.12571" lon="5.0261">
        <ele>261.39999389648</ele>
        <time>2019-03-23T08:41:24.000Z</time>
      </trkpt>
      <trkpt lat="44.12568" lon="5.02607">
        <ele>261</ele>
        <time>2019-03-23T08:41:28.000Z</time>
      </trkpt>
      <trkpt lat="44.12566" lon="5.02602">
        <ele>260.39999389648</ele>
        <time>2019-03-23T08:41:32.000Z</time>
      </trkpt>
      <trkpt lat="44.12566" lon="5.02601">
        <ele>260</ele>
        <time>2019-03-23T08:41:33.000Z</time>
      </trkpt>
      <trkpt lat="44.12566" lon="5.02594">
        <ele>259</ele>
        <time>2019-03-23T08:41:39.000Z</time>
      </trkpt>
      <trkpt lat="44.12566" lon="5.02594">
        <ele>259</ele>
        <time>2019-03-23T08:41:40.000Z</time>
      </trkpt>
      <trkpt lat="44.12567" lon="5.0259">
        <ele>258.60000610352</ele>
        <time>2019-03-23T08:41:43.000Z</time>
      </trkpt>
      <trkpt lat="44.12568" lon="5.02589">
        <ele>258.39999389648</ele>
        <time>2019-03-23T08:41:44.000Z</time>
      </trkpt>
      <trkpt lat="44.1257" lon="5.02583">
        <ele>258</ele>
        <time>2019-03-23T08:41:48.000Z</time>
      </trkpt>
      <trkpt lat="44.1257" lon="5.02581">
        <ele>258</ele>
        <time>2019-03-23T08:41:49.000Z</time>
      </trkpt>
      <trkpt lat="44.12572" lon="5.02578">
        <ele>258</ele>
        <time>2019-03-23T08:41:52.000Z</time>
      </trkpt>
      <trkpt lat="44.12573" lon="5.02569">
        <ele>258</ele>
        <time>2019-03-23T08:41:57.000Z</time>
      </trkpt>
      <trkpt lat="44.12574" lon="5.02564">
        <ele>257.39999389648</ele>
        <time>2019-03-23T08:42:01.000Z</time>
      </trkpt>
      <trkpt lat="44.12574" lon="5.0256">
        <ele>257.39999389648</ele>
        <time>2019-03-23T08:42:04.000Z</time>
      </trkpt>
      <trkpt lat="44.12574" lon="5.02557">
        <ele>257.60000610352</ele>
        <time>2019-03-23T08:42:08.000Z</time>
      </trkpt>
      <trkpt lat="44.12575" lon="5.02553">
        <ele>257.60000610352</ele>
        <time>2019-03-23T08:42:11.000Z</time>
      </trkpt>
      <trkpt lat="44.12576" lon="5.02549">
        <ele>258</ele>
        <time>2019-03-23T08:42:14.000Z</time>
      </trkpt>
      <trkpt lat="44.12577" lon="5.02547">
        <ele>258.39999389648</ele>
        <time>2019-03-23T08:42:16.000Z</time>
      </trkpt>
      <trkpt lat="44.12576" lon="5.02546">
        <ele>258.39999389648</ele>
        <time>2019-03-23T08:42:18.000Z</time>
      </trkpt>
      <trkpt lat="44.12577" lon="5.02545">
        <ele>258.39999389648</ele>
        <time>2019-03-23T08:42:21.000Z</time>
      </trkpt>
      <trkpt lat="44.12578" lon="5.02542">
        <ele>258.39999389648</ele>
        <time>2019-03-23T08:42:24.000Z</time>
      </trkpt>
      <trkpt lat="44.12575" lon="5.0253">
        <ele>257</ele>
        <time>2019-03-23T08:42:37.000Z</time>
      </trkpt>
      <trkpt lat="44.12574" lon="5.02522">
        <ele>257.79998779297</ele>
        <time>2019-03-23T08:42:52.000Z</time>
      </trkpt>
      <trkpt lat="44.12574" lon="5.02521">
        <ele>257.60000610352</ele>
        <time>2019-03-23T08:43:03.000Z</time>
      </trkpt>
      <trkpt lat="44.12578" lon="5.02516">
        <ele>259.20001220703</ele>
        <time>2019-03-23T08:43:15.000Z</time>
      </trkpt>
      <trkpt lat="44.12579" lon="5.02513">
        <ele>260.20001220703</ele>
        <time>2019-03-23T08:43:19.000Z</time>
      </trkpt>
      <trkpt lat="44.1258" lon="5.02512">
        <ele>260.39999389648</ele>
        <time>2019-03-23T08:43:20.000Z</time>
      </trkpt>
      <trkpt lat="44.1258" lon="5.0251">
        <ele>260.60000610352</ele>
        <time>2019-03-23T08:43:21.000Z</time>
      </trkpt>
      <trkpt lat="44.12581" lon="5.02508">
        <ele>261</ele>
        <time>2019-03-23T08:43:23.000Z</time>
      </trkpt>
      <trkpt lat="44.12582" lon="5.02505">
        <ele>261.20001220703</ele>
        <time>2019-03-23T08:43:26.000Z</time>
      </trkpt>
      <trkpt lat="44.12582" lon="5.02502">
        <ele>261.79998779297</ele>
        <time>2019-03-23T08:43:29.000Z</time>
      </trkpt>
      <trkpt lat="44.12583" lon="5.02501">
        <ele>262.20001220703</ele>
        <time>2019-03-23T08:43:31.000Z</time>
      </trkpt>
      <trkpt lat="44.12584" lon="5.02501">
        <ele>262.39999389648</ele>
        <time>2019-03-23T08:43:32.000Z</time>
      </trkpt>
      <trkpt lat="44.12585" lon="5.025">
        <ele>262.79998779297</ele>
        <time>2019-03-23T08:43:34.000Z</time>
      </trkpt>
      <trkpt lat="44.12586" lon="5.02495">
        <ele>263.20001220703</ele>
        <time>2019-03-23T08:43:42.000Z</time>
      </trkpt>
      <trkpt lat="44.12587" lon="5.02494">
        <ele>263.39999389648</ele>
        <time>2019-03-23T08:43:44.000Z</time>
      </trkpt>
      <trkpt lat="44.12588" lon="5.02493">
        <ele>264.60000610352</ele>
        <time>2019-03-23T08:43:48.000Z</time>
      </trkpt>
      <trkpt lat="44.12588" lon="5.02493">
        <ele>264.79998779297</ele>
        <time>2019-03-23T08:43:49.000Z</time>
      </trkpt>
      <trkpt lat="44.12589" lon="5.02492">
        <ele>265.20001220703</ele>
        <time>2019-03-23T08:43:52.000Z</time>
      </trkpt>
      <trkpt lat="44.12589" lon="5.02491">
        <ele>265.20001220703</ele>
        <time>2019-03-23T08:43:53.000Z</time>
      </trkpt>
      <trkpt lat="44.12589" lon="5.02491">
        <ele>265.39999389648</ele>
        <time>2019-03-23T08:43:54.000Z</time>
      </trkpt>
      <trkpt lat="44.1259" lon="5.0249">
        <ele>265.79998779297</ele>
        <time>2019-03-23T08:43:56.000Z</time>
      </trkpt>
      <trkpt lat="44.12591" lon="5.02489">
        <ele>266.39999389648</ele>
        <time>2019-03-23T08:44:01.000Z</time>
      </trkpt>
      <trkpt lat="44.12591" lon="5.02488">
        <ele>266.60000610352</ele>
        <time>2019-03-23T08:44:03.000Z</time>
      </trkpt>
      <trkpt lat="44.12592" lon="5.02488">
        <ele>266.39999389648</ele>
        <time>2019-03-23T08:44:04.000Z</time>
      </trkpt>
      <trkpt lat="44.12595" lon="5.02485">
        <ele>267</ele>
        <time>2019-03-23T08:44:12.000Z</time>
      </trkpt>
      <trkpt lat="44.12597" lon="5.02482">
        <ele>268</ele>
        <time>2019-03-23T08:44:17.000Z</time>
      </trkpt>
      <trkpt lat="44.12598" lon="5.02482">
        <ele>268.20001220703</ele>
        <time>2019-03-23T08:44:18.000Z</time>
      </trkpt>
      <trkpt lat="44.12598" lon="5.02481">
        <ele>268.20001220703</ele>
        <time>2019-03-23T08:44:19.000Z</time>
      </trkpt>
      <trkpt lat="44.12599" lon="5.02479">
        <ele>269.20001220703</ele>
        <time>2019-03-23T08:44:23.000Z</time>
      </trkpt>
      <trkpt lat="44.12599" lon="5.02477">
        <ele>270.20001220703</ele>
        <time>2019-03-23T08:44:30.000Z</time>
      </trkpt>
      <trkpt lat="44.12601" lon="5.02476">
        <ele>270.79998779297</ele>
        <time>2019-03-23T08:44:35.000Z</time>
      </trkpt>
      <trkpt lat="44.12601" lon="5.02476">
        <ele>270.79998779297</ele>
        <time>2019-03-23T08:44:36.000Z</time>
      </trkpt>
      <trkpt lat="44.12601" lon="5.02474">
        <ele>271.20001220703</ele>
        <time>2019-03-23T08:44:44.000Z</time>
      </trkpt>
      <trkpt lat="44.12599" lon="5.02475">
        <ele>271.20001220703</ele>
        <time>2019-03-23T08:44:53.000Z</time>
      </trkpt>
      <trkpt lat="44.12599" lon="5.02475">
        <ele>271.20001220703</ele>
        <time>2019-03-23T08:44:55.000Z</time>
      </trkpt>
      <trkpt lat="44.12599" lon="5.02475">
        <ele>272.39999389648</ele>
        <time>2019-03-23T08:45:00.000Z</time>
      </trkpt>
      <trkpt lat="44.12601" lon="5.02476">
        <ele>273.20001220703</ele>
        <time>2019-03-23T08:45:11.000Z</time>
      </trkpt>
      <trkpt lat="44.12601" lon="5.02476">
        <ele>273.20001220703</ele>
        <time>2019-03-23T08:45:12.000Z</time>
      </trkpt>
      <trkpt lat="44.12601" lon="5.02478">
        <ele>273.60000610352</ele>
        <time>2019-03-23T08:45:16.000Z</time>
      </trkpt>
      <trkpt lat="44.12602" lon="5.02479">
        <ele>273.60000610352</ele>
        <time>2019-03-23T08:45:26.000Z</time>
      </trkpt>
      <trkpt lat="44.12602" lon="5.02479">
        <ele>273.20001220703</ele>
        <time>2019-03-23T08:45:35.000Z</time>
      </trkpt>
      <trkpt lat="44.12603" lon="5.02474">
        <ele>273.79998779297</ele>
        <time>2019-03-23T08:45:43.000Z</time>
      </trkpt>
      <trkpt lat="44.12604" lon="5.02472">
        <ele>274.79998779297</ele>
        <time>2019-03-23T08:45:46.000Z</time>
      </trkpt>
      <trkpt lat="44.12604" lon="5.02469">
        <ele>275.79998779297</ele>
        <time>2019-03-23T08:45:54.000Z</time>
      </trkpt>
      <trkpt lat="44.12604" lon="5.02469">
        <ele>276.39999389648</ele>
        <time>2019-03-23T08:45:56.000Z</time>
      </trkpt>
      <trkpt lat="44.12605" lon="5.02467">
        <ele>277</ele>
        <time>2019-03-23T08:46:00.000Z</time>
      </trkpt>
      <trkpt lat="44.12607" lon="5.02465">
        <ele>277.39999389648</ele>
        <time>2019-03-23T08:46:11.000Z</time>
      </trkpt>
      <trkpt lat="44.12608" lon="5.02463">
        <ele>277.39999389648</ele>
        <time>2019-03-23T08:46:18.000Z</time>
      </trkpt>
      <trkpt lat="44.12609" lon="5.0246">
        <ele>278.20001220703</ele>
        <time>2019-03-23T08:46:23.000Z</time>
      </trkpt>
      <trkpt lat="44.12609" lon="5.0246">
        <ele>278.20001220703</ele>
        <time>2019-03-23T08:46:24.000Z</time>
      </trkpt>
      <trkpt lat="44.1261" lon="5.02457">
        <ele>279.60000610352</ele>
        <time>2019-03-23T08:46:31.000Z</time>
      </trkpt>
      <trkpt lat="44.1261" lon="5.02456">
        <ele>280.20001220703</ele>
        <time>2019-03-23T08:46:34.000Z</time>
      </trkpt>
      <trkpt lat="44.12611" lon="5.02454">
        <ele>280.20001220703</ele>
        <time>2019-03-23T08:46:36.000Z</time>
      </trkpt>
      <trkpt lat="44.12612" lon="5.02448">
        <ele>280.39999389648</ele>
        <time>2019-03-23T08:46:45.000Z</time>
      </trkpt>
      <trkpt lat="44.12612" lon="5.02448">
        <ele>280.60000610352</ele>
        <time>2019-03-23T08:46:47.000Z</time>
      </trkpt>
      <trkpt lat="44.12614" lon="5.02438">
        <ele>280.79998779297</ele>
        <time>2019-03-23T08:46:56.000Z</time>
      </trkpt>
      <trkpt lat="44.12615" lon="5.02435">
        <ele>281.60000610352</ele>
        <time>2019-03-23T08:47:01.000Z</time>
      </trkpt>
      <trkpt lat="44.12615" lon="5.02431">
        <ele>282.79998779297</ele>
        <time>2019-03-23T08:47:05.000Z</time>
      </trkpt>
      <trkpt lat="44.12614" lon="5.0243">
        <ele>283.20001220703</ele>
        <time>2019-03-23T08:47:09.000Z</time>
      </trkpt>
      <trkpt lat="44.12613" lon="5.0243">
        <ele>283.79998779297</ele>
        <time>2019-03-23T08:47:13.000Z</time>
      </trkpt>
      <trkpt lat="44.12613" lon="5.0243">
        <ele>284.20001220703</ele>
        <time>2019-03-23T08:47:16.000Z</time>
      </trkpt>
      <trkpt lat="44.12613" lon="5.02429">
        <ele>284.60000610352</ele>
        <time>2019-03-23T08:47:23.000Z</time>
      </trkpt>
      <trkpt lat="44.12614" lon="5.02429">
        <ele>284.39999389648</ele>
        <time>2019-03-23T08:47:27.000Z</time>
      </trkpt>
      <trkpt lat="44.12614" lon="5.02425">
        <ele>284.79998779297</ele>
        <time>2019-03-23T08:47:35.000Z</time>
      </trkpt>
      <trkpt lat="44.12614" lon="5.02425">
        <ele>285</ele>
        <time>2019-03-23T08:47:36.000Z</time>
      </trkpt>
      <trkpt lat="44.12613" lon="5.02423">
        <ele>285.60000610352</ele>
        <time>2019-03-23T08:47:40.000Z</time>
      </trkpt>
      <trkpt lat="44.12613" lon="5.02422">
        <ele>286</ele>
        <time>2019-03-23T08:47:44.000Z</time>
      </trkpt>
      <trkpt lat="44.12613" lon="5.02422">
        <ele>286</ele>
        <time>2019-03-23T08:47:45.000Z</time>
      </trkpt>
      <trkpt lat="44.12612" lon="5.02419">
        <ele>286.60000610352</ele>
        <time>2019-03-23T08:47:57.000Z</time>
      </trkpt>
      <trkpt lat="44.12611" lon="5.02417">
        <ele>286</ele>
        <time>2019-03-23T08:48:04.000Z</time>
      </trkpt>
      <trkpt lat="44.12613" lon="5.02416">
        <ele>285.60000610352</ele>
        <time>2019-03-23T08:48:13.000Z</time>
      </trkpt>
      <trkpt lat="44.12612" lon="5.02416">
        <ele>285.79998779297</ele>
        <time>2019-03-23T08:48:17.000Z</time>
      </trkpt>
      <trkpt lat="44.12612" lon="5.02415">
        <ele>285.79998779297</ele>
        <time>2019-03-23T08:48:21.000Z</time>
      </trkpt>
      <trkpt lat="44.12612" lon="5.02414">
        <ele>286</ele>
        <time>2019-03-23T08:48:26.000Z</time>
      </trkpt>
      <trkpt lat="44.12611" lon="5.02412">
        <ele>285.79998779297</ele>
        <time>2019-03-23T08:48:31.000Z</time>
      </trkpt>
      <trkpt lat="44.12612" lon="5.02412">
        <ele>285</ele>
        <time>2019-03-23T08:48:43.000Z</time>
      </trkpt>
      <trkpt lat="44.12612" lon="5.02412">
        <ele>281.39999389648</ele>
        <time>2019-03-23T08:48:47.000Z</time>
      </trkpt>
      <trkpt lat="44.12612" lon="5.02411">
        <ele>281</ele>
        <time>2019-03-23T08:48:51.000Z</time>
      </trkpt>
      <trkpt lat="44.12613" lon="5.02411">
        <ele>280.39999389648</ele>
        <time>2019-03-23T08:48:53.000Z</time>
      </trkpt>
      <trkpt lat="44.12613" lon="5.02409">
        <ele>280.20001220703</ele>
        <time>2019-03-23T08:48:58.000Z</time>
      </trkpt>
      <trkpt lat="44.12613" lon="5.02409">
        <ele>280.20001220703</ele>
        <time>2019-03-23T08:49:00.000Z</time>
      </trkpt>
      <trkpt lat="44.12613" lon="5.02408">
        <ele>280.60000610352</ele>
        <time>2019-03-23T08:49:07.000Z</time>
      </trkpt>
      <trkpt lat="44.12613" lon="5.0241">
        <ele>280.79998779297</ele>
        <time>2019-03-23T08:49:10.000Z</time>
      </trkpt>
      <trkpt lat="44.12613" lon="5.02412">
        <ele>281.60000610352</ele>
        <time>2019-03-23T08:49:20.000Z</time>
      </trkpt>
      <trkpt lat="44.12613" lon="5.02412">
        <ele>282.39999389648</ele>
        <time>2019-03-23T08:49:22.000Z</time>
      </trkpt>
      <trkpt lat="44.12614" lon="5.02412">
        <ele>282.79998779297</ele>
        <time>2019-03-23T08:49:23.000Z</time>
      </trkpt>
      <trkpt lat="44.12613" lon="5.02412">
        <ele>283.79998779297</ele>
        <time>2019-03-23T08:49:28.000Z</time>
      </trkpt>
      <trkpt lat="44.12612" lon="5.02412">
        <ele>284.20001220703</ele>
        <time>2019-03-23T08:49:32.000Z</time>
      </trkpt>
      <trkpt lat="44.12612" lon="5.02412">
        <ele>284.39999389648</ele>
        <time>2019-03-23T08:49:36.000Z</time>
      </trkpt>
      <trkpt lat="44.12612" lon="5.02413">
        <ele>285</ele>
        <time>2019-03-23T08:49:41.000Z</time>
      </trkpt>
      <trkpt lat="44.12612" lon="5.02413">
        <ele>286.20001220703</ele>
        <time>2019-03-23T08:49:44.000Z</time>
      </trkpt>
      <trkpt lat="44.12612" lon="5.02414">
        <ele>287.60000610352</ele>
        <time>2019-03-23T08:49:47.000Z</time>
      </trkpt>
      <trkpt lat="44.12613" lon="5.02414">
        <ele>288.79998779297</ele>
        <time>2019-03-23T08:49:50.000Z</time>
      </trkpt>
      <trkpt lat="44.12613" lon="5.02414">
        <ele>289.79998779297</ele>
        <time>2019-03-23T08:49:53.000Z</time>
      </trkpt>
      <trkpt lat="44.12612" lon="5.02414">
        <ele>290.79998779297</ele>
        <time>2019-03-23T08:49:57.000Z</time>
      </trkpt>
      <trkpt lat="44.12612" lon="5.02414">
        <ele>291</ele>
        <time>2019-03-23T08:49:58.000Z</time>
      </trkpt>
      <trkpt lat="44.12612" lon="5.02412">
        <ele>292.20001220703</ele>
        <time>2019-03-23T08:50:02.000Z</time>
      </trkpt>
      <trkpt lat="44.1261" lon="5.02414">
        <ele>291.79998779297</ele>
        <time>2019-03-23T08:50:15.000Z</time>
      </trkpt>
      <trkpt lat="44.12608" lon="5.02416">
        <ele>291.20001220703</ele>
        <time>2019-03-23T08:50:28.000Z</time>
      </trkpt>
      <trkpt lat="44.12609" lon="5.02415">
        <ele>291</ele>
        <time>2019-03-23T08:50:32.000Z</time>
      </trkpt>
      <trkpt lat="44.12609" lon="5.02414">
        <ele>290.79998779297</ele>
        <time>2019-03-23T08:50:36.000Z</time>
      </trkpt>
      <trkpt lat="44.12613" lon="5.02407">
        <ele>290.39999389648</ele>
        <time>2019-03-23T08:50:52.000Z</time>
      </trkpt>
      <trkpt lat="44.12614" lon="5.02399">
        <ele>290.39999389648</ele>
        <time>2019-03-23T08:51:06.000Z</time>
      </trkpt>
      <trkpt lat="44.12616" lon="5.02399">
        <ele>290.39999389648</ele>
        <time>2019-03-23T08:51:10.000Z</time>
      </trkpt>
      <trkpt lat="44.12616" lon="5.02397">
        <ele>290.39999389648</ele>
        <time>2019-03-23T08:51:21.000Z</time>
      </trkpt>
      <trkpt lat="44.12616" lon="5.02397">
        <ele>290.39999389648</ele>
        <time>2019-03-23T08:51:22.000Z</time>
      </trkpt>
      <trkpt lat="44.12618" lon="5.02393">
        <ele>290.60000610352</ele>
        <time>2019-03-23T08:51:32.000Z</time>
      </trkpt>
      <trkpt lat="44.12618" lon="5.02392">
        <ele>290.60000610352</ele>
        <time>2019-03-23T08:51:34.000Z</time>
      </trkpt>
      <trkpt lat="44.12618" lon="5.02392">
        <ele>290.60000610352</ele>
        <time>2019-03-23T08:51:36.000Z</time>
      </trkpt>
      <trkpt lat="44.12616" lon="5.02387">
        <ele>290.79998779297</ele>
        <time>2019-03-23T08:51:46.000Z</time>
      </trkpt>
      <trkpt lat="44.12616" lon="5.02386">
        <ele>291</ele>
        <time>2019-03-23T08:51:48.000Z</time>
      </trkpt>
      <trkpt lat="44.12616" lon="5.02386">
        <ele>291</ele>
        <time>2019-03-23T08:51:50.000Z</time>
      </trkpt>
      <trkpt lat="44.12617" lon="5.02386">
        <ele>291.20001220703</ele>
        <time>2019-03-23T08:51:56.000Z</time>
      </trkpt>
      <trkpt lat="44.12617" lon="5.02385">
        <ele>291.39999389648</ele>
        <time>2019-03-23T08:51:58.000Z</time>
      </trkpt>
      <trkpt lat="44.12618" lon="5.02384">
        <ele>291.60000610352</ele>
        <time>2019-03-23T08:52:03.000Z</time>
      </trkpt>
      <trkpt lat="44.12619" lon="5.02385">
        <ele>291.60000610352</ele>
        <time>2019-03-23T08:52:07.000Z</time>
      </trkpt>
      <trkpt lat="44.12621" lon="5.02382">
        <ele>292.20001220703</ele>
        <time>2019-03-23T08:52:16.000Z</time>
      </trkpt>
      <trkpt lat="44.12621" lon="5.02382">
        <ele>292.20001220703</ele>
        <time>2019-03-23T08:52:17.000Z</time>
      </trkpt>
      <trkpt lat="44.12625" lon="5.02378">
        <ele>292.79998779297</ele>
        <time>2019-03-23T08:52:26.000Z</time>
      </trkpt>
      <trkpt lat="44.12625" lon="5.02378">
        <ele>293</ele>
        <time>2019-03-23T08:52:28.000Z</time>
      </trkpt>
      <trkpt lat="44.12625" lon="5.02378">
        <ele>293.20001220703</ele>
        <time>2019-03-23T08:52:31.000Z</time>
      </trkpt>
      <trkpt lat="44.12625" lon="5.02378">
        <ele>293.20001220703</ele>
        <time>2019-03-23T08:52:32.000Z</time>
      </trkpt>
      <trkpt lat="44.12626" lon="5.02378">
        <ele>294.20001220703</ele>
        <time>2019-03-23T08:52:47.000Z</time>
      </trkpt>
      <trkpt lat="44.12626" lon="5.02378">
        <ele>294.20001220703</ele>
        <time>2019-03-23T08:52:48.000Z</time>
      </trkpt>
      <trkpt lat="44.12632" lon="5.02382">
        <ele>295</ele>
        <time>2019-03-23T08:53:00.000Z</time>
      </trkpt>
      <trkpt lat="44.12633" lon="5.02382">
        <ele>295.20001220703</ele>
        <time>2019-03-23T08:53:01.000Z</time>
      </trkpt>
      <trkpt lat="44.12635" lon="5.02381">
        <ele>295.39999389648</ele>
        <time>2019-03-23T08:53:04.000Z</time>
      </trkpt>
      <trkpt lat="44.12637" lon="5.02381">
        <ele>296</ele>
        <time>2019-03-23T08:53:12.000Z</time>
      </trkpt>
      <trkpt lat="44.12637" lon="5.02379">
        <ele>296.20001220703</ele>
        <time>2019-03-23T08:53:16.000Z</time>
      </trkpt>
      <trkpt lat="44.12637" lon="5.02378">
        <ele>296.39999389648</ele>
        <time>2019-03-23T08:53:18.000Z</time>
      </trkpt>
      <trkpt lat="44.12639" lon="5.02375">
        <ele>297</ele>
        <time>2019-03-23T08:53:27.000Z</time>
      </trkpt>
      <trkpt lat="44.12639" lon="5.02371">
        <ele>297.39999389648</ele>
        <time>2019-03-23T08:53:32.000Z</time>
      </trkpt>
      <trkpt lat="44.12641" lon="5.02368">
        <ele>298</ele>
        <time>2019-03-23T08:53:40.000Z</time>
      </trkpt>
      <trkpt lat="44.12641" lon="5.02367">
        <ele>298.39999389648</ele>
        <time>2019-03-23T08:53:46.000Z</time>
      </trkpt>
      <trkpt lat="44.12641" lon="5.02365">
        <ele>299</ele>
        <time>2019-03-23T08:53:53.000Z</time>
      </trkpt>
      <trkpt lat="44.12641" lon="5.02364">
        <ele>299.20001220703</ele>
        <time>2019-03-23T08:53:56.000Z</time>
      </trkpt>
      <trkpt lat="44.12639" lon="5.02361">
        <ele>299.39999389648</ele>
        <time>2019-03-23T08:54:01.000Z</time>
      </trkpt>
      <trkpt lat="44.12639" lon="5.02357">
        <ele>299.79998779297</ele>
        <time>2019-03-23T08:54:05.000Z</time>
      </trkpt>
      <trkpt lat="44.1264" lon="5.02355">
        <ele>299.79998779297</ele>
        <time>2019-03-23T08:54:07.000Z</time>
      </trkpt>
      <trkpt lat="44.12641" lon="5.02355">
        <ele>303.79998779297</ele>
        <time>2019-03-23T08:54:08.000Z</time>
      </trkpt>
      <trkpt lat="44.12641" lon="5.02354">
        <ele>305.79998779297</ele>
        <time>2019-03-23T08:54:09.000Z</time>
      </trkpt>
      <trkpt lat="44.12641" lon="5.02354">
        <ele>306.79998779297</ele>
        <time>2019-03-23T08:54:10.000Z</time>
      </trkpt>
      <trkpt lat="44.12642" lon="5.02352">
        <ele>307.79998779297</ele>
        <time>2019-03-23T08:54:13.000Z</time>
      </trkpt>
      <trkpt lat="44.12642" lon="5.02352">
        <ele>308.79998779297</ele>
        <time>2019-03-23T08:54:19.000Z</time>
      </trkpt>
      <trkpt lat="44.12643" lon="5.02351">
        <ele>309.39999389648</ele>
        <time>2019-03-23T08:54:22.000Z</time>
      </trkpt>
      <trkpt lat="44.12644" lon="5.02352">
        <ele>310</ele>
        <time>2019-03-23T08:54:24.000Z</time>
      </trkpt>
      <trkpt lat="44.12645" lon="5.02354">
        <ele>310.79998779297</ele>
        <time>2019-03-23T08:54:30.000Z</time>
      </trkpt>
      <trkpt lat="44.12646" lon="5.02354">
        <ele>311</ele>
        <time>2019-03-23T08:54:32.000Z</time>
      </trkpt>
      <trkpt lat="44.12648" lon="5.02354">
        <ele>312</ele>
        <time>2019-03-23T08:54:38.000Z</time>
      </trkpt>
      <trkpt lat="44.12648" lon="5.02355">
        <ele>312.20001220703</ele>
        <time>2019-03-23T08:54:39.000Z</time>
      </trkpt>
      <trkpt lat="44.12649" lon="5.02357">
        <ele>313.20001220703</ele>
        <time>2019-03-23T08:54:44.000Z</time>
      </trkpt>
      <trkpt lat="44.12649" lon="5.02357">
        <ele>314.39999389648</ele>
        <time>2019-03-23T08:54:49.000Z</time>
      </trkpt>
      <trkpt lat="44.1265" lon="5.02356">
        <ele>315</ele>
        <time>2019-03-23T08:54:53.000Z</time>
      </trkpt>
      <trkpt lat="44.1265" lon="5.02356">
        <ele>315.60000610352</ele>
        <time>2019-03-23T08:54:57.000Z</time>
      </trkpt>
      <trkpt lat="44.12653" lon="5.02354">
        <ele>316.60000610352</ele>
        <time>2019-03-23T08:55:03.000Z</time>
      </trkpt>
      <trkpt lat="44.12654" lon="5.02357">
        <ele>316.79998779297</ele>
        <time>2019-03-23T08:55:09.000Z</time>
      </trkpt>
      <trkpt lat="44.12657" lon="5.02362">
        <ele>317.79998779297</ele>
        <time>2019-03-23T08:55:17.000Z</time>
      </trkpt>
      <trkpt lat="44.12658" lon="5.02365">
        <ele>318.79998779297</ele>
        <time>2019-03-23T08:55:22.000Z</time>
      </trkpt>
      <trkpt lat="44.12659" lon="5.02366">
        <ele>319.20001220703</ele>
        <time>2019-03-23T08:55:27.000Z</time>
      </trkpt>
      <trkpt lat="44.12659" lon="5.02373">
        <ele>319.39999389648</ele>
        <time>2019-03-23T08:55:39.000Z</time>
      </trkpt>
      <trkpt lat="44.12658" lon="5.02376">
        <ele>319.39999389648</ele>
        <time>2019-03-23T08:55:43.000Z</time>
      </trkpt>
      <trkpt lat="44.12657" lon="5.02382">
        <ele>319.39999389648</ele>
        <time>2019-03-23T08:55:56.000Z</time>
      </trkpt>
      <trkpt lat="44.12658" lon="5.02393">
        <ele>319.79998779297</ele>
        <time>2019-03-23T08:56:11.000Z</time>
      </trkpt>
      <trkpt lat="44.12658" lon="5.02394">
        <ele>320</ele>
        <time>2019-03-23T08:56:12.000Z</time>
      </trkpt>
      <trkpt lat="44.12657" lon="5.02398">
        <ele>320.60000610352</ele>
        <time>2019-03-23T08:56:25.000Z</time>
      </trkpt>
      <trkpt lat="44.12658" lon="5.02398">
        <ele>320.79998779297</ele>
        <time>2019-03-23T08:56:32.000Z</time>
      </trkpt>
      <trkpt lat="44.12658" lon="5.02398">
        <ele>321</ele>
        <time>2019-03-23T08:56:34.000Z</time>
      </trkpt>
      <trkpt lat="44.12659" lon="5.02398">
        <ele>321.20001220703</ele>
        <time>2019-03-23T08:56:42.000Z</time>
      </trkpt>
      <trkpt lat="44.12659" lon="5.02396">
        <ele>321.60000610352</ele>
        <time>2019-03-23T08:56:48.000Z</time>
      </trkpt>
      <trkpt lat="44.12658" lon="5.02396">
        <ele>321.79998779297</ele>
        <time>2019-03-23T08:56:56.000Z</time>
      </trkpt>
      <trkpt lat="44.12658" lon="5.02397">
        <ele>322</ele>
        <time>2019-03-23T08:57:00.000Z</time>
      </trkpt>
      <trkpt lat="44.12659" lon="5.02398">
        <ele>322.20001220703</ele>
        <time>2019-03-23T08:57:04.000Z</time>
      </trkpt>
      <trkpt lat="44.12661" lon="5.02399">
        <ele>322.39999389648</ele>
        <time>2019-03-23T08:57:10.000Z</time>
      </trkpt>
      <trkpt lat="44.12661" lon="5.024">
        <ele>322.39999389648</ele>
        <time>2019-03-23T08:57:12.000Z</time>
      </trkpt>
      <trkpt lat="44.12662" lon="5.02409">
        <ele>322.79998779297</ele>
        <time>2019-03-23T08:57:24.000Z</time>
      </trkpt>
      <trkpt lat="44.12663" lon="5.02411">
        <ele>322.79998779297</ele>
        <time>2019-03-23T08:57:26.000Z</time>
      </trkpt>
      <trkpt lat="44.12664" lon="5.02413">
        <ele>323</ele>
        <time>2019-03-23T08:57:29.000Z</time>
      </trkpt>
      <trkpt lat="44.12666" lon="5.02413">
        <ele>323</ele>
        <time>2019-03-23T08:57:31.000Z</time>
      </trkpt>
      <trkpt lat="44.12666" lon="5.02413">
        <ele>323</ele>
        <time>2019-03-23T08:57:32.000Z</time>
      </trkpt>
      <trkpt lat="44.12668" lon="5.02415">
        <ele>323.39999389648</ele>
        <time>2019-03-23T08:57:38.000Z</time>
      </trkpt>
      <trkpt lat="44.12673" lon="5.02421">
        <ele>324</ele>
        <time>2019-03-23T08:57:50.000Z</time>
      </trkpt>
      <trkpt lat="44.12673" lon="5.02422">
        <ele>324</ele>
        <time>2019-03-23T08:57:51.000Z</time>
      </trkpt>
      <trkpt lat="44.12673" lon="5.02423">
        <ele>324.20001220703</ele>
        <time>2019-03-23T08:57:53.000Z</time>
      </trkpt>
      <trkpt lat="44.12674" lon="5.02423">
        <ele>324.39999389648</ele>
        <time>2019-03-23T08:57:55.000Z</time>
      </trkpt>
      <trkpt lat="44.12676" lon="5.02423">
        <ele>324.60000610352</ele>
        <time>2019-03-23T08:57:59.000Z</time>
      </trkpt>
      <trkpt lat="44.12679" lon="5.02426">
        <ele>325</ele>
        <time>2019-03-23T08:58:09.000Z</time>
      </trkpt>
      <trkpt lat="44.12682" lon="5.02428">
        <ele>325.79998779297</ele>
        <time>2019-03-23T08:58:21.000Z</time>
      </trkpt>
      <trkpt lat="44.12681" lon="5.02429">
        <ele>326</ele>
        <time>2019-03-23T08:58:27.000Z</time>
      </trkpt>
      <trkpt lat="44.12679" lon="5.0243">
        <ele>326.60000610352</ele>
        <time>2019-03-23T08:58:36.000Z</time>
      </trkpt>
      <trkpt lat="44.12679" lon="5.0243">
        <ele>326.60000610352</ele>
        <time>2019-03-23T08:58:37.000Z</time>
      </trkpt>
      <trkpt lat="44.12682" lon="5.02432">
        <ele>327.20001220703</ele>
        <time>2019-03-23T08:58:48.000Z</time>
      </trkpt>
      <trkpt lat="44.12687" lon="5.02437">
        <ele>329.39999389648</ele>
        <time>2019-03-23T08:58:58.000Z</time>
      </trkpt>
      <trkpt lat="44.12687" lon="5.02438">
        <ele>330.39999389648</ele>
        <time>2019-03-23T08:58:59.000Z</time>
      </trkpt>
      <trkpt lat="44.12687" lon="5.0244">
        <ele>330.79998779297</ele>
        <time>2019-03-23T08:59:00.000Z</time>
      </trkpt>
      <trkpt lat="44.12687" lon="5.02443">
        <ele>331.20001220703</ele>
        <time>2019-03-23T08:59:03.000Z</time>
      </trkpt>
      <trkpt lat="44.12686" lon="5.02448">
        <ele>331.60000610352</ele>
        <time>2019-03-23T08:59:09.000Z</time>
      </trkpt>
      <trkpt lat="44.12686" lon="5.02448">
        <ele>331.79998779297</ele>
        <time>2019-03-23T08:59:11.000Z</time>
      </trkpt>
      <trkpt lat="44.12686" lon="5.02449">
        <ele>332.39999389648</ele>
        <time>2019-03-23T08:59:16.000Z</time>
      </trkpt>
      <trkpt lat="44.12686" lon="5.02449">
        <ele>332.39999389648</ele>
        <time>2019-03-23T08:59:17.000Z</time>
      </trkpt>
      <trkpt lat="44.12684" lon="5.02448">
        <ele>332.39999389648</ele>
        <time>2019-03-23T08:59:21.000Z</time>
      </trkpt>
      <trkpt lat="44.12685" lon="5.02448">
        <ele>332.20001220703</ele>
        <time>2019-03-23T08:59:28.000Z</time>
      </trkpt>
      <trkpt lat="44.12689" lon="5.02451">
        <ele>332.20001220703</ele>
        <time>2019-03-23T08:59:38.000Z</time>
      </trkpt>
      <trkpt lat="44.1269" lon="5.02452">
        <ele>332.60000610352</ele>
        <time>2019-03-23T08:59:45.000Z</time>
      </trkpt>
      <trkpt lat="44.1269" lon="5.02452">
        <ele>332.60000610352</ele>
        <time>2019-03-23T08:59:49.000Z</time>
      </trkpt>
      <trkpt lat="44.1269" lon="5.02452">
        <ele>332.60000610352</ele>
        <time>2019-03-23T08:59:53.000Z</time>
      </trkpt>
      <trkpt lat="44.12691" lon="5.02451">
        <ele>332.20001220703</ele>
        <time>2019-03-23T08:59:58.000Z</time>
      </trkpt>
      <trkpt lat="44.12692" lon="5.02449">
        <ele>332</ele>
        <time>2019-03-23T09:00:03.000Z</time>
      </trkpt>
      <trkpt lat="44.12692" lon="5.02447">
        <ele>331.60000610352</ele>
        <time>2019-03-23T09:00:06.000Z</time>
      </trkpt>
      <trkpt lat="44.12691" lon="5.02442">
        <ele>331</ele>
        <time>2019-03-23T09:00:11.000Z</time>
      </trkpt>
      <trkpt lat="44.12691" lon="5.02441">
        <ele>330.60000610352</ele>
        <time>2019-03-23T09:00:13.000Z</time>
      </trkpt>
      <trkpt lat="44.12691" lon="5.0244">
        <ele>330.60000610352</ele>
        <time>2019-03-23T09:00:15.000Z</time>
      </trkpt>
      <trkpt lat="44.1269" lon="5.02437">
        <ele>331.20001220703</ele>
        <time>2019-03-23T09:00:20.000Z</time>
      </trkpt>
      <trkpt lat="44.12684" lon="5.02432">
        <ele>331.60000610352</ele>
        <time>2019-03-23T09:00:28.000Z</time>
      </trkpt>
      <trkpt lat="44.12681" lon="5.02432">
        <ele>331.39999389648</ele>
        <time>2019-03-23T09:00:31.000Z</time>
      </trkpt>
      <trkpt lat="44.12678" lon="5.02428">
        <ele>331</ele>
        <time>2019-03-23T09:00:35.000Z</time>
      </trkpt>
      <trkpt lat="44.12671" lon="5.02425">
        <ele>330</ele>
        <time>2019-03-23T09:00:42.000Z</time>
      </trkpt>
      <trkpt lat="44.12669" lon="5.02424">
        <ele>329.79998779297</ele>
        <time>2019-03-23T09:00:46.000Z</time>
      </trkpt>
      <trkpt lat="44.12668" lon="5.02424">
        <ele>329.60000610352</ele>
        <time>2019-03-23T09:00:48.000Z</time>
      </trkpt>
      <trkpt lat="44.12666" lon="5.02422">
        <ele>329.60000610352</ele>
        <time>2019-03-23T09:00:52.000Z</time>
      </trkpt>
      <trkpt lat="44.12665" lon="5.02421">
        <ele>329.60000610352</ele>
        <time>2019-03-23T09:00:54.000Z</time>
      </trkpt>
      <trkpt lat="44.12663" lon="5.02425">
        <ele>329.20001220703</ele>
        <time>2019-03-23T09:01:03.000Z</time>
      </trkpt>
      <trkpt lat="44.12662" lon="5.02424">
        <ele>329</ele>
        <time>2019-03-23T09:01:07.000Z</time>
      </trkpt>
      <trkpt lat="44.12661" lon="5.02425">
        <ele>328.79998779297</ele>
        <time>2019-03-23T09:01:12.000Z</time>
      </trkpt>
      <trkpt lat="44.12655" lon="5.02452">
        <ele>328.79998779297</ele>
        <time>2019-03-23T09:01:38.000Z</time>
      </trkpt>
      <trkpt lat="44.12654" lon="5.02452">
        <ele>328.79998779297</ele>
        <time>2019-03-23T09:01:39.000Z</time>
      </trkpt>
      <trkpt lat="44.12653" lon="5.02452">
        <ele>328.79998779297</ele>
        <time>2019-03-23T09:01:40.000Z</time>
      </trkpt>
      <trkpt lat="44.12646" lon="5.02445">
        <ele>328.79998779297</ele>
        <time>2019-03-23T09:01:54.000Z</time>
      </trkpt>
      <trkpt lat="44.12647" lon="5.02445">
        <ele>328.79998779297</ele>
        <time>2019-03-23T09:02:12.000Z</time>
      </trkpt>
      <trkpt lat="44.12652" lon="5.02447">
        <ele>328.79998779297</ele>
        <time>2019-03-23T09:02:28.000Z</time>
      </trkpt>
      <trkpt lat="44.12656" lon="5.02448">
        <ele>328.79998779297</ele>
        <time>2019-03-23T09:02:31.000Z</time>
      </trkpt>
      <trkpt lat="44.12658" lon="5.02448">
        <ele>328.79998779297</ele>
        <time>2019-03-23T09:02:34.000Z</time>
      </trkpt>
      <trkpt lat="44.12658" lon="5.02448">
        <ele>328.79998779297</ele>
        <time>2019-03-23T09:02:35.000Z</time>
      </trkpt>
      <trkpt lat="44.12659" lon="5.02447">
        <ele>328.79998779297</ele>
        <time>2019-03-23T09:02:39.000Z</time>
      </trkpt>
      <trkpt lat="44.1266" lon="5.02446">
        <ele>328.79998779297</ele>
        <time>2019-03-23T09:02:42.000Z</time>
      </trkpt>
      <trkpt lat="44.12664" lon="5.02444">
        <ele>328.79998779297</ele>
        <time>2019-03-23T09:02:52.000Z</time>
      </trkpt>
      <trkpt lat="44.12664" lon="5.02444">
        <ele>328.79998779297</ele>
        <time>2019-03-23T09:02:54.000Z</time>
      </trkpt>
      <trkpt lat="44.12665" lon="5.02446">
        <ele>329</ele>
        <time>2019-03-23T09:03:00.000Z</time>
      </trkpt>
      <trkpt lat="44.12668" lon="5.02449">
        <ele>329</ele>
        <time>2019-03-23T09:03:07.000Z</time>
      </trkpt>
      <trkpt lat="44.12668" lon="5.02452">
        <ele>329</ele>
        <time>2019-03-23T09:03:12.000Z</time>
      </trkpt>
      <trkpt lat="44.12669" lon="5.02454">
        <ele>329.20001220703</ele>
        <time>2019-03-23T09:03:18.000Z</time>
      </trkpt>
      <trkpt lat="44.12669" lon="5.02455">
        <ele>329.20001220703</ele>
        <time>2019-03-23T09:03:21.000Z</time>
      </trkpt>
      <trkpt lat="44.12669" lon="5.02454">
        <ele>329.20001220703</ele>
        <time>2019-03-23T09:03:28.000Z</time>
      </trkpt>
      <trkpt lat="44.12673" lon="5.02451">
        <ele>329.39999389648</ele>
        <time>2019-03-23T09:03:45.000Z</time>
      </trkpt>
      <trkpt lat="44.12674" lon="5.02452">
        <ele>329.60000610352</ele>
        <time>2019-03-23T09:03:56.000Z</time>
      </trkpt>
      <trkpt lat="44.12674" lon="5.02452">
        <ele>329.60000610352</ele>
        <time>2019-03-23T09:04:04.000Z</time>
      </trkpt>
      <trkpt lat="44.12674" lon="5.02453">
        <ele>329.79998779297</ele>
        <time>2019-03-23T09:04:23.000Z</time>
      </trkpt>
      <trkpt lat="44.12672" lon="5.02452">
        <ele>330</ele>
        <time>2019-03-23T09:04:37.000Z</time>
      </trkpt>
      <trkpt lat="44.12667" lon="5.02461">
        <ele>330</ele>
        <time>2019-03-23T09:04:47.000Z</time>
      </trkpt>
      <trkpt lat="44.12664" lon="5.02462">
        <ele>330.20001220703</ele>
        <time>2019-03-23T09:04:51.000Z</time>
      </trkpt>
      <trkpt lat="44.12663" lon="5.02461">
        <ele>330.20001220703</ele>
        <time>2019-03-23T09:04:56.000Z</time>
      </trkpt>
      <trkpt lat="44.12663" lon="5.02461">
        <ele>330.20001220703</ele>
        <time>2019-03-23T09:04:58.000Z</time>
      </trkpt>
      <trkpt lat="44.12665" lon="5.02469">
        <ele>330.39999389648</ele>
        <time>2019-03-23T09:05:07.000Z</time>
      </trkpt>
      <trkpt lat="44.12665" lon="5.02472">
        <ele>330.60000610352</ele>
        <time>2019-03-23T09:05:09.000Z</time>
      </trkpt>
      <trkpt lat="44.12665" lon="5.02475">
        <ele>330.60000610352</ele>
        <time>2019-03-23T09:05:14.000Z</time>
      </trkpt>
      <trkpt lat="44.12665" lon="5.02475">
        <ele>330.79998779297</ele>
        <time>2019-03-23T09:05:18.000Z</time>
      </trkpt>
      <trkpt lat="44.12663" lon="5.02469">
        <ele>331</ele>
        <time>2019-03-23T09:05:29.000Z</time>
      </trkpt>
      <trkpt lat="44.12664" lon="5.02469">
        <ele>331</ele>
        <time>2019-03-23T09:05:30.000Z</time>
      </trkpt>
      <trkpt lat="44.12664" lon="5.02465">
        <ele>331</ele>
        <time>2019-03-23T09:05:34.000Z</time>
      </trkpt>
      <trkpt lat="44.12662" lon="5.02462">
        <ele>331.20001220703</ele>
        <time>2019-03-23T09:05:42.000Z</time>
      </trkpt>
      <trkpt lat="44.12662" lon="5.02462">
        <ele>331.20001220703</ele>
        <time>2019-03-23T09:05:44.000Z</time>
      </trkpt>
      <trkpt lat="44.12662" lon="5.02462">
        <ele>331.20001220703</ele>
        <time>2019-03-23T09:05:46.000Z</time>
      </trkpt>
      <trkpt lat="44.12662" lon="5.0246">
        <ele>331.79998779297</ele>
        <time>2019-03-23T09:05:49.000Z</time>
      </trkpt>
      <trkpt lat="44.12663" lon="5.02459">
        <ele>331.79998779297</ele>
        <time>2019-03-23T09:05:52.000Z</time>
      </trkpt>
      <trkpt lat="44.12665" lon="5.02456">
        <ele>332.20001220703</ele>
        <time>2019-03-23T09:05:56.000Z</time>
      </trkpt>
      <trkpt lat="44.12666" lon="5.02455">
        <ele>332.20001220703</ele>
        <time>2019-03-23T09:05:58.000Z</time>
      </trkpt>
      <trkpt lat="44.12667" lon="5.02455">
        <ele>332.20001220703</ele>
        <time>2019-03-23T09:06:01.000Z</time>
      </trkpt>
      <trkpt lat="44.12667" lon="5.02455">
        <ele>332.20001220703</ele>
        <time>2019-03-23T09:06:03.000Z</time>
      </trkpt>
      <trkpt lat="44.12666" lon="5.02454">
        <ele>331.39999389648</ele>
        <time>2019-03-23T09:06:14.000Z</time>
      </trkpt>
      <trkpt lat="44.12666" lon="5.02451">
        <ele>330.79998779297</ele>
        <time>2019-03-23T09:06:18.000Z</time>
      </trkpt>
      <trkpt lat="44.12666" lon="5.02449">
        <ele>330.39999389648</ele>
        <time>2019-03-23T09:06:24.000Z</time>
      </trkpt>
      <trkpt lat="44.12666" lon="5.02449">
        <ele>330.39999389648</ele>
        <time>2019-03-23T09:06:25.000Z</time>
      </trkpt>
      <trkpt lat="44.12664" lon="5.02448">
        <ele>330.60000610352</ele>
        <time>2019-03-23T09:06:31.000Z</time>
      </trkpt>
      <trkpt lat="44.12664" lon="5.02448">
        <ele>330.60000610352</ele>
        <time>2019-03-23T09:06:32.000Z</time>
      </trkpt>
      <trkpt lat="44.12664" lon="5.02446">
        <ele>330.39999389648</ele>
        <time>2019-03-23T09:06:37.000Z</time>
      </trkpt>
      <trkpt lat="44.12664" lon="5.02446">
        <ele>330.20001220703</ele>
        <time>2019-03-23T09:06:48.000Z</time>
      </trkpt>
      <trkpt lat="44.12664" lon="5.02446">
        <ele>330.20001220703</ele>
        <time>2019-03-23T09:06:49.000Z</time>
      </trkpt>
      <trkpt lat="44.12664" lon="5.02446">
        <ele>330</ele>
        <time>2019-03-23T09:06:57.000Z</time>
      </trkpt>
      <trkpt lat="44.12665" lon="5.02446">
        <ele>329.79998779297</ele>
        <time>2019-03-23T09:07:05.000Z</time>
      </trkpt>
      <trkpt lat="44.12665" lon="5.02446">
        <ele>329.79998779297</ele>
        <time>2019-03-23T09:07:08.000Z</time>
      </trkpt>
      <trkpt lat="44.12665" lon="5.02446">
        <ele>329.79998779297</ele>
        <time>2019-03-23T09:07:10.000Z</time>
      </trkpt>
      <trkpt lat="44.12663" lon="5.02447">
        <ele>329.79998779297</ele>
        <time>2019-03-23T09:07:19.000Z</time>
      </trkpt>
      <trkpt lat="44.12665" lon="5.02447">
        <ele>329.79998779297</ele>
        <time>2019-03-23T09:07:34.000Z</time>
      </trkpt>
      <trkpt lat="44.12663" lon="5.02447">
        <ele>329.79998779297</ele>
        <time>2019-03-23T09:07:52.000Z</time>
      </trkpt>
      <trkpt lat="44.12664" lon="5.02449">
        <ele>330</ele>
        <time>2019-03-23T09:08:08.000Z</time>
      </trkpt>
      <trkpt lat="44.12664" lon="5.02448">
        <ele>330</ele>
        <time>2019-03-23T09:08:10.000Z</time>
      </trkpt>
      <trkpt lat="44.12664" lon="5.02447">
        <ele>330</ele>
        <time>2019-03-23T09:08:16.000Z</time>
      </trkpt>
      <trkpt lat="44.12662" lon="5.02444">
        <ele>330</ele>
        <time>2019-03-23T09:08:25.000Z</time>
      </trkpt>
      <trkpt lat="44.1266" lon="5.02442">
        <ele>330</ele>
        <time>2019-03-23T09:08:30.000Z</time>
      </trkpt>
      <trkpt lat="44.12661" lon="5.0244">
        <ele>330</ele>
        <time>2019-03-23T09:08:39.000Z</time>
      </trkpt>
      <trkpt lat="44.12662" lon="5.02441">
        <ele>330</ele>
        <time>2019-03-23T09:08:44.000Z</time>
      </trkpt>
      <trkpt lat="44.12663" lon="5.02441">
        <ele>330</ele>
        <time>2019-03-23T09:08:46.000Z</time>
      </trkpt>
      <trkpt lat="44.12663" lon="5.02432">
        <ele>330</ele>
        <time>2019-03-23T09:09:39.000Z</time>
      </trkpt>
      <trkpt lat="44.12665" lon="5.02429">
        <ele>330</ele>
        <time>2019-03-23T09:09:42.000Z</time>
      </trkpt>
      <trkpt lat="44.12665" lon="5.02428">
        <ele>330</ele>
        <time>2019-03-23T09:09:43.000Z</time>
      </trkpt>
      <trkpt lat="44.12666" lon="5.02428">
        <ele>330</ele>
        <time>2019-03-23T09:09:44.000Z</time>
      </trkpt>
      <trkpt lat="44.12667" lon="5.02427">
        <ele>330</ele>
        <time>2019-03-23T09:09:46.000Z</time>
      </trkpt>
      <trkpt lat="44.12669" lon="5.02426">
        <ele>330</ele>
        <time>2019-03-23T09:09:49.000Z</time>
      </trkpt>
      <trkpt lat="44.1267" lon="5.02427">
        <ele>330</ele>
        <time>2019-03-23T09:09:50.000Z</time>
      </trkpt>
      <trkpt lat="44.12673" lon="5.02426">
        <ele>330.20001220703</ele>
        <time>2019-03-23T09:09:55.000Z</time>
      </trkpt>
      <trkpt lat="44.12672" lon="5.02425">
        <ele>330.39999389648</ele>
        <time>2019-03-23T09:09:57.000Z</time>
      </trkpt>
      <trkpt lat="44.12671" lon="5.02424">
        <ele>330.60000610352</ele>
        <time>2019-03-23T09:09:59.000Z</time>
      </trkpt>
      <trkpt lat="44.1267" lon="5.02421">
        <ele>330.60000610352</ele>
        <time>2019-03-23T09:10:00.000Z</time>
      </trkpt>
      <trkpt lat="44.1267" lon="5.02419">
        <ele>330.39999389648</ele>
        <time>2019-03-23T09:10:01.000Z</time>
      </trkpt>
      <trkpt lat="44.1267" lon="5.02408">
        <ele>330</ele>
        <time>2019-03-23T09:10:06.000Z</time>
      </trkpt>
      <trkpt lat="44.1267" lon="5.02387">
        <ele>329.79998779297</ele>
        <time>2019-03-23T09:10:17.000Z</time>
      </trkpt>
      <trkpt lat="44.12668" lon="5.02369">
        <ele>330.39999389648</ele>
        <time>2019-03-23T09:10:26.000Z</time>
      </trkpt>
      <trkpt lat="44.12668" lon="5.0236">
        <ele>330.79998779297</ele>
        <time>2019-03-23T09:10:30.000Z</time>
      </trkpt>
      <trkpt lat="44.12669" lon="5.02353">
        <ele>331.39999389648</ele>
        <time>2019-03-23T09:10:34.000Z</time>
      </trkpt>
      <trkpt lat="44.12669" lon="5.02351">
        <ele>331.79998779297</ele>
        <time>2019-03-23T09:10:36.000Z</time>
      </trkpt>
      <trkpt lat="44.1267" lon="5.02348">
        <ele>332.60000610352</ele>
        <time>2019-03-23T09:10:39.000Z</time>
      </trkpt>
      <trkpt lat="44.1267" lon="5.02347">
        <ele>332.79998779297</ele>
        <time>2019-03-23T09:10:40.000Z</time>
      </trkpt>
      <trkpt lat="44.12671" lon="5.0234">
        <ele>334</ele>
        <time>2019-03-23T09:10:44.000Z</time>
      </trkpt>
      <trkpt lat="44.12671" lon="5.02337">
        <ele>334.20001220703</ele>
        <time>2019-03-23T09:10:46.000Z</time>
      </trkpt>
      <trkpt lat="44.12671" lon="5.02332">
        <ele>334.39999389648</ele>
        <time>2019-03-23T09:10:49.000Z</time>
      </trkpt>
      <trkpt lat="44.12669" lon="5.02325">
        <ele>335</ele>
        <time>2019-03-23T09:10:53.000Z</time>
      </trkpt>
      <trkpt lat="44.12668" lon="5.02324">
        <ele>335.20001220703</ele>
        <time>2019-03-23T09:10:54.000Z</time>
      </trkpt>
      <trkpt lat="44.12668" lon="5.02316">
        <ele>335.60000610352</ele>
        <time>2019-03-23T09:10:59.000Z</time>
      </trkpt>
      <trkpt lat="44.12667" lon="5.02309">
        <ele>335.20001220703</ele>
        <time>2019-03-23T09:11:03.000Z</time>
      </trkpt>
      <trkpt lat="44.12665" lon="5.02299">
        <ele>334.79998779297</ele>
        <time>2019-03-23T09:11:09.000Z</time>
      </trkpt>
      <trkpt lat="44.12665" lon="5.02292">
        <ele>334.39999389648</ele>
        <time>2019-03-23T09:11:16.000Z</time>
      </trkpt>
      <trkpt lat="44.12665" lon="5.02291">
        <ele>334.60000610352</ele>
        <time>2019-03-23T09:11:20.000Z</time>
      </trkpt>
      <trkpt lat="44.12665" lon="5.02291">
        <ele>334.60000610352</ele>
        <time>2019-03-23T09:11:22.000Z</time>
      </trkpt>
      <trkpt lat="44.12665" lon="5.02291">
        <ele>334.79998779297</ele>
        <time>2019-03-23T09:11:25.000Z</time>
      </trkpt>
      <trkpt lat="44.12665" lon="5.02291">
        <ele>334.79998779297</ele>
        <time>2019-03-23T09:11:27.000Z</time>
      </trkpt>
      <trkpt lat="44.12665" lon="5.02291">
        <ele>334.79998779297</ele>
        <time>2019-03-23T09:11:30.000Z</time>
      </trkpt>
      <trkpt lat="44.12665" lon="5.02291">
        <ele>334.60000610352</ele>
        <time>2019-03-23T09:11:32.000Z</time>
      </trkpt>
      <trkpt lat="44.12665" lon="5.0229">
        <ele>334.60000610352</ele>
        <time>2019-03-23T09:11:34.000Z</time>
      </trkpt>
      <trkpt lat="44.12665" lon="5.02289">
        <ele>334.60000610352</ele>
        <time>2019-03-23T09:11:35.000Z</time>
      </trkpt>
      <trkpt lat="44.12665" lon="5.02276">
        <ele>334</ele>
        <time>2019-03-23T09:11:42.000Z</time>
      </trkpt>
      <trkpt lat="44.12665" lon="5.02268">
        <ele>333.79998779297</ele>
        <time>2019-03-23T09:11:46.000Z</time>
      </trkpt>
      <trkpt lat="44.12664" lon="5.0226">
        <ele>333</ele>
        <time>2019-03-23T09:11:50.000Z</time>
      </trkpt>
      <trkpt lat="44.12663" lon="5.0225">
        <ele>332.20001220703</ele>
        <time>2019-03-23T09:11:55.000Z</time>
      </trkpt>
      <trkpt lat="44.12664" lon="5.02243">
        <ele>331.79998779297</ele>
        <time>2019-03-23T09:11:59.000Z</time>
      </trkpt>
      <trkpt lat="44.12664" lon="5.02236">
        <ele>331.20001220703</ele>
        <time>2019-03-23T09:12:03.000Z</time>
      </trkpt>
      <trkpt lat="44.12664" lon="5.02225">
        <ele>330.79998779297</ele>
        <time>2019-03-23T09:12:10.000Z</time>
      </trkpt>
      <trkpt lat="44.12663" lon="5.02223">
        <ele>330.60000610352</ele>
        <time>2019-03-23T09:12:11.000Z</time>
      </trkpt>
      <trkpt lat="44.12661" lon="5.0221">
        <ele>329.79998779297</ele>
        <time>2019-03-23T09:12:18.000Z</time>
      </trkpt>
      <trkpt lat="44.12661" lon="5.02207">
        <ele>329.60000610352</ele>
        <time>2019-03-23T09:12:20.000Z</time>
      </trkpt>
      <trkpt lat="44.1266" lon="5.02201">
        <ele>329.60000610352</ele>
        <time>2019-03-23T09:12:23.000Z</time>
      </trkpt>
      <trkpt lat="44.12659" lon="5.0219">
        <ele>329.20001220703</ele>
        <time>2019-03-23T09:12:29.000Z</time>
      </trkpt>
      <trkpt lat="44.12659" lon="5.02176">
        <ele>328.60000610352</ele>
        <time>2019-03-23T09:12:37.000Z</time>
      </trkpt>
      <trkpt lat="44.12659" lon="5.02174">
        <ele>328.39999389648</ele>
        <time>2019-03-23T09:12:38.000Z</time>
      </trkpt>
      <trkpt lat="44.12659" lon="5.02162">
        <ele>328</ele>
        <time>2019-03-23T09:12:44.000Z</time>
      </trkpt>
      <trkpt lat="44.12657" lon="5.02155">
        <ele>327.60000610352</ele>
        <time>2019-03-23T09:12:48.000Z</time>
      </trkpt>
      <trkpt lat="44.12653" lon="5.0215">
        <ele>327.20001220703</ele>
        <time>2019-03-23T09:12:51.000Z</time>
      </trkpt>
      <trkpt lat="44.12651" lon="5.02141">
        <ele>326.39999389648</ele>
        <time>2019-03-23T09:12:56.000Z</time>
      </trkpt>
      <trkpt lat="44.1265" lon="5.02137">
        <ele>326</ele>
        <time>2019-03-23T09:12:59.000Z</time>
      </trkpt>
      <trkpt lat="44.12648" lon="5.02129">
        <ele>325.39999389648</ele>
        <time>2019-03-23T09:13:04.000Z</time>
      </trkpt>
      <trkpt lat="44.12647" lon="5.02126">
        <ele>325</ele>
        <time>2019-03-23T09:13:06.000Z</time>
      </trkpt>
      <trkpt lat="44.12648" lon="5.02118">
        <ele>324.39999389648</ele>
        <time>2019-03-23T09:13:12.000Z</time>
      </trkpt>
      <trkpt lat="44.12649" lon="5.02117">
        <ele>324.20001220703</ele>
        <time>2019-03-23T09:13:13.000Z</time>
      </trkpt>
      <trkpt lat="44.12656" lon="5.02115">
        <ele>323.60000610352</ele>
        <time>2019-03-23T09:13:19.000Z</time>
      </trkpt>
      <trkpt lat="44.1266" lon="5.02114">
        <ele>323.20001220703</ele>
        <time>2019-03-23T09:13:22.000Z</time>
      </trkpt>
      <trkpt lat="44.1266" lon="5.02113">
        <ele>323</ele>
        <time>2019-03-23T09:13:23.000Z</time>
      </trkpt>
      <trkpt lat="44.1266" lon="5.02111">
        <ele>322.60000610352</ele>
        <time>2019-03-23T09:13:25.000Z</time>
      </trkpt>
      <trkpt lat="44.12658" lon="5.02108">
        <ele>322.20001220703</ele>
        <time>2019-03-23T09:13:27.000Z</time>
      </trkpt>
      <trkpt lat="44.12656" lon="5.02104">
        <ele>321.20001220703</ele>
        <time>2019-03-23T09:13:31.000Z</time>
      </trkpt>
      <trkpt lat="44.12655" lon="5.02104">
        <ele>321</ele>
        <time>2019-03-23T09:13:32.000Z</time>
      </trkpt>
      <trkpt lat="44.12653" lon="5.02104">
        <ele>320.60000610352</ele>
        <time>2019-03-23T09:13:33.000Z</time>
      </trkpt>
      <trkpt lat="44.12651" lon="5.02104">
        <ele>320.20001220703</ele>
        <time>2019-03-23T09:13:35.000Z</time>
      </trkpt>
      <trkpt lat="44.12651" lon="5.02104">
        <ele>320</ele>
        <time>2019-03-23T09:13:36.000Z</time>
      </trkpt>
      <trkpt lat="44.12651" lon="5.02104">
        <ele>319.79998779297</ele>
        <time>2019-03-23T09:13:37.000Z</time>
      </trkpt>
      <trkpt lat="44.12651" lon="5.02104">
        <ele>319.79998779297</ele>
        <time>2019-03-23T09:13:38.000Z</time>
      </trkpt>
      <trkpt lat="44.12651" lon="5.02104">
        <ele>319.60000610352</ele>
        <time>2019-03-23T09:13:39.000Z</time>
      </trkpt>
      <trkpt lat="44.1265" lon="5.02105">
        <ele>319.60000610352</ele>
        <time>2019-03-23T09:13:40.000Z</time>
      </trkpt>
      <trkpt lat="44.12647" lon="5.021">
        <ele>318.60000610352</ele>
        <time>2019-03-23T09:13:47.000Z</time>
      </trkpt>
      <trkpt lat="44.12646" lon="5.02098">
        <ele>318.60000610352</ele>
        <time>2019-03-23T09:13:48.000Z</time>
      </trkpt>
      <trkpt lat="44.12644" lon="5.0209">
        <ele>318.39999389648</ele>
        <time>2019-03-23T09:13:53.000Z</time>
      </trkpt>
      <trkpt lat="44.1264" lon="5.0208">
        <ele>318.20001220703</ele>
        <time>2019-03-23T09:13:59.000Z</time>
      </trkpt>
      <trkpt lat="44.12634" lon="5.02061">
        <ele>317.79998779297</ele>
        <time>2019-03-23T09:14:12.000Z</time>
      </trkpt>
      <trkpt lat="44.12633" lon="5.02059">
        <ele>317.60000610352</ele>
        <time>2019-03-23T09:14:13.000Z</time>
      </trkpt>
      <trkpt lat="44.12631" lon="5.02043">
        <ele>316.60000610352</ele>
        <time>2019-03-23T09:14:22.000Z</time>
      </trkpt>
      <trkpt lat="44.12631" lon="5.02041">
        <ele>316.60000610352</ele>
        <time>2019-03-23T09:14:23.000Z</time>
      </trkpt>
      <trkpt lat="44.1263" lon="5.02034">
        <ele>316</ele>
        <time>2019-03-23T09:14:27.000Z</time>
      </trkpt>
      <trkpt lat="44.12629" lon="5.02031">
        <ele>315.79998779297</ele>
        <time>2019-03-23T09:14:29.000Z</time>
      </trkpt>
      <trkpt lat="44.12627" lon="5.02023">
        <ele>315.60000610352</ele>
        <time>2019-03-23T09:14:34.000Z</time>
      </trkpt>
      <trkpt lat="44.12626" lon="5.02019">
        <ele>315.20001220703</ele>
        <time>2019-03-23T09:14:37.000Z</time>
      </trkpt>
      <trkpt lat="44.12624" lon="5.02011">
        <ele>314.79998779297</ele>
        <time>2019-03-23T09:14:42.000Z</time>
      </trkpt>
      <trkpt lat="44.12624" lon="5.02009">
        <ele>314.60000610352</ele>
        <time>2019-03-23T09:14:43.000Z</time>
      </trkpt>
      <trkpt lat="44.12624" lon="5.02006">
        <ele>314.79998779297</ele>
        <time>2019-03-23T09:14:46.000Z</time>
      </trkpt>
      <trkpt lat="44.12624" lon="5.02005">
        <ele>314.60000610352</ele>
        <time>2019-03-23T09:14:50.000Z</time>
      </trkpt>
      <trkpt lat="44.12624" lon="5.02005">
        <ele>314.60000610352</ele>
        <time>2019-03-23T09:14:51.000Z</time>
      </trkpt>
      <trkpt lat="44.12624" lon="5.02005">
        <ele>314.39999389648</ele>
        <time>2019-03-23T09:14:52.000Z</time>
      </trkpt>
      <trkpt lat="44.12624" lon="5.02005">
        <ele>314.39999389648</ele>
        <time>2019-03-23T09:14:53.000Z</time>
      </trkpt>
      <trkpt lat="44.12624" lon="5.02003">
        <ele>314.20001220703</ele>
        <time>2019-03-23T09:14:56.000Z</time>
      </trkpt>
      <trkpt lat="44.12622" lon="5.01998">
        <ele>314</ele>
        <time>2019-03-23T09:15:00.000Z</time>
      </trkpt>
      <trkpt lat="44.12621" lon="5.01989">
        <ele>313.39999389648</ele>
        <time>2019-03-23T09:15:05.000Z</time>
      </trkpt>
      <trkpt lat="44.1262" lon="5.01986">
        <ele>313</ele>
        <time>2019-03-23T09:15:07.000Z</time>
      </trkpt>
      <trkpt lat="44.12619" lon="5.0198">
        <ele>312.39999389648</ele>
        <time>2019-03-23T09:15:11.000Z</time>
      </trkpt>
      <trkpt lat="44.12617" lon="5.01971">
        <ele>312</ele>
        <time>2019-03-23T09:15:17.000Z</time>
      </trkpt>
      <trkpt lat="44.12617" lon="5.01968">
        <ele>311.60000610352</ele>
        <time>2019-03-23T09:15:19.000Z</time>
      </trkpt>
      <trkpt lat="44.12617" lon="5.01964">
        <ele>311.39999389648</ele>
        <time>2019-03-23T09:15:23.000Z</time>
      </trkpt>
      <trkpt lat="44.12617" lon="5.01964">
        <ele>311.39999389648</ele>
        <time>2019-03-23T09:15:24.000Z</time>
      </trkpt>
      <trkpt lat="44.12617" lon="5.01963">
        <ele>311.20001220703</ele>
        <time>2019-03-23T09:15:29.000Z</time>
      </trkpt>
      <trkpt lat="44.12617" lon="5.01963">
        <ele>311</ele>
        <time>2019-03-23T09:15:32.000Z</time>
      </trkpt>
      <trkpt lat="44.12617" lon="5.01963">
        <ele>311</ele>
        <time>2019-03-23T09:15:33.000Z</time>
      </trkpt>
      <trkpt lat="44.12619" lon="5.01964">
        <ele>311.20001220703</ele>
        <time>2019-03-23T09:15:48.000Z</time>
      </trkpt>
      <trkpt lat="44.12619" lon="5.01964">
        <ele>311.20001220703</ele>
        <time>2019-03-23T09:15:49.000Z</time>
      </trkpt>
      <trkpt lat="44.1262" lon="5.01965">
        <ele>311.20001220703</ele>
        <time>2019-03-23T09:16:07.000Z</time>
      </trkpt>
      <trkpt lat="44.1262" lon="5.01965">
        <ele>311.20001220703</ele>
        <time>2019-03-23T09:16:12.000Z</time>
      </trkpt>
      <trkpt lat="44.1262" lon="5.01965">
        <ele>311.20001220703</ele>
        <time>2019-03-23T09:16:13.000Z</time>
      </trkpt>
      <trkpt lat="44.12619" lon="5.01964">
        <ele>311</ele>
        <time>2019-03-23T09:16:24.000Z</time>
      </trkpt>
      <trkpt lat="44.12619" lon="5.01964">
        <ele>311.20001220703</ele>
        <time>2019-03-23T09:16:39.000Z</time>
      </trkpt>
      <trkpt lat="44.12619" lon="5.01964">
        <ele>311</ele>
        <time>2019-03-23T09:16:49.000Z</time>
      </trkpt>
      <trkpt lat="44.1262" lon="5.01963">
        <ele>311.39999389648</ele>
        <time>2019-03-23T09:16:56.000Z</time>
      </trkpt>
      <trkpt lat="44.1262" lon="5.01963">
        <ele>311.39999389648</ele>
        <time>2019-03-23T09:17:08.000Z</time>
      </trkpt>
      <trkpt lat="44.1262" lon="5.01963">
        <ele>311.39999389648</ele>
        <time>2019-03-23T09:17:12.000Z</time>
      </trkpt>
      <trkpt lat="44.1262" lon="5.01962">
        <ele>311.39999389648</ele>
        <time>2019-03-23T09:17:26.000Z</time>
      </trkpt>
      <trkpt lat="44.12623" lon="5.01963">
        <ele>311.39999389648</ele>
        <time>2019-03-23T09:17:41.000Z</time>
      </trkpt>
      <trkpt lat="44.12622" lon="5.01963">
        <ele>311.39999389648</ele>
        <time>2019-03-23T09:17:50.000Z</time>
      </trkpt>
      <trkpt lat="44.12621" lon="5.01962">
        <ele>311.39999389648</ele>
        <time>2019-03-23T09:17:51.000Z</time>
      </trkpt>
      <trkpt lat="44.1262" lon="5.01961">
        <ele>311.39999389648</ele>
        <time>2019-03-23T09:18:00.000Z</time>
      </trkpt>
      <trkpt lat="44.12619" lon="5.01963">
        <ele>311.39999389648</ele>
        <time>2019-03-23T09:18:05.000Z</time>
      </trkpt>
      <trkpt lat="44.12619" lon="5.01963">
        <ele>311.39999389648</ele>
        <time>2019-03-23T09:18:16.000Z</time>
      </trkpt>
      <trkpt lat="44.12619" lon="5.01963">
        <ele>311.39999389648</ele>
        <time>2019-03-23T09:18:17.000Z</time>
      </trkpt>
      <trkpt lat="44.12619" lon="5.01963">
        <ele>311.39999389648</ele>
        <time>2019-03-23T09:18:19.000Z</time>
      </trkpt>
      <trkpt lat="44.12619" lon="5.01963">
        <ele>311.39999389648</ele>
        <time>2019-03-23T09:18:21.000Z</time>
      </trkpt>
      <trkpt lat="44.12619" lon="5.01963">
        <ele>311.39999389648</ele>
        <time>2019-03-23T09:18:24.000Z</time>
      </trkpt>
      <trkpt lat="44.1262" lon="5.01963">
        <ele>311.39999389648</ele>
        <time>2019-03-23T09:18:43.000Z</time>
      </trkpt>
      <trkpt lat="44.12619" lon="5.01963">
        <ele>311.39999389648</ele>
        <time>2019-03-23T09:18:55.000Z</time>
      </trkpt>
      <trkpt lat="44.12619" lon="5.01962">
        <ele>311.39999389648</ele>
        <time>2019-03-23T09:19:00.000Z</time>
      </trkpt>
      <trkpt lat="44.12619" lon="5.01962">
        <ele>311.39999389648</ele>
        <time>2019-03-23T09:19:02.000Z</time>
      </trkpt>
      <trkpt lat="44.12619" lon="5.01962">
        <ele>311.39999389648</ele>
        <time>2019-03-23T09:19:04.000Z</time>
      </trkpt>
      <trkpt lat="44.12619" lon="5.01962">
        <ele>311.39999389648</ele>
        <time>2019-03-23T09:19:08.000Z</time>
      </trkpt>
      <trkpt lat="44.1262" lon="5.01962">
        <ele>311.39999389648</ele>
        <time>2019-03-23T09:19:16.000Z</time>
      </trkpt>
      <trkpt lat="44.1262" lon="5.01962">
        <ele>311.39999389648</ele>
        <time>2019-03-23T09:19:33.000Z</time>
      </trkpt>
      <trkpt lat="44.1262" lon="5.01962">
        <ele>311.39999389648</ele>
        <time>2019-03-23T09:19:36.000Z</time>
      </trkpt>
      <trkpt lat="44.1262" lon="5.01962">
        <ele>311.39999389648</ele>
        <time>2019-03-23T09:19:43.000Z</time>
      </trkpt>
      <trkpt lat="44.12619" lon="5.01963">
        <ele>311.39999389648</ele>
        <time>2019-03-23T09:19:52.000Z</time>
      </trkpt>
      <trkpt lat="44.12619" lon="5.01963">
        <ele>311.39999389648</ele>
        <time>2019-03-23T09:19:58.000Z</time>
      </trkpt>
      <trkpt lat="44.12618" lon="5.01963">
        <ele>311.39999389648</ele>
        <time>2019-03-23T09:20:10.000Z</time>
      </trkpt>
      <trkpt lat="44.12618" lon="5.01963">
        <ele>311.39999389648</ele>
        <time>2019-03-23T09:20:15.000Z</time>
      </trkpt>
      <trkpt lat="44.12618" lon="5.01963">
        <ele>311.39999389648</ele>
        <time>2019-03-23T09:20:19.000Z</time>
      </trkpt>
      <trkpt lat="44.1262" lon="5.01959">
        <ele>311.39999389648</ele>
        <time>2019-03-23T09:20:27.000Z</time>
      </trkpt>
      <trkpt lat="44.1262" lon="5.01949">
        <ele>311.39999389648</ele>
        <time>2019-03-23T09:20:36.000Z</time>
      </trkpt>
      <trkpt lat="44.1262" lon="5.0195">
        <ele>311.39999389648</ele>
        <time>2019-03-23T09:20:38.000Z</time>
      </trkpt>
      <trkpt lat="44.1262" lon="5.01954">
        <ele>311.39999389648</ele>
        <time>2019-03-23T09:20:42.000Z</time>
      </trkpt>
      <trkpt lat="44.12619" lon="5.01962">
        <ele>311.20001220703</ele>
        <time>2019-03-23T09:20:49.000Z</time>
      </trkpt>
      <trkpt lat="44.12619" lon="5.01962">
        <ele>310.60000610352</ele>
        <time>2019-03-23T09:20:53.000Z</time>
      </trkpt>
      <trkpt lat="44.12619" lon="5.01963">
        <ele>310.20001220703</ele>
        <time>2019-03-23T09:20:57.000Z</time>
      </trkpt>
      <trkpt lat="44.12619" lon="5.01963">
        <ele>310.20001220703</ele>
        <time>2019-03-23T09:20:59.000Z</time>
      </trkpt>
      <trkpt lat="44.1262" lon="5.01963">
        <ele>310.60000610352</ele>
        <time>2019-03-23T09:21:08.000Z</time>
      </trkpt>
      <trkpt lat="44.1262" lon="5.01962">
        <ele>311</ele>
        <time>2019-03-23T09:21:19.000Z</time>
      </trkpt>
      <trkpt lat="44.1262" lon="5.01962">
        <ele>311</ele>
        <time>2019-03-23T09:21:21.000Z</time>
      </trkpt>
      <trkpt lat="44.1262" lon="5.01962">
        <ele>311.20001220703</ele>
        <time>2019-03-23T09:21:27.000Z</time>
      </trkpt>
      <trkpt lat="44.12621" lon="5.01959">
        <ele>311.20001220703</ele>
        <time>2019-03-23T09:21:37.000Z</time>
      </trkpt>
      <trkpt lat="44.12619" lon="5.0195">
        <ele>310.20001220703</ele>
        <time>2019-03-23T09:21:43.000Z</time>
      </trkpt>
      <trkpt lat="44.12617" lon="5.01945">
        <ele>310</ele>
        <time>2019-03-23T09:21:47.000Z</time>
      </trkpt>
      <trkpt lat="44.12616" lon="5.01942">
        <ele>309.60000610352</ele>
        <time>2019-03-23T09:21:53.000Z</time>
      </trkpt>
      <trkpt lat="44.12615" lon="5.01938">
        <ele>309</ele>
        <time>2019-03-23T09:21:56.000Z</time>
      </trkpt>
      <trkpt lat="44.12613" lon="5.01933">
        <ele>307.79998779297</ele>
        <time>2019-03-23T09:22:00.000Z</time>
      </trkpt>
      <trkpt lat="44.12612" lon="5.01927">
        <ele>306.79998779297</ele>
        <time>2019-03-23T09:22:04.000Z</time>
      </trkpt>
      <trkpt lat="44.12612" lon="5.01923">
        <ele>306.39999389648</ele>
        <time>2019-03-23T09:22:07.000Z</time>
      </trkpt>
      <trkpt lat="44.12611" lon="5.01918">
        <ele>305.79998779297</ele>
        <time>2019-03-23T09:22:10.000Z</time>
      </trkpt>
      <trkpt lat="44.1261" lon="5.01903">
        <ele>304.79998779297</ele>
        <time>2019-03-23T09:22:20.000Z</time>
      </trkpt>
      <trkpt lat="44.1261" lon="5.01901">
        <ele>304.79998779297</ele>
        <time>2019-03-23T09:22:21.000Z</time>
      </trkpt>
      <trkpt lat="44.12609" lon="5.01897">
        <ele>304.60000610352</ele>
        <time>2019-03-23T09:22:25.000Z</time>
      </trkpt>
      <trkpt lat="44.12607" lon="5.01888">
        <ele>304.20001220703</ele>
        <time>2019-03-23T09:22:31.000Z</time>
      </trkpt>
      <trkpt lat="44.12606" lon="5.01882">
        <ele>303.79998779297</ele>
        <time>2019-03-23T09:22:35.000Z</time>
      </trkpt>
      <trkpt lat="44.12605" lon="5.0188">
        <ele>303.60000610352</ele>
        <time>2019-03-23T09:22:36.000Z</time>
      </trkpt>
      <trkpt lat="44.12604" lon="5.01868">
        <ele>302.60000610352</ele>
        <time>2019-03-23T09:22:44.000Z</time>
      </trkpt>
      <trkpt lat="44.12604" lon="5.01866">
        <ele>302.60000610352</ele>
        <time>2019-03-23T09:22:46.000Z</time>
      </trkpt>
      <trkpt lat="44.12604" lon="5.01864">
        <ele>302.39999389648</ele>
        <time>2019-03-23T09:22:47.000Z</time>
      </trkpt>
      <trkpt lat="44.12601" lon="5.01852">
        <ele>302.20001220703</ele>
        <time>2019-03-23T09:22:56.000Z</time>
      </trkpt>
      <trkpt lat="44.12601" lon="5.01844">
        <ele>302</ele>
        <time>2019-03-23T09:23:00.000Z</time>
      </trkpt>
      <trkpt lat="44.12601" lon="5.01844">
        <ele>302</ele>
        <time>2019-03-23T09:23:01.000Z</time>
      </trkpt>
      <trkpt lat="44.126" lon="5.01833">
        <ele>302</ele>
        <time>2019-03-23T09:23:09.000Z</time>
      </trkpt>
      <trkpt lat="44.12602" lon="5.01829">
        <ele>302</ele>
        <time>2019-03-23T09:23:12.000Z</time>
      </trkpt>
      <trkpt lat="44.12605" lon="5.01826">
        <ele>301.79998779297</ele>
        <time>2019-03-23T09:23:16.000Z</time>
      </trkpt>
      <trkpt lat="44.12606" lon="5.01825">
        <ele>302</ele>
        <time>2019-03-23T09:23:17.000Z</time>
      </trkpt>
      <trkpt lat="44.1261" lon="5.01821">
        <ele>302</ele>
        <time>2019-03-23T09:23:25.000Z</time>
      </trkpt>
      <trkpt lat="44.12611" lon="5.01821">
        <ele>302.20001220703</ele>
        <time>2019-03-23T09:23:28.000Z</time>
      </trkpt>
      <trkpt lat="44.1261" lon="5.0182">
        <ele>302.20001220703</ele>
        <time>2019-03-23T09:23:32.000Z</time>
      </trkpt>
      <trkpt lat="44.1261" lon="5.0182">
        <ele>302.20001220703</ele>
        <time>2019-03-23T09:23:33.000Z</time>
      </trkpt>
      <trkpt lat="44.1261" lon="5.0182">
        <ele>302.20001220703</ele>
        <time>2019-03-23T09:23:34.000Z</time>
      </trkpt>
      <trkpt lat="44.12609" lon="5.01815">
        <ele>301.79998779297</ele>
        <time>2019-03-23T09:23:39.000Z</time>
      </trkpt>
      <trkpt lat="44.12609" lon="5.01814">
        <ele>301.39999389648</ele>
        <time>2019-03-23T09:23:41.000Z</time>
      </trkpt>
      <trkpt lat="44.12605" lon="5.01815">
        <ele>300.79998779297</ele>
        <time>2019-03-23T09:23:48.000Z</time>
      </trkpt>
      <trkpt lat="44.12601" lon="5.01817">
        <ele>300.39999389648</ele>
        <time>2019-03-23T09:23:58.000Z</time>
      </trkpt>
      <trkpt lat="44.126" lon="5.01818">
        <ele>300.39999389648</ele>
        <time>2019-03-23T09:23:59.000Z</time>
      </trkpt>
      <trkpt lat="44.12601" lon="5.01818">
        <ele>300.39999389648</ele>
        <time>2019-03-23T09:24:07.000Z</time>
      </trkpt>
      <trkpt lat="44.12602" lon="5.01818">
        <ele>300.39999389648</ele>
        <time>2019-03-23T09:24:11.000Z</time>
      </trkpt>
      <trkpt lat="44.12603" lon="5.01812">
        <ele>300.20001220703</ele>
        <time>2019-03-23T09:24:21.000Z</time>
      </trkpt>
      <trkpt lat="44.12603" lon="5.01811">
        <ele>300.20001220703</ele>
        <time>2019-03-23T09:24:23.000Z</time>
      </trkpt>
      <trkpt lat="44.12604" lon="5.01809">
        <ele>301.39999389648</ele>
        <time>2019-03-23T09:24:29.000Z</time>
      </trkpt>
      <trkpt lat="44.12604" lon="5.01808">
        <ele>301.39999389648</ele>
        <time>2019-03-23T09:24:35.000Z</time>
      </trkpt>
      <trkpt lat="44.12605" lon="5.01804">
        <ele>301.39999389648</ele>
        <time>2019-03-23T09:24:48.000Z</time>
      </trkpt>
      <trkpt lat="44.12606" lon="5.01795">
        <ele>301.39999389648</ele>
        <time>2019-03-23T09:24:57.000Z</time>
      </trkpt>
      <trkpt lat="44.12606" lon="5.01792">
        <ele>301.39999389648</ele>
        <time>2019-03-23T09:24:59.000Z</time>
      </trkpt>
      <trkpt lat="44.12607" lon="5.01784">
        <ele>300.39999389648</ele>
        <time>2019-03-23T09:25:08.000Z</time>
      </trkpt>
      <trkpt lat="44.12605" lon="5.01782">
        <ele>300.20001220703</ele>
        <time>2019-03-23T09:25:11.000Z</time>
      </trkpt>
      <trkpt lat="44.126" lon="5.01775">
        <ele>299.20001220703</ele>
        <time>2019-03-23T09:25:17.000Z</time>
      </trkpt>
      <trkpt lat="44.12597" lon="5.0177">
        <ele>298.20001220703</ele>
        <time>2019-03-23T09:25:21.000Z</time>
      </trkpt>
      <trkpt lat="44.12597" lon="5.01768">
        <ele>297.79998779297</ele>
        <time>2019-03-23T09:25:22.000Z</time>
      </trkpt>
      <trkpt lat="44.12594" lon="5.01755">
        <ele>297</ele>
        <time>2019-03-23T09:25:31.000Z</time>
      </trkpt>
      <trkpt lat="44.12594" lon="5.01752">
        <ele>297</ele>
        <time>2019-03-23T09:25:33.000Z</time>
      </trkpt>
      <trkpt lat="44.12594" lon="5.01751">
        <ele>297</ele>
        <time>2019-03-23T09:25:37.000Z</time>
      </trkpt>
      <trkpt lat="44.12594" lon="5.01749">
        <ele>296.79998779297</ele>
        <time>2019-03-23T09:25:40.000Z</time>
      </trkpt>
      <trkpt lat="44.12595" lon="5.01748">
        <ele>296.79998779297</ele>
        <time>2019-03-23T09:25:41.000Z</time>
      </trkpt>
      <trkpt lat="44.12595" lon="5.01743">
        <ele>296</ele>
        <time>2019-03-23T09:25:45.000Z</time>
      </trkpt>
      <trkpt lat="44.12597" lon="5.01737">
        <ele>295.79998779297</ele>
        <time>2019-03-23T09:25:51.000Z</time>
      </trkpt>
      <trkpt lat="44.12597" lon="5.01737">
        <ele>296</ele>
        <time>2019-03-23T09:25:52.000Z</time>
      </trkpt>
      <trkpt lat="44.12597" lon="5.01735">
        <ele>295.79998779297</ele>
        <time>2019-03-23T09:25:58.000Z</time>
      </trkpt>
      <trkpt lat="44.12597" lon="5.01735">
        <ele>295.79998779297</ele>
        <time>2019-03-23T09:25:59.000Z</time>
      </trkpt>
      <trkpt lat="44.12597" lon="5.01735">
        <ele>295.79998779297</ele>
        <time>2019-03-23T09:26:00.000Z</time>
      </trkpt>
      <trkpt lat="44.12596" lon="5.0174">
        <ele>295.79998779297</ele>
        <time>2019-03-23T09:26:09.000Z</time>
      </trkpt>
      <trkpt lat="44.12595" lon="5.01748">
        <ele>296</ele>
        <time>2019-03-23T09:26:15.000Z</time>
      </trkpt>
      <trkpt lat="44.12595" lon="5.01754">
        <ele>296.20001220703</ele>
        <time>2019-03-23T09:26:19.000Z</time>
      </trkpt>
      <trkpt lat="44.12595" lon="5.01755">
        <ele>296.20001220703</ele>
        <time>2019-03-23T09:26:20.000Z</time>
      </trkpt>
      <trkpt lat="44.12595" lon="5.01757">
        <ele>296.60000610352</ele>
        <time>2019-03-23T09:26:22.000Z</time>
      </trkpt>
      <trkpt lat="44.12596" lon="5.01759">
        <ele>296.79998779297</ele>
        <time>2019-03-23T09:26:24.000Z</time>
      </trkpt>
      <trkpt lat="44.12596" lon="5.0176">
        <ele>297</ele>
        <time>2019-03-23T09:26:26.000Z</time>
      </trkpt>
      <trkpt lat="44.12598" lon="5.01763">
        <ele>297.20001220703</ele>
        <time>2019-03-23T09:26:29.000Z</time>
      </trkpt>
      <trkpt lat="44.12599" lon="5.01766">
        <ele>297.60000610352</ele>
        <time>2019-03-23T09:26:33.000Z</time>
      </trkpt>
      <trkpt lat="44.12599" lon="5.01769">
        <ele>297.60000610352</ele>
        <time>2019-03-23T09:26:35.000Z</time>
      </trkpt>
      <trkpt lat="44.12599" lon="5.0177">
        <ele>297.79998779297</ele>
        <time>2019-03-23T09:26:37.000Z</time>
      </trkpt>
      <trkpt lat="44.12597" lon="5.01772">
        <ele>297.39999389648</ele>
        <time>2019-03-23T09:26:40.000Z</time>
      </trkpt>
      <trkpt lat="44.12597" lon="5.01772">
        <ele>297.20001220703</ele>
        <time>2019-03-23T09:26:41.000Z</time>
      </trkpt>
      <trkpt lat="44.12596" lon="5.01774">
        <ele>296.60000610352</ele>
        <time>2019-03-23T09:26:47.000Z</time>
      </trkpt>
      <trkpt lat="44.12595" lon="5.01775">
        <ele>296.60000610352</ele>
        <time>2019-03-23T09:26:49.000Z</time>
      </trkpt>
      <trkpt lat="44.12594" lon="5.01776">
        <ele>296.39999389648</ele>
        <time>2019-03-23T09:26:50.000Z</time>
      </trkpt>
      <trkpt lat="44.12593" lon="5.01778">
        <ele>296</ele>
        <time>2019-03-23T09:26:52.000Z</time>
      </trkpt>
      <trkpt lat="44.12592" lon="5.0178">
        <ele>296</ele>
        <time>2019-03-23T09:26:56.000Z</time>
      </trkpt>
      <trkpt lat="44.12593" lon="5.01788">
        <ele>296.20001220703</ele>
        <time>2019-03-23T09:27:02.000Z</time>
      </trkpt>
      <trkpt lat="44.12593" lon="5.01802">
        <ele>296.60000610352</ele>
        <time>2019-03-23T09:27:13.000Z</time>
      </trkpt>
      <trkpt lat="44.12594" lon="5.01803">
        <ele>296.60000610352</ele>
        <time>2019-03-23T09:27:14.000Z</time>
      </trkpt>
      <trkpt lat="44.12595" lon="5.01811">
        <ele>297</ele>
        <time>2019-03-23T09:27:19.000Z</time>
      </trkpt>
      <trkpt lat="44.12595" lon="5.01818">
        <ele>297.39999389648</ele>
        <time>2019-03-23T09:27:26.000Z</time>
      </trkpt>
      <trkpt lat="44.12594" lon="5.01821">
        <ele>297.39999389648</ele>
        <time>2019-03-23T09:27:30.000Z</time>
      </trkpt>
      <trkpt lat="44.12595" lon="5.01823">
        <ele>297.39999389648</ele>
        <time>2019-03-23T09:27:32.000Z</time>
      </trkpt>
      <trkpt lat="44.12595" lon="5.01823">
        <ele>298.20001220703</ele>
        <time>2019-03-23T09:27:36.000Z</time>
      </trkpt>
      <trkpt lat="44.12595" lon="5.01823">
        <ele>298.39999389648</ele>
        <time>2019-03-23T09:27:37.000Z</time>
      </trkpt>
      <trkpt lat="44.12595" lon="5.01822">
        <ele>298.20001220703</ele>
        <time>2019-03-23T09:27:42.000Z</time>
      </trkpt>
      <trkpt lat="44.12595" lon="5.01822">
        <ele>298.20001220703</ele>
        <time>2019-03-23T09:27:45.000Z</time>
      </trkpt>
      <trkpt lat="44.12594" lon="5.01817">
        <ele>297.79998779297</ele>
        <time>2019-03-23T09:27:51.000Z</time>
      </trkpt>
      <trkpt lat="44.12597" lon="5.01811">
        <ele>297.60000610352</ele>
        <time>2019-03-23T09:27:59.000Z</time>
      </trkpt>
      <trkpt lat="44.12597" lon="5.0181">
        <ele>297.79998779297</ele>
        <time>2019-03-23T09:28:00.000Z</time>
      </trkpt>
      <trkpt lat="44.12597" lon="5.0181">
        <ele>297.79998779297</ele>
        <time>2019-03-23T09:28:01.000Z</time>
      </trkpt>
      <trkpt lat="44.12597" lon="5.01809">
        <ele>297.79998779297</ele>
        <time>2019-03-23T09:28:13.000Z</time>
      </trkpt>
      <trkpt lat="44.12597" lon="5.01809">
        <ele>297.79998779297</ele>
        <time>2019-03-23T09:28:15.000Z</time>
      </trkpt>
      <trkpt lat="44.12597" lon="5.01809">
        <ele>297.79998779297</ele>
        <time>2019-03-23T09:28:18.000Z</time>
      </trkpt>
      <trkpt lat="44.12598" lon="5.0181">
        <ele>298.20001220703</ele>
        <time>2019-03-23T09:28:28.000Z</time>
      </trkpt>
      <trkpt lat="44.12596" lon="5.01808">
        <ele>298.39999389648</ele>
        <time>2019-03-23T09:28:45.000Z</time>
      </trkpt>
      <trkpt lat="44.12596" lon="5.01808">
        <ele>298.20001220703</ele>
        <time>2019-03-23T09:28:46.000Z</time>
      </trkpt>
      <trkpt lat="44.12596" lon="5.01808">
        <ele>298.20001220703</ele>
        <time>2019-03-23T09:28:57.000Z</time>
      </trkpt>
      <trkpt lat="44.12597" lon="5.01809">
        <ele>298</ele>
        <time>2019-03-23T09:29:07.000Z</time>
      </trkpt>
      <trkpt lat="44.126" lon="5.01812">
        <ele>298.39999389648</ele>
        <time>2019-03-23T09:29:16.000Z</time>
      </trkpt>
      <trkpt lat="44.12601" lon="5.01812">
        <ele>298.20001220703</ele>
        <time>2019-03-23T09:29:24.000Z</time>
      </trkpt>
      <trkpt lat="44.12596" lon="5.01811">
        <ele>297.79998779297</ele>
        <time>2019-03-23T09:29:40.000Z</time>
      </trkpt>
      <trkpt lat="44.12595" lon="5.01808">
        <ele>297.39999389648</ele>
        <time>2019-03-23T09:29:52.000Z</time>
      </trkpt>
      <trkpt lat="44.12593" lon="5.018">
        <ele>297.39999389648</ele>
        <time>2019-03-23T09:30:05.000Z</time>
      </trkpt>
      <trkpt lat="44.12593" lon="5.01798">
        <ele>297.20001220703</ele>
        <time>2019-03-23T09:30:06.000Z</time>
      </trkpt>
      <trkpt lat="44.12592" lon="5.01798">
        <ele>297</ele>
        <time>2019-03-23T09:30:09.000Z</time>
      </trkpt>
      <trkpt lat="44.12592" lon="5.01797">
        <ele>297</ele>
        <time>2019-03-23T09:30:10.000Z</time>
      </trkpt>
      <trkpt lat="44.12591" lon="5.01797">
        <ele>296.79998779297</ele>
        <time>2019-03-23T09:30:13.000Z</time>
      </trkpt>
      <trkpt lat="44.12591" lon="5.01796">
        <ele>296.60000610352</ele>
        <time>2019-03-23T09:30:16.000Z</time>
      </trkpt>
      <trkpt lat="44.12591" lon="5.01788">
        <ele>296.79998779297</ele>
        <time>2019-03-23T09:30:21.000Z</time>
      </trkpt>
      <trkpt lat="44.12592" lon="5.01781">
        <ele>296.60000610352</ele>
        <time>2019-03-23T09:30:28.000Z</time>
      </trkpt>
      <trkpt lat="44.12593" lon="5.0178">
        <ele>296.79998779297</ele>
        <time>2019-03-23T09:30:31.000Z</time>
      </trkpt>
      <trkpt lat="44.12599" lon="5.01774">
        <ele>296.79998779297</ele>
        <time>2019-03-23T09:30:40.000Z</time>
      </trkpt>
      <trkpt lat="44.12601" lon="5.01772">
        <ele>297.79998779297</ele>
        <time>2019-03-23T09:30:48.000Z</time>
      </trkpt>
      <trkpt lat="44.126" lon="5.01772">
        <ele>298</ele>
        <time>2019-03-23T09:30:49.000Z</time>
      </trkpt>
      <trkpt lat="44.126" lon="5.01772">
        <ele>298.20001220703</ele>
        <time>2019-03-23T09:30:50.000Z</time>
      </trkpt>
      <trkpt lat="44.12597" lon="5.01767">
        <ele>297.79998779297</ele>
        <time>2019-03-23T09:31:01.000Z</time>
      </trkpt>
      <trkpt lat="44.12593" lon="5.01753">
        <ele>297.20001220703</ele>
        <time>2019-03-23T09:31:10.000Z</time>
      </trkpt>
      <trkpt lat="44.12593" lon="5.01746">
        <ele>296.39999389648</ele>
        <time>2019-03-23T09:31:14.000Z</time>
      </trkpt>
      <trkpt lat="44.12595" lon="5.01741">
        <ele>296.20001220703</ele>
        <time>2019-03-23T09:31:17.000Z</time>
      </trkpt>
      <trkpt lat="44.12597" lon="5.0174">
        <ele>296.20001220703</ele>
        <time>2019-03-23T09:31:18.000Z</time>
      </trkpt>
      <trkpt lat="44.12599" lon="5.01739">
        <ele>296.20001220703</ele>
        <time>2019-03-23T09:31:20.000Z</time>
      </trkpt>
      <trkpt lat="44.12601" lon="5.01739">
        <ele>296.39999389648</ele>
        <time>2019-03-23T09:31:22.000Z</time>
      </trkpt>
      <trkpt lat="44.12604" lon="5.01738">
        <ele>296.60000610352</ele>
        <time>2019-03-23T09:31:25.000Z</time>
      </trkpt>
      <trkpt lat="44.12605" lon="5.01737">
        <ele>296.79998779297</ele>
        <time>2019-03-23T09:31:27.000Z</time>
      </trkpt>
      <trkpt lat="44.12606" lon="5.01736">
        <ele>296.79998779297</ele>
        <time>2019-03-23T09:31:28.000Z</time>
      </trkpt>
      <trkpt lat="44.1261" lon="5.01731">
        <ele>296.60000610352</ele>
        <time>2019-03-23T09:31:34.000Z</time>
      </trkpt>
      <trkpt lat="44.1261" lon="5.01731">
        <ele>296.39999389648</ele>
        <time>2019-03-23T09:31:36.000Z</time>
      </trkpt>
      <trkpt lat="44.1261" lon="5.0173">
        <ele>296.20001220703</ele>
        <time>2019-03-23T09:31:39.000Z</time>
      </trkpt>
      <trkpt lat="44.1261" lon="5.01728">
        <ele>296.39999389648</ele>
        <time>2019-03-23T09:31:44.000Z</time>
      </trkpt>
      <trkpt lat="44.12607" lon="5.01724">
        <ele>296.39999389648</ele>
        <time>2019-03-23T09:31:47.000Z</time>
      </trkpt>
      <trkpt lat="44.12608" lon="5.0172">
        <ele>296.39999389648</ele>
        <time>2019-03-23T09:31:50.000Z</time>
      </trkpt>
      <trkpt lat="44.12609" lon="5.01718">
        <ele>296.79998779297</ele>
        <time>2019-03-23T09:31:55.000Z</time>
      </trkpt>
      <trkpt lat="44.12611" lon="5.01717">
        <ele>297.20001220703</ele>
        <time>2019-03-23T09:32:04.000Z</time>
      </trkpt>
      <trkpt lat="44.12611" lon="5.01717">
        <ele>297.20001220703</ele>
        <time>2019-03-23T09:32:06.000Z</time>
      </trkpt>
      <trkpt lat="44.12611" lon="5.01714">
        <ele>297</ele>
        <time>2019-03-23T09:32:21.000Z</time>
      </trkpt>
      <trkpt lat="44.12611" lon="5.01712">
        <ele>296.79998779297</ele>
        <time>2019-03-23T09:32:29.000Z</time>
      </trkpt>
      <trkpt lat="44.12612" lon="5.0171">
        <ele>297</ele>
        <time>2019-03-23T09:32:32.000Z</time>
      </trkpt>
      <trkpt lat="44.12613" lon="5.0171">
        <ele>297.60000610352</ele>
        <time>2019-03-23T09:32:45.000Z</time>
      </trkpt>
      <trkpt lat="44.12613" lon="5.0171">
        <ele>297.79998779297</ele>
        <time>2019-03-23T09:32:50.000Z</time>
      </trkpt>
      <trkpt lat="44.12613" lon="5.0171">
        <ele>297.79998779297</ele>
        <time>2019-03-23T09:32:52.000Z</time>
      </trkpt>
      <trkpt lat="44.12613" lon="5.01711">
        <ele>297.60000610352</ele>
        <time>2019-03-23T09:33:03.000Z</time>
      </trkpt>
      <trkpt lat="44.12613" lon="5.01712">
        <ele>297.60000610352</ele>
        <time>2019-03-23T09:33:13.000Z</time>
      </trkpt>
      <trkpt lat="44.12611" lon="5.01709">
        <ele>297.20001220703</ele>
        <time>2019-03-23T09:33:19.000Z</time>
      </trkpt>
      <trkpt lat="44.12608" lon="5.01703">
        <ele>296.79998779297</ele>
        <time>2019-03-23T09:33:26.000Z</time>
      </trkpt>
      <trkpt lat="44.12607" lon="5.01701">
        <ele>296.79998779297</ele>
        <time>2019-03-23T09:33:29.000Z</time>
      </trkpt>
      <trkpt lat="44.12607" lon="5.01701">
        <ele>296.39999389648</ele>
        <time>2019-03-23T09:33:32.000Z</time>
      </trkpt>
      <trkpt lat="44.12608" lon="5.01701">
        <ele>296.20001220703</ele>
        <time>2019-03-23T09:33:37.000Z</time>
      </trkpt>
      <trkpt lat="44.12607" lon="5.01699">
        <ele>296.20001220703</ele>
        <time>2019-03-23T09:33:41.000Z</time>
      </trkpt>
      <trkpt lat="44.12603" lon="5.0169">
        <ele>295.79998779297</ele>
        <time>2019-03-23T09:33:54.000Z</time>
      </trkpt>
      <trkpt lat="44.12602" lon="5.01683">
        <ele>296.20001220703</ele>
        <time>2019-03-23T09:34:04.000Z</time>
      </trkpt>
      <trkpt lat="44.12601" lon="5.01674">
        <ele>295</ele>
        <time>2019-03-23T09:34:12.000Z</time>
      </trkpt>
      <trkpt lat="44.12601" lon="5.01671">
        <ele>295</ele>
        <time>2019-03-23T09:34:14.000Z</time>
      </trkpt>
      <trkpt lat="44.12601" lon="5.01668">
        <ele>295</ele>
        <time>2019-03-23T09:34:17.000Z</time>
      </trkpt>
      <trkpt lat="44.126" lon="5.01666">
        <ele>294.79998779297</ele>
        <time>2019-03-23T09:34:19.000Z</time>
      </trkpt>
      <trkpt lat="44.12599" lon="5.01664">
        <ele>294.60000610352</ele>
        <time>2019-03-23T09:34:21.000Z</time>
      </trkpt>
      <trkpt lat="44.12599" lon="5.01663">
        <ele>294.39999389648</ele>
        <time>2019-03-23T09:34:23.000Z</time>
      </trkpt>
      <trkpt lat="44.12598" lon="5.01662">
        <ele>294.39999389648</ele>
        <time>2019-03-23T09:34:24.000Z</time>
      </trkpt>
      <trkpt lat="44.12596" lon="5.01659">
        <ele>294</ele>
        <time>2019-03-23T09:34:34.000Z</time>
      </trkpt>
      <trkpt lat="44.12596" lon="5.01659">
        <ele>294</ele>
        <time>2019-03-23T09:34:35.000Z</time>
      </trkpt>
      <trkpt lat="44.12596" lon="5.01658">
        <ele>294</ele>
        <time>2019-03-23T09:34:36.000Z</time>
      </trkpt>
      <trkpt lat="44.12596" lon="5.01653">
        <ele>294.20001220703</ele>
        <time>2019-03-23T09:34:47.000Z</time>
      </trkpt>
      <trkpt lat="44.12596" lon="5.0165">
        <ele>294</ele>
        <time>2019-03-23T09:34:52.000Z</time>
      </trkpt>
      <trkpt lat="44.12597" lon="5.01644">
        <ele>294.20001220703</ele>
        <time>2019-03-23T09:34:59.000Z</time>
      </trkpt>
      <trkpt lat="44.12599" lon="5.0164">
        <ele>294.39999389648</ele>
        <time>2019-03-23T09:35:13.000Z</time>
      </trkpt>
      <trkpt lat="44.12599" lon="5.0164">
        <ele>294.20001220703</ele>
        <time>2019-03-23T09:35:17.000Z</time>
      </trkpt>
      <trkpt lat="44.12599" lon="5.01643">
        <ele>294.39999389648</ele>
        <time>2019-03-23T09:35:27.000Z</time>
      </trkpt>
      <trkpt lat="44.12598" lon="5.01645">
        <ele>294.39999389648</ele>
        <time>2019-03-23T09:35:39.000Z</time>
      </trkpt>
      <trkpt lat="44.12598" lon="5.01648">
        <ele>294.20001220703</ele>
        <time>2019-03-23T09:35:42.000Z</time>
      </trkpt>
      <trkpt lat="44.12598" lon="5.01648">
        <ele>294.20001220703</ele>
        <time>2019-03-23T09:35:43.000Z</time>
      </trkpt>
      <trkpt lat="44.12599" lon="5.01649">
        <ele>294</ele>
        <time>2019-03-23T09:35:46.000Z</time>
      </trkpt>
      <trkpt lat="44.12599" lon="5.01651">
        <ele>293.79998779297</ele>
        <time>2019-03-23T09:35:50.000Z</time>
      </trkpt>
      <trkpt lat="44.12599" lon="5.01653">
        <ele>293.79998779297</ele>
        <time>2019-03-23T09:35:54.000Z</time>
      </trkpt>
      <trkpt lat="44.12598" lon="5.01654">
        <ele>293.79998779297</ele>
        <time>2019-03-23T09:35:57.000Z</time>
      </trkpt>
      <trkpt lat="44.12595" lon="5.01654">
        <ele>293.79998779297</ele>
        <time>2019-03-23T09:36:03.000Z</time>
      </trkpt>
      <trkpt lat="44.12591" lon="5.01653">
        <ele>293.79998779297</ele>
        <time>2019-03-23T09:36:08.000Z</time>
      </trkpt>
      <trkpt lat="44.12591" lon="5.01653">
        <ele>293.79998779297</ele>
        <time>2019-03-23T09:36:10.000Z</time>
      </trkpt>
      <trkpt lat="44.12589" lon="5.01655">
        <ele>293.20001220703</ele>
        <time>2019-03-23T09:36:13.000Z</time>
      </trkpt>
      <trkpt lat="44.12589" lon="5.01656">
        <ele>292.79998779297</ele>
        <time>2019-03-23T09:36:14.000Z</time>
      </trkpt>
      <trkpt lat="44.12588" lon="5.01656">
        <ele>292.39999389648</ele>
        <time>2019-03-23T09:36:15.000Z</time>
      </trkpt>
      <trkpt lat="44.12583" lon="5.01655">
        <ele>292</ele>
        <time>2019-03-23T09:36:24.000Z</time>
      </trkpt>
      <trkpt lat="44.12581" lon="5.01652">
        <ele>291.79998779297</ele>
        <time>2019-03-23T09:36:26.000Z</time>
      </trkpt>
      <trkpt lat="44.1258" lon="5.01642">
        <ele>290.60000610352</ele>
        <time>2019-03-23T09:36:34.000Z</time>
      </trkpt>
      <trkpt lat="44.1258" lon="5.01639">
        <ele>290.20001220703</ele>
        <time>2019-03-23T09:36:36.000Z</time>
      </trkpt>
      <trkpt lat="44.12579" lon="5.01637">
        <ele>290</ele>
        <time>2019-03-23T09:36:38.000Z</time>
      </trkpt>
      <trkpt lat="44.12579" lon="5.01631">
        <ele>290</ele>
        <time>2019-03-23T09:36:45.000Z</time>
      </trkpt>
      <trkpt lat="44.12579" lon="5.0163">
        <ele>290.20001220703</ele>
        <time>2019-03-23T09:36:46.000Z</time>
      </trkpt>
      <trkpt lat="44.12581" lon="5.01628">
        <ele>290.20001220703</ele>
        <time>2019-03-23T09:36:48.000Z</time>
      </trkpt>
      <trkpt lat="44.12584" lon="5.01626">
        <ele>290.39999389648</ele>
        <time>2019-03-23T09:36:51.000Z</time>
      </trkpt>
      <trkpt lat="44.12587" lon="5.01624">
        <ele>290.39999389648</ele>
        <time>2019-03-23T09:36:54.000Z</time>
      </trkpt>
      <trkpt lat="44.12588" lon="5.01623">
        <ele>290.60000610352</ele>
        <time>2019-03-23T09:36:55.000Z</time>
      </trkpt>
      <trkpt lat="44.12593" lon="5.01623">
        <ele>291</ele>
        <time>2019-03-23T09:37:01.000Z</time>
      </trkpt>
      <trkpt lat="44.12593" lon="5.01622">
        <ele>291</ele>
        <time>2019-03-23T09:37:02.000Z</time>
      </trkpt>
      <trkpt lat="44.12591" lon="5.01621">
        <ele>291.20001220703</ele>
        <time>2019-03-23T09:37:04.000Z</time>
      </trkpt>
      <trkpt lat="44.12589" lon="5.0162">
        <ele>291.20001220703</ele>
        <time>2019-03-23T09:37:07.000Z</time>
      </trkpt>
      <trkpt lat="44.12587" lon="5.01621">
        <ele>291</ele>
        <time>2019-03-23T09:37:09.000Z</time>
      </trkpt>
      <trkpt lat="44.12586" lon="5.01619">
        <ele>290.79998779297</ele>
        <time>2019-03-23T09:37:12.000Z</time>
      </trkpt>
      <trkpt lat="44.12585" lon="5.01618">
        <ele>290.79998779297</ele>
        <time>2019-03-23T09:37:13.000Z</time>
      </trkpt>
      <trkpt lat="44.12582" lon="5.01616">
        <ele>290</ele>
        <time>2019-03-23T09:37:16.000Z</time>
      </trkpt>
      <trkpt lat="44.1258" lon="5.01615">
        <ele>289.60000610352</ele>
        <time>2019-03-23T09:37:19.000Z</time>
      </trkpt>
      <trkpt lat="44.12578" lon="5.01615">
        <ele>289.39999389648</ele>
        <time>2019-03-23T09:37:20.000Z</time>
      </trkpt>
      <trkpt lat="44.12575" lon="5.01614">
        <ele>289</ele>
        <time>2019-03-23T09:37:23.000Z</time>
      </trkpt>
      <trkpt lat="44.12573" lon="5.01615">
        <ele>288.79998779297</ele>
        <time>2019-03-23T09:37:25.000Z</time>
      </trkpt>
      <trkpt lat="44.1257" lon="5.01613">
        <ele>288.60000610352</ele>
        <time>2019-03-23T09:37:30.000Z</time>
      </trkpt>
      <trkpt lat="44.12569" lon="5.01612">
        <ele>288.20001220703</ele>
        <time>2019-03-23T09:37:32.000Z</time>
      </trkpt>
      <trkpt lat="44.12568" lon="5.01612">
        <ele>287.79998779297</ele>
        <time>2019-03-23T09:37:33.000Z</time>
      </trkpt>
      <trkpt lat="44.12567" lon="5.01611">
        <ele>287.60000610352</ele>
        <time>2019-03-23T09:37:35.000Z</time>
      </trkpt>
      <trkpt lat="44.12566" lon="5.01609">
        <ele>287.39999389648</ele>
        <time>2019-03-23T09:37:37.000Z</time>
      </trkpt>
      <trkpt lat="44.12566" lon="5.01608">
        <ele>287</ele>
        <time>2019-03-23T09:37:38.000Z</time>
      </trkpt>
      <trkpt lat="44.12565" lon="5.01605">
        <ele>285.79998779297</ele>
        <time>2019-03-23T09:37:41.000Z</time>
      </trkpt>
      <trkpt lat="44.12565" lon="5.01604">
        <ele>285.60000610352</ele>
        <time>2019-03-23T09:37:43.000Z</time>
      </trkpt>
      <trkpt lat="44.12564" lon="5.01601">
        <ele>285</ele>
        <time>2019-03-23T09:37:47.000Z</time>
      </trkpt>
      <trkpt lat="44.12564" lon="5.01601">
        <ele>284.79998779297</ele>
        <time>2019-03-23T09:37:48.000Z</time>
      </trkpt>
      <trkpt lat="44.12566" lon="5.01597">
        <ele>283.20001220703</ele>
        <time>2019-03-23T09:37:53.000Z</time>
      </trkpt>
      <trkpt lat="44.12566" lon="5.01591">
        <ele>282.39999389648</ele>
        <time>2019-03-23T09:37:59.000Z</time>
      </trkpt>
      <trkpt lat="44.12566" lon="5.0159">
        <ele>282.20001220703</ele>
        <time>2019-03-23T09:38:00.000Z</time>
      </trkpt>
      <trkpt lat="44.12563" lon="5.01578">
        <ele>281</ele>
        <time>2019-03-23T09:38:10.000Z</time>
      </trkpt>
      <trkpt lat="44.12562" lon="5.01575">
        <ele>280.79998779297</ele>
        <time>2019-03-23T09:38:12.000Z</time>
      </trkpt>
      <trkpt lat="44.12562" lon="5.01569">
        <ele>280.39999389648</ele>
        <time>2019-03-23T09:38:17.000Z</time>
      </trkpt>
      <trkpt lat="44.12561" lon="5.01562">
        <ele>280</ele>
        <time>2019-03-23T09:38:22.000Z</time>
      </trkpt>
      <trkpt lat="44.12561" lon="5.01559">
        <ele>279.79998779297</ele>
        <time>2019-03-23T09:38:24.000Z</time>
      </trkpt>
      <trkpt lat="44.12565" lon="5.01546">
        <ele>279</ele>
        <time>2019-03-23T09:38:33.000Z</time>
      </trkpt>
      <trkpt lat="44.12565" lon="5.01545">
        <ele>279</ele>
        <time>2019-03-23T09:38:34.000Z</time>
      </trkpt>
      <trkpt lat="44.12567" lon="5.0153">
        <ele>278</ele>
        <time>2019-03-23T09:38:42.000Z</time>
      </trkpt>
      <trkpt lat="44.12567" lon="5.01528">
        <ele>277.79998779297</ele>
        <time>2019-03-23T09:38:43.000Z</time>
      </trkpt>
      <trkpt lat="44.12564" lon="5.01513">
        <ele>277.20001220703</ele>
        <time>2019-03-23T09:38:52.000Z</time>
      </trkpt>
      <trkpt lat="44.12564" lon="5.01508">
        <ele>277</ele>
        <time>2019-03-23T09:38:55.000Z</time>
      </trkpt>
      <trkpt lat="44.12563" lon="5.01504">
        <ele>276.60000610352</ele>
        <time>2019-03-23T09:38:58.000Z</time>
      </trkpt>
      <trkpt lat="44.12567" lon="5.01496">
        <ele>276.60000610352</ele>
        <time>2019-03-23T09:39:04.000Z</time>
      </trkpt>
      <trkpt lat="44.12564" lon="5.01486">
        <ele>276.39999389648</ele>
        <time>2019-03-23T09:39:12.000Z</time>
      </trkpt>
      <trkpt lat="44.12564" lon="5.01484">
        <ele>276.39999389648</ele>
        <time>2019-03-23T09:39:13.000Z</time>
      </trkpt>
      <trkpt lat="44.12565" lon="5.01476">
        <ele>275.79998779297</ele>
        <time>2019-03-23T09:39:18.000Z</time>
      </trkpt>
      <trkpt lat="44.12564" lon="5.01471">
        <ele>275.79998779297</ele>
        <time>2019-03-23T09:39:22.000Z</time>
      </trkpt>
      <trkpt lat="44.12561" lon="5.01463">
        <ele>274.79998779297</ele>
        <time>2019-03-23T09:39:28.000Z</time>
      </trkpt>
      <trkpt lat="44.1256" lon="5.01457">
        <ele>274.39999389648</ele>
        <time>2019-03-23T09:39:33.000Z</time>
      </trkpt>
      <trkpt lat="44.1256" lon="5.01451">
        <ele>274.20001220703</ele>
        <time>2019-03-23T09:39:38.000Z</time>
      </trkpt>
      <trkpt lat="44.12562" lon="5.01444">
        <ele>274.60000610352</ele>
        <time>2019-03-23T09:39:44.000Z</time>
      </trkpt>
      <trkpt lat="44.12562" lon="5.01443">
        <ele>275</ele>
        <time>2019-03-23T09:39:46.000Z</time>
      </trkpt>
      <trkpt lat="44.12562" lon="5.01442">
        <ele>275.39999389648</ele>
        <time>2019-03-23T09:39:49.000Z</time>
      </trkpt>
      <trkpt lat="44.12564" lon="5.01441">
        <ele>275.79998779297</ele>
        <time>2019-03-23T09:39:52.000Z</time>
      </trkpt>
      <trkpt lat="44.12569" lon="5.01436">
        <ele>275.79998779297</ele>
        <time>2019-03-23T09:40:01.000Z</time>
      </trkpt>
      <trkpt lat="44.12572" lon="5.01434">
        <ele>276.20001220703</ele>
        <time>2019-03-23T09:40:05.000Z</time>
      </trkpt>
      <trkpt lat="44.12578" lon="5.01432">
        <ele>276.79998779297</ele>
        <time>2019-03-23T09:40:10.000Z</time>
      </trkpt>
      <trkpt lat="44.1258" lon="5.0143">
        <ele>277.39999389648</ele>
        <time>2019-03-23T09:40:13.000Z</time>
      </trkpt>
      <trkpt lat="44.12581" lon="5.01429">
        <ele>277.79998779297</ele>
        <time>2019-03-23T09:40:15.000Z</time>
      </trkpt>
      <trkpt lat="44.12585" lon="5.01428">
        <ele>278</ele>
        <time>2019-03-23T09:40:19.000Z</time>
      </trkpt>
      <trkpt lat="44.12586" lon="5.01428">
        <ele>278</ele>
        <time>2019-03-23T09:40:21.000Z</time>
      </trkpt>
      <trkpt lat="44.12587" lon="5.01427">
        <ele>278.20001220703</ele>
        <time>2019-03-23T09:40:22.000Z</time>
      </trkpt>
      <trkpt lat="44.12587" lon="5.01427">
        <ele>278.20001220703</ele>
        <time>2019-03-23T09:40:23.000Z</time>
      </trkpt>
      <trkpt lat="44.12589" lon="5.01425">
        <ele>278.20001220703</ele>
        <time>2019-03-23T09:40:26.000Z</time>
      </trkpt>
      <trkpt lat="44.12592" lon="5.01418">
        <ele>278.20001220703</ele>
        <time>2019-03-23T09:40:34.000Z</time>
      </trkpt>
      <trkpt lat="44.12593" lon="5.01416">
        <ele>278.79998779297</ele>
        <time>2019-03-23T09:40:38.000Z</time>
      </trkpt>
      <trkpt lat="44.12593" lon="5.01416">
        <ele>279</ele>
        <time>2019-03-23T09:40:39.000Z</time>
      </trkpt>
      <trkpt lat="44.12595" lon="5.01412">
        <ele>280</ele>
        <time>2019-03-23T09:40:45.000Z</time>
      </trkpt>
      <trkpt lat="44.12595" lon="5.01412">
        <ele>280.39999389648</ele>
        <time>2019-03-23T09:40:52.000Z</time>
      </trkpt>
      <trkpt lat="44.12595" lon="5.01413">
        <ele>280.39999389648</ele>
        <time>2019-03-23T09:40:56.000Z</time>
      </trkpt>
      <trkpt lat="44.12595" lon="5.01413">
        <ele>280.39999389648</ele>
        <time>2019-03-23T09:41:03.000Z</time>
      </trkpt>
      <trkpt lat="44.12595" lon="5.01413">
        <ele>280.60000610352</ele>
        <time>2019-03-23T09:41:06.000Z</time>
      </trkpt>
      <trkpt lat="44.12594" lon="5.01413">
        <ele>280.60000610352</ele>
        <time>2019-03-23T09:41:11.000Z</time>
      </trkpt>
      <trkpt lat="44.12594" lon="5.0141">
        <ele>280</ele>
        <time>2019-03-23T09:41:18.000Z</time>
      </trkpt>
      <trkpt lat="44.12593" lon="5.01409">
        <ele>279.20001220703</ele>
        <time>2019-03-23T09:41:33.000Z</time>
      </trkpt>
      <trkpt lat="44.12593" lon="5.01408">
        <ele>278.79998779297</ele>
        <time>2019-03-23T09:41:39.000Z</time>
      </trkpt>
      <trkpt lat="44.12592" lon="5.01407">
        <ele>278.39999389648</ele>
        <time>2019-03-23T09:41:45.000Z</time>
      </trkpt>
      <trkpt lat="44.12591" lon="5.01407">
        <ele>277.60000610352</ele>
        <time>2019-03-23T09:41:49.000Z</time>
      </trkpt>
      <trkpt lat="44.12592" lon="5.01407">
        <ele>277.39999389648</ele>
        <time>2019-03-23T09:41:50.000Z</time>
      </trkpt>
      <trkpt lat="44.12592" lon="5.01406">
        <ele>277.39999389648</ele>
        <time>2019-03-23T09:41:51.000Z</time>
      </trkpt>
      <trkpt lat="44.12592" lon="5.01405">
        <ele>277.20001220703</ele>
        <time>2019-03-23T09:41:53.000Z</time>
      </trkpt>
      <trkpt lat="44.1259" lon="5.01404">
        <ele>276.39999389648</ele>
        <time>2019-03-23T09:41:56.000Z</time>
      </trkpt>
      <trkpt lat="44.12589" lon="5.01404">
        <ele>276.20001220703</ele>
        <time>2019-03-23T09:41:58.000Z</time>
      </trkpt>
      <trkpt lat="44.12583" lon="5.01407">
        <ele>275.79998779297</ele>
        <time>2019-03-23T09:42:05.000Z</time>
      </trkpt>
      <trkpt lat="44.12582" lon="5.01409">
        <ele>275.39999389648</ele>
        <time>2019-03-23T09:42:07.000Z</time>
      </trkpt>
      <trkpt lat="44.12581" lon="5.01411">
        <ele>275</ele>
        <time>2019-03-23T09:42:09.000Z</time>
      </trkpt>
      <trkpt lat="44.12581" lon="5.01413">
        <ele>274.79998779297</ele>
        <time>2019-03-23T09:42:10.000Z</time>
      </trkpt>
      <trkpt lat="44.12581" lon="5.01414">
        <ele>274.79998779297</ele>
        <time>2019-03-23T09:42:11.000Z</time>
      </trkpt>
      <trkpt lat="44.12579" lon="5.01421">
        <ele>274.79998779297</ele>
        <time>2019-03-23T09:42:18.000Z</time>
      </trkpt>
      <trkpt lat="44.12577" lon="5.01422">
        <ele>274.60000610352</ele>
        <time>2019-03-23T09:42:21.000Z</time>
      </trkpt>
      <trkpt lat="44.12575" lon="5.01421">
        <ele>274.79998779297</ele>
        <time>2019-03-23T09:42:24.000Z</time>
      </trkpt>
      <trkpt lat="44.12571" lon="5.01424">
        <ele>274.79998779297</ele>
        <time>2019-03-23T09:42:31.000Z</time>
      </trkpt>
      <trkpt lat="44.12564" lon="5.01432">
        <ele>274.60000610352</ele>
        <time>2019-03-23T09:42:43.000Z</time>
      </trkpt>
      <trkpt lat="44.12563" lon="5.01433">
        <ele>274.79998779297</ele>
        <time>2019-03-23T09:42:45.000Z</time>
      </trkpt>
      <trkpt lat="44.12561" lon="5.01434">
        <ele>274.20001220703</ele>
        <time>2019-03-23T09:42:49.000Z</time>
      </trkpt>
      <trkpt lat="44.12559" lon="5.01431">
        <ele>273.60000610352</ele>
        <time>2019-03-23T09:42:55.000Z</time>
      </trkpt>
      <trkpt lat="44.12558" lon="5.01427">
        <ele>273.20001220703</ele>
        <time>2019-03-23T09:43:04.000Z</time>
      </trkpt>
      <trkpt lat="44.12557" lon="5.01428">
        <ele>272.39999389648</ele>
        <time>2019-03-23T09:43:07.000Z</time>
      </trkpt>
      <trkpt lat="44.12555" lon="5.01431">
        <ele>272.39999389648</ele>
        <time>2019-03-23T09:43:13.000Z</time>
      </trkpt>
      <trkpt lat="44.12554" lon="5.01432">
        <ele>272.39999389648</ele>
        <time>2019-03-23T09:43:17.000Z</time>
      </trkpt>
      <trkpt lat="44.12554" lon="5.01432">
        <ele>272.39999389648</ele>
        <time>2019-03-23T09:43:18.000Z</time>
      </trkpt>
      <trkpt lat="44.12553" lon="5.01432">
        <ele>272.20001220703</ele>
        <time>2019-03-23T09:43:23.000Z</time>
      </trkpt>
      <trkpt lat="44.12552" lon="5.01432">
        <ele>272.20001220703</ele>
        <time>2019-03-23T09:43:24.000Z</time>
      </trkpt>
      <trkpt lat="44.1255" lon="5.01431">
        <ele>271.20001220703</ele>
        <time>2019-03-23T09:43:30.000Z</time>
      </trkpt>
      <trkpt lat="44.12548" lon="5.01424">
        <ele>270.79998779297</ele>
        <time>2019-03-23T09:43:38.000Z</time>
      </trkpt>
      <trkpt lat="44.12548" lon="5.01425">
        <ele>270.79998779297</ele>
        <time>2019-03-23T09:43:39.000Z</time>
      </trkpt>
      <trkpt lat="44.12549" lon="5.01428">
        <ele>271</ele>
        <time>2019-03-23T09:43:42.000Z</time>
      </trkpt>
      <trkpt lat="44.12547" lon="5.01434">
        <ele>271</ele>
        <time>2019-03-23T09:43:46.000Z</time>
      </trkpt>
      <trkpt lat="44.12547" lon="5.0144">
        <ele>271.20001220703</ele>
        <time>2019-03-23T09:43:55.000Z</time>
      </trkpt>
      <trkpt lat="44.12543" lon="5.01442">
        <ele>270.20001220703</ele>
        <time>2019-03-23T09:44:03.000Z</time>
      </trkpt>
      <trkpt lat="44.12542" lon="5.01441">
        <ele>270</ele>
        <time>2019-03-23T09:44:04.000Z</time>
      </trkpt>
      <trkpt lat="44.12541" lon="5.01441">
        <ele>269.39999389648</ele>
        <time>2019-03-23T09:44:07.000Z</time>
      </trkpt>
      <trkpt lat="44.1254" lon="5.01441">
        <ele>269</ele>
        <time>2019-03-23T09:44:08.000Z</time>
      </trkpt>
      <trkpt lat="44.12534" lon="5.01443">
        <ele>268.20001220703</ele>
        <time>2019-03-23T09:44:16.000Z</time>
      </trkpt>
      <trkpt lat="44.12534" lon="5.01443">
        <ele>268</ele>
        <time>2019-03-23T09:44:18.000Z</time>
      </trkpt>
      <trkpt lat="44.12534" lon="5.01443">
        <ele>267.79998779297</ele>
        <time>2019-03-23T09:44:19.000Z</time>
      </trkpt>
      <trkpt lat="44.12536" lon="5.01444">
        <ele>268</ele>
        <time>2019-03-23T09:44:33.000Z</time>
      </trkpt>
      <trkpt lat="44.12538" lon="5.0144">
        <ele>268.79998779297</ele>
        <time>2019-03-23T09:44:41.000Z</time>
      </trkpt>
      <trkpt lat="44.12538" lon="5.01437">
        <ele>268.79998779297</ele>
        <time>2019-03-23T09:44:44.000Z</time>
      </trkpt>
      <trkpt lat="44.12539" lon="5.01434">
        <ele>268.60000610352</ele>
        <time>2019-03-23T09:44:47.000Z</time>
      </trkpt>
      <trkpt lat="44.12539" lon="5.01433">
        <ele>268.39999389648</ele>
        <time>2019-03-23T09:44:49.000Z</time>
      </trkpt>
      <trkpt lat="44.12537" lon="5.0143">
        <ele>268.20001220703</ele>
        <time>2019-03-23T09:44:53.000Z</time>
      </trkpt>
      <trkpt lat="44.12538" lon="5.01427">
        <ele>268.20001220703</ele>
        <time>2019-03-23T09:45:01.000Z</time>
      </trkpt>
      <trkpt lat="44.12537" lon="5.01435">
        <ele>268.20001220703</ele>
        <time>2019-03-23T09:45:09.000Z</time>
      </trkpt>
      <trkpt lat="44.12537" lon="5.01438">
        <ele>268</ele>
        <time>2019-03-23T09:45:16.000Z</time>
      </trkpt>
      <trkpt lat="44.12537" lon="5.01439">
        <ele>267.79998779297</ele>
        <time>2019-03-23T09:45:18.000Z</time>
      </trkpt>
      <trkpt lat="44.12535" lon="5.01444">
        <ele>267</ele>
        <time>2019-03-23T09:45:25.000Z</time>
      </trkpt>
      <trkpt lat="44.12534" lon="5.01447">
        <ele>266.60000610352</ele>
        <time>2019-03-23T09:45:31.000Z</time>
      </trkpt>
      <trkpt lat="44.12531" lon="5.01448">
        <ele>265.79998779297</ele>
        <time>2019-03-23T09:45:38.000Z</time>
      </trkpt>
      <trkpt lat="44.12531" lon="5.01448">
        <ele>265.60000610352</ele>
        <time>2019-03-23T09:45:40.000Z</time>
      </trkpt>
      <trkpt lat="44.12529" lon="5.0145">
        <ele>265.39999389648</ele>
        <time>2019-03-23T09:45:44.000Z</time>
      </trkpt>
      <trkpt lat="44.12527" lon="5.01452">
        <ele>265.39999389648</ele>
        <time>2019-03-23T09:45:52.000Z</time>
      </trkpt>
      <trkpt lat="44.12521" lon="5.01451">
        <ele>265</ele>
        <time>2019-03-23T09:45:59.000Z</time>
      </trkpt>
      <trkpt lat="44.12518" lon="5.01452">
        <ele>264.79998779297</ele>
        <time>2019-03-23T09:46:03.000Z</time>
      </trkpt>
      <trkpt lat="44.12514" lon="5.01452">
        <ele>264.60000610352</ele>
        <time>2019-03-23T09:46:13.000Z</time>
      </trkpt>
      <trkpt lat="44.12514" lon="5.01453">
        <ele>264.60000610352</ele>
        <time>2019-03-23T09:46:15.000Z</time>
      </trkpt>
      <trkpt lat="44.12513" lon="5.01447">
        <ele>264</ele>
        <time>2019-03-23T09:46:22.000Z</time>
      </trkpt>
      <trkpt lat="44.12512" lon="5.01444">
        <ele>263.79998779297</ele>
        <time>2019-03-23T09:46:24.000Z</time>
      </trkpt>
      <trkpt lat="44.12512" lon="5.01442">
        <ele>263.60000610352</ele>
        <time>2019-03-23T09:46:25.000Z</time>
      </trkpt>
      <trkpt lat="44.12511" lon="5.01432">
        <ele>263.20001220703</ele>
        <time>2019-03-23T09:46:31.000Z</time>
      </trkpt>
      <trkpt lat="44.12517" lon="5.0142">
        <ele>262.79998779297</ele>
        <time>2019-03-23T09:46:39.000Z</time>
      </trkpt>
      <trkpt lat="44.12517" lon="5.0141">
        <ele>262.60000610352</ele>
        <time>2019-03-23T09:46:45.000Z</time>
      </trkpt>
      <trkpt lat="44.12517" lon="5.01403">
        <ele>262</ele>
        <time>2019-03-23T09:46:49.000Z</time>
      </trkpt>
      <trkpt lat="44.12512" lon="5.01388">
        <ele>262.20001220703</ele>
        <time>2019-03-23T09:46:59.000Z</time>
      </trkpt>
      <trkpt lat="44.12514" lon="5.01375">
        <ele>262.20001220703</ele>
        <time>2019-03-23T09:47:08.000Z</time>
      </trkpt>
      <trkpt lat="44.12512" lon="5.0136">
        <ele>262.20001220703</ele>
        <time>2019-03-23T09:47:18.000Z</time>
      </trkpt>
      <trkpt lat="44.12513" lon="5.01355">
        <ele>262.20001220703</ele>
        <time>2019-03-23T09:47:22.000Z</time>
      </trkpt>
      <trkpt lat="44.12515" lon="5.01347">
        <ele>262.79998779297</ele>
        <time>2019-03-23T09:47:28.000Z</time>
      </trkpt>
      <trkpt lat="44.12518" lon="5.01341">
        <ele>263.60000610352</ele>
        <time>2019-03-23T09:47:33.000Z</time>
      </trkpt>
      <trkpt lat="44.1252" lon="5.01335">
        <ele>264.60000610352</ele>
        <time>2019-03-23T09:47:38.000Z</time>
      </trkpt>
      <trkpt lat="44.12521" lon="5.01333">
        <ele>264.79998779297</ele>
        <time>2019-03-23T09:47:39.000Z</time>
      </trkpt>
      <trkpt lat="44.12524" lon="5.01327">
        <ele>265</ele>
        <time>2019-03-23T09:47:44.000Z</time>
      </trkpt>
      <trkpt lat="44.12527" lon="5.01321">
        <ele>265.79998779297</ele>
        <time>2019-03-23T09:47:49.000Z</time>
      </trkpt>
      <trkpt lat="44.1253" lon="5.01312">
        <ele>266.79998779297</ele>
        <time>2019-03-23T09:47:58.000Z</time>
      </trkpt>
      <trkpt lat="44.12531" lon="5.01311">
        <ele>267.20001220703</ele>
        <time>2019-03-23T09:48:00.000Z</time>
      </trkpt>
      <trkpt lat="44.12532" lon="5.01309">
        <ele>267.39999389648</ele>
        <time>2019-03-23T09:48:02.000Z</time>
      </trkpt>
      <trkpt lat="44.12532" lon="5.01309">
        <ele>267.39999389648</ele>
        <time>2019-03-23T09:48:10.000Z</time>
      </trkpt>
      <trkpt lat="44.12532" lon="5.01309">
        <ele>267.60000610352</ele>
        <time>2019-03-23T09:48:11.000Z</time>
      </trkpt>
      <trkpt lat="44.12531" lon="5.01309">
        <ele>268</ele>
        <time>2019-03-23T09:48:15.000Z</time>
      </trkpt>
      <trkpt lat="44.12533" lon="5.01311">
        <ele>267.39999389648</ele>
        <time>2019-03-23T09:48:24.000Z</time>
      </trkpt>
      <trkpt lat="44.12533" lon="5.0131">
        <ele>267.20001220703</ele>
        <time>2019-03-23T09:48:36.000Z</time>
      </trkpt>
      <trkpt lat="44.12533" lon="5.01311">
        <ele>267.20001220703</ele>
        <time>2019-03-23T09:48:43.000Z</time>
      </trkpt>
      <trkpt lat="44.12533" lon="5.0131">
        <ele>267</ele>
        <time>2019-03-23T09:48:51.000Z</time>
      </trkpt>
      <trkpt lat="44.12533" lon="5.0131">
        <ele>267.20001220703</ele>
        <time>2019-03-23T09:48:53.000Z</time>
      </trkpt>
      <trkpt lat="44.12533" lon="5.0131">
        <ele>267.39999389648</ele>
        <time>2019-03-23T09:48:55.000Z</time>
      </trkpt>
      <trkpt lat="44.1253" lon="5.0131">
        <ele>267.60000610352</ele>
        <time>2019-03-23T09:49:07.000Z</time>
      </trkpt>
      <trkpt lat="44.1253" lon="5.01311">
        <ele>267.79998779297</ele>
        <time>2019-03-23T09:49:15.000Z</time>
      </trkpt>
      <trkpt lat="44.1253" lon="5.0131">
        <ele>267.79998779297</ele>
        <time>2019-03-23T09:49:20.000Z</time>
      </trkpt>
      <trkpt lat="44.1253" lon="5.0131">
        <ele>267.79998779297</ele>
        <time>2019-03-23T09:49:24.000Z</time>
      </trkpt>
      <trkpt lat="44.1253" lon="5.0131">
        <ele>267.79998779297</ele>
        <time>2019-03-23T09:49:33.000Z</time>
      </trkpt>
      <trkpt lat="44.12532" lon="5.01311">
        <ele>267.79998779297</ele>
        <time>2019-03-23T09:49:40.000Z</time>
      </trkpt>
      <trkpt lat="44.12532" lon="5.01311">
        <ele>267.79998779297</ele>
        <time>2019-03-23T09:49:41.000Z</time>
      </trkpt>
      <trkpt lat="44.12532" lon="5.01311">
        <ele>267.79998779297</ele>
        <time>2019-03-23T09:49:42.000Z</time>
      </trkpt>
      <trkpt lat="44.12532" lon="5.01304">
        <ele>267.79998779297</ele>
        <time>2019-03-23T09:49:49.000Z</time>
      </trkpt>
      <trkpt lat="44.12531" lon="5.01302">
        <ele>267.79998779297</ele>
        <time>2019-03-23T09:49:58.000Z</time>
      </trkpt>
      <trkpt lat="44.12531" lon="5.01303">
        <ele>267.79998779297</ele>
        <time>2019-03-23T09:50:02.000Z</time>
      </trkpt>
      <trkpt lat="44.1253" lon="5.01303">
        <ele>267.79998779297</ele>
        <time>2019-03-23T09:50:05.000Z</time>
      </trkpt>
      <trkpt lat="44.1253" lon="5.01304">
        <ele>267.79998779297</ele>
        <time>2019-03-23T09:50:07.000Z</time>
      </trkpt>
      <trkpt lat="44.1253" lon="5.01307">
        <ele>267.79998779297</ele>
        <time>2019-03-23T09:50:13.000Z</time>
      </trkpt>
      <trkpt lat="44.12529" lon="5.01304">
        <ele>267.79998779297</ele>
        <time>2019-03-23T09:50:15.000Z</time>
      </trkpt>
      <trkpt lat="44.1253" lon="5.013">
        <ele>267.79998779297</ele>
        <time>2019-03-23T09:50:25.000Z</time>
      </trkpt>
      <trkpt lat="44.1253" lon="5.01302">
        <ele>267.79998779297</ele>
        <time>2019-03-23T09:50:35.000Z</time>
      </trkpt>
      <trkpt lat="44.12531" lon="5.01309">
        <ele>267.79998779297</ele>
        <time>2019-03-23T09:50:44.000Z</time>
      </trkpt>
      <trkpt lat="44.12531" lon="5.01309">
        <ele>267.79998779297</ele>
        <time>2019-03-23T09:50:51.000Z</time>
      </trkpt>
      <trkpt lat="44.12531" lon="5.01308">
        <ele>267.79998779297</ele>
        <time>2019-03-23T09:50:52.000Z</time>
      </trkpt>
      <trkpt lat="44.12531" lon="5.01307">
        <ele>267.79998779297</ele>
        <time>2019-03-23T09:50:58.000Z</time>
      </trkpt>
      <trkpt lat="44.12531" lon="5.01307">
        <ele>267.79998779297</ele>
        <time>2019-03-23T09:50:59.000Z</time>
      </trkpt>
      <trkpt lat="44.12531" lon="5.01307">
        <ele>267.79998779297</ele>
        <time>2019-03-23T09:51:12.000Z</time>
      </trkpt>
      <trkpt lat="44.12531" lon="5.01307">
        <ele>267.79998779297</ele>
        <time>2019-03-23T09:51:17.000Z</time>
      </trkpt>
      <trkpt lat="44.12532" lon="5.01307">
        <ele>267.79998779297</ele>
        <time>2019-03-23T09:51:22.000Z</time>
      </trkpt>
      <trkpt lat="44.12532" lon="5.01307">
        <ele>267.79998779297</ele>
        <time>2019-03-23T09:51:28.000Z</time>
      </trkpt>
      <trkpt lat="44.12532" lon="5.01307">
        <ele>267.79998779297</ele>
        <time>2019-03-23T09:51:30.000Z</time>
      </trkpt>
      <trkpt lat="44.12532" lon="5.01309">
        <ele>267.79998779297</ele>
        <time>2019-03-23T09:51:49.000Z</time>
      </trkpt>
      <trkpt lat="44.12531" lon="5.0131">
        <ele>267.79998779297</ele>
        <time>2019-03-23T09:52:02.000Z</time>
      </trkpt>
      <trkpt lat="44.12531" lon="5.01309">
        <ele>267.79998779297</ele>
        <time>2019-03-23T09:52:10.000Z</time>
      </trkpt>
      <trkpt lat="44.12531" lon="5.0131">
        <ele>267.79998779297</ele>
        <time>2019-03-23T09:52:14.000Z</time>
      </trkpt>
      <trkpt lat="44.1253" lon="5.01309">
        <ele>267.79998779297</ele>
        <time>2019-03-23T09:52:23.000Z</time>
      </trkpt>
      <trkpt lat="44.1253" lon="5.01309">
        <ele>267.79998779297</ele>
        <time>2019-03-23T09:52:28.000Z</time>
      </trkpt>
      <trkpt lat="44.1253" lon="5.01309">
        <ele>267.79998779297</ele>
        <time>2019-03-23T09:52:44.000Z</time>
      </trkpt>
      <trkpt lat="44.12529" lon="5.01309">
        <ele>267.79998779297</ele>
        <time>2019-03-23T09:52:45.000Z</time>
      </trkpt>
      <trkpt lat="44.12527" lon="5.01312">
        <ele>267.79998779297</ele>
        <time>2019-03-23T09:52:58.000Z</time>
      </trkpt>
      <trkpt lat="44.12528" lon="5.01312">
        <ele>267.79998779297</ele>
        <time>2019-03-23T09:53:05.000Z</time>
      </trkpt>
      <trkpt lat="44.12525" lon="5.01313">
        <ele>267.79998779297</ele>
        <time>2019-03-23T09:53:15.000Z</time>
      </trkpt>
      <trkpt lat="44.12523" lon="5.01313">
        <ele>267.79998779297</ele>
        <time>2019-03-23T09:53:27.000Z</time>
      </trkpt>
      <trkpt lat="44.12523" lon="5.01313">
        <ele>267.79998779297</ele>
        <time>2019-03-23T09:53:28.000Z</time>
      </trkpt>
      <trkpt lat="44.12524" lon="5.01312">
        <ele>267.79998779297</ele>
        <time>2019-03-23T09:53:42.000Z</time>
      </trkpt>
      <trkpt lat="44.12528" lon="5.01311">
        <ele>267.79998779297</ele>
        <time>2019-03-23T09:53:51.000Z</time>
      </trkpt>
      <trkpt lat="44.12529" lon="5.01311">
        <ele>267.79998779297</ele>
        <time>2019-03-23T09:53:53.000Z</time>
      </trkpt>
      <trkpt lat="44.1253" lon="5.01311">
        <ele>267.79998779297</ele>
        <time>2019-03-23T09:53:56.000Z</time>
      </trkpt>
      <trkpt lat="44.12531" lon="5.01308">
        <ele>267.79998779297</ele>
        <time>2019-03-23T09:54:04.000Z</time>
      </trkpt>
      <trkpt lat="44.12534" lon="5.01306">
        <ele>267.79998779297</ele>
        <time>2019-03-23T09:54:06.000Z</time>
      </trkpt>
      <trkpt lat="44.12535" lon="5.01306">
        <ele>267.79998779297</ele>
        <time>2019-03-23T09:54:07.000Z</time>
      </trkpt>
      <trkpt lat="44.12538" lon="5.01307">
        <ele>267.79998779297</ele>
        <time>2019-03-23T09:54:10.000Z</time>
      </trkpt>
      <trkpt lat="44.1254" lon="5.0131">
        <ele>267.20001220703</ele>
        <time>2019-03-23T09:54:14.000Z</time>
      </trkpt>
      <trkpt lat="44.12541" lon="5.01311">
        <ele>267.20001220703</ele>
        <time>2019-03-23T09:54:16.000Z</time>
      </trkpt>
      <trkpt lat="44.12546" lon="5.01315">
        <ele>267.39999389648</ele>
        <time>2019-03-23T09:54:22.000Z</time>
      </trkpt>
      <trkpt lat="44.12551" lon="5.01316">
        <ele>267.79998779297</ele>
        <time>2019-03-23T09:54:26.000Z</time>
      </trkpt>
      <trkpt lat="44.12556" lon="5.0132">
        <ele>269</ele>
        <time>2019-03-23T09:54:33.000Z</time>
      </trkpt>
      <trkpt lat="44.12558" lon="5.0132">
        <ele>269.60000610352</ele>
        <time>2019-03-23T09:54:37.000Z</time>
      </trkpt>
      <trkpt lat="44.12562" lon="5.01322">
        <ele>270.20001220703</ele>
        <time>2019-03-23T09:54:40.000Z</time>
      </trkpt>
      <trkpt lat="44.12567" lon="5.01327">
        <ele>271</ele>
        <time>2019-03-23T09:54:47.000Z</time>
      </trkpt>
      <trkpt lat="44.12568" lon="5.01331">
        <ele>271.20001220703</ele>
        <time>2019-03-23T09:54:50.000Z</time>
      </trkpt>
      <trkpt lat="44.12568" lon="5.01332">
        <ele>271.39999389648</ele>
        <time>2019-03-23T09:54:51.000Z</time>
      </trkpt>
      <trkpt lat="44.12566" lon="5.01347">
        <ele>271.39999389648</ele>
        <time>2019-03-23T09:55:01.000Z</time>
      </trkpt>
      <trkpt lat="44.12569" lon="5.01366">
        <ele>271.79998779297</ele>
        <time>2019-03-23T09:55:12.000Z</time>
      </trkpt>
      <trkpt lat="44.12573" lon="5.01378">
        <ele>272.20001220703</ele>
        <time>2019-03-23T09:55:21.000Z</time>
      </trkpt>
      <trkpt lat="44.12573" lon="5.01379">
        <ele>272.39999389648</ele>
        <time>2019-03-23T09:55:23.000Z</time>
      </trkpt>
      <trkpt lat="44.12574" lon="5.0138">
        <ele>272.60000610352</ele>
        <time>2019-03-23T09:55:24.000Z</time>
      </trkpt>
      <trkpt lat="44.12573" lon="5.01381">
        <ele>272.60000610352</ele>
        <time>2019-03-23T09:55:25.000Z</time>
      </trkpt>
      <trkpt lat="44.12574" lon="5.01385">
        <ele>272.79998779297</ele>
        <time>2019-03-23T09:55:28.000Z</time>
      </trkpt>
      <trkpt lat="44.12575" lon="5.01389">
        <ele>273</ele>
        <time>2019-03-23T09:55:31.000Z</time>
      </trkpt>
      <trkpt lat="44.12575" lon="5.0139">
        <ele>273</ele>
        <time>2019-03-23T09:55:32.000Z</time>
      </trkpt>
      <trkpt lat="44.12576" lon="5.01392">
        <ele>273.39999389648</ele>
        <time>2019-03-23T09:55:34.000Z</time>
      </trkpt>
      <trkpt lat="44.12577" lon="5.01394">
        <ele>273.60000610352</ele>
        <time>2019-03-23T09:55:36.000Z</time>
      </trkpt>
      <trkpt lat="44.12578" lon="5.01396">
        <ele>273.79998779297</ele>
        <time>2019-03-23T09:55:38.000Z</time>
      </trkpt>
      <trkpt lat="44.12579" lon="5.01397">
        <ele>274</ele>
        <time>2019-03-23T09:55:39.000Z</time>
      </trkpt>
      <trkpt lat="44.1258" lon="5.01398">
        <ele>274.39999389648</ele>
        <time>2019-03-23T09:55:41.000Z</time>
      </trkpt>
      <trkpt lat="44.12583" lon="5.01398">
        <ele>274.79998779297</ele>
        <time>2019-03-23T09:55:44.000Z</time>
      </trkpt>
      <trkpt lat="44.12584" lon="5.01399">
        <ele>275.20001220703</ele>
        <time>2019-03-23T09:55:46.000Z</time>
      </trkpt>
      <trkpt lat="44.12584" lon="5.01399">
        <ele>275.39999389648</ele>
        <time>2019-03-23T09:55:47.000Z</time>
      </trkpt>
      <trkpt lat="44.12585" lon="5.014">
        <ele>276</ele>
        <time>2019-03-23T09:55:49.000Z</time>
      </trkpt>
      <trkpt lat="44.12586" lon="5.014">
        <ele>276</ele>
        <time>2019-03-23T09:55:50.000Z</time>
      </trkpt>
      <trkpt lat="44.12589" lon="5.01402">
        <ele>276.39999389648</ele>
        <time>2019-03-23T09:55:54.000Z</time>
      </trkpt>
      <trkpt lat="44.12592" lon="5.01404">
        <ele>277</ele>
        <time>2019-03-23T09:55:58.000Z</time>
      </trkpt>
      <trkpt lat="44.12593" lon="5.01406">
        <ele>277.20001220703</ele>
        <time>2019-03-23T09:56:00.000Z</time>
      </trkpt>
      <trkpt lat="44.12596" lon="5.01406">
        <ele>277</ele>
        <time>2019-03-23T09:56:03.000Z</time>
      </trkpt>
      <trkpt lat="44.12602" lon="5.01405">
        <ele>275.39999389648</ele>
        <time>2019-03-23T09:56:08.000Z</time>
      </trkpt>
      <trkpt lat="44.12605" lon="5.01403">
        <ele>275</ele>
        <time>2019-03-23T09:56:11.000Z</time>
      </trkpt>
      <trkpt lat="44.12613" lon="5.01388">
        <ele>275</ele>
        <time>2019-03-23T09:56:24.000Z</time>
      </trkpt>
      <trkpt lat="44.12615" lon="5.01384">
        <ele>274.39999389648</ele>
        <time>2019-03-23T09:56:29.000Z</time>
      </trkpt>
      <trkpt lat="44.12617" lon="5.01378">
        <ele>273.20001220703</ele>
        <time>2019-03-23T09:56:35.000Z</time>
      </trkpt>
      <trkpt lat="44.12617" lon="5.01377">
        <ele>273.20001220703</ele>
        <time>2019-03-23T09:56:36.000Z</time>
      </trkpt>
      <trkpt lat="44.12617" lon="5.01376">
        <ele>273</ele>
        <time>2019-03-23T09:56:38.000Z</time>
      </trkpt>
      <trkpt lat="44.12616" lon="5.01375">
        <ele>273</ele>
        <time>2019-03-23T09:56:40.000Z</time>
      </trkpt>
      <trkpt lat="44.12614" lon="5.01372">
        <ele>273.39999389648</ele>
        <time>2019-03-23T09:56:44.000Z</time>
      </trkpt>
      <trkpt lat="44.12612" lon="5.01372">
        <ele>273.20001220703</ele>
        <time>2019-03-23T09:56:50.000Z</time>
      </trkpt>
      <trkpt lat="44.12608" lon="5.01372">
        <ele>273.79998779297</ele>
        <time>2019-03-23T09:57:03.000Z</time>
      </trkpt>
      <trkpt lat="44.12608" lon="5.01372">
        <ele>273.60000610352</ele>
        <time>2019-03-23T09:57:04.000Z</time>
      </trkpt>
      <trkpt lat="44.12609" lon="5.01372">
        <ele>273.60000610352</ele>
        <time>2019-03-23T09:57:08.000Z</time>
      </trkpt>
      <trkpt lat="44.12616" lon="5.01362">
        <ele>272.79998779297</ele>
        <time>2019-03-23T09:57:19.000Z</time>
      </trkpt>
      <trkpt lat="44.12616" lon="5.01358">
        <ele>272.20001220703</ele>
        <time>2019-03-23T09:57:23.000Z</time>
      </trkpt>
      <trkpt lat="44.12615" lon="5.01357">
        <ele>272</ele>
        <time>2019-03-23T09:57:27.000Z</time>
      </trkpt>
      <trkpt lat="44.12615" lon="5.01357">
        <ele>272</ele>
        <time>2019-03-23T09:57:28.000Z</time>
      </trkpt>
      <trkpt lat="44.12615" lon="5.01356">
        <ele>271.60000610352</ele>
        <time>2019-03-23T09:57:32.000Z</time>
      </trkpt>
      <trkpt lat="44.12618" lon="5.01356">
        <ele>271.39999389648</ele>
        <time>2019-03-23T09:57:42.000Z</time>
      </trkpt>
      <trkpt lat="44.1262" lon="5.01356">
        <ele>271.39999389648</ele>
        <time>2019-03-23T09:57:48.000Z</time>
      </trkpt>
      <trkpt lat="44.12626" lon="5.0135">
        <ele>272</ele>
        <time>2019-03-23T09:57:59.000Z</time>
      </trkpt>
      <trkpt lat="44.12625" lon="5.01348">
        <ele>272</ele>
        <time>2019-03-23T09:58:01.000Z</time>
      </trkpt>
      <trkpt lat="44.12625" lon="5.01344">
        <ele>272.20001220703</ele>
        <time>2019-03-23T09:58:04.000Z</time>
      </trkpt>
      <trkpt lat="44.12624" lon="5.01338">
        <ele>272.79998779297</ele>
        <time>2019-03-23T09:58:09.000Z</time>
      </trkpt>
      <trkpt lat="44.12623" lon="5.01336">
        <ele>273</ele>
        <time>2019-03-23T09:58:12.000Z</time>
      </trkpt>
      <trkpt lat="44.12623" lon="5.01336">
        <ele>273.39999389648</ele>
        <time>2019-03-23T09:58:14.000Z</time>
      </trkpt>
      <trkpt lat="44.1262" lon="5.01336">
        <ele>274</ele>
        <time>2019-03-23T09:58:26.000Z</time>
      </trkpt>
      <trkpt lat="44.12623" lon="5.01335">
        <ele>273</ele>
        <time>2019-03-23T09:58:37.000Z</time>
      </trkpt>
      <trkpt lat="44.12626" lon="5.01331">
        <ele>273</ele>
        <time>2019-03-23T09:58:44.000Z</time>
      </trkpt>
      <trkpt lat="44.12626" lon="5.01329">
        <ele>273</ele>
        <time>2019-03-23T09:58:46.000Z</time>
      </trkpt>
      <trkpt lat="44.12624" lon="5.01325">
        <ele>273</ele>
        <time>2019-03-23T09:58:50.000Z</time>
      </trkpt>
      <trkpt lat="44.12618" lon="5.01321">
        <ele>274.39999389648</ele>
        <time>2019-03-23T09:59:01.000Z</time>
      </trkpt>
      <trkpt lat="44.12618" lon="5.01321">
        <ele>274.39999389648</ele>
        <time>2019-03-23T09:59:02.000Z</time>
      </trkpt>
      <trkpt lat="44.12617" lon="5.01319">
        <ele>274</ele>
        <time>2019-03-23T09:59:08.000Z</time>
      </trkpt>
      <trkpt lat="44.12617" lon="5.01318">
        <ele>273.39999389648</ele>
        <time>2019-03-23T09:59:13.000Z</time>
      </trkpt>
      <trkpt lat="44.12616" lon="5.01318">
        <ele>273.39999389648</ele>
        <time>2019-03-23T09:59:15.000Z</time>
      </trkpt>
      <trkpt lat="44.12611" lon="5.01314">
        <ele>274.39999389648</ele>
        <time>2019-03-23T09:59:24.000Z</time>
      </trkpt>
      <trkpt lat="44.1261" lon="5.01314">
        <ele>275.20001220703</ele>
        <time>2019-03-23T09:59:28.000Z</time>
      </trkpt>
      <trkpt lat="44.12611" lon="5.01314">
        <ele>275.60000610352</ele>
        <time>2019-03-23T09:59:31.000Z</time>
      </trkpt>
      <trkpt lat="44.12611" lon="5.01311">
        <ele>275.20001220703</ele>
        <time>2019-03-23T09:59:42.000Z</time>
      </trkpt>
      <trkpt lat="44.12611" lon="5.0131">
        <ele>275.20001220703</ele>
        <time>2019-03-23T09:59:45.000Z</time>
      </trkpt>
      <trkpt lat="44.12613" lon="5.01309">
        <ele>275.79998779297</ele>
        <time>2019-03-23T09:59:55.000Z</time>
      </trkpt>
      <trkpt lat="44.12616" lon="5.0131">
        <ele>276.60000610352</ele>
        <time>2019-03-23T10:00:00.000Z</time>
      </trkpt>
      <trkpt lat="44.12616" lon="5.0131">
        <ele>276.39999389648</ele>
        <time>2019-03-23T10:00:06.000Z</time>
      </trkpt>
      <trkpt lat="44.12616" lon="5.0131">
        <ele>276.39999389648</ele>
        <time>2019-03-23T10:00:08.000Z</time>
      </trkpt>
      <trkpt lat="44.12617" lon="5.01309">
        <ele>276.39999389648</ele>
        <time>2019-03-23T10:00:10.000Z</time>
      </trkpt>
      <trkpt lat="44.12617" lon="5.01309">
        <ele>276.39999389648</ele>
        <time>2019-03-23T10:00:12.000Z</time>
      </trkpt>
      <trkpt lat="44.1262" lon="5.01307">
        <ele>275.60000610352</ele>
        <time>2019-03-23T10:00:21.000Z</time>
      </trkpt>
      <trkpt lat="44.1262" lon="5.01306">
        <ele>275.39999389648</ele>
        <time>2019-03-23T10:00:22.000Z</time>
      </trkpt>
      <trkpt lat="44.12622" lon="5.01305">
        <ele>275</ele>
        <time>2019-03-23T10:00:24.000Z</time>
      </trkpt>
      <trkpt lat="44.12623" lon="5.01302">
        <ele>274.39999389648</ele>
        <time>2019-03-23T10:00:29.000Z</time>
      </trkpt>
      <trkpt lat="44.12622" lon="5.01299">
        <ele>274</ele>
        <time>2019-03-23T10:00:39.000Z</time>
      </trkpt>
      <trkpt lat="44.12623" lon="5.01299">
        <ele>274</ele>
        <time>2019-03-23T10:00:41.000Z</time>
      </trkpt>
      <trkpt lat="44.12623" lon="5.01297">
        <ele>273.39999389648</ele>
        <time>2019-03-23T10:00:58.000Z</time>
      </trkpt>
      <trkpt lat="44.12623" lon="5.01297">
        <ele>273.20001220703</ele>
        <time>2019-03-23T10:00:59.000Z</time>
      </trkpt>
      <trkpt lat="44.12636" lon="5.01289">
        <ele>274</ele>
        <time>2019-03-23T10:02:17.000Z</time>
      </trkpt>
      <trkpt lat="44.12634" lon="5.01302">
        <ele>274</ele>
        <time>2019-03-23T10:02:21.000Z</time>
      </trkpt>
      <trkpt lat="44.12633" lon="5.01304">
        <ele>273.79998779297</ele>
        <time>2019-03-23T10:02:23.000Z</time>
      </trkpt>
      <trkpt lat="44.12632" lon="5.01299">
        <ele>272.39999389648</ele>
        <time>2019-03-23T10:02:30.000Z</time>
      </trkpt>
      <trkpt lat="44.1263" lon="5.01295">
        <ele>273.39999389648</ele>
        <time>2019-03-23T10:02:37.000Z</time>
      </trkpt>
      <trkpt lat="44.1263" lon="5.01296">
        <ele>273.39999389648</ele>
        <time>2019-03-23T10:02:38.000Z</time>
      </trkpt>
      <trkpt lat="44.12629" lon="5.01295">
        <ele>273.60000610352</ele>
        <time>2019-03-23T10:02:41.000Z</time>
      </trkpt>
      <trkpt lat="44.12629" lon="5.01295">
        <ele>273.60000610352</ele>
        <time>2019-03-23T10:02:43.000Z</time>
      </trkpt>
      <trkpt lat="44.12631" lon="5.0129">
        <ele>274</ele>
        <time>2019-03-23T10:02:55.000Z</time>
      </trkpt>
      <trkpt lat="44.12631" lon="5.01288">
        <ele>274.60000610352</ele>
        <time>2019-03-23T10:02:58.000Z</time>
      </trkpt>
      <trkpt lat="44.12629" lon="5.01286">
        <ele>275</ele>
        <time>2019-03-23T10:03:07.000Z</time>
      </trkpt>
      <trkpt lat="44.12627" lon="5.01284">
        <ele>275.79998779297</ele>
        <time>2019-03-23T10:03:12.000Z</time>
      </trkpt>
      <trkpt lat="44.12625" lon="5.01284">
        <ele>277</ele>
        <time>2019-03-23T10:03:17.000Z</time>
      </trkpt>
      <trkpt lat="44.12625" lon="5.01284">
        <ele>277.20001220703</ele>
        <time>2019-03-23T10:03:18.000Z</time>
      </trkpt>
      <trkpt lat="44.12623" lon="5.01282">
        <ele>278.20001220703</ele>
        <time>2019-03-23T10:03:22.000Z</time>
      </trkpt>
      <trkpt lat="44.12621" lon="5.0128">
        <ele>279</ele>
        <time>2019-03-23T10:03:26.000Z</time>
      </trkpt>
      <trkpt lat="44.1262" lon="5.0128">
        <ele>279.39999389648</ele>
        <time>2019-03-23T10:03:27.000Z</time>
      </trkpt>
      <trkpt lat="44.12619" lon="5.01279">
        <ele>279.60000610352</ele>
        <time>2019-03-23T10:03:28.000Z</time>
      </trkpt>
      <trkpt lat="44.12619" lon="5.01279">
        <ele>279.79998779297</ele>
        <time>2019-03-23T10:03:29.000Z</time>
      </trkpt>
      <trkpt lat="44.12616" lon="5.0128">
        <ele>280</ele>
        <time>2019-03-23T10:03:32.000Z</time>
      </trkpt>
      <trkpt lat="44.12617" lon="5.0128">
        <ele>280.39999389648</ele>
        <time>2019-03-23T10:03:39.000Z</time>
      </trkpt>
      <trkpt lat="44.12617" lon="5.0128">
        <ele>280.39999389648</ele>
        <time>2019-03-23T10:03:40.000Z</time>
      </trkpt>
      <trkpt lat="44.12618" lon="5.01282">
        <ele>279.79998779297</ele>
        <time>2019-03-23T10:03:49.000Z</time>
      </trkpt>
      <trkpt lat="44.12619" lon="5.01282">
        <ele>279.20001220703</ele>
        <time>2019-03-23T10:03:51.000Z</time>
      </trkpt>
      <trkpt lat="44.12621" lon="5.01283">
        <ele>278</ele>
        <time>2019-03-23T10:03:56.000Z</time>
      </trkpt>
      <trkpt lat="44.12624" lon="5.01282">
        <ele>276.79998779297</ele>
        <time>2019-03-23T10:04:00.000Z</time>
      </trkpt>
      <trkpt lat="44.12627" lon="5.01278">
        <ele>276.20001220703</ele>
        <time>2019-03-23T10:04:04.000Z</time>
      </trkpt>
      <trkpt lat="44.12629" lon="5.01277">
        <ele>276</ele>
        <time>2019-03-23T10:04:07.000Z</time>
      </trkpt>
      <trkpt lat="44.1263" lon="5.01276">
        <ele>276</ele>
        <time>2019-03-23T10:04:09.000Z</time>
      </trkpt>
      <trkpt lat="44.12631" lon="5.01273">
        <ele>276</ele>
        <time>2019-03-23T10:04:12.000Z</time>
      </trkpt>
      <trkpt lat="44.12631" lon="5.01272">
        <ele>276</ele>
        <time>2019-03-23T10:04:15.000Z</time>
      </trkpt>
      <trkpt lat="44.12631" lon="5.01269">
        <ele>276</ele>
        <time>2019-03-23T10:04:21.000Z</time>
      </trkpt>
      <trkpt lat="44.12631" lon="5.01267">
        <ele>275.79998779297</ele>
        <time>2019-03-23T10:04:24.000Z</time>
      </trkpt>
      <trkpt lat="44.12632" lon="5.01266">
        <ele>275.39999389648</ele>
        <time>2019-03-23T10:04:28.000Z</time>
      </trkpt>
      <trkpt lat="44.12631" lon="5.01263">
        <ele>274.79998779297</ele>
        <time>2019-03-23T10:04:38.000Z</time>
      </trkpt>
      <trkpt lat="44.12631" lon="5.01264">
        <ele>274</ele>
        <time>2019-03-23T10:04:42.000Z</time>
      </trkpt>
      <trkpt lat="44.12632" lon="5.01263">
        <ele>273.60000610352</ele>
        <time>2019-03-23T10:04:46.000Z</time>
      </trkpt>
      <trkpt lat="44.12635" lon="5.01262">
        <ele>273.39999389648</ele>
        <time>2019-03-23T10:04:56.000Z</time>
      </trkpt>
      <trkpt lat="44.12635" lon="5.01262">
        <ele>273.39999389648</ele>
        <time>2019-03-23T10:04:57.000Z</time>
      </trkpt>
      <trkpt lat="44.12633" lon="5.01259">
        <ele>273.20001220703</ele>
        <time>2019-03-23T10:05:07.000Z</time>
      </trkpt>
      <trkpt lat="44.12631" lon="5.01254">
        <ele>273.20001220703</ele>
        <time>2019-03-23T10:05:14.000Z</time>
      </trkpt>
      <trkpt lat="44.12625" lon="5.0125">
        <ele>272.60000610352</ele>
        <time>2019-03-23T10:05:19.000Z</time>
      </trkpt>
      <trkpt lat="44.12624" lon="5.0125">
        <ele>272.20001220703</ele>
        <time>2019-03-23T10:05:41.000Z</time>
      </trkpt>
      <trkpt lat="44.12625" lon="5.01252">
        <ele>271.60000610352</ele>
        <time>2019-03-23T10:05:55.000Z</time>
      </trkpt>
      <trkpt lat="44.12634" lon="5.01249">
        <ele>272</ele>
        <time>2019-03-23T10:06:00.000Z</time>
      </trkpt>
      <trkpt lat="44.12634" lon="5.01248">
        <ele>272.20001220703</ele>
        <time>2019-03-23T10:06:01.000Z</time>
      </trkpt>
      <trkpt lat="44.12635" lon="5.01247">
        <ele>272.60000610352</ele>
        <time>2019-03-23T10:06:03.000Z</time>
      </trkpt>
      <trkpt lat="44.12637" lon="5.01241">
        <ele>273.39999389648</ele>
        <time>2019-03-23T10:06:18.000Z</time>
      </trkpt>
      <trkpt lat="44.12636" lon="5.01241">
        <ele>273.60000610352</ele>
        <time>2019-03-23T10:06:21.000Z</time>
      </trkpt>
      <trkpt lat="44.12637" lon="5.0125">
        <ele>274.60000610352</ele>
        <time>2019-03-23T10:06:35.000Z</time>
      </trkpt>
      <trkpt lat="44.1264" lon="5.01251">
        <ele>274.60000610352</ele>
        <time>2019-03-23T10:06:38.000Z</time>
      </trkpt>
      <trkpt lat="44.1264" lon="5.01251">
        <ele>274.60000610352</ele>
        <time>2019-03-23T10:06:45.000Z</time>
      </trkpt>
      <trkpt lat="44.12641" lon="5.0125">
        <ele>274.39999389648</ele>
        <time>2019-03-23T10:06:47.000Z</time>
      </trkpt>
      <trkpt lat="44.12642" lon="5.01249">
        <ele>274</ele>
        <time>2019-03-23T10:06:50.000Z</time>
      </trkpt>
      <trkpt lat="44.12644" lon="5.01242">
        <ele>273.60000610352</ele>
        <time>2019-03-23T10:06:56.000Z</time>
      </trkpt>
      <trkpt lat="44.12647" lon="5.01236">
        <ele>274.20001220703</ele>
        <time>2019-03-23T10:07:02.000Z</time>
      </trkpt>
      <trkpt lat="44.12648" lon="5.01234">
        <ele>274.39999389648</ele>
        <time>2019-03-23T10:07:04.000Z</time>
      </trkpt>
      <trkpt lat="44.12649" lon="5.01231">
        <ele>274.39999389648</ele>
        <time>2019-03-23T10:07:07.000Z</time>
      </trkpt>
      <trkpt lat="44.12645" lon="5.01225">
        <ele>275.60000610352</ele>
        <time>2019-03-23T10:07:14.000Z</time>
      </trkpt>
      <trkpt lat="44.12643" lon="5.01224">
        <ele>276</ele>
        <time>2019-03-23T10:07:18.000Z</time>
      </trkpt>
      <trkpt lat="44.12646" lon="5.01221">
        <ele>275.20001220703</ele>
        <time>2019-03-23T10:07:26.000Z</time>
      </trkpt>
      <trkpt lat="44.12647" lon="5.0122">
        <ele>274.79998779297</ele>
        <time>2019-03-23T10:07:28.000Z</time>
      </trkpt>
      <trkpt lat="44.12649" lon="5.01218">
        <ele>274.79998779297</ele>
        <time>2019-03-23T10:07:31.000Z</time>
      </trkpt>
      <trkpt lat="44.1265" lon="5.01213">
        <ele>274.79998779297</ele>
        <time>2019-03-23T10:07:35.000Z</time>
      </trkpt>
      <trkpt lat="44.12652" lon="5.01209">
        <ele>275</ele>
        <time>2019-03-23T10:07:38.000Z</time>
      </trkpt>
      <trkpt lat="44.12653" lon="5.01208">
        <ele>275</ele>
        <time>2019-03-23T10:07:39.000Z</time>
      </trkpt>
      <trkpt lat="44.12654" lon="5.01207">
        <ele>275</ele>
        <time>2019-03-23T10:07:40.000Z</time>
      </trkpt>
      <trkpt lat="44.12654" lon="5.01204">
        <ele>275.60000610352</ele>
        <time>2019-03-23T10:07:45.000Z</time>
      </trkpt>
      <trkpt lat="44.12656" lon="5.01202">
        <ele>276.39999389648</ele>
        <time>2019-03-23T10:07:51.000Z</time>
      </trkpt>
      <trkpt lat="44.12656" lon="5.01202">
        <ele>276.39999389648</ele>
        <time>2019-03-23T10:07:52.000Z</time>
      </trkpt>
      <trkpt lat="44.12657" lon="5.012">
        <ele>276.20001220703</ele>
        <time>2019-03-23T10:08:03.000Z</time>
      </trkpt>
      <trkpt lat="44.12656" lon="5.01198">
        <ele>276.39999389648</ele>
        <time>2019-03-23T10:08:06.000Z</time>
      </trkpt>
      <trkpt lat="44.12657" lon="5.01198">
        <ele>276.79998779297</ele>
        <time>2019-03-23T10:08:09.000Z</time>
      </trkpt>
      <trkpt lat="44.12657" lon="5.01198">
        <ele>277</ele>
        <time>2019-03-23T10:08:15.000Z</time>
      </trkpt>
      <trkpt lat="44.12656" lon="5.01198">
        <ele>276.79998779297</ele>
        <time>2019-03-23T10:08:18.000Z</time>
      </trkpt>
      <trkpt lat="44.12656" lon="5.01198">
        <ele>276.60000610352</ele>
        <time>2019-03-23T10:08:25.000Z</time>
      </trkpt>
      <trkpt lat="44.12658" lon="5.01197">
        <ele>276.39999389648</ele>
        <time>2019-03-23T10:08:31.000Z</time>
      </trkpt>
      <trkpt lat="44.12659" lon="5.01196">
        <ele>275.60000610352</ele>
        <time>2019-03-23T10:08:34.000Z</time>
      </trkpt>
      <trkpt lat="44.12657" lon="5.01192">
        <ele>275.60000610352</ele>
        <time>2019-03-23T10:08:44.000Z</time>
      </trkpt>
      <trkpt lat="44.12657" lon="5.01192">
        <ele>275.39999389648</ele>
        <time>2019-03-23T10:08:48.000Z</time>
      </trkpt>
      <trkpt lat="44.12661" lon="5.01189">
        <ele>275.20001220703</ele>
        <time>2019-03-23T10:08:56.000Z</time>
      </trkpt>
      <trkpt lat="44.12663" lon="5.01184">
        <ele>275.39999389648</ele>
        <time>2019-03-23T10:09:05.000Z</time>
      </trkpt>
      <trkpt lat="44.12663" lon="5.01183">
        <ele>275.60000610352</ele>
        <time>2019-03-23T10:09:07.000Z</time>
      </trkpt>
      <trkpt lat="44.12666" lon="5.01175">
        <ele>276.79998779297</ele>
        <time>2019-03-23T10:09:18.000Z</time>
      </trkpt>
      <trkpt lat="44.12666" lon="5.01174">
        <ele>277</ele>
        <time>2019-03-23T10:09:19.000Z</time>
      </trkpt>
      <trkpt lat="44.12666" lon="5.01173">
        <ele>277.79998779297</ele>
        <time>2019-03-23T10:09:24.000Z</time>
      </trkpt>
      <trkpt lat="44.12666" lon="5.01171">
        <ele>277.60000610352</ele>
        <time>2019-03-23T10:09:31.000Z</time>
      </trkpt>
      <trkpt lat="44.12666" lon="5.01166">
        <ele>278.20001220703</ele>
        <time>2019-03-23T10:09:38.000Z</time>
      </trkpt>
      <trkpt lat="44.12669" lon="5.01156">
        <ele>278</ele>
        <time>2019-03-23T10:09:48.000Z</time>
      </trkpt>
      <trkpt lat="44.12669" lon="5.01156">
        <ele>278.20001220703</ele>
        <time>2019-03-23T10:09:49.000Z</time>
      </trkpt>
      <trkpt lat="44.1267" lon="5.01154">
        <ele>278.20001220703</ele>
        <time>2019-03-23T10:09:51.000Z</time>
      </trkpt>
      <trkpt lat="44.12673" lon="5.0115">
        <ele>278.60000610352</ele>
        <time>2019-03-23T10:09:56.000Z</time>
      </trkpt>
      <trkpt lat="44.12674" lon="5.01149">
        <ele>278.60000610352</ele>
        <time>2019-03-23T10:09:58.000Z</time>
      </trkpt>
      <trkpt lat="44.12676" lon="5.01146">
        <ele>278.20001220703</ele>
        <time>2019-03-23T10:10:02.000Z</time>
      </trkpt>
      <trkpt lat="44.12677" lon="5.01143">
        <ele>278.20001220703</ele>
        <time>2019-03-23T10:10:05.000Z</time>
      </trkpt>
      <trkpt lat="44.12678" lon="5.0114">
        <ele>278.39999389648</ele>
        <time>2019-03-23T10:10:08.000Z</time>
      </trkpt>
      <trkpt lat="44.1268" lon="5.01132">
        <ele>278.60000610352</ele>
        <time>2019-03-23T10:10:16.000Z</time>
      </trkpt>
      <trkpt lat="44.12681" lon="5.01129">
        <ele>278.60000610352</ele>
        <time>2019-03-23T10:10:19.000Z</time>
      </trkpt>
      <trkpt lat="44.12682" lon="5.01126">
        <ele>278.79998779297</ele>
        <time>2019-03-23T10:10:22.000Z</time>
      </trkpt>
      <trkpt lat="44.12681" lon="5.01125">
        <ele>279</ele>
        <time>2019-03-23T10:10:23.000Z</time>
      </trkpt>
      <trkpt lat="44.12683" lon="5.01122">
        <ele>279.79998779297</ele>
        <time>2019-03-23T10:10:27.000Z</time>
      </trkpt>
      <trkpt lat="44.12683" lon="5.01122">
        <ele>279.79998779297</ele>
        <time>2019-03-23T10:10:28.000Z</time>
      </trkpt>
      <trkpt lat="44.12684" lon="5.01121">
        <ele>279.60000610352</ele>
        <time>2019-03-23T10:10:29.000Z</time>
      </trkpt>
      <trkpt lat="44.12684" lon="5.01121">
        <ele>279.39999389648</ele>
        <time>2019-03-23T10:10:30.000Z</time>
      </trkpt>
      <trkpt lat="44.12686" lon="5.01119">
        <ele>279.20001220703</ele>
        <time>2019-03-23T10:10:32.000Z</time>
      </trkpt>
      <trkpt lat="44.12687" lon="5.01117">
        <ele>279.20001220703</ele>
        <time>2019-03-23T10:10:35.000Z</time>
      </trkpt>
      <trkpt lat="44.12687" lon="5.01115">
        <ele>279.20001220703</ele>
        <time>2019-03-23T10:10:37.000Z</time>
      </trkpt>
      <trkpt lat="44.12689" lon="5.01113">
        <ele>278.39999389648</ele>
        <time>2019-03-23T10:10:40.000Z</time>
      </trkpt>
      <trkpt lat="44.12691" lon="5.01111">
        <ele>277.79998779297</ele>
        <time>2019-03-23T10:10:42.000Z</time>
      </trkpt>
      <trkpt lat="44.12693" lon="5.01109">
        <ele>277.60000610352</ele>
        <time>2019-03-23T10:10:44.000Z</time>
      </trkpt>
      <trkpt lat="44.12695" lon="5.01107">
        <ele>277.39999389648</ele>
        <time>2019-03-23T10:10:46.000Z</time>
      </trkpt>
      <trkpt lat="44.12698" lon="5.01095">
        <ele>277.20001220703</ele>
        <time>2019-03-23T10:10:58.000Z</time>
      </trkpt>
      <trkpt lat="44.12699" lon="5.01094">
        <ele>277.39999389648</ele>
        <time>2019-03-23T10:10:59.000Z</time>
      </trkpt>
      <trkpt lat="44.12696" lon="5.01087">
        <ele>278.20001220703</ele>
        <time>2019-03-23T10:11:11.000Z</time>
      </trkpt>
      <trkpt lat="44.12696" lon="5.01087">
        <ele>278.20001220703</ele>
        <time>2019-03-23T10:11:13.000Z</time>
      </trkpt>
      <trkpt lat="44.12696" lon="5.01084">
        <ele>277</ele>
        <time>2019-03-23T10:11:22.000Z</time>
      </trkpt>
      <trkpt lat="44.12697" lon="5.01082">
        <ele>276.79998779297</ele>
        <time>2019-03-23T10:11:26.000Z</time>
      </trkpt>
      <trkpt lat="44.127" lon="5.01071">
        <ele>276.79998779297</ele>
        <time>2019-03-23T10:11:37.000Z</time>
      </trkpt>
      <trkpt lat="44.127" lon="5.01068">
        <ele>277.39999389648</ele>
        <time>2019-03-23T10:11:42.000Z</time>
      </trkpt>
      <trkpt lat="44.12702" lon="5.01065">
        <ele>277.20001220703</ele>
        <time>2019-03-23T10:11:48.000Z</time>
      </trkpt>
      <trkpt lat="44.12703" lon="5.01063">
        <ele>276.79998779297</ele>
        <time>2019-03-23T10:11:50.000Z</time>
      </trkpt>
      <trkpt lat="44.12705" lon="5.0106">
        <ele>276.39999389648</ele>
        <time>2019-03-23T10:11:54.000Z</time>
      </trkpt>
      <trkpt lat="44.12705" lon="5.01056">
        <ele>276.79998779297</ele>
        <time>2019-03-23T10:12:00.000Z</time>
      </trkpt>
      <trkpt lat="44.1271" lon="5.01052">
        <ele>276.39999389648</ele>
        <time>2019-03-23T10:12:07.000Z</time>
      </trkpt>
      <trkpt lat="44.12714" lon="5.0105">
        <ele>275.79998779297</ele>
        <time>2019-03-23T10:12:11.000Z</time>
      </trkpt>
      <trkpt lat="44.12717" lon="5.01047">
        <ele>275.20001220703</ele>
        <time>2019-03-23T10:12:14.000Z</time>
      </trkpt>
      <trkpt lat="44.12717" lon="5.01047">
        <ele>275</ele>
        <time>2019-03-23T10:12:15.000Z</time>
      </trkpt>
      <trkpt lat="44.12719" lon="5.01045">
        <ele>274.39999389648</ele>
        <time>2019-03-23T10:12:18.000Z</time>
      </trkpt>
      <trkpt lat="44.1272" lon="5.01045">
        <ele>274</ele>
        <time>2019-03-23T10:12:19.000Z</time>
      </trkpt>
      <trkpt lat="44.12721" lon="5.01043">
        <ele>273</ele>
        <time>2019-03-23T10:12:23.000Z</time>
      </trkpt>
      <trkpt lat="44.12725" lon="5.01036">
        <ele>272.60000610352</ele>
        <time>2019-03-23T10:12:29.000Z</time>
      </trkpt>
      <trkpt lat="44.12726" lon="5.01032">
        <ele>272</ele>
        <time>2019-03-23T10:12:32.000Z</time>
      </trkpt>
      <trkpt lat="44.12728" lon="5.01028">
        <ele>272</ele>
        <time>2019-03-23T10:12:37.000Z</time>
      </trkpt>
      <trkpt lat="44.12731" lon="5.01026">
        <ele>272</ele>
        <time>2019-03-23T10:12:40.000Z</time>
      </trkpt>
      <trkpt lat="44.12731" lon="5.01025">
        <ele>272</ele>
        <time>2019-03-23T10:12:41.000Z</time>
      </trkpt>
      <trkpt lat="44.12732" lon="5.01025">
        <ele>272</ele>
        <time>2019-03-23T10:12:42.000Z</time>
      </trkpt>
      <trkpt lat="44.12732" lon="5.01023">
        <ele>271.79998779297</ele>
        <time>2019-03-23T10:12:44.000Z</time>
      </trkpt>
      <trkpt lat="44.12732" lon="5.01017">
        <ele>271.39999389648</ele>
        <time>2019-03-23T10:12:50.000Z</time>
      </trkpt>
      <trkpt lat="44.12732" lon="5.01012">
        <ele>271.20001220703</ele>
        <time>2019-03-23T10:12:54.000Z</time>
      </trkpt>
      <trkpt lat="44.12732" lon="5.0101">
        <ele>271</ele>
        <time>2019-03-23T10:12:56.000Z</time>
      </trkpt>
      <trkpt lat="44.12733" lon="5.01009">
        <ele>271</ele>
        <time>2019-03-23T10:12:57.000Z</time>
      </trkpt>
      <trkpt lat="44.12733" lon="5.01007">
        <ele>271</ele>
        <time>2019-03-23T10:12:59.000Z</time>
      </trkpt>
      <trkpt lat="44.12733" lon="5.01004">
        <ele>271.79998779297</ele>
        <time>2019-03-23T10:13:05.000Z</time>
      </trkpt>
      <trkpt lat="44.12733" lon="5.01004">
        <ele>272</ele>
        <time>2019-03-23T10:13:07.000Z</time>
      </trkpt>
      <trkpt lat="44.12734" lon="5.01004">
        <ele>272.20001220703</ele>
        <time>2019-03-23T10:13:09.000Z</time>
      </trkpt>
      <trkpt lat="44.12735" lon="5.01003">
        <ele>271</ele>
        <time>2019-03-23T10:13:16.000Z</time>
      </trkpt>
      <trkpt lat="44.12738" lon="5.01">
        <ele>270.39999389648</ele>
        <time>2019-03-23T10:13:22.000Z</time>
      </trkpt>
      <trkpt lat="44.12738" lon="5.00999">
        <ele>270.39999389648</ele>
        <time>2019-03-23T10:13:24.000Z</time>
      </trkpt>
      <trkpt lat="44.12738" lon="5.00993">
        <ele>269.79998779297</ele>
        <time>2019-03-23T10:13:37.000Z</time>
      </trkpt>
      <trkpt lat="44.12739" lon="5.00989">
        <ele>268.79998779297</ele>
        <time>2019-03-23T10:13:43.000Z</time>
      </trkpt>
      <trkpt lat="44.1274" lon="5.00986">
        <ele>268.60000610352</ele>
        <time>2019-03-23T10:13:47.000Z</time>
      </trkpt>
      <trkpt lat="44.1274" lon="5.00985">
        <ele>268.39999389648</ele>
        <time>2019-03-23T10:13:49.000Z</time>
      </trkpt>
      <trkpt lat="44.12741" lon="5.00984">
        <ele>268.39999389648</ele>
        <time>2019-03-23T10:13:51.000Z</time>
      </trkpt>
      <trkpt lat="44.12743" lon="5.00983">
        <ele>267.60000610352</ele>
        <time>2019-03-23T10:13:54.000Z</time>
      </trkpt>
      <trkpt lat="44.12746" lon="5.00981">
        <ele>266.39999389648</ele>
        <time>2019-03-23T10:13:58.000Z</time>
      </trkpt>
      <trkpt lat="44.12748" lon="5.00978">
        <ele>265.60000610352</ele>
        <time>2019-03-23T10:14:02.000Z</time>
      </trkpt>
      <trkpt lat="44.12748" lon="5.00978">
        <ele>265.20001220703</ele>
        <time>2019-03-23T10:14:03.000Z</time>
      </trkpt>
      <trkpt lat="44.12747" lon="5.00972">
        <ele>264.20001220703</ele>
        <time>2019-03-23T10:14:08.000Z</time>
      </trkpt>
      <trkpt lat="44.12743" lon="5.00967">
        <ele>263.39999389648</ele>
        <time>2019-03-23T10:14:14.000Z</time>
      </trkpt>
      <trkpt lat="44.12744" lon="5.00964">
        <ele>263</ele>
        <time>2019-03-23T10:14:17.000Z</time>
      </trkpt>
      <trkpt lat="44.12743" lon="5.0096">
        <ele>263.39999389648</ele>
        <time>2019-03-23T10:14:24.000Z</time>
      </trkpt>
      <trkpt lat="44.12748" lon="5.00951">
        <ele>262.20001220703</ele>
        <time>2019-03-23T10:14:33.000Z</time>
      </trkpt>
      <trkpt lat="44.12749" lon="5.00949">
        <ele>262</ele>
        <time>2019-03-23T10:14:34.000Z</time>
      </trkpt>
      <trkpt lat="44.12752" lon="5.00946">
        <ele>260.79998779297</ele>
        <time>2019-03-23T10:14:39.000Z</time>
      </trkpt>
      <trkpt lat="44.12753" lon="5.00945">
        <ele>260.20001220703</ele>
        <time>2019-03-23T10:14:44.000Z</time>
      </trkpt>
      <trkpt lat="44.12753" lon="5.00944">
        <ele>259.79998779297</ele>
        <time>2019-03-23T10:14:51.000Z</time>
      </trkpt>
      <trkpt lat="44.12754" lon="5.00941">
        <ele>259.39999389648</ele>
        <time>2019-03-23T10:14:56.000Z</time>
      </trkpt>
      <trkpt lat="44.12755" lon="5.00938">
        <ele>258.79998779297</ele>
        <time>2019-03-23T10:14:59.000Z</time>
      </trkpt>
      <trkpt lat="44.12756" lon="5.00934">
        <ele>258.39999389648</ele>
        <time>2019-03-23T10:15:06.000Z</time>
      </trkpt>
      <trkpt lat="44.12753" lon="5.00928">
        <ele>258</ele>
        <time>2019-03-23T10:15:17.000Z</time>
      </trkpt>
      <trkpt lat="44.12756" lon="5.00923">
        <ele>257.60000610352</ele>
        <time>2019-03-23T10:15:24.000Z</time>
      </trkpt>
      <trkpt lat="44.12758" lon="5.00923">
        <ele>256.79998779297</ele>
        <time>2019-03-23T10:15:27.000Z</time>
      </trkpt>
      <trkpt lat="44.12758" lon="5.00922">
        <ele>256.60000610352</ele>
        <time>2019-03-23T10:15:28.000Z</time>
      </trkpt>
      <trkpt lat="44.12761" lon="5.0092">
        <ele>255.39999389648</ele>
        <time>2019-03-23T10:15:32.000Z</time>
      </trkpt>
      <trkpt lat="44.12764" lon="5.00918">
        <ele>254.39999389648</ele>
        <time>2019-03-23T10:15:35.000Z</time>
      </trkpt>
      <trkpt lat="44.12765" lon="5.00917">
        <ele>254.19999694824</ele>
        <time>2019-03-23T10:15:36.000Z</time>
      </trkpt>
      <trkpt lat="44.12767" lon="5.00916">
        <ele>254.19999694824</ele>
        <time>2019-03-23T10:15:40.000Z</time>
      </trkpt>
      <trkpt lat="44.12768" lon="5.00914">
        <ele>254.19999694824</ele>
        <time>2019-03-23T10:15:42.000Z</time>
      </trkpt>
      <trkpt lat="44.12768" lon="5.00914">
        <ele>254.19999694824</ele>
        <time>2019-03-23T10:15:43.000Z</time>
      </trkpt>
      <trkpt lat="44.12768" lon="5.00902">
        <ele>254.19999694824</ele>
        <time>2019-03-23T10:15:56.000Z</time>
      </trkpt>
      <trkpt lat="44.12772" lon="5.00899">
        <ele>253.39999389648</ele>
        <time>2019-03-23T10:16:05.000Z</time>
      </trkpt>
      <trkpt lat="44.12773" lon="5.00898">
        <ele>253.19999694824</ele>
        <time>2019-03-23T10:16:06.000Z</time>
      </trkpt>
      <trkpt lat="44.12775" lon="5.00895">
        <ele>252.60000610352</ele>
        <time>2019-03-23T10:16:09.000Z</time>
      </trkpt>
      <trkpt lat="44.12775" lon="5.00893">
        <ele>252.19999694824</ele>
        <time>2019-03-23T10:16:11.000Z</time>
      </trkpt>
      <trkpt lat="44.12776" lon="5.00888">
        <ele>251.19999694824</ele>
        <time>2019-03-23T10:16:18.000Z</time>
      </trkpt>
      <trkpt lat="44.12775" lon="5.00886">
        <ele>251.19999694824</ele>
        <time>2019-03-23T10:16:19.000Z</time>
      </trkpt>
      <trkpt lat="44.12776" lon="5.00883">
        <ele>251</ele>
        <time>2019-03-23T10:16:26.000Z</time>
      </trkpt>
      <trkpt lat="44.12776" lon="5.00881">
        <ele>251.19999694824</ele>
        <time>2019-03-23T10:16:29.000Z</time>
      </trkpt>
      <trkpt lat="44.12777" lon="5.00877">
        <ele>250.80000305176</ele>
        <time>2019-03-23T10:16:35.000Z</time>
      </trkpt>
      <trkpt lat="44.12778" lon="5.00877">
        <ele>250.39999389648</ele>
        <time>2019-03-23T10:16:37.000Z</time>
      </trkpt>
      <trkpt lat="44.1278" lon="5.00877">
        <ele>250.19999694824</ele>
        <time>2019-03-23T10:16:41.000Z</time>
      </trkpt>
      <trkpt lat="44.12781" lon="5.00876">
        <ele>250.19999694824</ele>
        <time>2019-03-23T10:16:44.000Z</time>
      </trkpt>
      <trkpt lat="44.12782" lon="5.00876">
        <ele>250</ele>
        <time>2019-03-23T10:16:45.000Z</time>
      </trkpt>
      <trkpt lat="44.12784" lon="5.00876">
        <ele>249.39999389648</ele>
        <time>2019-03-23T10:16:50.000Z</time>
      </trkpt>
      <trkpt lat="44.12786" lon="5.00874">
        <ele>249</ele>
        <time>2019-03-23T10:16:55.000Z</time>
      </trkpt>
      <trkpt lat="44.12787" lon="5.00875">
        <ele>249.19999694824</ele>
        <time>2019-03-23T10:16:58.000Z</time>
      </trkpt>
      <trkpt lat="44.1279" lon="5.00875">
        <ele>249</ele>
        <time>2019-03-23T10:17:11.000Z</time>
      </trkpt>
      <trkpt lat="44.1279" lon="5.00875">
        <ele>249</ele>
        <time>2019-03-23T10:17:13.000Z</time>
      </trkpt>
      <trkpt lat="44.12793" lon="5.00872">
        <ele>248.39999389648</ele>
        <time>2019-03-23T10:17:24.000Z</time>
      </trkpt>
      <trkpt lat="44.12793" lon="5.00869">
        <ele>247.80000305176</ele>
        <time>2019-03-23T10:17:27.000Z</time>
      </trkpt>
      <trkpt lat="44.12791" lon="5.00853">
        <ele>248</ele>
        <time>2019-03-23T10:17:42.000Z</time>
      </trkpt>
      <trkpt lat="44.12789" lon="5.00846">
        <ele>247.80000305176</ele>
        <time>2019-03-23T10:17:54.000Z</time>
      </trkpt>
      <trkpt lat="44.12789" lon="5.00839">
        <ele>246.80000305176</ele>
        <time>2019-03-23T10:18:01.000Z</time>
      </trkpt>
      <trkpt lat="44.12788" lon="5.00836">
        <ele>246.39999389648</ele>
        <time>2019-03-23T10:18:06.000Z</time>
      </trkpt>
      <trkpt lat="44.12791" lon="5.00833">
        <ele>245.60000610352</ele>
        <time>2019-03-23T10:18:16.000Z</time>
      </trkpt>
      <trkpt lat="44.12791" lon="5.00833">
        <ele>245.39999389648</ele>
        <time>2019-03-23T10:18:18.000Z</time>
      </trkpt>
      <trkpt lat="44.12795" lon="5.0083">
        <ele>244.60000610352</ele>
        <time>2019-03-23T10:18:27.000Z</time>
      </trkpt>
      <trkpt lat="44.12797" lon="5.00827">
        <ele>244.19999694824</ele>
        <time>2019-03-23T10:18:30.000Z</time>
      </trkpt>
      <trkpt lat="44.12798" lon="5.00815">
        <ele>244</ele>
        <time>2019-03-23T10:18:42.000Z</time>
      </trkpt>
      <trkpt lat="44.12795" lon="5.00807">
        <ele>244</ele>
        <time>2019-03-23T10:18:49.000Z</time>
      </trkpt>
      <trkpt lat="44.12795" lon="5.00803">
        <ele>243.60000610352</ele>
        <time>2019-03-23T10:18:53.000Z</time>
      </trkpt>
      <trkpt lat="44.12797" lon="5.00799">
        <ele>242.39999389648</ele>
        <time>2019-03-23T10:18:57.000Z</time>
      </trkpt>
      <trkpt lat="44.128" lon="5.00794">
        <ele>241.39999389648</ele>
        <time>2019-03-23T10:19:02.000Z</time>
      </trkpt>
      <trkpt lat="44.12804" lon="5.00792">
        <ele>240.80000305176</ele>
        <time>2019-03-23T10:19:06.000Z</time>
      </trkpt>
      <trkpt lat="44.12803" lon="5.00791">
        <ele>240.80000305176</ele>
        <time>2019-03-23T10:19:08.000Z</time>
      </trkpt>
      <trkpt lat="44.12803" lon="5.0079">
        <ele>240.80000305176</ele>
        <time>2019-03-23T10:19:10.000Z</time>
      </trkpt>
      <trkpt lat="44.12803" lon="5.0078">
        <ele>241</ele>
        <time>2019-03-23T10:19:21.000Z</time>
      </trkpt>
      <trkpt lat="44.12801" lon="5.00776">
        <ele>241.39999389648</ele>
        <time>2019-03-23T10:19:31.000Z</time>
      </trkpt>
      <trkpt lat="44.12803" lon="5.00775">
        <ele>242.60000610352</ele>
        <time>2019-03-23T10:19:38.000Z</time>
      </trkpt>
      <trkpt lat="44.12803" lon="5.00774">
        <ele>242.60000610352</ele>
        <time>2019-03-23T10:19:44.000Z</time>
      </trkpt>
      <trkpt lat="44.12791" lon="5.00787">
        <ele>242.80000305176</ele>
        <time>2019-03-23T10:20:01.000Z</time>
      </trkpt>
      <trkpt lat="44.12799" lon="5.00782">
        <ele>243</ele>
        <time>2019-03-23T10:20:06.000Z</time>
      </trkpt>
      <trkpt lat="44.12801" lon="5.00781">
        <ele>243</ele>
        <time>2019-03-23T10:20:07.000Z</time>
      </trkpt>
      <trkpt lat="44.12802" lon="5.00776">
        <ele>242.39999389648</ele>
        <time>2019-03-23T10:20:21.000Z</time>
      </trkpt>
      <trkpt lat="44.12803" lon="5.00773">
        <ele>242.39999389648</ele>
        <time>2019-03-23T10:20:34.000Z</time>
      </trkpt>
      <trkpt lat="44.12804" lon="5.00773">
        <ele>242.39999389648</ele>
        <time>2019-03-23T10:20:36.000Z</time>
      </trkpt>
      <trkpt lat="44.12806" lon="5.00771">
        <ele>242</ele>
        <time>2019-03-23T10:20:42.000Z</time>
      </trkpt>
      <trkpt lat="44.12806" lon="5.00769">
        <ele>241.60000610352</ele>
        <time>2019-03-23T10:20:46.000Z</time>
      </trkpt>
      <trkpt lat="44.12808" lon="5.00767">
        <ele>240.60000610352</ele>
        <time>2019-03-23T10:20:51.000Z</time>
      </trkpt>
      <trkpt lat="44.12809" lon="5.00766">
        <ele>240.39999389648</ele>
        <time>2019-03-23T10:20:52.000Z</time>
      </trkpt>
      <trkpt lat="44.12809" lon="5.00764">
        <ele>239.80000305176</ele>
        <time>2019-03-23T10:20:55.000Z</time>
      </trkpt>
      <trkpt lat="44.12809" lon="5.00761">
        <ele>239.80000305176</ele>
        <time>2019-03-23T10:20:59.000Z</time>
      </trkpt>
      <trkpt lat="44.1281" lon="5.00754">
        <ele>240.80000305176</ele>
        <time>2019-03-23T10:21:05.000Z</time>
      </trkpt>
      <trkpt lat="44.1281" lon="5.00751">
        <ele>241.60000610352</ele>
        <time>2019-03-23T10:21:09.000Z</time>
      </trkpt>
      <trkpt lat="44.1281" lon="5.00747">
        <ele>242.39999389648</ele>
        <time>2019-03-23T10:21:16.000Z</time>
      </trkpt>
      <trkpt lat="44.12811" lon="5.00743">
        <ele>242.39999389648</ele>
        <time>2019-03-23T10:21:19.000Z</time>
      </trkpt>
      <trkpt lat="44.12811" lon="5.00742">
        <ele>242.60000610352</ele>
        <time>2019-03-23T10:21:21.000Z</time>
      </trkpt>
      <trkpt lat="44.12813" lon="5.00741">
        <ele>243</ele>
        <time>2019-03-23T10:21:24.000Z</time>
      </trkpt>
      <trkpt lat="44.12813" lon="5.00739">
        <ele>243.60000610352</ele>
        <time>2019-03-23T10:21:28.000Z</time>
      </trkpt>
      <trkpt lat="44.12813" lon="5.0074">
        <ele>243.60000610352</ele>
        <time>2019-03-23T10:21:34.000Z</time>
      </trkpt>
      <trkpt lat="44.12814" lon="5.0074">
        <ele>243.80000305176</ele>
        <time>2019-03-23T10:21:38.000Z</time>
      </trkpt>
      <trkpt lat="44.12816" lon="5.0074">
        <ele>243.80000305176</ele>
        <time>2019-03-23T10:21:43.000Z</time>
      </trkpt>
      <trkpt lat="44.12816" lon="5.00742">
        <ele>244</ele>
        <time>2019-03-23T10:21:48.000Z</time>
      </trkpt>
      <trkpt lat="44.12817" lon="5.00736">
        <ele>243.39999389648</ele>
        <time>2019-03-23T10:22:03.000Z</time>
      </trkpt>
      <trkpt lat="44.12819" lon="5.00733">
        <ele>242.80000305176</ele>
        <time>2019-03-23T10:22:06.000Z</time>
      </trkpt>
      <trkpt lat="44.12819" lon="5.00732">
        <ele>242.60000610352</ele>
        <time>2019-03-23T10:22:07.000Z</time>
      </trkpt>
      <trkpt lat="44.1282" lon="5.00731">
        <ele>242.39999389648</ele>
        <time>2019-03-23T10:22:08.000Z</time>
      </trkpt>
      <trkpt lat="44.12819" lon="5.00729">
        <ele>242.19999694824</ele>
        <time>2019-03-23T10:22:13.000Z</time>
      </trkpt>
      <trkpt lat="44.1282" lon="5.00729">
        <ele>242.19999694824</ele>
        <time>2019-03-23T10:22:14.000Z</time>
      </trkpt>
      <trkpt lat="44.1282" lon="5.00727">
        <ele>242</ele>
        <time>2019-03-23T10:22:17.000Z</time>
      </trkpt>
      <trkpt lat="44.12821" lon="5.00726">
        <ele>242</ele>
        <time>2019-03-23T10:22:20.000Z</time>
      </trkpt>
      <trkpt lat="44.12822" lon="5.00725">
        <ele>242.39999389648</ele>
        <time>2019-03-23T10:22:22.000Z</time>
      </trkpt>
      <trkpt lat="44.12825" lon="5.00725">
        <ele>242.80000305176</ele>
        <time>2019-03-23T10:22:26.000Z</time>
      </trkpt>
      <trkpt lat="44.12823" lon="5.00724">
        <ele>242</ele>
        <time>2019-03-23T10:22:38.000Z</time>
      </trkpt>
      <trkpt lat="44.12823" lon="5.00723">
        <ele>241.60000610352</ele>
        <time>2019-03-23T10:22:41.000Z</time>
      </trkpt>
      <trkpt lat="44.12823" lon="5.00723">
        <ele>241.60000610352</ele>
        <time>2019-03-23T10:22:44.000Z</time>
      </trkpt>
      <trkpt lat="44.12822" lon="5.00728">
        <ele>241.80000305176</ele>
        <time>2019-03-23T10:22:58.000Z</time>
      </trkpt>
      <trkpt lat="44.12823" lon="5.00731">
        <ele>241.80000305176</ele>
        <time>2019-03-23T10:23:08.000Z</time>
      </trkpt>
      <trkpt lat="44.12825" lon="5.0073">
        <ele>241.80000305176</ele>
        <time>2019-03-23T10:23:13.000Z</time>
      </trkpt>
      <trkpt lat="44.12825" lon="5.00729">
        <ele>241.80000305176</ele>
        <time>2019-03-23T10:23:21.000Z</time>
      </trkpt>
      <trkpt lat="44.12825" lon="5.00729">
        <ele>241.80000305176</ele>
        <time>2019-03-23T10:23:22.000Z</time>
      </trkpt>
      <trkpt lat="44.12826" lon="5.00732">
        <ele>241.80000305176</ele>
        <time>2019-03-23T10:23:32.000Z</time>
      </trkpt>
      <trkpt lat="44.1283" lon="5.00735">
        <ele>241.39999389648</ele>
        <time>2019-03-23T10:23:46.000Z</time>
      </trkpt>
      <trkpt lat="44.1283" lon="5.00736">
        <ele>241.39999389648</ele>
        <time>2019-03-23T10:23:50.000Z</time>
      </trkpt>
      <trkpt lat="44.12832" lon="5.00739">
        <ele>241</ele>
        <time>2019-03-23T10:23:57.000Z</time>
      </trkpt>
      <trkpt lat="44.12832" lon="5.0074">
        <ele>241</ele>
        <time>2019-03-23T10:23:59.000Z</time>
      </trkpt>
      <trkpt lat="44.12829" lon="5.00739">
        <ele>240.60000610352</ele>
        <time>2019-03-23T10:24:05.000Z</time>
      </trkpt>
      <trkpt lat="44.12829" lon="5.00739">
        <ele>240.60000610352</ele>
        <time>2019-03-23T10:24:08.000Z</time>
      </trkpt>
      <trkpt lat="44.12829" lon="5.00738">
        <ele>240.39999389648</ele>
        <time>2019-03-23T10:24:10.000Z</time>
      </trkpt>
      <trkpt lat="44.12831" lon="5.00738">
        <ele>239.60000610352</ele>
        <time>2019-03-23T10:24:24.000Z</time>
      </trkpt>
      <trkpt lat="44.12833" lon="5.00738">
        <ele>239.39999389648</ele>
        <time>2019-03-23T10:24:26.000Z</time>
      </trkpt>
      <trkpt lat="44.12834" lon="5.00738">
        <ele>239.19999694824</ele>
        <time>2019-03-23T10:24:31.000Z</time>
      </trkpt>
      <trkpt lat="44.12837" lon="5.00738">
        <ele>238.80000305176</ele>
        <time>2019-03-23T10:24:36.000Z</time>
      </trkpt>
      <trkpt lat="44.12837" lon="5.0074">
        <ele>238.39999389648</ele>
        <time>2019-03-23T10:24:40.000Z</time>
      </trkpt>
      <trkpt lat="44.12838" lon="5.00744">
        <ele>238</ele>
        <time>2019-03-23T10:24:45.000Z</time>
      </trkpt>
      <trkpt lat="44.12841" lon="5.00746">
        <ele>237.39999389648</ele>
        <time>2019-03-23T10:24:53.000Z</time>
      </trkpt>
      <trkpt lat="44.12841" lon="5.00748">
        <ele>236.80000305176</ele>
        <time>2019-03-23T10:24:58.000Z</time>
      </trkpt>
      <trkpt lat="44.12843" lon="5.00752">
        <ele>236.19999694824</ele>
        <time>2019-03-23T10:25:04.000Z</time>
      </trkpt>
      <trkpt lat="44.12846" lon="5.00753">
        <ele>235.39999389648</ele>
        <time>2019-03-23T10:25:11.000Z</time>
      </trkpt>
      <trkpt lat="44.12846" lon="5.00754">
        <ele>235.39999389648</ele>
        <time>2019-03-23T10:25:12.000Z</time>
      </trkpt>
      <trkpt lat="44.12846" lon="5.00755">
        <ele>235.19999694824</ele>
        <time>2019-03-23T10:25:13.000Z</time>
      </trkpt>
      <trkpt lat="44.12847" lon="5.00757">
        <ele>234.19999694824</ele>
        <time>2019-03-23T10:25:22.000Z</time>
      </trkpt>
      <trkpt lat="44.12849" lon="5.00758">
        <ele>233.60000610352</ele>
        <time>2019-03-23T10:25:27.000Z</time>
      </trkpt>
      <trkpt lat="44.12849" lon="5.0076">
        <ele>233.19999694824</ele>
        <time>2019-03-23T10:25:30.000Z</time>
      </trkpt>
      <trkpt lat="44.12849" lon="5.00761">
        <ele>232.80000305176</ele>
        <time>2019-03-23T10:25:33.000Z</time>
      </trkpt>
      <trkpt lat="44.12851" lon="5.00763">
        <ele>232.19999694824</ele>
        <time>2019-03-23T10:25:38.000Z</time>
      </trkpt>
      <trkpt lat="44.12853" lon="5.00767">
        <ele>231.19999694824</ele>
        <time>2019-03-23T10:25:45.000Z</time>
      </trkpt>
      <trkpt lat="44.12853" lon="5.00768">
        <ele>231</ele>
        <time>2019-03-23T10:25:46.000Z</time>
      </trkpt>
      <trkpt lat="44.12854" lon="5.00774">
        <ele>230</ele>
        <time>2019-03-23T10:25:53.000Z</time>
      </trkpt>
      <trkpt lat="44.12856" lon="5.00776">
        <ele>229.19999694824</ele>
        <time>2019-03-23T10:25:58.000Z</time>
      </trkpt>
      <trkpt lat="44.12855" lon="5.00777">
        <ele>228.80000305176</ele>
        <time>2019-03-23T10:26:00.000Z</time>
      </trkpt>
      <trkpt lat="44.12856" lon="5.0078">
        <ele>227.80000305176</ele>
        <time>2019-03-23T10:26:07.000Z</time>
      </trkpt>
      <trkpt lat="44.12857" lon="5.00781">
        <ele>227.19999694824</ele>
        <time>2019-03-23T10:26:10.000Z</time>
      </trkpt>
      <trkpt lat="44.12857" lon="5.0078">
        <ele>227.19999694824</ele>
        <time>2019-03-23T10:26:11.000Z</time>
      </trkpt>
      <trkpt lat="44.12858" lon="5.00781">
        <ele>226.60000610352</ele>
        <time>2019-03-23T10:26:14.000Z</time>
      </trkpt>
      <trkpt lat="44.1286" lon="5.00781">
        <ele>225.60000610352</ele>
        <time>2019-03-23T10:26:21.000Z</time>
      </trkpt>
      <trkpt lat="44.1286" lon="5.00781">
        <ele>225.39999389648</ele>
        <time>2019-03-23T10:26:22.000Z</time>
      </trkpt>
      <trkpt lat="44.12861" lon="5.00782">
        <ele>224.80000305176</ele>
        <time>2019-03-23T10:26:27.000Z</time>
      </trkpt>
      <trkpt lat="44.12861" lon="5.00782">
        <ele>224.60000610352</ele>
        <time>2019-03-23T10:26:28.000Z</time>
      </trkpt>
      <trkpt lat="44.12864" lon="5.00785">
        <ele>223.39999389648</ele>
        <time>2019-03-23T10:26:36.000Z</time>
      </trkpt>
      <trkpt lat="44.12865" lon="5.00788">
        <ele>222.80000305176</ele>
        <time>2019-03-23T10:26:41.000Z</time>
      </trkpt>
      <trkpt lat="44.12866" lon="5.00788">
        <ele>222.60000610352</ele>
        <time>2019-03-23T10:26:42.000Z</time>
      </trkpt>
      <trkpt lat="44.12866" lon="5.00789">
        <ele>222.39999389648</ele>
        <time>2019-03-23T10:26:43.000Z</time>
      </trkpt>
      <trkpt lat="44.12867" lon="5.00793">
        <ele>221.19999694824</ele>
        <time>2019-03-23T10:26:51.000Z</time>
      </trkpt>
      <trkpt lat="44.12868" lon="5.00795">
        <ele>220.19999694824</ele>
        <time>2019-03-23T10:26:58.000Z</time>
      </trkpt>
      <trkpt lat="44.12868" lon="5.00796">
        <ele>220.19999694824</ele>
        <time>2019-03-23T10:26:59.000Z</time>
      </trkpt>
      <trkpt lat="44.12868" lon="5.00796">
        <ele>219.19999694824</ele>
        <time>2019-03-23T10:27:05.000Z</time>
      </trkpt>
      <trkpt lat="44.12871" lon="5.00797">
        <ele>218.39999389648</ele>
        <time>2019-03-23T10:27:10.000Z</time>
      </trkpt>
      <trkpt lat="44.12872" lon="5.00798">
        <ele>218.19999694824</ele>
        <time>2019-03-23T10:27:12.000Z</time>
      </trkpt>
      <trkpt lat="44.12875" lon="5.00801">
        <ele>217.19999694824</ele>
        <time>2019-03-23T10:27:18.000Z</time>
      </trkpt>
      <trkpt lat="44.12875" lon="5.00802">
        <ele>216.80000305176</ele>
        <time>2019-03-23T10:27:20.000Z</time>
      </trkpt>
      <trkpt lat="44.12877" lon="5.00804">
        <ele>216.39999389648</ele>
        <time>2019-03-23T10:27:22.000Z</time>
      </trkpt>
      <trkpt lat="44.12878" lon="5.00805">
        <ele>216.19999694824</ele>
        <time>2019-03-23T10:27:24.000Z</time>
      </trkpt>
      <trkpt lat="44.12879" lon="5.00805">
        <ele>215.80000305176</ele>
        <time>2019-03-23T10:27:26.000Z</time>
      </trkpt>
      <trkpt lat="44.1288" lon="5.00806">
        <ele>215.39999389648</ele>
        <time>2019-03-23T10:27:28.000Z</time>
      </trkpt>
      <trkpt lat="44.12881" lon="5.00806">
        <ele>215.19999694824</ele>
        <time>2019-03-23T10:27:29.000Z</time>
      </trkpt>
      <trkpt lat="44.12881" lon="5.00807">
        <ele>215</ele>
        <time>2019-03-23T10:27:30.000Z</time>
      </trkpt>
      <trkpt lat="44.12882" lon="5.00808">
        <ele>214.60000610352</ele>
        <time>2019-03-23T10:27:33.000Z</time>
      </trkpt>
      <trkpt lat="44.12883" lon="5.0081">
        <ele>214</ele>
        <time>2019-03-23T10:27:36.000Z</time>
      </trkpt>
      <trkpt lat="44.12887" lon="5.00812">
        <ele>213.39999389648</ele>
        <time>2019-03-23T10:27:40.000Z</time>
      </trkpt>
      <trkpt lat="44.12888" lon="5.00813">
        <ele>213</ele>
        <time>2019-03-23T10:27:42.000Z</time>
      </trkpt>
      <trkpt lat="44.12891" lon="5.00814">
        <ele>212</ele>
        <time>2019-03-23T10:27:48.000Z</time>
      </trkpt>
      <trkpt lat="44.12892" lon="5.00814">
        <ele>211.19999694824</ele>
        <time>2019-03-23T10:27:53.000Z</time>
      </trkpt>
      <trkpt lat="44.12892" lon="5.00814">
        <ele>211</ele>
        <time>2019-03-23T10:27:54.000Z</time>
      </trkpt>
      <trkpt lat="44.12892" lon="5.00814">
        <ele>210.80000305176</ele>
        <time>2019-03-23T10:27:55.000Z</time>
      </trkpt>
      <trkpt lat="44.12895" lon="5.00815">
        <ele>209.60000610352</ele>
        <time>2019-03-23T10:28:02.000Z</time>
      </trkpt>
      <trkpt lat="44.12897" lon="5.00816">
        <ele>208.60000610352</ele>
        <time>2019-03-23T10:28:08.000Z</time>
      </trkpt>
      <trkpt lat="44.12897" lon="5.00816">
        <ele>208.39999389648</ele>
        <time>2019-03-23T10:28:10.000Z</time>
      </trkpt>
      <trkpt lat="44.12899" lon="5.00816">
        <ele>207.60000610352</ele>
        <time>2019-03-23T10:28:15.000Z</time>
      </trkpt>
      <trkpt lat="44.129" lon="5.00816">
        <ele>207</ele>
        <time>2019-03-23T10:28:18.000Z</time>
      </trkpt>
      <trkpt lat="44.12901" lon="5.00815">
        <ele>206.39999389648</ele>
        <time>2019-03-23T10:28:21.000Z</time>
      </trkpt>
      <trkpt lat="44.12901" lon="5.00814">
        <ele>206.19999694824</ele>
        <time>2019-03-23T10:28:23.000Z</time>
      </trkpt>
      <trkpt lat="44.12902" lon="5.00813">
        <ele>205.39999389648</ele>
        <time>2019-03-23T10:28:27.000Z</time>
      </trkpt>
      <trkpt lat="44.12902" lon="5.00813">
        <ele>204.80000305176</ele>
        <time>2019-03-23T10:28:30.000Z</time>
      </trkpt>
      <trkpt lat="44.12903" lon="5.00815">
        <ele>204.39999389648</ele>
        <time>2019-03-23T10:28:33.000Z</time>
      </trkpt>
      <trkpt lat="44.12906" lon="5.00817">
        <ele>203.80000305176</ele>
        <time>2019-03-23T10:28:37.000Z</time>
      </trkpt>
      <trkpt lat="44.12908" lon="5.00818">
        <ele>203.39999389648</ele>
        <time>2019-03-23T10:28:39.000Z</time>
      </trkpt>
      <trkpt lat="44.12907" lon="5.00817">
        <ele>202.19999694824</ele>
        <time>2019-03-23T10:28:45.000Z</time>
      </trkpt>
      <trkpt lat="44.12906" lon="5.00815">
        <ele>201.60000610352</ele>
        <time>2019-03-23T10:28:49.000Z</time>
      </trkpt>
      <trkpt lat="44.12905" lon="5.00814">
        <ele>201.19999694824</ele>
        <time>2019-03-23T10:28:52.000Z</time>
      </trkpt>
      <trkpt lat="44.12905" lon="5.00814">
        <ele>200.39999389648</ele>
        <time>2019-03-23T10:28:56.000Z</time>
      </trkpt>
      <trkpt lat="44.12904" lon="5.00813">
        <ele>200</ele>
        <time>2019-03-23T10:28:59.000Z</time>
      </trkpt>
      <trkpt lat="44.12901" lon="5.00808">
        <ele>199.19999694824</ele>
        <time>2019-03-23T10:29:05.000Z</time>
      </trkpt>
      <trkpt lat="44.12901" lon="5.00808">
        <ele>199</ele>
        <time>2019-03-23T10:29:07.000Z</time>
      </trkpt>
      <trkpt lat="44.12901" lon="5.00813">
        <ele>198</ele>
        <time>2019-03-23T10:29:15.000Z</time>
      </trkpt>
      <trkpt lat="44.12899" lon="5.00811">
        <ele>197</ele>
        <time>2019-03-23T10:29:22.000Z</time>
      </trkpt>
      <trkpt lat="44.12898" lon="5.0081">
        <ele>196.80000305176</ele>
        <time>2019-03-23T10:29:24.000Z</time>
      </trkpt>
      <trkpt lat="44.12894" lon="5.00805">
        <ele>195.80000305176</ele>
        <time>2019-03-23T10:29:34.000Z</time>
      </trkpt>
      <trkpt lat="44.12895" lon="5.00801">
        <ele>195.39999389648</ele>
        <time>2019-03-23T10:29:38.000Z</time>
      </trkpt>
      <trkpt lat="44.12899" lon="5.00798">
        <ele>194.80000305176</ele>
        <time>2019-03-23T10:29:42.000Z</time>
      </trkpt>
      <trkpt lat="44.129" lon="5.00798">
        <ele>194.80000305176</ele>
        <time>2019-03-23T10:29:43.000Z</time>
      </trkpt>
      <trkpt lat="44.12901" lon="5.00797">
        <ele>194.60000610352</ele>
        <time>2019-03-23T10:29:44.000Z</time>
      </trkpt>
      <trkpt lat="44.12904" lon="5.0079">
        <ele>194</ele>
        <time>2019-03-23T10:29:50.000Z</time>
      </trkpt>
      <trkpt lat="44.12907" lon="5.00786">
        <ele>193.80000305176</ele>
        <time>2019-03-23T10:29:53.000Z</time>
      </trkpt>
      <trkpt lat="44.12909" lon="5.00784">
        <ele>193.60000610352</ele>
        <time>2019-03-23T10:29:55.000Z</time>
      </trkpt>
      <trkpt lat="44.12912" lon="5.00779">
        <ele>188.80000305176</ele>
        <time>2019-03-23T10:29:59.000Z</time>
      </trkpt>
      <trkpt lat="44.12912" lon="5.00778">
        <ele>186.60000610352</ele>
        <time>2019-03-23T10:30:00.000Z</time>
      </trkpt>
      <trkpt lat="44.12912" lon="5.00777">
        <ele>185.39999389648</ele>
        <time>2019-03-23T10:30:01.000Z</time>
      </trkpt>
      <trkpt lat="44.12913" lon="5.00776">
        <ele>184.80000305176</ele>
        <time>2019-03-23T10:30:02.000Z</time>
      </trkpt>
      <trkpt lat="44.12913" lon="5.00775">
        <ele>184.39999389648</ele>
        <time>2019-03-23T10:30:03.000Z</time>
      </trkpt>
      <trkpt lat="44.12913" lon="5.00775">
        <ele>184.19999694824</ele>
        <time>2019-03-23T10:30:04.000Z</time>
      </trkpt>
      <trkpt lat="44.12914" lon="5.00775">
        <ele>184.19999694824</ele>
        <time>2019-03-23T10:30:09.000Z</time>
      </trkpt>
      <trkpt lat="44.12914" lon="5.00774">
        <ele>183.80000305176</ele>
        <time>2019-03-23T10:30:12.000Z</time>
      </trkpt>
      <trkpt lat="44.12914" lon="5.00761">
        <ele>183.80000305176</ele>
        <time>2019-03-23T10:30:20.000Z</time>
      </trkpt>
      <trkpt lat="44.1292" lon="5.00744">
        <ele>184</ele>
        <time>2019-03-23T10:30:30.000Z</time>
      </trkpt>
      <trkpt lat="44.12924" lon="5.00735">
        <ele>183.80000305176</ele>
        <time>2019-03-23T10:30:35.000Z</time>
      </trkpt>
      <trkpt lat="44.12926" lon="5.00731">
        <ele>183.60000610352</ele>
        <time>2019-03-23T10:30:38.000Z</time>
      </trkpt>
      <trkpt lat="44.12927" lon="5.00729">
        <ele>183.60000610352</ele>
        <time>2019-03-23T10:30:39.000Z</time>
      </trkpt>
      <trkpt lat="44.12931" lon="5.00721">
        <ele>183.19999694824</ele>
        <time>2019-03-23T10:30:44.000Z</time>
      </trkpt>
      <trkpt lat="44.12932" lon="5.00718">
        <ele>183</ele>
        <time>2019-03-23T10:30:46.000Z</time>
      </trkpt>
      <trkpt lat="44.12932" lon="5.00716">
        <ele>183</ele>
        <time>2019-03-23T10:30:47.000Z</time>
      </trkpt>
      <trkpt lat="44.12937" lon="5.00707">
        <ele>183.19999694824</ele>
        <time>2019-03-23T10:30:54.000Z</time>
      </trkpt>
      <trkpt lat="44.12943" lon="5.00698">
        <ele>183</ele>
        <time>2019-03-23T10:31:00.000Z</time>
      </trkpt>
      <trkpt lat="44.12944" lon="5.00696">
        <ele>183</ele>
        <time>2019-03-23T10:31:01.000Z</time>
      </trkpt>
      <trkpt lat="44.1295" lon="5.00682">
        <ele>182.39999389648</ele>
        <time>2019-03-23T10:31:11.000Z</time>
      </trkpt>
      <trkpt lat="44.1295" lon="5.00677">
        <ele>182.19999694824</ele>
        <time>2019-03-23T10:31:14.000Z</time>
      </trkpt>
      <trkpt lat="44.12954" lon="5.00672">
        <ele>182.19999694824</ele>
        <time>2019-03-23T10:31:19.000Z</time>
      </trkpt>
      <trkpt lat="44.12959" lon="5.00664">
        <ele>181.60000610352</ele>
        <time>2019-03-23T10:31:27.000Z</time>
      </trkpt>
      <trkpt lat="44.1296" lon="5.00657">
        <ele>181.60000610352</ele>
        <time>2019-03-23T10:31:31.000Z</time>
      </trkpt>
      <trkpt lat="44.12965" lon="5.00653">
        <ele>181.80000305176</ele>
        <time>2019-03-23T10:31:34.000Z</time>
      </trkpt>
      <trkpt lat="44.12974" lon="5.00644">
        <ele>181.60000610352</ele>
        <time>2019-03-23T10:31:43.000Z</time>
      </trkpt>
      <trkpt lat="44.12979" lon="5.00633">
        <ele>181.39999389648</ele>
        <time>2019-03-23T10:31:50.000Z</time>
      </trkpt>
      <trkpt lat="44.12982" lon="5.00629">
        <ele>181.19999694824</ele>
        <time>2019-03-23T10:31:53.000Z</time>
      </trkpt>
      <trkpt lat="44.12983" lon="5.00628">
        <ele>181</ele>
        <time>2019-03-23T10:31:54.000Z</time>
      </trkpt>
      <trkpt lat="44.12988" lon="5.00623">
        <ele>181</ele>
        <time>2019-03-23T10:31:58.000Z</time>
      </trkpt>
      <trkpt lat="44.12988" lon="5.00621">
        <ele>181</ele>
        <time>2019-03-23T10:31:59.000Z</time>
      </trkpt>
      <trkpt lat="44.1299" lon="5.00616">
        <ele>181</ele>
        <time>2019-03-23T10:32:02.000Z</time>
      </trkpt>
      <trkpt lat="44.12991" lon="5.00614">
        <ele>181</ele>
        <time>2019-03-23T10:32:03.000Z</time>
      </trkpt>
      <trkpt lat="44.12998" lon="5.00606">
        <ele>180.80000305176</ele>
        <time>2019-03-23T10:32:09.000Z</time>
      </trkpt>
      <trkpt lat="44.13" lon="5.00603">
        <ele>180.80000305176</ele>
        <time>2019-03-23T10:32:11.000Z</time>
      </trkpt>
      <trkpt lat="44.13009" lon="5.00593">
        <ele>180.39999389648</ele>
        <time>2019-03-23T10:32:18.000Z</time>
      </trkpt>
      <trkpt lat="44.13018" lon="5.00587">
        <ele>180.39999389648</ele>
        <time>2019-03-23T10:32:24.000Z</time>
      </trkpt>
      <trkpt lat="44.13026" lon="5.00582">
        <ele>180.19999694824</ele>
        <time>2019-03-23T10:32:30.000Z</time>
      </trkpt>
      <trkpt lat="44.13028" lon="5.00579">
        <ele>180.19999694824</ele>
        <time>2019-03-23T10:32:32.000Z</time>
      </trkpt>
      <trkpt lat="44.13029" lon="5.00577">
        <ele>180</ele>
        <time>2019-03-23T10:32:34.000Z</time>
      </trkpt>
      <trkpt lat="44.13031" lon="5.0057">
        <ele>180</ele>
        <time>2019-03-23T10:32:38.000Z</time>
      </trkpt>
      <trkpt lat="44.13032" lon="5.00568">
        <ele>179.80000305176</ele>
        <time>2019-03-23T10:32:40.000Z</time>
      </trkpt>
      <trkpt lat="44.13032" lon="5.00566">
        <ele>179.80000305176</ele>
        <time>2019-03-23T10:32:41.000Z</time>
      </trkpt>
      <trkpt lat="44.13033" lon="5.00564">
        <ele>179.80000305176</ele>
        <time>2019-03-23T10:32:42.000Z</time>
      </trkpt>
      <trkpt lat="44.13033" lon="5.00561">
        <ele>179.80000305176</ele>
        <time>2019-03-23T10:32:44.000Z</time>
      </trkpt>
      <trkpt lat="44.13037" lon="5.00553">
        <ele>179.60000610352</ele>
        <time>2019-03-23T10:32:50.000Z</time>
      </trkpt>
      <trkpt lat="44.13042" lon="5.00541">
        <ele>179.39999389648</ele>
        <time>2019-03-23T10:32:58.000Z</time>
      </trkpt>
      <trkpt lat="44.13042" lon="5.00539">
        <ele>179.39999389648</ele>
        <time>2019-03-23T10:32:59.000Z</time>
      </trkpt>
      <trkpt lat="44.13044" lon="5.00528">
        <ele>179.80000305176</ele>
        <time>2019-03-23T10:33:06.000Z</time>
      </trkpt>
      <trkpt lat="44.13046" lon="5.00523">
        <ele>180</ele>
        <time>2019-03-23T10:33:09.000Z</time>
      </trkpt>
      <trkpt lat="44.13048" lon="5.00516">
        <ele>179.80000305176</ele>
        <time>2019-03-23T10:33:13.000Z</time>
      </trkpt>
      <trkpt lat="44.13049" lon="5.00515">
        <ele>179.60000610352</ele>
        <time>2019-03-23T10:33:14.000Z</time>
      </trkpt>
      <trkpt lat="44.13054" lon="5.00504">
        <ele>179.19999694824</ele>
        <time>2019-03-23T10:33:20.000Z</time>
      </trkpt>
      <trkpt lat="44.13059" lon="5.00494">
        <ele>179.19999694824</ele>
        <time>2019-03-23T10:33:26.000Z</time>
      </trkpt>
      <trkpt lat="44.13061" lon="5.00491">
        <ele>179.19999694824</ele>
        <time>2019-03-23T10:33:28.000Z</time>
      </trkpt>
      <trkpt lat="44.13061" lon="5.00487">
        <ele>179.19999694824</ele>
        <time>2019-03-23T10:33:30.000Z</time>
      </trkpt>
      <trkpt lat="44.13062" lon="5.00485">
        <ele>179.19999694824</ele>
        <time>2019-03-23T10:33:31.000Z</time>
      </trkpt>
      <trkpt lat="44.13065" lon="5.00479">
        <ele>179.19999694824</ele>
        <time>2019-03-23T10:33:35.000Z</time>
      </trkpt>
      <trkpt lat="44.13067" lon="5.00476">
        <ele>179.19999694824</ele>
        <time>2019-03-23T10:33:37.000Z</time>
      </trkpt>
      <trkpt lat="44.13069" lon="5.00472">
        <ele>179</ele>
        <time>2019-03-23T10:33:40.000Z</time>
      </trkpt>
      <trkpt lat="44.13075" lon="5.00465">
        <ele>178.80000305176</ele>
        <time>2019-03-23T10:33:45.000Z</time>
      </trkpt>
      <trkpt lat="44.13076" lon="5.00464">
        <ele>178.80000305176</ele>
        <time>2019-03-23T10:33:46.000Z</time>
      </trkpt>
      <trkpt lat="44.13079" lon="5.00461">
        <ele>178.80000305176</ele>
        <time>2019-03-23T10:33:49.000Z</time>
      </trkpt>
      <trkpt lat="44.13081" lon="5.00456">
        <ele>178.80000305176</ele>
        <time>2019-03-23T10:33:52.000Z</time>
      </trkpt>
      <trkpt lat="44.13083" lon="5.00447">
        <ele>179.19999694824</ele>
        <time>2019-03-23T10:33:58.000Z</time>
      </trkpt>
      <trkpt lat="44.13089" lon="5.00435">
        <ele>178.39999389648</ele>
        <time>2019-03-23T10:34:07.000Z</time>
      </trkpt>
      <trkpt lat="44.13093" lon="5.00429">
        <ele>178.19999694824</ele>
        <time>2019-03-23T10:34:11.000Z</time>
      </trkpt>
      <trkpt lat="44.13097" lon="5.00422">
        <ele>178.19999694824</ele>
        <time>2019-03-23T10:34:16.000Z</time>
      </trkpt>
      <trkpt lat="44.13098" lon="5.00421">
        <ele>178</ele>
        <time>2019-03-23T10:34:17.000Z</time>
      </trkpt>
      <trkpt lat="44.13099" lon="5.00418">
        <ele>178</ele>
        <time>2019-03-23T10:34:19.000Z</time>
      </trkpt>
      <trkpt lat="44.131" lon="5.00416">
        <ele>178</ele>
        <time>2019-03-23T10:34:20.000Z</time>
      </trkpt>
      <trkpt lat="44.13106" lon="5.00413">
        <ele>177.80000305176</ele>
        <time>2019-03-23T10:34:24.000Z</time>
      </trkpt>
      <trkpt lat="44.1311" lon="5.00402">
        <ele>177.80000305176</ele>
        <time>2019-03-23T10:34:33.000Z</time>
      </trkpt>
      <trkpt lat="44.13108" lon="5.00399">
        <ele>177.60000610352</ele>
        <time>2019-03-23T10:34:36.000Z</time>
      </trkpt>
      <trkpt lat="44.13109" lon="5.00398">
        <ele>177.39999389648</ele>
        <time>2019-03-23T10:34:38.000Z</time>
      </trkpt>
      <trkpt lat="44.13112" lon="5.00396">
        <ele>177.19999694824</ele>
        <time>2019-03-23T10:34:40.000Z</time>
      </trkpt>
      <trkpt lat="44.13116" lon="5.00393">
        <ele>177</ele>
        <time>2019-03-23T10:34:43.000Z</time>
      </trkpt>
      <trkpt lat="44.13118" lon="5.00387">
        <ele>176.60000610352</ele>
        <time>2019-03-23T10:34:47.000Z</time>
      </trkpt>
      <trkpt lat="44.13119" lon="5.00386">
        <ele>176.60000610352</ele>
        <time>2019-03-23T10:34:48.000Z</time>
      </trkpt>
      <trkpt lat="44.1312" lon="5.00383">
        <ele>176.39999389648</ele>
        <time>2019-03-23T10:34:50.000Z</time>
      </trkpt>
      <trkpt lat="44.13124" lon="5.00378">
        <ele>176</ele>
        <time>2019-03-23T10:34:55.000Z</time>
      </trkpt>
      <trkpt lat="44.13127" lon="5.00375">
        <ele>175.80000305176</ele>
        <time>2019-03-23T10:34:57.000Z</time>
      </trkpt>
      <trkpt lat="44.1313" lon="5.00372">
        <ele>176</ele>
        <time>2019-03-23T10:35:00.000Z</time>
      </trkpt>
      <trkpt lat="44.1313" lon="5.00371">
        <ele>176.19999694824</ele>
        <time>2019-03-23T10:35:02.000Z</time>
      </trkpt>
      <trkpt lat="44.13129" lon="5.00371">
        <ele>176.39999389648</ele>
        <time>2019-03-23T10:35:03.000Z</time>
      </trkpt>
      <trkpt lat="44.13128" lon="5.00372">
        <ele>176.60000610352</ele>
        <time>2019-03-23T10:35:05.000Z</time>
      </trkpt>
      <trkpt lat="44.13125" lon="5.00371">
        <ele>176.60000610352</ele>
        <time>2019-03-23T10:35:09.000Z</time>
      </trkpt>
      <trkpt lat="44.13125" lon="5.00371">
        <ele>176.60000610352</ele>
        <time>2019-03-23T10:35:10.000Z</time>
      </trkpt>
      <trkpt lat="44.13126" lon="5.00371">
        <ele>176.39999389648</ele>
        <time>2019-03-23T10:35:12.000Z</time>
      </trkpt>
      <trkpt lat="44.13127" lon="5.00372">
        <ele>176.19999694824</ele>
        <time>2019-03-23T10:35:15.000Z</time>
      </trkpt>
      <trkpt lat="44.13128" lon="5.00373">
        <ele>175.60000610352</ele>
        <time>2019-03-23T10:35:24.000Z</time>
      </trkpt>
      <trkpt lat="44.13128" lon="5.00374">
        <ele>175.60000610352</ele>
        <time>2019-03-23T10:35:26.000Z</time>
      </trkpt>
      <trkpt lat="44.13128" lon="5.00374">
        <ele>175.39999389648</ele>
        <time>2019-03-23T10:35:30.000Z</time>
      </trkpt>
      <trkpt lat="44.13129" lon="5.00375">
        <ele>175.60000610352</ele>
        <time>2019-03-23T10:35:33.000Z</time>
      </trkpt>
      <trkpt lat="44.1313" lon="5.00375">
        <ele>175.60000610352</ele>
        <time>2019-03-23T10:35:41.000Z</time>
      </trkpt>
      <trkpt lat="44.13132" lon="5.00369">
        <ele>176.19999694824</ele>
        <time>2019-03-23T10:35:47.000Z</time>
      </trkpt>
      <trkpt lat="44.13132" lon="5.00362">
        <ele>176.39999389648</ele>
        <time>2019-03-23T10:35:52.000Z</time>
      </trkpt>
      <trkpt lat="44.13133" lon="5.0036">
        <ele>176.39999389648</ele>
        <time>2019-03-23T10:35:54.000Z</time>
      </trkpt>
      <trkpt lat="44.13136" lon="5.00352">
        <ele>176.39999389648</ele>
        <time>2019-03-23T10:35:59.000Z</time>
      </trkpt>
      <trkpt lat="44.13139" lon="5.00348">
        <ele>176.39999389648</ele>
        <time>2019-03-23T10:36:02.000Z</time>
      </trkpt>
      <trkpt lat="44.1314" lon="5.00339">
        <ele>176.19999694824</ele>
        <time>2019-03-23T10:36:10.000Z</time>
      </trkpt>
      <trkpt lat="44.1314" lon="5.00338">
        <ele>176</ele>
        <time>2019-03-23T10:36:11.000Z</time>
      </trkpt>
      <trkpt lat="44.13139" lon="5.00335">
        <ele>176</ele>
        <time>2019-03-23T10:36:14.000Z</time>
      </trkpt>
      <trkpt lat="44.13137" lon="5.0033">
        <ele>176.39999389648</ele>
        <time>2019-03-23T10:36:18.000Z</time>
      </trkpt>
      <trkpt lat="44.13136" lon="5.0033">
        <ele>176.39999389648</ele>
        <time>2019-03-23T10:36:19.000Z</time>
      </trkpt>
      <trkpt lat="44.13136" lon="5.00329">
        <ele>176.39999389648</ele>
        <time>2019-03-23T10:36:20.000Z</time>
      </trkpt>
      <trkpt lat="44.13134" lon="5.00324">
        <ele>176.19999694824</ele>
        <time>2019-03-23T10:36:25.000Z</time>
      </trkpt>
      <trkpt lat="44.13133" lon="5.00321">
        <ele>176.19999694824</ele>
        <time>2019-03-23T10:36:27.000Z</time>
      </trkpt>
      <trkpt lat="44.13133" lon="5.00318">
        <ele>176.39999389648</ele>
        <time>2019-03-23T10:36:29.000Z</time>
      </trkpt>
      <trkpt lat="44.13133" lon="5.00316">
        <ele>176.39999389648</ele>
        <time>2019-03-23T10:36:31.000Z</time>
      </trkpt>
      <trkpt lat="44.13135" lon="5.00312">
        <ele>176.39999389648</ele>
        <time>2019-03-23T10:36:35.000Z</time>
      </trkpt>
      <trkpt lat="44.13135" lon="5.00309">
        <ele>176.39999389648</ele>
        <time>2019-03-23T10:36:37.000Z</time>
      </trkpt>
      <trkpt lat="44.13135" lon="5.00307">
        <ele>176.39999389648</ele>
        <time>2019-03-23T10:36:38.000Z</time>
      </trkpt>
      <trkpt lat="44.13138" lon="5.00295">
        <ele>176.19999694824</ele>
        <time>2019-03-23T10:36:45.000Z</time>
      </trkpt>
      <trkpt lat="44.13139" lon="5.00294">
        <ele>176.19999694824</ele>
        <time>2019-03-23T10:36:46.000Z</time>
      </trkpt>
      <trkpt lat="44.13144" lon="5.00285">
        <ele>176</ele>
        <time>2019-03-23T10:36:52.000Z</time>
      </trkpt>
      <trkpt lat="44.13145" lon="5.00282">
        <ele>176.19999694824</ele>
        <time>2019-03-23T10:36:54.000Z</time>
      </trkpt>
      <trkpt lat="44.13148" lon="5.00277">
        <ele>176.19999694824</ele>
        <time>2019-03-23T10:36:57.000Z</time>
      </trkpt>
      <trkpt lat="44.13153" lon="5.00272">
        <ele>176</ele>
        <time>2019-03-23T10:37:01.000Z</time>
      </trkpt>
      <trkpt lat="44.13156" lon="5.00266">
        <ele>176</ele>
        <time>2019-03-23T10:37:05.000Z</time>
      </trkpt>
      <trkpt lat="44.13158" lon="5.00259">
        <ele>175.80000305176</ele>
        <time>2019-03-23T10:37:10.000Z</time>
      </trkpt>
      <trkpt lat="44.13159" lon="5.00255">
        <ele>175.60000610352</ele>
        <time>2019-03-23T10:37:12.000Z</time>
      </trkpt>
      <trkpt lat="44.13161" lon="5.00252">
        <ele>175.60000610352</ele>
        <time>2019-03-23T10:37:14.000Z</time>
      </trkpt>
      <trkpt lat="44.13161" lon="5.00248">
        <ele>175.80000305176</ele>
        <time>2019-03-23T10:37:17.000Z</time>
      </trkpt>
      <trkpt lat="44.13161" lon="5.00246">
        <ele>175.80000305176</ele>
        <time>2019-03-23T10:37:18.000Z</time>
      </trkpt>
      <trkpt lat="44.13161" lon="5.00245">
        <ele>175.80000305176</ele>
        <time>2019-03-23T10:37:19.000Z</time>
      </trkpt>
      <trkpt lat="44.13161" lon="5.00244">
        <ele>176</ele>
        <time>2019-03-23T10:37:20.000Z</time>
      </trkpt>
      <trkpt lat="44.1316" lon="5.00242">
        <ele>176</ele>
        <time>2019-03-23T10:37:24.000Z</time>
      </trkpt>
      <trkpt lat="44.13166" lon="5.00235">
        <ele>175.60000610352</ele>
        <time>2019-03-23T10:37:33.000Z</time>
      </trkpt>
      <trkpt lat="44.13167" lon="5.00233">
        <ele>175.39999389648</ele>
        <time>2019-03-23T10:37:34.000Z</time>
      </trkpt>
      <trkpt lat="44.13178" lon="5.0022">
        <ele>176</ele>
        <time>2019-03-23T10:37:46.000Z</time>
      </trkpt>
      <trkpt lat="44.13182" lon="5.00218">
        <ele>176.60000610352</ele>
        <time>2019-03-23T10:37:52.000Z</time>
      </trkpt>
      <trkpt lat="44.13182" lon="5.00217">
        <ele>176.80000305176</ele>
        <time>2019-03-23T10:37:56.000Z</time>
      </trkpt>
      <trkpt lat="44.13184" lon="5.00217">
        <ele>177</ele>
        <time>2019-03-23T10:38:00.000Z</time>
      </trkpt>
      <trkpt lat="44.13191" lon="5.00214">
        <ele>177.39999389648</ele>
        <time>2019-03-23T10:38:06.000Z</time>
      </trkpt>
      <trkpt lat="44.13196" lon="5.00212">
        <ele>178.19999694824</ele>
        <time>2019-03-23T10:38:10.000Z</time>
      </trkpt>
      <trkpt lat="44.13201" lon="5.00211">
        <ele>179.19999694824</ele>
        <time>2019-03-23T10:38:14.000Z</time>
      </trkpt>
      <trkpt lat="44.13203" lon="5.00209">
        <ele>179.60000610352</ele>
        <time>2019-03-23T10:38:17.000Z</time>
      </trkpt>
      <trkpt lat="44.13206" lon="5.00207">
        <ele>180</ele>
        <time>2019-03-23T10:38:20.000Z</time>
      </trkpt>
      <trkpt lat="44.13211" lon="5.00205">
        <ele>180.39999389648</ele>
        <time>2019-03-23T10:38:24.000Z</time>
      </trkpt>
      <trkpt lat="44.13216" lon="5.00202">
        <ele>181.19999694824</ele>
        <time>2019-03-23T10:38:29.000Z</time>
      </trkpt>
      <trkpt lat="44.13218" lon="5.00201">
        <ele>181.39999389648</ele>
        <time>2019-03-23T10:38:31.000Z</time>
      </trkpt>
      <trkpt lat="44.1322" lon="5.002">
        <ele>181.80000305176</ele>
        <time>2019-03-23T10:38:33.000Z</time>
      </trkpt>
      <trkpt lat="44.13228" lon="5.00199">
        <ele>182.39999389648</ele>
        <time>2019-03-23T10:38:42.000Z</time>
      </trkpt>
      <trkpt lat="44.13229" lon="5.00198">
        <ele>182.39999389648</ele>
        <time>2019-03-23T10:38:43.000Z</time>
      </trkpt>
      <trkpt lat="44.13241" lon="5.00195">
        <ele>183.60000610352</ele>
        <time>2019-03-23T10:38:53.000Z</time>
      </trkpt>
      <trkpt lat="44.13243" lon="5.00194">
        <ele>183.80000305176</ele>
        <time>2019-03-23T10:38:55.000Z</time>
      </trkpt>
      <trkpt lat="44.13252" lon="5.00193">
        <ele>184.19999694824</ele>
        <time>2019-03-23T10:39:02.000Z</time>
      </trkpt>
      <trkpt lat="44.13254" lon="5.00191">
        <ele>184.80000305176</ele>
        <time>2019-03-23T10:39:05.000Z</time>
      </trkpt>
      <trkpt lat="44.13257" lon="5.00189">
        <ele>184.80000305176</ele>
        <time>2019-03-23T10:39:09.000Z</time>
      </trkpt>
      <trkpt lat="44.1326" lon="5.00187">
        <ele>184.80000305176</ele>
        <time>2019-03-23T10:39:12.000Z</time>
      </trkpt>
      <trkpt lat="44.13278" lon="5.00177">
        <ele>185.80000305176</ele>
        <time>2019-03-23T10:39:27.000Z</time>
      </trkpt>
      <trkpt lat="44.1328" lon="5.00176">
        <ele>185.80000305176</ele>
        <time>2019-03-23T10:39:29.000Z</time>
      </trkpt>
      <trkpt lat="44.13295" lon="5.00172">
        <ele>186.39999389648</ele>
        <time>2019-03-23T10:39:43.000Z</time>
      </trkpt>
      <trkpt lat="44.13298" lon="5.00171">
        <ele>186.80000305176</ele>
        <time>2019-03-23T10:39:46.000Z</time>
      </trkpt>
      <trkpt lat="44.13309" lon="5.00165">
        <ele>187.19999694824</ele>
        <time>2019-03-23T10:39:56.000Z</time>
      </trkpt>
      <trkpt lat="44.13314" lon="5.00163">
        <ele>187.39999389648</ele>
        <time>2019-03-23T10:40:00.000Z</time>
      </trkpt>
      <trkpt lat="44.13318" lon="5.00161">
        <ele>187.80000305176</ele>
        <time>2019-03-23T10:40:03.000Z</time>
      </trkpt>
      <trkpt lat="44.13333" lon="5.00151">
        <ele>188.39999389648</ele>
        <time>2019-03-23T10:40:15.000Z</time>
      </trkpt>
      <trkpt lat="44.13342" lon="5.00143">
        <ele>188.80000305176</ele>
        <time>2019-03-23T10:40:24.000Z</time>
      </trkpt>
      <trkpt lat="44.13348" lon="5.00138">
        <ele>189.39999389648</ele>
        <time>2019-03-23T10:40:29.000Z</time>
      </trkpt>
      <trkpt lat="44.1335" lon="5.00137">
        <ele>189.39999389648</ele>
        <time>2019-03-23T10:40:31.000Z</time>
      </trkpt>
      <trkpt lat="44.13352" lon="5.00134">
        <ele>189.39999389648</ele>
        <time>2019-03-23T10:40:34.000Z</time>
      </trkpt>
      <trkpt lat="44.13359" lon="5.00126">
        <ele>189.39999389648</ele>
        <time>2019-03-23T10:40:40.000Z</time>
      </trkpt>
      <trkpt lat="44.1336" lon="5.00125">
        <ele>189.39999389648</ele>
        <time>2019-03-23T10:40:41.000Z</time>
      </trkpt>
      <trkpt lat="44.13366" lon="5.00121">
        <ele>189.60000610352</ele>
        <time>2019-03-23T10:40:47.000Z</time>
      </trkpt>
      <trkpt lat="44.13369" lon="5.0012">
        <ele>190</ele>
        <time>2019-03-23T10:40:50.000Z</time>
      </trkpt>
      <trkpt lat="44.13373" lon="5.00117">
        <ele>190</ele>
        <time>2019-03-23T10:40:53.000Z</time>
      </trkpt>
      <trkpt lat="44.13383" lon="5.00106">
        <ele>190.60000610352</ele>
        <time>2019-03-23T10:41:03.000Z</time>
      </trkpt>
      <trkpt lat="44.13389" lon="5.001">
        <ele>190.80000305176</ele>
        <time>2019-03-23T10:41:08.000Z</time>
      </trkpt>
      <trkpt lat="44.13393" lon="5.00095">
        <ele>191</ele>
        <time>2019-03-23T10:41:12.000Z</time>
      </trkpt>
      <trkpt lat="44.13403" lon="5.00089">
        <ele>191.19999694824</ele>
        <time>2019-03-23T10:41:20.000Z</time>
      </trkpt>
      <trkpt lat="44.13408" lon="5.00084">
        <ele>191.80000305176</ele>
        <time>2019-03-23T10:41:25.000Z</time>
      </trkpt>
      <trkpt lat="44.13412" lon="5.0008">
        <ele>191.80000305176</ele>
        <time>2019-03-23T10:41:29.000Z</time>
      </trkpt>
      <trkpt lat="44.13414" lon="5.00078">
        <ele>191.60000610352</ele>
        <time>2019-03-23T10:41:32.000Z</time>
      </trkpt>
      <trkpt lat="44.13428" lon="5.00065">
        <ele>191.39999389648</ele>
        <time>2019-03-23T10:41:43.000Z</time>
      </trkpt>
      <trkpt lat="44.13435" lon="5.00056">
        <ele>191</ele>
        <time>2019-03-23T10:41:50.000Z</time>
      </trkpt>
      <trkpt lat="44.13439" lon="5.00053">
        <ele>190.80000305176</ele>
        <time>2019-03-23T10:41:54.000Z</time>
      </trkpt>
      <trkpt lat="44.13438" lon="5.00051">
        <ele>191</ele>
        <time>2019-03-23T10:41:56.000Z</time>
      </trkpt>
      <trkpt lat="44.13438" lon="5.00051">
        <ele>191</ele>
        <time>2019-03-23T10:41:57.000Z</time>
      </trkpt>
      <trkpt lat="44.13438" lon="5.00051">
        <ele>190.80000305176</ele>
        <time>2019-03-23T10:41:59.000Z</time>
      </trkpt>
      <trkpt lat="44.13439" lon="5.0005">
        <ele>190.39999389648</ele>
        <time>2019-03-23T10:42:04.000Z</time>
      </trkpt>
      <trkpt lat="44.13439" lon="5.0005">
        <ele>190.19999694824</ele>
        <time>2019-03-23T10:42:06.000Z</time>
      </trkpt>
      <trkpt lat="44.13438" lon="5.0005">
        <ele>190</ele>
        <time>2019-03-23T10:42:09.000Z</time>
      </trkpt>
      <trkpt lat="44.13442" lon="5.00053">
        <ele>189.80000305176</ele>
        <time>2019-03-23T10:42:13.000Z</time>
      </trkpt>
      <trkpt lat="44.13444" lon="5.00054">
        <ele>189.60000610352</ele>
        <time>2019-03-23T10:42:14.000Z</time>
      </trkpt>
      <trkpt lat="44.13446" lon="5.00055">
        <ele>189.60000610352</ele>
        <time>2019-03-23T10:42:16.000Z</time>
      </trkpt>
      <trkpt lat="44.13448" lon="5.00055">
        <ele>189.80000305176</ele>
        <time>2019-03-23T10:42:17.000Z</time>
        <extensions>
          <visugpx:TrkExtension xmlns:visugpx="https://www.visugpx.com/editgpx/">
            <visugpx:node>1</visugpx:node>
            </visugpx:TrkExtension>
        </extensions>
      </trkpt>
      <trkpt lat="44.13449" lon="5.00056">
        <ele>139</ele>
      </trkpt>
      <trkpt lat="44.13453" lon="5.00056">
        <ele>139</ele>
      </trkpt>
      <trkpt lat="44.13462" lon="5.00054">
        <ele>139</ele>
      </trkpt>
      <trkpt lat="44.13467" lon="5.00051">
        <ele>138.9</ele>
      </trkpt>
      <trkpt lat="44.13502" lon="5.00023">
        <ele>137.7</ele>
      </trkpt>
      <trkpt lat="44.13522" lon="5.0001">
        <ele>136.7</ele>
      </trkpt>
      <trkpt lat="44.13566" lon="4.99978">
        <ele>134.9</ele>
      </trkpt>
      <trkpt lat="44.13599" lon="4.99952">
        <ele>134</ele>
      </trkpt>
      <trkpt lat="44.13609" lon="4.99946">
        <ele>134</ele>
      </trkpt>
      <trkpt lat="44.13615" lon="4.99947">
        <ele>134.1</ele>
      </trkpt>
      <trkpt lat="44.13617" lon="4.99949">
        <ele>134.2</ele>
      </trkpt>
      <trkpt lat="44.13627" lon="4.99964">
        <ele>135.1</ele>
      </trkpt>
      <trkpt lat="44.13635" lon="4.99969">
        <ele>135.6</ele>
      </trkpt>
      <trkpt lat="44.1364" lon="4.99969">
        <ele>135.8</ele>
      </trkpt>
      <trkpt lat="44.13651" lon="4.99965">
        <ele>136.4</ele>
      </trkpt>
      <trkpt lat="44.13662" lon="4.99955">
        <ele>136.4</ele>
      </trkpt>
      <trkpt lat="44.13711" lon="4.99907">
        <ele>136.4</ele>
      </trkpt>
      <trkpt lat="44.13732" lon="4.99889">
        <ele>136.1</ele>
      </trkpt>
      <trkpt lat="44.13744" lon="4.99878">
        <ele>136.3</ele>
      </trkpt>
      <trkpt lat="44.13792" lon="4.99835">
        <ele>136.1</ele>
      </trkpt>
      <trkpt lat="44.13801" lon="4.99832">
        <ele>136.6</ele>
      </trkpt>
      <trkpt lat="44.13805" lon="4.9983">
        <ele>136.7</ele>
      </trkpt>
      <trkpt lat="44.13809" lon="4.99832">
        <ele>137.3</ele>
      </trkpt>
      <trkpt lat="44.13811" lon="4.99824">
        <ele>137</ele>
      </trkpt>
      <trkpt lat="44.13813" lon="4.99819">
        <ele>136.9</ele>
      </trkpt>
      <trkpt lat="44.13814" lon="4.99812">
        <ele>136.6</ele>
      </trkpt>
      <trkpt lat="44.13817" lon="4.99793">
        <ele>135.7</ele>
        <extensions>
          <visugpx:TrkExtension xmlns:visugpx="https://www.visugpx.com/editgpx/">
            <visugpx:node>2</visugpx:node>
            </visugpx:TrkExtension>
        </extensions>
      </trkpt>
      <trkpt lat="44.13827" lon="4.99731">
        <ele>134.4</ele>
      </trkpt>
      <trkpt lat="44.1383" lon="4.99723">
        <ele>134.5</ele>
      </trkpt>
      <trkpt lat="44.13832" lon="4.99673">
        <ele>133</ele>
      </trkpt>
      <trkpt lat="44.13836" lon="4.99606">
        <ele>131.8</ele>
      </trkpt>
      <trkpt lat="44.13847" lon="4.99528">
        <ele>130</ele>
      </trkpt>
      <trkpt lat="44.13848" lon="4.99518">
        <ele>130.1</ele>
      </trkpt>
      <trkpt lat="44.13865" lon="4.99343">
        <ele>135.3</ele>
      </trkpt>
      <trkpt lat="44.13867" lon="4.99331">
        <ele>136.1</ele>
      </trkpt>
      <trkpt lat="44.13867" lon="4.99316">
        <ele>137</ele>
      </trkpt>
      <trkpt lat="44.13866" lon="4.99301">
        <ele>137.6</ele>
      </trkpt>
      <trkpt lat="44.13859" lon="4.99211">
        <ele>137.4</ele>
      </trkpt>
      <trkpt lat="44.13851" lon="4.99111">
        <ele>138</ele>
      </trkpt>
      <trkpt lat="44.13849" lon="4.99094">
        <ele>138.3</ele>
      </trkpt>
      <trkpt lat="44.13848" lon="4.99087">
        <ele>138.5</ele>
      </trkpt>
      <trkpt lat="44.13848" lon="4.99059">
        <ele>136.5</ele>
      </trkpt>
      <trkpt lat="44.13856" lon="4.99034">
        <ele>133.2</ele>
      </trkpt>
      <trkpt lat="44.13891" lon="4.98965">
        <ele>127.3</ele>
      </trkpt>
      <trkpt lat="44.13894" lon="4.9896">
        <ele>126.9</ele>
      </trkpt>
      <trkpt lat="44.13896" lon="4.98957">
        <ele>126.8</ele>
      </trkpt>
      <trkpt lat="44.13905" lon="4.98938">
        <ele>125.9</ele>
      </trkpt>
      <trkpt lat="44.13909" lon="4.98928">
        <ele>126</ele>
      </trkpt>
      <trkpt lat="44.13911" lon="4.98918">
        <ele>126</ele>
      </trkpt>
      <trkpt lat="44.13911" lon="4.98912">
        <ele>125.9</ele>
      </trkpt>
      <trkpt lat="44.13908" lon="4.98902">
        <ele>125.2</ele>
      </trkpt>
      <trkpt lat="44.13884" lon="4.98861">
        <ele>124.5</ele>
      </trkpt>
      <trkpt lat="44.13883" lon="4.9886">
        <ele>124.4</ele>
      </trkpt>
      <trkpt lat="44.13867" lon="4.98832">
        <ele>124.5</ele>
      </trkpt>
      <trkpt lat="44.1385" lon="4.98804">
        <ele>124.2</ele>
      </trkpt>
      <trkpt lat="44.13839" lon="4.98785">
        <ele>124</ele>
      </trkpt>
      <trkpt lat="44.13837" lon="4.98777">
        <ele>124.1</ele>
      </trkpt>
      <trkpt lat="44.13833" lon="4.98763">
        <ele>124</ele>
      </trkpt>
      <trkpt lat="44.13831" lon="4.98729">
        <ele>124</ele>
      </trkpt>
      <trkpt lat="44.13832" lon="4.98714">
        <ele>123.7</ele>
      </trkpt>
      <trkpt lat="44.13832" lon="4.98692">
        <ele>122.9</ele>
      </trkpt>
      <trkpt lat="44.13832" lon="4.98685">
        <ele>122.7</ele>
      </trkpt>
      <trkpt lat="44.13834" lon="4.98647">
        <ele>121.3</ele>
      </trkpt>
      <trkpt lat="44.13834" lon="4.98625">
        <ele>121</ele>
      </trkpt>
      <trkpt lat="44.13835" lon="4.98535">
        <ele>119</ele>
      </trkpt>
      <trkpt lat="44.13838" lon="4.98504">
        <ele>118.1</ele>
      </trkpt>
      <trkpt lat="44.1384" lon="4.98481">
        <ele>117.5</ele>
      </trkpt>
      <trkpt lat="44.13859" lon="4.98351">
        <ele>115.3</ele>
      </trkpt>
      <trkpt lat="44.1386" lon="4.98331">
        <ele>116</ele>
      </trkpt>
      <trkpt lat="44.13857" lon="4.98304">
        <ele>116.3</ele>
      </trkpt>
      <trkpt lat="44.13852" lon="4.98307">
        <ele>116.3</ele>
      </trkpt>
      <trkpt lat="44.1385" lon="4.98298">
        <ele>117.2</ele>
      </trkpt>
      <trkpt lat="44.13849" lon="4.98292">
        <ele>117.9</ele>
      </trkpt>
      <trkpt lat="44.13848" lon="4.98287">
        <ele>118.5</ele>
      </trkpt>
      <trkpt lat="44.13844" lon="4.98282">
        <ele>119.2</ele>
      </trkpt>
      <trkpt lat="44.13842" lon="4.9826">
        <ele>123.5</ele>
      </trkpt>
      <trkpt lat="44.13843" lon="4.98257">
        <ele>124.1</ele>
      </trkpt>
      <trkpt lat="44.13848" lon="4.98258">
        <ele>123.7</ele>
        <extensions>
          <visugpx:TrkExtension xmlns:visugpx="https://www.visugpx.com/editgpx/">
            <visugpx:node>3</visugpx:node>
            </visugpx:TrkExtension>
        </extensions>
      </trkpt>
    </trkseg>
  </trk>
</gpx>